# Wetter Temperatur Luftdruck Luftfeuchtigkeit Sichtweite Windgeschwindigkeit Windrichtung Zeit
1 Clouds 2 1014 100 10000 2.06 300 13:45 22.04.2021
2 Clouds 2 1014 100 10000 2.06 300 13:23 22.04.2021
3 Mist 2 1015 100 3800 2.06 280 12:54 22.04.2021
4 Mist 2 1015 100 3800 2.06 280 12:36 22.04.2021
5 Mist 2 1015 100 3800 2.06 280 12:18 22.04.2021
6 Fog 2 1015 93 800 1.54 260 11:40 22.04.2021
7 Fog 2 1015 93 800 1.54 260 11:19 22.04.2021
8 Clear 2 1015 100 10000 1.54 270 10:40 22.04.2021
9 Clear 2 1015 100 10000 1.54 270 10:19 22.04.2021
10 Clouds 2 1015 100 10000 0.51 0 09:36 22.04.2021
11 Clear 3 1016 93 10000 1.03 0 08:52 22.04.2021
12 Clear 3 1016 93 10000 1.03 0 08:23 22.04.2021
13 Clear 4 1016 93 10000 1.54 310 07:54 22.04.2021
14 Clear 4 1016 93 10000 1.54 310 07:31 22.04.2021
15 Clear 4 1016 93 10000 1.54 290 06:46 22.04.2021
16 Clear 4 1016 93 10000 1.54 290 06:18 22.04.2021
17 Clear 5 1016 93 10000 2.06 300 05:23 22.04.2021
18 Clouds 10 1016 62 10000 2.57 270 02:25 22.04.2021
19 Clouds 12 1015 62 10000 6.69 280 23:59 21.04.2021
20 Clouds 12 1015 62 10000 6.69 280 23:39 21.04.2021
21 Clouds 12 1015 62 10000 6.69 280 23:19 21.04.2021
22 Clouds 13 1015 58 10000 4.63 300 22:40 21.04.2021
23 Clouds 13 1015 58 10000 4.63 300 22:19 21.04.2021
24 Clouds 13 1015 54 10000 4.63 300 21:41 21.04.2021
25 Clouds 13 1015 54 10000 4.63 300 21:19 21.04.2021
26 Clouds 13 1015 54 10000 2.57 0 20:31 21.04.2021
27 Clouds 12 1013 52 10000 3.17 247 19:49 21.04.2021
28 Clouds 12 1016 66 10000 4.12 0 19:27 21.04.2021
29 Clouds 12 1016 66 10000 4.12 0 18:52 21.04.2021
30 Clouds 12 1016 66 10000 4.12 0 18:52 21.04.2021
31 Clouds 12 1016 66 10000 4.12 0 18:34 21.04.2021
32 Clouds 10 1016 81 10000 3.6 310 17:59 21.04.2021
33 Clouds 10 1016 81 10000 3.6 310 17:39 21.04.2021
34 Clouds 10 1016 81 10000 3.6 310 17:20 21.04.2021
35 Clouds 9 1016 87 10000 3.6 310 16:38 21.04.2021
36 Clouds 8 1017 93 10000 2.57 280 15:47 21.04.2021
37 Clouds 8 1017 93 10000 2.57 280 15:21 21.04.2021
38 Clouds 7 1016 100 10000 1.03 0 14:44 21.04.2021
39 Clouds 7 1016 100 10000 1.03 0 14:24 21.04.2021
40 Clouds 7 1016 100 10000 2.57 280 13:49 21.04.2021
41 Clouds 7 1016 100 10000 2.57 280 13:21 21.04.2021
42 Clouds 7 1016 100 10000 1.54 230 12:41 21.04.2021
43 Clouds 7 1016 100 10000 1.54 230 12:18 21.04.2021
44 Clouds 7 1015 100 10000 2.57 290 11:41 21.04.2021
45 Clouds 7 1015 100 10000 2.57 290 11:41 21.04.2021
46 Clouds 7 1015 100 10000 2.57 290 11:22 21.04.2021
47 Clouds 8 1015 93 10000 2.06 300 10:39 21.04.2021
48 Rain 8 1015 93 10000 2.57 280 09:56 21.04.2021
49 Rain 8 1015 93 10000 2.57 280 09:20 21.04.2021
50 Rain 8 1014 100 10000 1.54 310 08:44 21.04.2021
51 Rain 8 1014 100 10000 1.54 310 08:23 21.04.2021
52 Rain 9 1014 93 10000 2.57 290 07:50 21.04.2021
53 Rain 9 1014 93 10000 2.57 290 07:26 21.04.2021
54 Rain 9 1013 93 10000 1.54 180 05:53 21.04.2021
55 Clouds 9 1014 93 10000 1.14 226 01:50 21.04.2021
56 Clouds 9 1014 93 10000 1.54 270 00:19 21.04.2021
57 Clouds 9 1014 93 10000 1.54 270 23:38 20.04.2021
58 Rain 9 1014 93 9000 1.54 0 22:45 20.04.2021
59 Rain 9 1014 93 9000 1.54 0 22:23 20.04.2021
60 Rain 9 1014 93 9000 1.54 270 21:49 20.04.2021
61 Rain 9 1014 93 9000 1.54 270 21:28 20.04.2021
62 Rain 9 1014 93 7000 1.46 194 20:58 20.04.2021
63 Rain 9 1014 93 7000 1.46 194 20:38 20.04.2021
64 Rain 9 1014 93 7000 1.3 187 20:18 20.04.2021
65 Rain 9 1015 93 4000 1.45 184 19:44 20.04.2021
66 Rain 9 1015 93 4000 1.29 178 19:26 20.04.2021
67 Rain 9 1015 93 4000 1.29 178 18:41 20.04.2021
68 Rain 9 1015 93 4000 1.12 176 18:21 20.04.2021
69 Rain 8 1015 93 4000 1.12 176 17:39 20.04.2021
70 Rain 8 1015 100 4000 1.07 195 16:50 20.04.2021
71 Rain 8 1015 93 4000 1.34 187 15:53 20.04.2021
72 Rain 8 1015 93 4000 1.28 201 15:30 20.04.2021
73 Rain 7 1015 100 10000 1.28 201 14:58 20.04.2021
74 Rain 7 1015 100 10000 1.28 201 14:35 20.04.2021
75 Rain 7 1014 100 10000 1.19 210 13:53 20.04.2021
76 Rain 7 1014 100 10000 1 207 13:24 20.04.2021
77 Rain 8 1014 87 10000 1.54 0 12:44 20.04.2021
78 Rain 8 1014 87 10000 1.54 0 12:22 20.04.2021
79 Clouds 8 1014 93 10000 2.06 280 11:45 20.04.2021
80 Clouds 8 1014 93 10000 2.06 280 11:21 20.04.2021
81 Clouds 8 1013 87 10000 1.54 280 10:44 20.04.2021
82 Clouds 8 1013 87 10000 1.54 280 10:23 20.04.2021
83 Clouds 8 1013 87 10000 1.03 0 09:40 20.04.2021
84 Clouds 7 1013 93 10000 2.57 290 08:56 20.04.2021
85 Clouds 7 1013 93 10000 2.57 290 08:25 20.04.2021
86 Clouds 8 1013 87 10000 2.06 280 07:49 20.04.2021
87 Clouds 8 1013 87 10000 3.09 290 06:47 20.04.2021
88 Clouds 9 1012 81 10000 3.09 280 05:40 20.04.2021
89 Clouds 9 1012 87 10000 1.03 0 04:42 20.04.2021
90 Clouds 11 1011 76 10000 1.54 0 01:48 20.04.2021
91 Clouds 12 1010 76 10000 1.54 310 00:37 20.04.2021
92 Clouds 12 1009 76 10000 3.09 330 23:37 19.04.2021
93 Clouds 13 1008 71 10000 4.12 300 22:57 19.04.2021
94 Clouds 13 1008 71 10000 4.12 300 22:33 19.04.2021
95 Rain 13 1008 71 9000 3.09 260 21:51 19.04.2021
96 Rain 13 1008 71 9000 3.09 260 21:33 19.04.2021
97 Rain 13 1007 76 9000 4.12 280 20:46 19.04.2021
98 Rain 13 1007 76 9000 4.12 280 20:25 19.04.2021
99 Rain 13 1007 76 7000 4.63 260 20:01 19.04.2021
100 Rain 13 1007 76 7000 4.63 260 19:40 19.04.2021
101 Rain 13 1007 76 7000 4.63 260 19:21 19.04.2021
102 Rain 14 1005 77 8000 6.17 270 18:45 19.04.2021
103 Rain 14 1005 77 8000 6.17 270 18:21 19.04.2021
104 Rain 14 1005 77 8000 6.17 270 18:21 19.04.2021
105 Rain 15 1003 72 8000 7.72 270 17:50 19.04.2021
106 Rain 15 1003 72 8000 7.72 270 17:27 19.04.2021
107 Rain 14 1000 94 4000 2.6 338 16:49 19.04.2021
108 Rain 14 1000 94 4000 2.6 338 16:31 19.04.2021
109 Rain 13 1000 86 10000 3.83 7 15:44 19.04.2021
110 Rain 12 999 94 10000 2.06 0 15:25 19.04.2021
111 Rain 12 999 94 10000 2.06 0 14:52 19.04.2021
112 Rain 12 999 94 10000 2.06 0 14:33 19.04.2021
113 Rain 12 1000 94 10000 1.03 0 13:53 19.04.2021
114 Rain 12 1000 94 10000 1.03 0 13:29 19.04.2021
115 Rain 12 1000 94 10000 0.51 0 12:49 19.04.2021
116 Rain 12 1000 94 10000 0.51 0 12:29 19.04.2021
117 Rain 12 1001 94 10000 0.51 0 11:59 19.04.2021
118 Rain 12 1001 94 10000 0.51 0 11:39 19.04.2021
119 Rain 12 1001 94 10000 0.51 0 11:19 19.04.2021
120 Rain 12 1002 94 10000 0.51 0 10:43 19.04.2021
121 Rain 12 1002 94 10000 0.51 0 10:18 19.04.2021
122 Rain 12 1003 94 10000 1.03 0 09:40 19.04.2021
123 Rain 12 1003 94 10000 1.03 0 09:21 19.04.2021
124 Rain 12 1004 94 10000 1.54 120 08:33 19.04.2021
125 Rain 12 1004 94 10000 1.03 0 07:50 19.04.2021
126 Rain 12 1004 94 10000 1.03 0 07:21 19.04.2021
127 Clouds 12 1005 94 10000 1.03 0 06:47 19.04.2021
128 Clouds 12 1006 94 10000 2.71 337 04:21 19.04.2021
129 Clouds 13 1006 88 10000 2.99 330 01:49 19.04.2021
130 Clouds 14 1006 82 10000 1.03 0 00:33 19.04.2021
131 Clouds 14 1006 82 10000 1.03 0 23:20 18.04.2021
132 Clouds 15 1007 72 10000 1.03 0 22:56 18.04.2021
133 Clouds 15 1007 72 10000 1.03 0 22:31 18.04.2021
134 Clouds 14 1007 77 10000 1.03 0 21:49 18.04.2021
135 Rain 14 1007 77 10000 1.03 0 21:27 18.04.2021
136 Clouds 12 1008 82 10000 2.49 315 20:43 18.04.2021
137 Clouds 12 1008 82 10000 2.64 306 20:24 18.04.2021
138 Clouds 12 1008 82 10000 2.64 306 20:24 18.04.2021
139 Rain 12 1009 82 10000 2.06 260 19:56 18.04.2021
140 Rain 12 1009 82 10000 2.06 260 19:36 18.04.2021
141 Rain 11 1010 87 10000 3.15 315 18:59 18.04.2021
142 Rain 11 1010 87 10000 3.15 315 18:38 18.04.2021
143 Rain 11 1010 87 10000 2.23 319 18:20 18.04.2021
144 Rain 10 1010 93 10000 1.03 0 17:42 18.04.2021
145 Rain 10 1010 93 10000 1.03 0 17:24 18.04.2021
146 Rain 10 1010 81 10000 1.54 180 16:45 18.04.2021
147 Rain 10 1010 81 10000 1.54 180 16:45 18.04.2021
148 Rain 10 1010 81 10000 1.54 180 16:19 18.04.2021
149 Clouds 10 1010 81 10000 1.03 0 15:41 18.04.2021
150 Clouds 10 1010 81 10000 1.03 0 15:23 18.04.2021
151 Rain 10 1010 87 10000 1.54 140 14:42 18.04.2021
152 Rain 10 1010 87 10000 1.54 140 14:20 18.04.2021
153 Clouds 10 1011 81 10000 0.51 0 13:54 18.04.2021
154 Clouds 10 1011 81 10000 0.51 0 13:31 18.04.2021
155 Clouds 9 1011 93 10000 1.54 0 12:44 18.04.2021
156 Clouds 9 1011 93 10000 1.54 0 12:44 18.04.2021
157 Clouds 9 1011 93 10000 1.54 0 12:23 18.04.2021
158 Rain 10 1011 81 10000 2.06 280 11:41 18.04.2021
159 Rain 10 1011 81 10000 2.06 280 11:20 18.04.2021
160 Clouds 10 1011 81 10000 1.65 299 10:46 18.04.2021
161 Clouds 10 1011 81 10000 1.99 291 10:21 18.04.2021
162 Clouds 10 1012 87 10000 1.03 0 09:44 18.04.2021
163 Clouds 10 1012 87 10000 1.03 0 09:26 18.04.2021
164 Clouds 10 1012 87 10000 1.03 0 09:26 18.04.2021
165 Clouds 10 1012 81 10000 0.51 0 08:48 18.04.2021
166 Clouds 10 1012 81 10000 0.51 0 08:29 18.04.2021
167 Clouds 10 1012 87 10000 1.83 310 07:41 18.04.2021
168 Rain 10 1012 87 10000 2.06 320 06:56 18.04.2021
169 Clouds 11 1013 76 10000 1.98 282 05:39 18.04.2021
170 Clouds 11 1013 76 10000 2.14 282 05:21 18.04.2021
171 Clouds 13 1013 71 10000 1.54 340 02:23 18.04.2021
172 Clouds 13 1012 71 10000 0.51 0 01:31 18.04.2021
173 Clouds 14 1012 67 10000 1.54 320 00:28 18.04.2021
174 Clouds 16 1012 67 10000 1.54 330 23:27 17.04.2021
175 Clouds 17 1013 55 10000 1.54 320 22:49 17.04.2021
176 Clouds 17 1013 55 10000 1.54 320 22:29 17.04.2021
177 Clouds 17 1013 51 10000 2.06 340 21:45 17.04.2021
178 Clouds 17 1013 51 10000 2.06 340 21:23 17.04.2021
179 Clouds 16 1013 55 10000 2.06 320 20:40 17.04.2021
180 Clouds 16 1013 55 10000 2.06 320 20:20 17.04.2021
181 Clouds 15 1014 58 10000 2.06 320 19:39 17.04.2021
182 Clouds 15 1014 58 10000 2.06 320 19:20 17.04.2021
183 Clouds 13 1015 71 10000 2.06 300 18:49 17.04.2021
184 Clouds 13 1015 71 10000 2.06 300 18:21 17.04.2021
185 Clouds 11 1015 82 10000 1.03 0 17:42 17.04.2021
186 Clouds 9 1016 93 10000 0.73 286 16:56 17.04.2021
187 Clouds 9 1016 93 10000 0.73 286 16:37 17.04.2021
188 Clouds 9 1016 93 10000 0.73 288 16:18 17.04.2021
189 Clouds 7 1017 100 10000 0.96 297 15:19 17.04.2021
190 Clouds 7 1016 100 10000 1.03 0 14:42 17.04.2021
191 Clouds 7 1016 100 10000 1.03 0 14:19 17.04.2021
192 Clouds 7 1016 100 10000 0.77 297 13:41 17.04.2021
193 Clouds 7 1017 100 10000 1.03 0 12:47 17.04.2021
194 Clouds 7 1017 100 10000 1.03 0 12:22 17.04.2021
195 Clouds 8 1017 93 10000 0.65 289 11:50 17.04.2021
196 Clouds 8 1017 93 10000 0.65 289 11:31 17.04.2021
197 Clouds 8 1017 93 10000 1.03 140 10:48 17.04.2021
198 Clouds 8 1017 93 10000 1.03 140 10:29 17.04.2021
199 Clouds 8 1017 93 10000 0.69 303 09:45 17.04.2021
200 Clouds 8 1018 93 10000 1.54 280 08:46 17.04.2021
201 Clouds 8 1018 93 10000 1.54 280 08:26 17.04.2021
202 Clouds 7 1018 100 10000 1.54 280 07:42 17.04.2021
203 Clouds 11 1019 82 10000 1.3 250 03:59 17.04.2021
204 Clouds 11 1019 82 10000 1.3 250 03:39 17.04.2021
205 Clouds 14 1018 67 10000 2.06 260 00:51 17.04.2021
206 Clouds 14 1018 67 10000 2.06 260 00:29 17.04.2021
207 Clouds 15 1018 63 10000 2.57 300 23:52 16.04.2021
208 Clouds 15 1018 63 10000 2.57 300 23:29 16.04.2021
209 Clouds 15 1017 63 10000 3.09 0 22:51 16.04.2021
210 Clouds 15 1017 63 10000 3.09 0 22:22 16.04.2021
211 Clouds 16 1017 59 10000 3.09 280 21:51 16.04.2021
212 Clouds 16 1017 59 10000 3.09 280 21:30 16.04.2021
213 Clouds 15 1017 58 10000 3.6 300 20:50 16.04.2021
214 Clouds 15 1017 58 10000 3.6 300 20:25 16.04.2021
215 Clouds 15 1017 58 10000 4.12 0 19:54 16.04.2021
216 Clouds 15 1017 58 10000 4.12 0 19:29 16.04.2021
217 Clouds 15 1017 58 10000 6.17 240 18:40 16.04.2021
218 Clouds 15 1017 58 10000 6.17 240 18:19 16.04.2021
219 Clouds 15 1017 58 10000 3.6 0 17:38 16.04.2021
220 Clouds 15 1017 58 10000 3.6 0 17:19 16.04.2021
221 Clouds 14 1017 58 10000 4.63 320 16:42 16.04.2021
222 Clouds 14 1017 58 10000 4.63 320 16:23 16.04.2021
223 Rain 12 1017 66 9000 2.57 0 15:45 16.04.2021
224 Rain 12 1017 66 9000 2.57 0 15:19 16.04.2021
225 Clouds 12 1016 58 10000 2.57 0 14:42 16.04.2021
226 Clouds 12 1016 58 10000 2.57 0 14:18 16.04.2021
227 Clouds 11 1015 62 10000 3.6 280 13:42 16.04.2021
228 Clouds 11 1015 62 10000 3.6 280 13:20 16.04.2021
229 Clouds 11 1015 62 10000 2.57 270 12:47 16.04.2021
230 Clouds 11 1015 62 10000 2.57 270 12:27 16.04.2021
231 Clouds 11 1015 62 10000 2.57 270 12:27 16.04.2021
232 Clouds 12 1015 58 10000 4.12 300 11:49 16.04.2021
233 Clouds 12 1015 58 10000 4.12 300 11:26 16.04.2021
234 Clouds 12 1015 58 10000 4.12 300 11:26 16.04.2021
235 Clouds 11 1015 62 10000 4.12 290 10:48 16.04.2021
236 Clouds 11 1015 62 10000 4.12 290 10:26 16.04.2021
237 Clouds 11 1016 58 10000 3.09 260 09:52 16.04.2021
238 Clouds 11 1016 58 10000 3.09 260 09:24 16.04.2021
239 Clouds 11 1016 58 10000 2.06 0 08:46 16.04.2021
240 Clouds 11 1016 58 10000 2.06 0 08:28 16.04.2021
241 Clouds 9 1016 66 10000 3.09 280 07:53 16.04.2021
242 Clouds 9 1016 66 10000 3.09 280 07:34 16.04.2021
243 Clouds 8 1016 71 10000 1.03 0 06:56 16.04.2021
244 Clear 8 1016 71 10000 0.51 0 05:33 16.04.2021
245 Clear 8 1016 71 10000 0.51 0 05:33 16.04.2021
246 Clear 9 1016 61 10000 2.49 277 04:19 16.04.2021
247 Clear 13 1015 50 10000 3.09 280 00:50 16.04.2021
248 Clear 13 1015 50 10000 3.09 280 00:23 16.04.2021
249 Clear 12 1013 49 10000 2.84 248 23:59 15.04.2021
250 Clear 16 1014 39 10000 5.66 300 23:35 15.04.2021
251 Clear 16 1014 39 10000 5.66 300 22:53 15.04.2021
252 Clear 16 1014 39 10000 5.66 300 22:26 15.04.2021
253 Clear 16 1014 41 10000 3.6 330 21:56 15.04.2021
254 Clear 16 1014 41 10000 3.6 330 21:37 15.04.2021
255 Clear 16 1014 41 10000 3.6 330 21:19 15.04.2021
256 Clear 16 1015 41 10000 4.12 320 20:40 15.04.2021
257 Clear 16 1015 41 10000 4.12 320 20:21 15.04.2021
258 Clear 14 1016 47 10000 3.6 320 19:42 15.04.2021
259 Clear 14 1016 47 10000 3.6 320 19:23 15.04.2021
260 Clouds 13 1017 50 10000 4.12 320 18:41 15.04.2021
261 Clouds 13 1017 50 10000 4.12 320 18:20 15.04.2021
262 Clouds 11 1018 62 10000 3.6 310 17:54 15.04.2021
263 Clouds 11 1018 62 10000 3.6 310 17:36 15.04.2021
264 Clouds 9 1018 71 10000 3.09 290 16:47 15.04.2021
265 Clouds 9 1018 71 10000 3.09 290 16:25 15.04.2021
266 Clear 5 1019 93 10000 3.09 300 15:51 15.04.2021
267 Clear 5 1019 93 10000 3.09 300 15:31 15.04.2021
268 Clear 3 1018 100 10000 2.06 280 14:47 15.04.2021
269 Clear 3 1018 100 10000 2.06 280 14:28 15.04.2021
270 Clear 3 1018 93 10000 2.57 290 13:59 15.04.2021
271 Clear 3 1018 93 10000 2.57 290 13:40 15.04.2021
272 Clear 3 1018 100 10000 2.57 300 12:55 15.04.2021
273 Clear 3 1018 100 10000 2.57 300 12:28 15.04.2021
274 Clear 5 1017 87 10000 1.03 0 11:59 15.04.2021
275 Clear 5 1017 87 10000 1.03 0 11:40 15.04.2021
276 Clear 5 1017 87 10000 1.03 0 11:21 15.04.2021
277 Clear 5 1017 87 10000 1.03 0 11:21 15.04.2021
278 Clear 5 1017 87 10000 2.06 310 10:43 15.04.2021
279 Clear 5 1017 87 10000 2.06 310 10:25 15.04.2021
280 Clear 6 1017 81 10000 1.54 330 09:33 15.04.2021
281 Clouds 8 1016 71 10000 2.06 0 08:54 15.04.2021
282 Clouds 8 1016 71 10000 2.06 0 08:35 15.04.2021
283 Clouds 8 1016 66 10000 2.06 320 07:47 15.04.2021
284 Clouds 8 1016 66 10000 2.06 320 07:20 15.04.2021
285 Clear 11 1016 54 10000 3.09 210 06:36 15.04.2021
286 Clear 12 1015 50 10000 4.63 250 05:47 15.04.2021
287 Clouds 13 1014 58 10000 2.57 0 03:59 15.04.2021
288 Clouds 15 1011 55 10000 7.72 270 00:23 15.04.2021
289 Clouds 15 1009 63 10000 7.2 280 23:36 14.04.2021
290 Clouds 17 1008 55 10000 7.2 260 22:59 14.04.2021
291 Clouds 17 1008 55 10000 7.2 260 22:39 14.04.2021
292 Clouds 17 1008 55 10000 7.2 260 22:20 14.04.2021
293 Rain 18 1007 52 9000 5.14 270 21:41 14.04.2021
294 Rain 18 1007 52 9000 5.14 270 21:22 14.04.2021
295 Clouds 13 1008 67 10000 3.74 287 20:45 14.04.2021
296 Rain 17 1008 59 9000 6.17 270 20:27 14.04.2021
297 Rain 17 1008 59 9000 6.17 270 19:46 14.04.2021
298 Rain 17 1008 59 9000 6.17 270 19:19 14.04.2021
299 Rain 17 1008 59 9000 5.66 260 18:54 14.04.2021
300 Rain 17 1008 59 9000 5.66 260 18:20 14.04.2021
301 Clouds 17 1008 55 10000 6.17 270 17:55 14.04.2021
302 Clouds 17 1008 55 10000 6.17 270 17:24 14.04.2021
303 Clouds 16 1007 55 10000 2.06 0 16:46 14.04.2021
304 Clouds 16 1007 55 10000 2.06 0 16:22 14.04.2021
305 Clouds 17 1008 48 10000 4.63 280 15:41 14.04.2021
306 Clouds 17 1008 48 10000 4.63 280 15:22 14.04.2021
307 Clouds 16 1008 48 10000 5.14 260 14:44 14.04.2021
308 Clouds 16 1008 48 10000 5.14 260 14:44 14.04.2021
309 Clouds 16 1008 48 10000 5.14 260 14:22 14.04.2021
310 Clouds 14 1008 62 10000 2.57 0 13:49 14.04.2021
311 Clouds 10 1008 93 10000 2.06 320 12:58 14.04.2021
312 Clouds 10 1008 93 10000 2.06 320 12:35 14.04.2021
313 Clouds 10 1008 100 10000 2.06 280 11:42 14.04.2021
314 Clouds 10 1008 100 10000 2.06 280 11:24 14.04.2021
315 Clouds 10 1009 100 10000 3.6 290 10:35 14.04.2021
316 Clouds 11 1009 93 10000 2.06 290 09:59 14.04.2021
317 Clouds 11 1009 93 10000 2.06 290 09:41 14.04.2021
318 Clouds 11 1009 93 10000 2.06 290 09:18 14.04.2021
319 Clear 11 1010 93 10000 2.57 300 08:33 14.04.2021
320 Clear 11 1010 93 10000 2.06 300 07:53 14.04.2021
321 Clear 11 1010 93 10000 1.03 0 06:43 14.04.2021
322 Clear 11 1010 93 10000 1.03 0 06:22 14.04.2021
323 Clear 13 1011 88 10000 2.06 290 03:44 14.04.2021
324 Clear 16 1012 77 10000 2.57 290 01:40 14.04.2021
325 Clear 18 1012 68 10000 2.57 310 00:34 14.04.2021
326 Haze 21 1012 60 10000 2.57 340 23:39 13.04.2021
327 Clear 23 1012 49 10000 4.12 300 22:55 13.04.2021
328 Clear 23 1012 49 10000 4.12 300 22:37 13.04.2021
329 Clear 23 1012 49 10000 4.12 300 22:18 13.04.2021
330 Clear 23 1013 46 10000 4.63 310 21:40 13.04.2021
331 Clear 23 1013 46 10000 4.63 310 21:20 13.04.2021
332 Clear 22 1014 53 10000 2.57 320 20:39 13.04.2021
333 Clear 22 1014 53 10000 2.57 320 20:20 13.04.2021
334 Clear 21 1015 52 10000 2.06 320 19:27 13.04.2021
335 Clear 21 1015 52 10000 2.06 320 19:27 13.04.2021
336 Clear 20 1016 56 10000 2.06 330 18:58 13.04.2021
337 Clear 20 1016 56 10000 2.06 330 18:33 13.04.2021
338 Clouds 18 1017 63 10000 2.06 330 17:44 13.04.2021
339 Clouds 18 1017 63 10000 2.06 330 17:23 13.04.2021
340 Clouds 16 1018 63 10000 1.03 0 16:55 13.04.2021
341 Clouds 16 1018 63 10000 1.03 0 16:37 13.04.2021
342 Clouds 16 1018 63 10000 1.03 0 16:18 13.04.2021
343 Clouds 14 1018 77 10000 1.03 0 15:39 13.04.2021
344 Clouds 12 1018 87 10000 2.06 290 14:59 13.04.2021
345 Clouds 12 1018 87 10000 2.06 290 14:37 13.04.2021
346 Clouds 12 1018 87 10000 2.06 290 14:18 13.04.2021
347 Clouds 11 1018 87 10000 2.07 288 13:40 13.04.2021
348 Clouds 11 1018 87 10000 2.59 294 13:20 13.04.2021
349 Clouds 12 1017 82 10000 1.54 310 12:49 13.04.2021
350 Clouds 12 1017 82 10000 1.54 310 12:23 13.04.2021
351 Clouds 13 1017 76 10000 2.06 280 11:38 13.04.2021
352 Clouds 14 1017 77 10000 1.03 0 10:58 13.04.2021
353 Clouds 14 1017 77 10000 1.03 0 10:40 13.04.2021
354 Clouds 14 1017 77 10000 1.03 0 10:19 13.04.2021
355 Clouds 15 1017 72 10000 1.03 0 09:51 13.04.2021
356 Clouds 15 1017 72 10000 1.03 0 09:26 13.04.2021
357 Clear 16 1017 67 10000 4.63 300 08:44 13.04.2021
358 Clear 16 1017 67 10000 4.63 300 08:21 13.04.2021
359 Clouds 18 1017 59 10000 5.66 280 07:43 13.04.2021
360 Clouds 18 1017 59 10000 5.66 280 07:23 13.04.2021
361 Clouds 18 1017 59 10000 7.72 290 06:22 13.04.2021
362 Clouds 18 1016 59 10000 6.17 290 03:41 13.04.2021
363 Clouds 18 1015 55 10000 6.69 290 01:31 13.04.2021
364 Clouds 19 1014 55 10000 7.2 280 23:51 12.04.2021
365 Clouds 19 1014 55 10000 7.2 280 23:32 12.04.2021
366 Clouds 20 1014 56 10000 10.8 290 22:50 12.04.2021
367 Clouds 20 1014 56 10000 10.8 290 22:31 12.04.2021
368 Clouds 21 1013 52 10000 11.83 290 21:48 12.04.2021
369 Clouds 21 1013 52 10000 11.83 290 21:25 12.04.2021
370 Rain 19 1014 63 10000 9.77 280 20:46 12.04.2021
371 Rain 19 1014 63 10000 9.77 280 20:26 12.04.2021
372 Rain 20 1014 56 7000 7.72 270 19:59 12.04.2021
373 Rain 20 1014 56 7000 7.72 270 19:39 12.04.2021
374 Rain 20 1014 56 7000 7.72 270 19:20 12.04.2021
375 Rain 19 1014 63 9000 6.69 270 18:48 12.04.2021
376 Rain 19 1014 63 9000 6.69 270 18:29 12.04.2021
377 Clouds 18 1013 68 10000 6.69 280 17:46 12.04.2021
378 Clouds 18 1013 68 10000 6.69 280 17:25 12.04.2021
379 Clouds 18 1013 63 10000 6.17 280 16:49 12.04.2021
380 Clouds 18 1013 63 10000 6.17 280 16:29 12.04.2021
381 Rain 17 1012 63 9000 5.14 270 15:54 12.04.2021
382 Rain 17 1012 63 9000 5.14 270 15:33 12.04.2021
383 Rain 16 1012 63 10000 5.14 250 14:55 12.04.2021
384 Rain 16 1012 63 10000 5.14 250 14:37 12.04.2021
385 Clouds 17 1011 55 10000 5.14 0 13:56 12.04.2021
386 Clouds 17 1011 55 10000 5.14 0 13:33 12.04.2021
387 Rain 17 1010 59 10000 6.17 0 12:59 12.04.2021
388 Rain 17 1010 59 10000 6.17 0 12:38 12.04.2021
389 Rain 17 1010 59 10000 6.17 0 12:19 12.04.2021
390 Rain 17 1010 63 10000 6.17 250 11:26 12.04.2021
391 Clouds 17 1010 63 10000 5.66 260 10:51 12.04.2021
392 Clouds 17 1010 63 10000 5.66 260 10:27 12.04.2021
393 Rain 17 1011 63 10000 5.14 0 09:51 12.04.2021
394 Rain 17 1011 63 10000 5.14 0 09:23 12.04.2021
395 Rain 16 1011 67 10000 5.66 260 08:40 12.04.2021
396 Clouds 17 1011 63 10000 6.69 270 07:42 12.04.2021
397 Clouds 17 1011 63 10000 6.69 270 07:22 12.04.2021
398 Clouds 16 1011 67 10000 7.2 270 06:27 12.04.2021
399 Clouds 16 1011 67 10000 7.72 270 05:43 12.04.2021
400 Rain 17 1011 63 10000 7.72 270 01:42 12.04.2021
401 Rain 16 1011 77 10000 5.66 280 00:26 12.04.2021
402 Rain 15 1011 88 10000 5.14 280 23:49 11.04.2021
403 Rain 15 1011 88 10000 5.14 280 23:31 11.04.2021
404 Rain 15 1011 88 10000 4.12 0 22:48 11.04.2021
405 Rain 15 1011 88 10000 4.12 0 22:26 11.04.2021
406 Rain 15 1012 88 10000 1.54 0 21:52 11.04.2021
407 Rain 15 1012 88 10000 1.54 0 21:31 11.04.2021
408 Rain 14 1012 94 10000 1.03 0 20:59 11.04.2021
409 Rain 14 1012 94 10000 1.03 0 20:37 11.04.2021
410 Rain 14 1012 94 10000 1.03 0 20:18 11.04.2021
411 Rain 14 1013 88 10000 3.42 311 19:39 11.04.2021
412 Rain 14 1013 88 10000 3.18 303 19:19 11.04.2021
413 Rain 14 1014 88 10000 1.54 300 18:46 11.04.2021
414 Rain 14 1014 88 10000 1.54 300 18:26 11.04.2021
415 Rain 13 1014 94 10000 1.54 320 17:49 11.04.2021
416 Rain 13 1014 94 10000 1.54 320 17:28 11.04.2021
417 Rain 12 1015 94 10000 2.06 280 16:53 11.04.2021
418 Rain 12 1015 94 10000 2.06 280 16:27 11.04.2021
419 Rain 11 1015 93 10000 2.06 290 15:58 11.04.2021
420 Rain 11 1015 93 10000 2.06 290 15:38 11.04.2021
421 Rain 11 1015 93 10000 2.06 290 15:20 11.04.2021
422 Clouds 10 1015 93 10000 0.51 0 14:47 11.04.2021
423 Clouds 10 1015 93 10000 0.51 0 14:18 11.04.2021
424 Rain 10 1015 93 10000 1.89 301 13:39 11.04.2021
425 Rain 10 1015 93 10000 2.2 292 13:21 11.04.2021
426 Rain 10 1015 93 10000 2.49 292 12:23 11.04.2021
427 Rain 10 1016 93 10000 2.06 280 11:53 11.04.2021
428 Rain 10 1016 93 10000 2.06 280 11:31 11.04.2021
429 Clouds 10 1016 93 10000 1.54 280 10:56 11.04.2021
430 Clouds 10 1016 93 10000 1.54 280 10:38 11.04.2021
431 Clouds 10 1016 93 10000 1.54 280 10:19 11.04.2021
432 Rain 9 1016 93 10000 1.03 0 09:37 11.04.2021
433 Rain 9 1016 93 10000 1.03 0 09:19 11.04.2021
434 Rain 9 1017 93 10000 1.03 0 08:31 11.04.2021
435 Clouds 10 1017 81 10000 1.03 0 07:25 11.04.2021
436 Clouds 11 1018 76 10000 1.03 0 06:56 11.04.2021
437 Clouds 12 1018 66 10000 3.09 270 05:44 11.04.2021
438 Clouds 12 1018 66 10000 3.09 270 05:21 11.04.2021
439 Clouds 11 1018 66 10000 3.09 270 04:35 11.04.2021
440 Clouds 11 1019 62 10000 4.63 260 02:56 11.04.2021
441 Clouds 12 1019 54 10000 5.14 260 00:40 11.04.2021
442 Clouds 12 1019 54 10000 5.14 260 00:40 11.04.2021
443 Clouds 13 1018 50 10000 8.75 290 23:51 10.04.2021
444 Clouds 13 1018 50 10000 8.75 290 23:27 10.04.2021
445 Clouds 13 1018 50 10000 9.26 280 22:45 10.04.2021
446 Clouds 13 1018 50 10000 9.26 280 22:23 10.04.2021
447 Clouds 14 1018 44 10000 8.23 290 21:50 10.04.2021
448 Clouds 14 1018 44 10000 8.23 290 21:50 10.04.2021
449 Clouds 14 1018 44 10000 8.23 290 21:23 10.04.2021
450 Clouds 15 1018 44 10000 10.29 290 20:47 10.04.2021
451 Clouds 15 1018 44 10000 10.29 290 20:24 10.04.2021
452 Clouds 14 1018 47 10000 8.75 280 19:45 10.04.2021
453 Clouds 14 1018 47 10000 8.75 280 19:27 10.04.2021
454 Clouds 13 1019 50 10000 4.12 320 18:53 10.04.2021
455 Clouds 13 1019 50 10000 4.12 320 18:33 10.04.2021
456 Clouds 11 1020 71 10000 4.12 320 17:41 10.04.2021
457 Clouds 11 1020 71 10000 4.12 320 17:21 10.04.2021
458 Clouds 7 1020 93 10000 2.57 260 16:31 10.04.2021
459 Clouds 7 1020 93 10000 2.06 260 15:55 10.04.2021
460 Clouds 7 1020 93 10000 2.06 260 15:32 10.04.2021
461 Clouds 6 1020 93 10000 2.57 290 14:47 10.04.2021
462 Clouds 6 1020 93 10000 2.57 290 14:21 10.04.2021
463 Clouds 6 1020 93 10000 2.06 260 13:43 10.04.2021
464 Clouds 6 1020 93 10000 1.54 300 12:55 10.04.2021
465 Clouds 6 1020 93 10000 1.54 300 12:34 10.04.2021
466 Clouds 5 1020 100 10000 2.06 280 11:50 10.04.2021
467 Clouds 5 1020 100 10000 2.06 280 11:26 10.04.2021
468 Clouds 4 1020 100 10000 2.44 280 10:52 10.04.2021
469 Clouds 4 1020 100 10000 2.44 280 10:31 10.04.2021
470 Clouds 4 1021 100 10000 1.03 0 09:52 10.04.2021
471 Clouds 4 1021 100 10000 1.03 0 09:23 10.04.2021
472 Clouds 4 1021 100 10000 0.51 0 08:49 10.04.2021
473 Clouds 4 1021 100 10000 0.51 0 08:29 10.04.2021
474 Clouds 4 1021 100 10000 0.51 0 08:29 10.04.2021
475 Clear 5 1021 93 10000 1.03 0 07:40 10.04.2021
476 Clear 5 1021 93 10000 1.03 0 07:21 10.04.2021
477 Clear 5 1021 100 10000 2.06 300 06:24 10.04.2021
478 Clear 7 1021 93 10000 2.57 290 04:26 10.04.2021
479 Clear 9 1020 81 10000 2.57 290 02:51 10.04.2021
480 Clear 9 1020 81 10000 2.57 290 02:33 10.04.2021
481 Clear 12 1019 71 10000 3.09 320 00:44 10.04.2021
482 Clear 12 1019 71 10000 3.09 320 00:25 10.04.2021
483 Clear 15 1019 55 10000 3.09 320 23:41 09.04.2021
484 Clear 16 1019 48 10000 3.6 310 22:59 09.04.2021
485 Clear 16 1019 48 10000 3.6 310 22:38 09.04.2021
486 Clouds 16 1019 51 10000 2.06 0 21:56 09.04.2021
487 Clouds 16 1019 51 10000 2.06 0 21:38 09.04.2021
488 Clouds 16 1019 51 10000 2.06 0 21:18 09.04.2021
489 Clouds 15 1019 58 10000 3.09 300 20:42 09.04.2021
490 Clouds 15 1019 58 10000 3.09 300 20:22 09.04.2021
491 Clouds 14 1020 62 10000 2.57 340 19:44 09.04.2021
492 Clouds 14 1020 62 10000 2.57 340 19:23 09.04.2021
493 Clouds 14 1021 62 10000 2.57 290 18:51 09.04.2021
494 Clouds 14 1021 62 10000 2.57 290 18:31 09.04.2021
495 Clouds 12 1021 82 10000 2.06 320 17:54 09.04.2021
496 Clouds 12 1021 82 10000 2.06 320 17:34 09.04.2021
497 Clouds 10 1021 87 10000 2.06 290 16:55 09.04.2021
498 Clouds 10 1021 87 10000 2.06 290 16:32 09.04.2021
499 Clouds 8 1021 100 10000 0.9 234 15:50 09.04.2021
500 Clouds 8 1021 100 10000 1.19 242 15:26 09.04.2021
501 Clouds 7 1020 93 10000 1.03 0 14:51 09.04.2021
502 Clouds 7 1020 93 10000 1.03 0 14:30 09.04.2021
503 Rain 8 1020 93 10000 1.03 0 13:51 09.04.2021
504 Rain 8 1020 93 10000 1.03 0 13:23 09.04.2021
505 Clouds 8 1019 93 10000 2.06 310 12:49 09.04.2021
506 Clouds 8 1019 93 10000 2.06 310 12:30 09.04.2021
507 Clouds 8 1019 93 10000 1.54 320 11:44 09.04.2021
508 Clouds 8 1019 93 10000 1.54 320 11:21 09.04.2021
509 Rain 8 1018 93 10000 1.71 251 10:45 09.04.2021
510 Rain 8 1018 93 10000 1.99 250 10:18 09.04.2021
511 Clouds 8 1018 93 10000 1.54 300 09:29 09.04.2021
512 Clouds 8 1018 93 10000 2.06 300 08:56 09.04.2021
513 Clouds 8 1018 93 10000 2.06 300 08:37 09.04.2021
514 Clouds 8 1017 93 10000 2.06 300 07:35 09.04.2021
515 Clouds 8 1017 93 10000 2.57 290 06:33 09.04.2021
516 Rain 8 1016 93 10000 2.06 310 05:47 09.04.2021
517 Clouds 9 1014 87 10000 1.54 290 03:48 09.04.2021
518 Clouds 11 1012 93 10000 1.75 250 00:40 09.04.2021
519 Clouds 11 1012 93 10000 1.98 261 00:21 09.04.2021
520 Clouds 10 1012 74 10000 1.98 261 23:57 08.04.2021
521 Rain 11 1011 93 8000 1.54 30 22:58 08.04.2021
522 Rain 11 1011 93 8000 1.54 30 22:38 08.04.2021
523 Rain 11 1011 93 8000 1.54 30 22:20 08.04.2021
524 Clouds 11 1011 73 10000 2.16 283 21:42 08.04.2021
525 Clouds 12 1011 82 10000 2.06 110 21:23 08.04.2021
526 Clouds 12 1011 82 10000 2.06 110 21:00 08.04.2021
527 Clouds 12 1011 82 10000 2.06 110 20:40 08.04.2021
528 Clouds 12 1011 82 10000 2.06 110 20:19 08.04.2021
529 Clouds 10 1011 79 10000 2.28 274 19:41 08.04.2021
530 Clouds 11 1012 82 10000 1.03 0 19:19 08.04.2021
531 Clouds 11 1012 82 10000 1.03 0 18:43 08.04.2021
532 Rain 11 1012 82 10000 1.03 0 18:19 08.04.2021
533 Rain 10 1012 87 10000 0.51 0 17:42 08.04.2021
534 Fog 10 1012 87 10000 0.51 0 17:21 08.04.2021
535 Clouds 11 1011 73 10000 1.67 279 16:45 08.04.2021
536 Rain 7 1013 100 8000 0.95 297 16:23 08.04.2021
537 Rain 7 1013 100 8000 0.95 297 15:46 08.04.2021
538 Rain 7 1013 100 8000 0.58 316 15:28 08.04.2021
539 Rain 7 1013 100 8000 0.58 316 15:28 08.04.2021
540 Rain 7 1012 93 10000 0.58 316 14:44 08.04.2021
541 Rain 7 1012 93 10000 0.55 324 14:22 08.04.2021
542 Clouds 6 1011 100 10000 0.55 324 13:49 08.04.2021
543 Clouds 6 1011 100 10000 0.13 290 13:25 08.04.2021
544 Clouds 6 1011 100 10000 0.13 290 13:25 08.04.2021
545 Clouds 6 1011 100 10000 1.03 0 12:59 08.04.2021
546 Clouds 6 1011 100 10000 1.03 0 12:37 08.04.2021
547 Clouds 6 1011 100 10000 2.06 280 11:57 08.04.2021
548 Clouds 6 1011 100 10000 2.06 280 11:27 08.04.2021
549 Clouds 6 1012 100 10000 1.54 300 10:56 08.04.2021
550 Clouds 6 1012 100 10000 1.54 300 10:26 08.04.2021
551 Clouds 5 1012 100 10000 1.03 0 09:46 08.04.2021
552 Clouds 5 1012 100 10000 1.03 0 09:27 08.04.2021
553 Clouds 5 1013 100 10000 1.03 0 08:44 08.04.2021
554 Clouds 5 1013 100 10000 1.03 0 08:22 08.04.2021
555 Clouds 6 1013 93 10000 1.54 290 07:46 08.04.2021
556 Mist 6 1013 93 4000 2.3 284 06:46 08.04.2021
557 Clouds 10 1011 87 10000 1.03 0 01:27 08.04.2021
558 Rain 11 1011 87 10000 1.03 0 00:32 08.04.2021
559 Rain 12 1011 76 10000 3.6 250 23:48 07.04.2021
560 Rain 12 1011 76 10000 3.6 250 23:25 07.04.2021
561 Rain 12 1010 87 5000 1.03 0 22:57 07.04.2021
562 Rain 12 1010 87 5000 1.03 0 22:38 07.04.2021
563 Rain 12 1010 87 5000 1.03 0 22:20 07.04.2021
564 Rain 13 1009 82 9000 2.06 0 21:34 07.04.2021
565 Rain 13 1009 76 7000 2.06 320 20:54 07.04.2021
566 Rain 13 1009 76 7000 2.06 320 20:30 07.04.2021
567 Rain 12 1009 87 9000 0.51 0 19:52 07.04.2021
568 Rain 12 1009 87 9000 0.51 0 19:34 07.04.2021
569 Rain 12 1009 87 9000 4.39 335 18:59 07.04.2021
570 Rain 12 1009 87 9000 4.39 335 18:41 07.04.2021
571 Rain 12 1009 87 9000 3.81 339 18:18 07.04.2021
572 Clouds 10 1010 76 10000 3.81 339 17:45 07.04.2021
573 Rain 10 1010 93 4000 3.74 314 17:26 07.04.2021
574 Rain 10 1010 93 4000 3.74 314 16:45 07.04.2021
575 Rain 10 1010 93 4000 3.01 329 16:21 07.04.2021
576 Rain 9 1010 93 8000 2.06 280 15:53 07.04.2021
577 Rain 9 1010 93 8000 2.06 280 15:32 07.04.2021
578 Rain 8 1010 100 10000 2.24 325 14:43 07.04.2021
579 Rain 8 1010 100 10000 2.79 321 14:20 07.04.2021
580 Clouds 8 1012 83 10000 2.79 321 13:39 07.04.2021
581 Clouds 7 1012 88 10000 2.83 319 13:20 07.04.2021
582 Clouds 7 1012 88 10000 2.83 319 12:43 07.04.2021
583 Clouds 7 1011 88 10000 2.78 325 12:18 07.04.2021
584 Clouds 7 1011 88 10000 2.78 325 11:43 07.04.2021
585 Clouds 7 1011 88 10000 2.7 321 11:22 07.04.2021
586 Clouds 7 1011 88 10000 2.7 321 10:47 07.04.2021
587 Clouds 8 1011 87 10000 2.56 320 09:47 07.04.2021
588 Clouds 8 1011 88 10000 1.91 312 09:28 07.04.2021
589 Clouds 8 1011 88 10000 1.91 312 08:52 07.04.2021
590 Clouds 8 1011 88 10000 1.71 305 08:30 07.04.2021
591 Clouds 8 1011 90 10000 1.7 293 07:52 07.04.2021
592 Clouds 9 1011 90 10000 1.88 286 07:28 07.04.2021
593 Clouds 9 1011 90 10000 1.88 286 06:42 07.04.2021
594 Rain 10 1012 100 10000 2.57 290 05:22 07.04.2021
595 Rain 11 1012 93 10000 0.51 0 01:23 07.04.2021
596 Rain 13 1011 82 10000 3.09 0 23:47 06.04.2021
597 Rain 13 1011 82 10000 3.09 0 23:22 06.04.2021
598 Rain 14 1010 77 10000 2.06 0 22:50 06.04.2021
599 Rain 14 1010 77 10000 2.06 0 22:21 06.04.2021
600 Clouds 16 1009 52 10000 3.98 276 21:44 06.04.2021
601 Clouds 17 1010 55 10000 2.06 280 21:24 06.04.2021
602 Clouds 17 1010 55 10000 2.06 280 20:57 06.04.2021
603 Clouds 17 1010 55 10000 2.06 280 20:37 06.04.2021
604 Clouds 17 1010 55 10000 2.06 280 20:18 06.04.2021
605 Clouds 17 1010 55 10000 3.09 290 19:41 06.04.2021
606 Clouds 17 1010 55 10000 3.09 290 19:41 06.04.2021
607 Clouds 17 1010 55 10000 3.09 290 19:23 06.04.2021
608 Clouds 17 1011 59 10000 1.03 0 18:43 06.04.2021
609 Clouds 17 1011 59 10000 1.03 0 18:20 06.04.2021
610 Clouds 15 1011 67 10000 1.9 291 17:45 06.04.2021
611 Clouds 15 1011 67 10000 1.86 282 17:19 06.04.2021
612 Clear 16 1011 63 10000 2.57 270 16:46 06.04.2021
613 Clear 16 1011 63 10000 2.57 270 16:27 06.04.2021
614 Clouds 13 1012 76 10000 1.54 300 15:27 06.04.2021
615 Clouds 12 1011 82 10000 1.54 270 14:47 06.04.2021
616 Clouds 12 1011 82 10000 1.54 270 14:28 06.04.2021
617 Clouds 11 1011 87 10000 1.03 0 13:47 06.04.2021
618 Clouds 11 1011 87 10000 1.03 0 13:27 06.04.2021
619 Clouds 11 1011 87 10000 1.46 288 12:58 06.04.2021
620 Clouds 11 1011 87 10000 1.46 288 12:37 06.04.2021
621 Clouds 11 1011 87 10000 1.73 319 12:18 06.04.2021
622 Clouds 11 1011 87 10000 1.03 0 11:43 06.04.2021
623 Clouds 11 1011 87 10000 1.03 0 11:20 06.04.2021
624 Rain 11 1011 87 10000 2.57 290 10:44 06.04.2021
625 Rain 11 1011 87 10000 2.57 290 10:22 06.04.2021
626 Clouds 11 1011 87 10000 2.06 290 09:45 06.04.2021
627 Clouds 11 1011 87 10000 2.06 290 09:25 06.04.2021
628 Clouds 11 1011 87 10000 1.54 0 08:34 06.04.2021
629 Clouds 12 1012 82 10000 1.54 310 07:32 06.04.2021
630 Clouds 12 1012 82 10000 1.03 0 06:54 06.04.2021
631 Clouds 13 1012 76 10000 3.09 280 04:52 06.04.2021
632 Clouds 15 1009 63 10000 2.57 270 00:59 06.04.2021
633 Clouds 15 1009 63 10000 2.57 270 00:38 06.04.2021
634 Clouds 15 1009 63 10000 2.57 270 00:20 06.04.2021
635 Clear 16 1009 55 10000 2.57 280 23:41 05.04.2021
636 Clear 16 1009 55 10000 2.57 280 23:18 05.04.2021
637 Clear 17 1009 51 10000 2.57 290 22:41 05.04.2021
638 Clear 17 1009 51 10000 2.57 290 22:20 05.04.2021
639 Clear 17 1008 51 10000 0.51 0 21:38 05.04.2021
640 Clear 17 1008 51 10000 0.51 0 21:19 05.04.2021
641 Clear 17 1009 51 10000 1.03 0 20:42 05.04.2021
642 Clear 17 1009 51 10000 1.03 0 20:42 05.04.2021
643 Clear 17 1009 51 10000 1.03 0 20:42 05.04.2021
644 Clear 17 1009 51 10000 1.03 0 20:22 05.04.2021
645 Clear 16 1010 51 10000 1.03 0 19:38 05.04.2021
646 Clear 16 1010 51 10000 1.03 0 19:19 05.04.2021
647 Clear 14 1010 62 10000 2.06 0 18:41 05.04.2021
648 Clear 14 1010 62 10000 2.06 0 18:19 05.04.2021
649 Clear 12 1011 66 10000 1.03 0 17:47 05.04.2021
650 Clear 12 1011 66 10000 1.03 0 17:24 05.04.2021
651 Clear 10 1012 76 10000 1.03 0 16:47 05.04.2021
652 Clear 10 1012 76 10000 1.03 0 16:23 05.04.2021
653 Clear 8 1011 87 10000 0.98 80 15:58 05.04.2021
654 Clear 8 1011 87 10000 0.98 80 15:35 05.04.2021
655 Clouds 7 1011 93 10000 1.54 130 14:59 05.04.2021
656 Clouds 7 1011 93 10000 1.54 130 14:36 05.04.2021
657 Clouds 6 1011 93 10000 0.4 64 13:52 05.04.2021
658 Clouds 6 1011 93 10000 0.1 343 13:27 05.04.2021
659 Clouds 7 1011 87 10000 0.1 343 12:46 05.04.2021
660 Clouds 7 1011 87 10000 0.13 28 12:25 05.04.2021
661 Clouds 8 1010 87 10000 0.13 28 11:48 05.04.2021
662 Clouds 8 1010 87 10000 0.07 254 11:28 05.04.2021
663 Clouds 8 1010 87 10000 0.51 0 10:55 05.04.2021
664 Clouds 8 1010 87 10000 0.51 0 10:29 05.04.2021
665 Clouds 9 1010 87 10000 2.06 290 09:48 05.04.2021
666 Clouds 9 1010 87 10000 2.06 290 09:26 05.04.2021
667 Clouds 9 1010 81 10000 0.51 0 08:46 05.04.2021
668 Clouds 9 1010 81 10000 0.51 0 08:26 05.04.2021
669 Clouds 10 1010 76 10000 1.03 0 07:38 05.04.2021
670 Clouds 10 1010 76 10000 1.03 0 07:18 05.04.2021
671 Clouds 12 1009 71 10000 2.06 300 03:42 05.04.2021
672 Clouds 19 1007 48 10000 1.54 0 00:53 05.04.2021
673 Clear 22 1006 33 10000 3.09 0 23:52 04.04.2021
674 Clear 22 1006 33 10000 3.09 0 23:30 04.04.2021
675 Clear 23 1006 31 10000 4.12 300 22:54 04.04.2021
676 Clear 23 1006 31 10000 4.12 300 22:31 04.04.2021
677 Clear 23 1006 35 10000 4.12 320 21:48 04.04.2021
678 Clear 23 1006 35 10000 4.12 320 21:21 04.04.2021
679 Clear 21 1006 43 10000 2.06 330 20:37 04.04.2021
680 Clear 21 1006 43 10000 2.06 330 20:19 04.04.2021
681 Clear 19 1007 52 10000 1.55 254 19:38 04.04.2021
682 Clear 19 1007 52 10000 1.87 244 19:19 04.04.2021
683 Clear 16 1009 63 10000 1.87 244 18:47 04.04.2021
684 Clear 16 1009 63 10000 1.52 263 18:24 04.04.2021
685 Clear 12 1009 87 10000 1.52 263 17:45 04.04.2021
686 Clear 12 1009 87 10000 1.45 275 17:24 04.04.2021
687 Mist 8 1010 100 1700 2.06 120 16:47 04.04.2021
688 Mist 8 1010 100 1700 2.06 120 16:20 04.04.2021
689 Fog 7 1010 100 500 1.54 290 15:36 04.04.2021
690 Fog 5 1010 100 350 1.03 0 14:50 04.04.2021
691 Fog 5 1010 100 350 1.03 0 14:28 04.04.2021
692 Fog 5 1010 100 450 1.76 285 13:52 04.04.2021
693 Fog 5 1010 100 450 1.73 287 13:25 04.04.2021
694 Clouds 5 1010 93 10000 1.03 0 12:44 04.04.2021
695 Clouds 5 1010 93 10000 1.03 0 12:25 04.04.2021
696 Clear 6 1011 93 10000 0.51 0 11:42 04.04.2021
697 Clear 6 1011 93 10000 0.51 0 11:24 04.04.2021
698 Clear 7 1011 93 10000 2.06 280 10:46 04.04.2021
699 Clear 7 1012 100 10000 2.57 290 09:57 04.04.2021
700 Clear 7 1012 100 10000 2.57 290 09:26 04.04.2021
701 Clear 7 1012 100 10000 2.57 290 09:26 04.04.2021
702 Clear 8 1012 93 10000 2.06 290 08:55 04.04.2021
703 Clear 8 1012 93 10000 2.06 290 08:37 04.04.2021
704 Clear 8 1012 93 10000 2.06 290 08:18 04.04.2021
705 Clear 9 1012 93 10000 1.54 270 06:38 04.04.2021
706 Clear 10 1012 87 10000 2.06 280 05:33 04.04.2021
707 Clear 14 1012 72 10000 2.06 300 01:30 04.04.2021
708 Clear 18 1012 55 10000 3.09 300 00:22 04.04.2021
709 Clear 21 1012 40 10000 3.09 320 23:50 03.04.2021
710 Clear 21 1012 40 10000 3.09 320 23:31 03.04.2021
711 Clear 22 1012 35 10000 3.6 330 22:52 03.04.2021
712 Clear 22 1012 35 10000 3.6 330 22:22 03.04.2021
713 Clear 21 1012 43 10000 3.6 320 21:52 03.04.2021
714 Clear 21 1012 43 10000 3.6 320 21:25 03.04.2021
715 Clear 19 1013 45 10000 3.09 300 20:54 03.04.2021
716 Clear 19 1013 45 10000 3.09 300 20:28 03.04.2021
717 Clear 17 1015 51 10000 3.09 310 19:51 03.04.2021
718 Clear 17 1015 51 10000 3.09 310 19:27 03.04.2021
719 Clear 15 1015 58 10000 2.06 320 18:52 03.04.2021
720 Clear 15 1015 58 10000 2.06 320 18:33 03.04.2021
721 Clear 13 1016 67 10000 1.54 310 17:55 03.04.2021
722 Clear 13 1016 67 10000 1.54 310 17:26 03.04.2021
723 Clear 11 1017 76 10000 0.51 0 16:54 03.04.2021
724 Clear 11 1017 76 10000 0.51 0 16:25 03.04.2021
725 Clouds 8 1017 87 10000 2.06 310 15:51 03.04.2021
726 Clouds 8 1017 87 10000 2.06 310 15:31 03.04.2021
727 Clear 5 1017 100 10000 2.57 300 14:45 03.04.2021
728 Clear 5 1017 100 10000 2.57 300 14:25 03.04.2021
729 Clear 5 1017 93 10000 1.54 300 13:54 03.04.2021
730 Clear 5 1017 93 10000 1.54 300 13:29 03.04.2021
731 Clear 5 1016 100 10000 1.84 277 12:57 03.04.2021
732 Clear 5 1016 100 10000 1.84 277 12:33 03.04.2021
733 Clear 6 1017 93 10000 2.57 290 11:41 03.04.2021
734 Clear 6 1017 93 10000 2.57 290 11:19 03.04.2021
735 Clear 7 1017 87 10000 2.06 0 10:45 03.04.2021
736 Clear 7 1017 87 10000 2.06 0 10:25 03.04.2021
737 Clear 8 1017 87 10000 3.09 300 09:29 03.04.2021
738 Clear 8 1017 87 10000 3.09 300 08:59 03.04.2021
739 Clear 8 1017 87 10000 3.09 300 08:32 03.04.2021
740 Clear 9 1017 87 10000 4.12 290 07:30 03.04.2021
741 Clear 10 1017 81 10000 2.06 290 06:53 03.04.2021
742 Clear 12 1016 76 10000 2.06 300 03:54 03.04.2021
743 Clear 14 1016 72 10000 1.54 280 02:54 03.04.2021
744 Clear 14 1016 72 10000 1.54 280 02:27 03.04.2021
745 Clear 18 1014 59 10000 4.12 280 00:31 03.04.2021
746 Clear 20 1014 49 10000 4.63 300 23:59 02.04.2021
747 Clear 20 1014 49 10000 4.63 300 23:29 02.04.2021
748 Clear 21 1014 46 10000 3.6 300 22:56 02.04.2021
749 Clear 21 1014 46 10000 3.6 300 22:37 02.04.2021
750 Clear 21 1014 52 10000 2.06 340 21:56 02.04.2021
751 Clear 21 1014 52 10000 2.06 340 21:38 02.04.2021
752 Clear 21 1014 52 10000 2.06 340 21:18 02.04.2021
753 Clear 20 1015 52 10000 2.57 310 20:38 02.04.2021
754 Clear 20 1015 52 10000 2.57 310 20:18 02.04.2021
755 Clear 18 1015 59 10000 1.54 0 19:40 02.04.2021
756 Clear 18 1015 59 10000 1.54 0 19:22 02.04.2021
757 Clouds 17 1016 72 10000 2.06 130 18:43 02.04.2021
758 Clouds 17 1016 72 10000 2.06 130 18:23 02.04.2021
759 Clouds 15 1017 77 10000 3.09 120 17:54 02.04.2021
760 Clouds 15 1017 77 10000 3.09 120 17:22 02.04.2021
761 Clouds 13 1017 88 10000 3.6 130 16:23 02.04.2021
762 Clouds 12 1017 94 10000 2.06 140 15:43 02.04.2021
763 Clouds 12 1017 94 10000 2.06 140 15:19 02.04.2021
764 Clouds 12 1017 94 10000 1.54 150 14:33 02.04.2021
765 Clouds 12 1017 94 10000 1.47 309 13:46 02.04.2021
766 Clouds 12 1017 94 10000 1.5 299 13:26 02.04.2021
767 Clouds 12 1016 94 10000 1.03 290 12:42 02.04.2021
768 Clouds 12 1016 94 10000 1.03 290 12:20 02.04.2021
769 Clouds 12 1016 94 10000 1.03 290 12:20 02.04.2021
770 Clouds 11 1016 100 10000 2.57 290 11:57 02.04.2021
771 Clouds 11 1016 100 10000 2.57 290 11:21 02.04.2021
772 Clouds 12 1016 94 10000 2.06 300 10:51 02.04.2021
773 Clouds 12 1016 94 10000 2.06 300 10:32 02.04.2021
774 Clouds 12 1016 94 10000 2.06 290 09:53 02.04.2021
775 Clouds 12 1016 94 10000 2.06 290 09:27 02.04.2021
776 Clouds 11 1016 100 10000 1.54 310 08:59 02.04.2021
777 Clouds 11 1016 100 10000 1.54 310 08:34 02.04.2021
778 Clouds 11 1016 93 10000 1.9 275 07:31 02.04.2021
779 Clouds 12 1016 94 10000 2.57 260 06:58 02.04.2021
780 Clouds 12 1016 94 10000 1.54 300 05:59 02.04.2021
781 Clouds 15 1014 82 10000 2.57 290 02:47 02.04.2021
782 Clouds 17 1013 72 10000 2.06 140 00:53 02.04.2021
783 Rain 17 1013 72 10000 2.06 140 00:23 02.04.2021
784 Rain 19 1012 68 10000 2.06 140 23:40 01.04.2021
785 Clouds 18 1012 68 10000 3.09 120 22:59 01.04.2021
786 Clouds 18 1012 68 10000 3.09 120 22:20 01.04.2021
787 Clouds 18 1013 63 10000 4.12 120 21:51 01.04.2021
788 Clouds 18 1013 63 10000 4.12 120 21:28 01.04.2021
789 Clouds 17 1012 62 10000 1.18 222 20:54 01.04.2021
790 Clouds 18 1013 63 10000 3.09 120 20:28 01.04.2021
791 Clouds 18 1013 63 10000 3.09 120 19:56 01.04.2021
792 Clouds 18 1013 63 10000 3.09 120 19:36 01.04.2021
793 Clouds 14 1014 77 10000 1.16 165 18:46 01.04.2021
794 Clouds 15 1014 77 10000 1.54 80 18:19 01.04.2021
795 Clouds 15 1014 77 10000 1.54 80 17:53 01.04.2021
796 Clouds 15 1014 77 10000 1.54 80 17:33 01.04.2021
797 Clouds 14 1014 82 10000 3.09 120 16:53 01.04.2021
798 Clouds 14 1014 82 10000 3.09 120 16:31 01.04.2021
799 Clouds 13 1015 94 10000 1.09 86 15:47 01.04.2021
800 Clouds 13 1015 94 10000 1.1 93 15:20 01.04.2021
801 Clouds 11 1015 100 10000 2.06 290 14:46 01.04.2021
802 Clouds 11 1015 100 10000 2.06 290 14:26 01.04.2021
803 Clouds 12 1015 94 10000 1.54 320 13:56 01.04.2021
804 Clouds 12 1015 94 10000 1.54 320 13:31 01.04.2021
805 Clouds 12 1015 94 10000 3.6 130 12:54 01.04.2021
806 Clouds 12 1015 94 10000 3.6 130 12:32 01.04.2021
807 Clouds 12 1015 94 10000 5.14 120 11:51 01.04.2021
808 Rain 12 1015 94 10000 5.14 120 11:25 01.04.2021
809 Rain 13 1015 88 10000 5.66 120 10:58 01.04.2021
810 Rain 13 1015 88 10000 5.66 120 10:40 01.04.2021
811 Rain 13 1015 88 10000 5.66 120 10:21 01.04.2021
812 Rain 12 1015 94 10000 6.17 120 09:30 01.04.2021
813 Rain 12 1015 94 10000 6.17 120 09:30 01.04.2021
814 Rain 12 1016 94 10000 4.12 110 08:40 01.04.2021
815 Rain 12 1016 94 10000 4.12 110 08:19 01.04.2021
816 Rain 13 1016 88 10000 5.14 120 07:21 01.04.2021
817 Rain 15 1017 72 10000 5.14 70 06:50 01.04.2021
818 Rain 15 1017 77 10000 3.6 130 03:52 01.04.2021
819 Rain 18 1016 55 10000 2.57 0 02:29 01.04.2021
820 Clouds 19 1016 52 10000 4.12 80 23:51 31.03.2021
821 Clouds 19 1016 52 10000 4.12 80 23:32 31.03.2021
822 Clear 20 1016 49 10000 6.17 110 22:42 31.03.2021
823 Clear 20 1016 49 10000 6.17 110 22:21 31.03.2021
824 Clear 21 1016 46 10000 6.17 110 21:47 31.03.2021
825 Clear 21 1016 46 10000 6.17 110 21:24 31.03.2021
826 Clear 21 1017 46 10000 5.66 110 20:58 31.03.2021
827 Clear 21 1017 46 10000 5.66 110 20:40 31.03.2021
828 Clear 21 1017 46 10000 5.66 110 20:18 31.03.2021
829 Clouds 14 1019 70 10000 2.37 107 19:41 31.03.2021
830 Clouds 19 1018 52 10000 5.14 0 19:19 31.03.2021
831 Clouds 19 1018 52 10000 5.14 0 19:19 31.03.2021
832 Clouds 19 1018 52 10000 5.14 0 18:51 31.03.2021
833 Clouds 19 1018 52 10000 5.14 0 18:22 31.03.2021
834 Clear 20 1018 49 10000 3.09 90 17:37 31.03.2021
835 Clear 20 1018 49 10000 3.09 90 17:18 31.03.2021
836 Clear 15 1018 72 10000 2.57 280 16:49 31.03.2021
837 Clear 15 1018 72 10000 2.57 280 16:29 31.03.2021
838 Clouds 12 1019 94 10000 2.06 300 15:51 31.03.2021
839 Clouds 12 1019 94 10000 2.06 300 15:20 31.03.2021
840 Clouds 12 1019 94 10000 2.06 300 15:20 31.03.2021
841 Clouds 12 1020 79 10000 2.44 113 14:46 31.03.2021
842 Clouds 11 1018 93 6000 0.51 0 14:24 31.03.2021
843 Clouds 11 1018 93 6000 0.51 0 13:43 31.03.2021
844 Clouds 11 1018 93 6000 0.51 0 13:19 31.03.2021
845 Clouds 11 1018 93 10000 1.03 0 12:37 31.03.2021
846 Clouds 11 1018 93 10000 1.03 0 12:18 31.03.2021
847 Clouds 11 1018 100 10000 1.54 270 11:22 31.03.2021
848 Clouds 10 1017 93 10000 1.03 0 10:47 31.03.2021
849 Clouds 10 1017 93 10000 1.03 0 10:26 31.03.2021
850 Clear 10 1017 93 10000 1.54 300 09:45 31.03.2021
851 Clear 10 1017 93 10000 1.54 300 09:26 31.03.2021
852 Clouds 12 1017 87 10000 3.09 280 08:39 31.03.2021
853 Clouds 13 1017 88 10000 2.57 280 07:58 31.03.2021
854 Clouds 13 1017 82 10000 3.09 290 06:50 31.03.2021
855 Clear 14 1016 77 10000 2.06 280 03:52 31.03.2021
856 Clear 15 1016 72 10000 3.6 280 02:30 31.03.2021
857 Clouds 21 1014 46 10000 3.6 320 00:53 31.03.2021
858 Clouds 21 1014 46 10000 3.6 320 00:21 31.03.2021
859 Clear 24 1014 33 10000 4.12 300 23:47 30.03.2021
860 Clear 24 1014 33 10000 4.12 300 23:19 30.03.2021
861 Clear 24 1014 35 10000 3.6 300 22:42 30.03.2021
862 Clear 24 1014 35 10000 3.6 300 22:24 30.03.2021
863 Clear 23 1014 40 10000 3.6 310 21:53 30.03.2021
864 Clear 23 1014 40 10000 3.6 310 21:23 30.03.2021
865 Clear 22 1015 49 10000 3.09 260 20:55 30.03.2021
866 Clear 22 1015 49 10000 3.09 260 20:28 30.03.2021
867 Clear 20 1016 60 10000 3.09 270 19:51 30.03.2021
868 Clear 20 1016 60 10000 3.09 270 19:28 30.03.2021
869 Clouds 21 1013 36 10000 1.65 225 18:40 30.03.2021
870 Clouds 14 1017 82 10000 3.09 320 18:20 30.03.2021
871 Clouds 14 1017 82 10000 3.09 320 17:42 30.03.2021
872 Clouds 14 1017 82 10000 3.09 320 17:23 30.03.2021
873 Clouds 13 1017 88 10000 2.06 310 16:45 30.03.2021
874 Clouds 13 1017 88 10000 2.06 310 16:24 30.03.2021
875 Fog 13 1017 88 10000 2.57 290 15:21 30.03.2021
876 Fog 12 1016 94 10000 3.09 300 14:57 30.03.2021
877 Fog 12 1016 94 10000 3.09 300 14:22 30.03.2021
878 Clouds 12 1016 94 10000 3.6 310 13:59 30.03.2021
879 Clouds 12 1016 94 10000 3.6 310 13:37 30.03.2021
880 Clouds 12 1016 94 10000 3.09 310 12:49 30.03.2021
881 Clouds 12 1016 94 10000 3.09 310 12:28 30.03.2021
882 Clouds 11 1015 100 10000 2.57 310 11:56 30.03.2021
883 Clouds 11 1015 100 10000 2.57 310 11:23 30.03.2021
884 Clear 11 1015 93 10000 2.06 310 10:46 30.03.2021
885 Clear 11 1015 93 10000 2.06 310 10:26 30.03.2021
886 Clear 11 1015 93 10000 1.54 320 09:50 30.03.2021
887 Clear 11 1015 93 10000 1.54 320 09:50 30.03.2021
888 Clear 11 1015 93 10000 1.54 320 09:31 30.03.2021
889 Clear 12 1015 87 10000 2.57 300 08:56 30.03.2021
890 Clear 12 1015 87 10000 2.57 300 08:37 30.03.2021
891 Clear 12 1015 87 10000 2.06 300 07:51 30.03.2021
892 Clear 12 1015 87 10000 2.06 300 07:22 30.03.2021
893 Clear 14 1015 82 10000 3.6 300 05:26 30.03.2021
894 Clear 15 1014 77 10000 2.57 290 04:58 30.03.2021
895 Clear 22 1012 53 10000 2.06 310 00:30 30.03.2021
896 Clear 25 1012 44 10000 2.06 320 23:33 29.03.2021
897 Clear 26 1013 36 10000 1.54 330 22:45 29.03.2021
898 Clear 26 1013 36 10000 1.54 330 22:25 29.03.2021
899 Clear 24 1013 41 10000 1.54 340 21:43 29.03.2021
900 Clear 24 1013 41 10000 1.54 340 21:23 29.03.2021
901 Clear 23 1014 46 10000 1.54 280 20:47 29.03.2021
902 Clear 23 1014 46 10000 1.54 280 20:26 29.03.2021
903 Clear 22 1016 49 10000 1.03 0 19:48 29.03.2021
904 Clear 22 1016 49 10000 1.03 0 19:22 29.03.2021
905 Clear 18 1017 59 10000 1.54 0 18:42 29.03.2021
906 Clear 18 1017 59 10000 1.54 0 18:23 29.03.2021
907 Clear 16 1018 67 10000 1.03 0 17:45 29.03.2021
908 Clear 13 1018 76 10000 0.51 0 16:59 29.03.2021
909 Clear 13 1018 76 10000 0.51 0 16:36 29.03.2021
910 Clear 9 1018 100 10000 0.51 91 15:57 29.03.2021
911 Clear 9 1018 100 10000 0.51 91 15:34 29.03.2021
912 Fog 6 1019 100 100 0.33 77 14:56 29.03.2021
913 Fog 6 1019 100 100 0.33 77 14:34 29.03.2021
914 Fog 6 1018 100 550 0.3 71 13:52 29.03.2021
915 Fog 6 1018 100 550 0.18 358 13:26 29.03.2021
916 Clouds 6 1018 100 10000 0.18 358 12:50 29.03.2021
917 Clouds 6 1018 100 10000 0.31 301 12:21 29.03.2021
918 Clear 7 1018 100 10000 0.31 301 11:40 29.03.2021
919 Clear 7 1018 100 10000 0.24 300 11:22 29.03.2021
920 Clear 8 1018 93 10000 0.24 300 10:36 29.03.2021
921 Clear 8 1018 100 10000 0.28 294 09:44 29.03.2021
922 Clear 9 1018 93 10000 0.24 268 08:58 29.03.2021
923 Clear 9 1018 93 10000 0.28 250 08:28 29.03.2021
924 Clear 10 1018 93 10000 2.06 300 07:41 29.03.2021
925 Clear 12 1018 82 10000 2.57 300 06:27 29.03.2021
926 Clear 13 1017 76 10000 2.57 300 03:51 29.03.2021
927 Clear 18 1016 55 10000 2.06 310 01:43 29.03.2021
928 Clear 22 1015 46 10000 3.6 290 00:22 29.03.2021
929 Clear 24 1015 35 10000 3.6 310 23:42 28.03.2021
930 Clear 24 1015 35 10000 3.6 310 23:19 28.03.2021
931 Clear 24 1015 38 10000 2.06 0 22:39 28.03.2021
932 Clear 24 1015 38 10000 2.06 0 22:20 28.03.2021
933 Clouds 22 1013 31 10000 1.43 206 21:41 28.03.2021
934 Clear 21 1017 43 10000 3.09 320 21:22 28.03.2021
935 Clear 21 1017 43 10000 3.09 320 20:48 28.03.2021
936 Clear 21 1017 43 10000 3.09 320 20:29 28.03.2021
937 Clear 20 1017 49 10000 2.06 310 19:44 28.03.2021
938 Clear 20 1017 49 10000 2.06 310 19:23 28.03.2021
939 Clear 18 1018 55 10000 1.54 0 18:58 28.03.2021
940 Clear 18 1018 55 10000 1.54 0 18:27 28.03.2021
941 Clear 15 1019 67 10000 1.03 0 17:47 28.03.2021
942 Clear 15 1019 67 10000 1.03 0 17:27 28.03.2021
943 Clear 12 1019 76 10000 2.57 310 16:46 28.03.2021
944 Clear 12 1019 76 10000 2.57 310 16:23 28.03.2021
945 Clear 10 1020 81 10000 2.57 300 15:27 28.03.2021
946 Clear 7 1020 93 10000 0.51 0 14:57 28.03.2021
947 Clear 7 1020 93 10000 0.51 0 14:31 28.03.2021
948 Clear 6 1019 100 10000 1.16 257 13:46 28.03.2021
949 Clear 6 1019 100 10000 1.51 262 13:21 28.03.2021
950 Clear 7 1019 93 10000 3.09 300 12:50 28.03.2021
951 Clear 7 1019 93 10000 3.09 300 12:32 28.03.2021
952 Clear 8 1019 93 10000 2.57 330 11:43 28.03.2021
953 Clear 8 1019 93 10000 2.57 330 11:24 28.03.2021
954 Clear 8 1019 93 10000 1.65 257 10:44 28.03.2021
955 Clear 8 1019 93 10000 1.61 254 10:24 28.03.2021
956 Clear 9 1019 87 10000 1.54 0 09:46 28.03.2021
957 Clear 9 1019 87 10000 1.54 0 09:24 28.03.2021
958 Clear 10 1019 81 10000 4.12 290 08:45 28.03.2021
959 Clear 11 1019 76 10000 4.12 280 07:49 28.03.2021
960 Clear 10 1019 87 10000 3.6 280 06:30 28.03.2021
961 Clear 12 1019 71 10000 2.57 300 03:51 28.03.2021
962 Clear 15 1018 63 10000 2.06 310 00:52 28.03.2021
963 Clear 15 1018 63 10000 2.06 310 00:20 28.03.2021
964 Clear 20 1018 40 10000 5.66 300 23:40 27.03.2021
965 Clear 21 1017 37 10000 4.12 300 22:54 27.03.2021
966 Clear 21 1017 37 10000 4.12 300 22:36 27.03.2021
967 Clear 22 1017 35 10000 5.14 300 21:48 27.03.2021
968 Clear 22 1017 35 10000 5.14 300 21:23 27.03.2021
969 Clear 21 1014 30 10000 2.37 229 20:59 27.03.2021
970 Clear 20 1018 37 10000 3.09 0 20:38 27.03.2021
971 Clear 20 1018 37 10000 3.09 0 20:19 27.03.2021
972 Clear 20 1018 37 10000 3.09 0 19:42 27.03.2021
973 Clear 20 1018 37 10000 3.09 0 19:23 27.03.2021
974 Clear 19 1019 42 10000 4.12 330 18:48 27.03.2021
975 Clear 19 1019 42 10000 4.12 330 18:26 27.03.2021
976 Clear 16 1020 51 10000 2.57 290 17:40 27.03.2021
977 Clear 16 1020 51 10000 2.57 290 17:20 27.03.2021
978 Clear 13 1021 54 10000 0.51 0 16:48 27.03.2021
979 Clear 13 1021 54 10000 0.51 0 16:27 27.03.2021
980 Clear 10 1021 66 10000 2.06 310 15:46 27.03.2021
981 Clear 10 1021 66 10000 2.06 310 15:21 27.03.2021
982 Clear 7 1022 81 10000 2.57 300 14:45 27.03.2021
983 Clear 3 1022 93 10000 1.54 290 13:42 27.03.2021
984 Clear 3 1022 93 10000 1.54 290 13:21 27.03.2021
985 Clear 3 1022 93 10000 2.06 290 12:50 27.03.2021
986 Clear 4 1022 93 10000 2.06 280 11:55 27.03.2021
987 Clear 4 1022 93 10000 2.06 280 11:37 27.03.2021
988 Clear 4 1022 93 10000 2.06 280 11:19 27.03.2021
989 Clear 4 1022 93 10000 0.51 0 10:40 27.03.2021
990 Clear 6 1022 87 10000 2.57 300 09:59 27.03.2021
991 Clear 6 1022 87 10000 2.57 300 09:21 27.03.2021
992 Clear 6 1022 81 10000 3.09 300 08:40 27.03.2021
993 Clear 7 1022 81 10000 3.6 290 07:56 27.03.2021
994 Clear 7 1022 81 10000 3.6 290 07:22 27.03.2021
995 Clear 7 1022 81 10000 3.09 290 06:43 27.03.2021
996 Clouds 11 1022 62 10000 2.57 310 04:42 27.03.2021
997 Clouds 12 1022 62 10000 3.6 290 02:58 27.03.2021
998 Clouds 15 1021 44 10000 1.54 0 00:45 27.03.2021
999 Clouds 15 1021 44 10000 1.54 0 00:25 27.03.2021
1000 Clear 19 1021 32 10000 2.06 320 23:37 26.03.2021
1001 Clouds 21 1020 21 10000 2.57 330 22:40 26.03.2021
1002 Clear 20 1021 26 10000 3.09 330 21:53 26.03.2021
1003 Clear 20 1021 26 10000 3.09 330 21:24 26.03.2021
1004 Clear 20 1021 26 10000 3.6 290 20:57 26.03.2021
1005 Clear 20 1021 26 10000 3.6 290 20:31 26.03.2021
1006 Clear 19 1022 37 10000 3.6 0 19:52 26.03.2021
1007 Clear 19 1022 37 10000 3.6 0 19:33 26.03.2021
1008 Clear 17 1023 45 10000 2.06 310 18:51 26.03.2021
1009 Clear 17 1023 45 10000 2.06 310 18:31 26.03.2021
1010 Clear 14 1024 51 10000 1.54 0 17:58 26.03.2021
1011 Clear 14 1024 51 10000 1.54 0 17:35 26.03.2021
1012 Clear 12 1024 62 10000 1.54 320 16:49 26.03.2021
1013 Clear 12 1024 62 10000 1.54 320 16:22 26.03.2021
1014 Clear 9 1025 71 10000 2.06 310 15:36 26.03.2021
1015 Clear 6 1025 81 10000 1.09 247 14:45 26.03.2021
1016 Clear 2 1025 93 10000 1.03 0 13:52 26.03.2021
1017 Clear 2 1025 93 10000 1.03 0 13:23 26.03.2021
1018 Clear 1 1025 93 10000 2.06 290 12:40 26.03.2021
1019 Clear 2 1024 100 10000 1.54 300 11:48 26.03.2021
1020 Clear 2 1024 100 10000 1.54 300 11:29 26.03.2021
1021 Clear 3 1024 93 10000 1.54 280 10:43 26.03.2021
1022 Clear 3 1024 93 10000 1.54 280 10:19 26.03.2021
1023 Clear 4 1024 93 10000 2.57 310 09:41 26.03.2021
1024 Clear 4 1024 93 10000 2.06 280 08:49 26.03.2021
1025 Clear 4 1024 93 10000 2.06 280 08:29 26.03.2021
1026 Clear 6 1024 81 10000 3.09 310 07:44 26.03.2021
1027 Clear 6 1024 81 10000 3.09 310 07:22 26.03.2021
1028 Clear 6 1024 81 10000 3.09 310 06:55 26.03.2021
1029 Clear 7 1024 76 10000 3.09 300 05:32 26.03.2021
1030 Clear 9 1023 66 10000 3.09 290 03:28 26.03.2021
1031 Clear 12 1021 54 10000 2.06 320 00:50 26.03.2021
1032 Clear 18 1020 36 10000 1.54 310 23:49 25.03.2021
1033 Clear 18 1020 36 10000 1.54 310 23:30 25.03.2021
1034 Clear 22 1019 18 10000 2.57 290 22:40 25.03.2021
1035 Clear 22 1019 18 10000 2.57 290 22:18 25.03.2021
1036 Clear 20 1017 17 10000 1.96 218 21:45 25.03.2021
1037 Clear 20 1017 15 10000 1.54 221 21:24 25.03.2021
1038 Clear 19 1020 30 10000 2.57 310 20:38 25.03.2021
1039 Clear 19 1020 30 10000 2.57 310 20:18 25.03.2021
1040 Clear 19 1020 30 10000 2.57 310 19:40 25.03.2021
1041 Clear 19 1020 30 10000 2.57 310 19:21 25.03.2021
1042 Clear 17 1021 39 10000 1.54 0 18:40 25.03.2021
1043 Clear 17 1021 39 10000 1.54 0 18:22 25.03.2021
1044 Clear 11 1023 58 10000 1.03 0 17:38 25.03.2021
1045 Clear 11 1023 58 10000 1.03 0 16:58 25.03.2021
1046 Clear 11 1023 58 10000 1.03 0 16:35 25.03.2021
1047 Clear 15 1020 20 10000 0.6 251 15:49 25.03.2021
1048 Clear 13 1021 25 10000 0.57 256 15:27 25.03.2021
1049 Clear 13 1021 25 10000 0.57 256 14:59 25.03.2021
1050 Clear 13 1021 25 10000 0.57 256 14:40 25.03.2021
1051 Clouds 1 1023 100 10000 0.72 272 13:30 25.03.2021
1052 Clear 1 1023 100 10000 1.54 80 12:56 25.03.2021
1053 Clear 1 1023 100 10000 1.54 80 12:36 25.03.2021
1054 Clear 1 1023 100 10000 1.54 80 12:18 25.03.2021
1055 Fog 1 1022 100 550 1.03 110 11:44 25.03.2021
1056 Fog 1 1022 100 550 1.03 110 11:25 25.03.2021
1057 Clouds 2 1022 100 10000 1.19 262 10:49 25.03.2021
1058 Clouds 2 1022 100 10000 1.12 263 10:21 25.03.2021
1059 Clear 2 1022 93 10000 1.03 0 09:50 25.03.2021
1060 Clear 2 1022 93 10000 1.03 0 09:31 25.03.2021
1061 Clear 3 1021 100 10000 0.96 263 08:37 25.03.2021
1062 Clear 4 1022 87 10000 1.54 300 07:50 25.03.2021
1063 Clear 4 1022 93 10000 1.54 300 06:49 25.03.2021
1064 Clear 4 1022 93 10000 1.54 300 06:24 25.03.2021
1065 Clear 6 1021 87 10000 2.06 290 05:21 25.03.2021
1066 Clear 8 1020 71 10000 2.57 300 02:28 25.03.2021
1067 Clear 12 1019 54 10000 2.06 300 00:20 25.03.2021
1068 Clear 16 1018 39 10000 2.06 320 23:40 24.03.2021
1069 Clear 16 1018 39 10000 2.06 320 23:20 24.03.2021
1070 Clear 19 1017 26 10000 1.54 330 22:40 24.03.2021
1071 Clear 19 1018 27 10000 1.54 0 21:57 24.03.2021
1072 Clear 19 1018 27 10000 1.54 0 21:39 24.03.2021
1073 Clear 19 1018 27 10000 1.54 0 21:19 24.03.2021
1074 Clear 18 1018 27 10000 0.51 0 20:41 24.03.2021
1075 Clear 18 1018 27 10000 0.51 0 20:18 24.03.2021
1076 Clear 16 1019 33 10000 1.03 0 19:34 24.03.2021
1077 Clear 15 1020 36 10000 1.03 0 18:56 24.03.2021
1078 Clear 15 1020 36 10000 1.03 0 18:37 24.03.2021
1079 Clear 15 1020 36 10000 1.03 0 18:19 24.03.2021
1080 Clear 13 1021 44 10000 2.06 0 17:33 24.03.2021
1081 Clear 11 1022 50 10000 2.06 350 16:59 24.03.2021
1082 Clear 11 1022 50 10000 2.06 350 16:40 24.03.2021
1083 Clear 11 1022 50 10000 2.06 350 16:19 24.03.2021
1084 Clear 8 1022 66 10000 2.06 310 15:41 24.03.2021
1085 Clear 8 1022 66 10000 2.06 310 15:20 24.03.2021
1086 Clear 5 1022 75 10000 2.06 320 14:30 24.03.2021
1087 Clear 2 1023 93 10000 1.54 290 13:59 24.03.2021
1088 Clouds 2 1023 93 10000 1.54 290 13:28 24.03.2021
1089 Clouds 2 1023 93 10000 1.54 290 13:28 24.03.2021
1090 Clear 1 1023 93 10000 1.54 310 12:52 24.03.2021
1091 Clear 1 1023 93 10000 1.54 310 12:32 24.03.2021
1092 Clear 2 1022 93 10000 3.09 300 11:57 24.03.2021
1093 Clear 2 1022 93 10000 3.09 300 11:39 24.03.2021
1094 Clear 2 1022 93 10000 1.54 320 10:49 24.03.2021
1095 Clear 2 1022 93 10000 1.54 320 10:31 24.03.2021
1096 Clear 3 1021 87 10000 1.54 0 09:55 24.03.2021
1097 Clear 3 1021 87 10000 1.54 0 09:31 24.03.2021
1098 Clear 5 1021 75 10000 2.06 300 08:57 24.03.2021
1099 Clear 5 1021 75 10000 2.06 300 08:38 24.03.2021
1100 Clear 6 1020 70 10000 2.57 280 07:49 24.03.2021
1101 Clear 6 1020 70 10000 2.57 280 07:19 24.03.2021
1102 Clear 5 1020 75 10000 2.06 0 06:43 24.03.2021
1103 Clear 11 1018 50 10000 3.6 260 02:18 24.03.2021
1104 Clouds 12 1017 50 10000 4.63 290 00:40 24.03.2021
1105 Clouds 13 1016 44 10000 5.66 280 23:46 23.03.2021
1106 Clouds 13 1016 44 10000 5.66 280 23:19 23.03.2021
1107 Clouds 15 1015 44 10000 8.75 300 22:47 23.03.2021
1108 Clouds 15 1015 44 10000 8.75 300 22:24 23.03.2021
1109 Clouds 15 1014 51 10000 9.77 300 21:45 23.03.2021
1110 Clouds 15 1014 51 10000 9.77 300 21:25 23.03.2021
1111 Clouds 15 1013 58 10000 8.23 300 20:44 23.03.2021
1112 Clouds 15 1013 58 10000 8.23 300 20:25 23.03.2021
1113 Clouds 16 1013 63 10000 7.2 290 19:47 23.03.2021
1114 Clouds 16 1013 63 10000 7.2 290 19:25 23.03.2021
1115 Clouds 15 1010 51 10000 5.68 285 18:43 23.03.2021
1116 Clouds 15 1010 54 10000 5.19 285 18:22 23.03.2021
1117 Clouds 15 1010 54 10000 5.19 285 17:45 23.03.2021
1118 Clouds 15 1012 58 10000 5.14 280 17:21 23.03.2021
1119 Clouds 15 1012 58 10000 5.14 280 16:26 23.03.2021
1120 Clouds 14 1012 62 10000 4.63 290 15:59 23.03.2021
1121 Clouds 14 1012 62 10000 4.63 290 15:38 23.03.2021
1122 Clouds 13 1012 71 10000 3.6 310 14:52 23.03.2021
1123 Clouds 13 1012 71 10000 3.6 310 14:21 23.03.2021
1124 Clouds 13 1012 71 10000 3.6 0 13:50 23.03.2021
1125 Clouds 13 1012 71 10000 3.6 0 13:26 23.03.2021
1126 Clouds 13 1012 71 10000 3.6 0 13:26 23.03.2021
1127 Rain 11 1011 76 10000 3.09 280 12:47 23.03.2021
1128 Rain 11 1011 76 10000 3.09 280 12:27 23.03.2021
1129 Clouds 9 1010 87 10000 2.57 300 11:56 23.03.2021
1130 Clouds 9 1010 87 10000 2.57 300 11:37 23.03.2021
1131 Clear 8 1011 87 10000 2.06 300 10:44 23.03.2021
1132 Clear 8 1011 87 10000 2.06 300 10:22 23.03.2021
1133 Clear 9 1011 87 10000 3.09 280 09:57 23.03.2021
1134 Clear 9 1011 87 10000 3.09 280 09:29 23.03.2021
1135 Clouds 9 1012 87 10000 2.57 280 08:58 23.03.2021
1136 Clouds 9 1012 87 10000 2.57 280 08:39 23.03.2021
1137 Clouds 9 1012 87 10000 2.57 280 08:20 23.03.2021
1138 Clouds 9 1013 87 10000 2.22 285 07:28 23.03.2021
1139 Clouds 9 1013 81 10000 1.03 0 06:57 23.03.2021
1140 Clouds 9 1013 81 10000 1.03 0 06:57 23.03.2021
1141 Clouds 9 1013 81 10000 1.03 0 06:18 23.03.2021
1142 Clear 11 1015 71 10000 2.06 300 03:20 23.03.2021
1143 Clear 17 1015 48 10000 3.09 340 00:42 23.03.2021
1144 Clear 22 1015 30 10000 3.6 290 23:24 22.03.2021
1145 Clear 23 1015 27 10000 4.63 300 22:46 22.03.2021
1146 Clear 23 1015 27 10000 4.63 300 22:22 22.03.2021
1147 Clear 24 1015 25 10000 4.63 280 21:52 22.03.2021
1148 Clear 24 1015 25 10000 4.63 280 21:52 22.03.2021
1149 Clear 24 1015 25 10000 4.63 280 21:29 22.03.2021
1150 Clear 23 1015 28 10000 2.57 0 20:54 22.03.2021
1151 Clear 23 1015 28 10000 2.57 0 20:30 22.03.2021
1152 Clear 23 1016 31 10000 5.14 300 19:59 22.03.2021
1153 Clear 23 1016 31 10000 5.14 300 19:59 22.03.2021
1154 Clear 23 1016 31 10000 5.14 300 19:40 22.03.2021
1155 Clear 23 1016 31 10000 5.14 300 19:21 22.03.2021
1156 Clear 23 1016 31 10000 5.14 300 19:21 22.03.2021
1157 Clear 23 1016 31 10000 5.14 300 19:21 22.03.2021
1158 Clear 21 1017 40 10000 3.6 0 18:42 22.03.2021
1159 Clear 21 1017 40 10000 3.6 0 18:23 22.03.2021
1160 Clear 18 1018 52 10000 2.57 310 17:51 22.03.2021
1161 Clear 18 1018 52 10000 2.57 310 17:22 22.03.2021
1162 Clear 18 1018 52 10000 2.57 310 17:22 22.03.2021
1163 Clear 14 1019 67 10000 2.06 330 16:57 22.03.2021
1164 Clear 14 1019 67 10000 2.06 330 16:39 22.03.2021
1165 Clear 12 1019 76 10000 2.57 280 15:43 22.03.2021
1166 Clear 12 1019 76 10000 2.57 280 15:25 22.03.2021
1167 Clear 8 1019 93 10000 2.57 310 14:59 22.03.2021
1168 Clear 8 1019 93 10000 2.57 310 14:34 22.03.2021
1169 Clouds 12 1019 47 10000 2.13 261 13:52 22.03.2021
1170 Clouds 12 1019 47 10000 2.13 261 13:52 22.03.2021
1171 Clouds 6 1019 93 10000 3.09 300 13:33 22.03.2021
1172 Clouds 6 1019 93 10000 3.09 300 12:59 22.03.2021
1173 Clouds 6 1019 93 10000 3.09 300 12:27 22.03.2021
1174 Clear 6 1019 93 10000 3.09 300 11:57 22.03.2021
1175 Clear 6 1019 93 10000 3.09 300 11:39 22.03.2021
1176 Clear 6 1019 93 10000 3.09 300 11:20 22.03.2021
1177 Clear 7 1018 93 10000 2.57 290 10:41 22.03.2021
1178 Clear 7 1018 93 10000 2.57 290 10:18 22.03.2021
1179 Clear 7 1018 87 10000 2.57 310 09:36 22.03.2021
1180 Clear 8 1018 87 10000 3.09 300 08:57 22.03.2021
1181 Clear 8 1018 87 10000 3.09 300 08:57 22.03.2021
1182 Clear 8 1018 87 10000 3.09 300 08:39 22.03.2021
1183 Clear 8 1018 87 10000 3.09 300 08:20 22.03.2021
1184 Clear 8 1018 87 10000 3.09 290 07:42 22.03.2021
1185 Clear 8 1018 93 10000 2.06 280 06:52 22.03.2021
1186 Clear 8 1018 87 10000 2.06 300 05:18 22.03.2021
1187 Clear 16 1016 59 10000 1.54 320 00:55 22.03.2021
1188 Clear 16 1016 59 10000 1.54 320 00:20 22.03.2021
1189 Clear 22 1016 40 10000 2.57 320 23:48 21.03.2021
1190 Clear 22 1016 40 10000 2.57 320 23:18 21.03.2021
1191 Clear 23 1016 35 10000 2.57 320 22:54 21.03.2021
1192 Clear 23 1016 35 10000 2.57 330 21:44 21.03.2021
1193 Clear 23 1016 35 10000 2.57 330 21:25 21.03.2021
1194 Clear 22 1017 35 10000 2.06 320 20:57 21.03.2021
1195 Clear 22 1017 35 10000 2.06 320 20:39 21.03.2021
1196 Clear 22 1017 35 10000 2.06 320 20:21 21.03.2021
1197 Clear 20 1018 42 10000 2.06 300 19:48 21.03.2021
1198 Clear 20 1018 42 10000 2.06 300 19:20 21.03.2021
1199 Clear 18 1019 48 10000 1.03 0 18:44 21.03.2021
1200 Clear 18 1019 48 10000 1.03 0 18:25 21.03.2021
1201 Clear 16 1020 55 10000 1.03 0 17:43 21.03.2021
1202 Clear 16 1020 55 10000 1.03 0 17:18 21.03.2021
1203 Clear 16 1020 55 10000 1.03 0 17:18 21.03.2021
1204 Clear 13 1021 62 10000 1.54 0 16:50 21.03.2021
1205 Clear 13 1021 62 10000 1.54 0 16:26 21.03.2021
1206 Clear 10 1022 76 10000 1.03 0 15:48 21.03.2021
1207 Clear 10 1022 76 10000 1.03 0 15:22 21.03.2021
1208 Clear 7 1022 93 10000 0.4 314 14:48 21.03.2021
1209 Clear 7 1022 93 10000 0.57 332 14:27 21.03.2021
1210 Fog 4 1022 100 500 1.03 0 13:59 21.03.2021
1211 Fog 4 1022 100 500 1.03 0 13:40 21.03.2021
1212 Mist 3 1022 100 1000 1.03 0 12:45 21.03.2021
1213 Mist 3 1022 100 1000 1.03 0 12:25 21.03.2021
1214 Mist 3 1022 100 1000 1.03 0 12:25 21.03.2021
1215 Clouds 2 1022 100 10000 0.46 329 11:42 21.03.2021
1216 Clouds 2 1022 100 10000 0.42 306 11:24 21.03.2021
1217 Fog 4 1022 93 600 0.42 306 10:46 21.03.2021
1218 Fog 4 1022 93 600 0.49 294 10:27 21.03.2021
1219 Clear 4 1022 100 10000 0.49 294 09:50 21.03.2021
1220 Clear 4 1022 100 10000 0.49 294 09:32 21.03.2021
1221 Mist 6 1023 93 1600 0.47 302 08:57 21.03.2021
1222 Mist 6 1023 93 1600 0.47 302 08:31 21.03.2021
1223 Clear 6 1023 93 10000 1.54 270 07:51 21.03.2021
1224 Clear 6 1023 93 10000 1.54 270 07:28 21.03.2021
1225 Clear 6 1023 93 10000 1.54 310 06:21 21.03.2021
1226 Clouds 11 1024 76 10000 2.06 300 03:41 21.03.2021
1227 Clouds 15 1022 55 10000 2.57 320 00:57 21.03.2021
1228 Clouds 15 1022 55 10000 2.57 320 00:37 21.03.2021
1229 Clouds 15 1022 55 10000 2.57 320 00:19 21.03.2021
1230 Clouds 16 1022 51 10000 2.57 310 23:42 20.03.2021
1231 Clouds 16 1022 51 10000 2.57 310 23:18 20.03.2021
1232 Clouds 17 1021 48 10000 4.12 310 22:24 20.03.2021
1233 Clouds 17 1021 48 10000 3.6 300 21:48 20.03.2021
1234 Clouds 17 1021 48 10000 3.6 300 21:26 20.03.2021
1235 Clouds 17 1021 48 10000 3.6 0 20:49 20.03.2021
1236 Clouds 17 1021 48 10000 3.6 0 20:24 20.03.2021
1237 Clouds 16 1021 51 10000 2.57 310 19:52 20.03.2021
1238 Clouds 16 1021 51 10000 2.57 310 19:29 20.03.2021
1239 Clouds 16 1021 51 10000 4.63 300 18:52 20.03.2021
1240 Clouds 16 1021 51 10000 4.63 300 18:29 20.03.2021
1241 Clouds 15 1021 55 10000 3.6 310 17:58 20.03.2021
1242 Clouds 15 1021 55 10000 3.6 310 17:40 20.03.2021
1243 Clouds 15 1021 55 10000 3.6 310 17:21 20.03.2021
1244 Clouds 15 1021 51 10000 2.06 0 16:40 20.03.2021
1245 Clouds 15 1021 51 10000 2.06 0 16:19 20.03.2021
1246 Clouds 14 1020 54 10000 3.09 330 15:42 20.03.2021
1247 Clouds 14 1020 54 10000 3.09 330 15:24 20.03.2021
1248 Clouds 13 1019 58 10000 4.12 310 14:40 20.03.2021
1249 Clouds 13 1019 58 10000 4.12 310 14:19 20.03.2021
1250 Clouds 12 1018 58 10000 2.06 270 13:31 20.03.2021
1251 Clouds 11 1017 62 10000 3.6 0 12:39 20.03.2021
1252 Clouds 11 1017 62 10000 3.6 0 12:20 20.03.2021
1253 Clouds 12 1016 58 10000 3.09 0 11:43 20.03.2021
1254 Clouds 12 1016 58 10000 3.09 0 11:21 20.03.2021
1255 Clouds 12 1016 54 10000 2.57 0 10:45 20.03.2021
1256 Clouds 12 1016 54 10000 2.57 0 10:23 20.03.2021
1257 Clouds 12 1016 54 10000 3.09 250 09:44 20.03.2021
1258 Clouds 12 1016 54 10000 3.09 250 09:22 20.03.2021
1259 Clouds 12 1015 54 10000 3.6 0 08:51 20.03.2021
1260 Clouds 12 1015 54 10000 3.6 0 08:19 20.03.2021
1261 Clouds 12 1014 58 10000 3.09 250 07:47 20.03.2021
1262 Clouds 12 1014 58 10000 3.09 250 07:29 20.03.2021
1263 Clouds 13 1014 50 10000 2.06 220 06:39 20.03.2021
1264 Clouds 13 1013 54 10000 5.66 270 05:28 20.03.2021
1265 Clouds 13 1012 47 10000 5.66 270 03:43 20.03.2021
1266 Clouds 13 1011 50 10000 5.14 280 01:31 20.03.2021
1267 Clouds 14 1009 47 10000 6.69 270 23:46 19.03.2021
1268 Clouds 14 1009 47 10000 6.69 270 23:19 19.03.2021
1269 Clouds 15 1008 47 10000 6.17 290 22:42 19.03.2021
1270 Clouds 15 1008 47 10000 6.17 290 22:22 19.03.2021
1271 Clouds 17 1008 42 10000 6.69 280 21:39 19.03.2021
1272 Clouds 17 1008 42 10000 6.69 280 21:20 19.03.2021
1273 Clear 18 1008 39 10000 11.83 290 20:45 19.03.2021
1274 Clear 18 1008 39 10000 11.83 290 20:26 19.03.2021
1275 Clear 19 1007 34 10000 8.75 290 19:48 19.03.2021
1276 Clear 19 1007 34 10000 8.75 290 19:22 19.03.2021
1277 Clear 19 1007 30 10000 9.77 290 18:49 19.03.2021
1278 Clear 19 1007 30 10000 9.77 290 18:49 19.03.2021
1279 Clear 19 1007 30 10000 9.77 290 18:27 19.03.2021
1280 Clear 19 1008 32 10000 9.26 280 17:58 19.03.2021
1281 Clear 19 1008 32 10000 9.26 280 17:38 19.03.2021
1282 Clear 19 1008 32 10000 9.26 280 17:18 19.03.2021
1283 Clear 18 1008 39 10000 7.2 280 16:43 19.03.2021
1284 Clear 18 1008 39 10000 7.2 280 16:23 19.03.2021
1285 Clear 14 1009 58 10000 3.6 300 15:33 19.03.2021
1286 Clear 11 1010 76 10000 3.09 300 14:51 19.03.2021
1287 Clear 11 1010 76 10000 3.09 300 14:32 19.03.2021
1288 Clear 7 1010 87 10000 1.54 270 13:48 19.03.2021
1289 Clear 7 1010 87 10000 1.54 270 13:18 19.03.2021
1290 Clear 5 1011 93 10000 1.54 270 12:40 19.03.2021
1291 Clear 6 1011 87 10000 1.54 290 11:55 19.03.2021
1292 Clear 6 1011 87 10000 1.54 290 11:26 19.03.2021
1293 Clear 6 1011 93 10000 1.54 0 10:42 19.03.2021
1294 Clear 6 1011 93 10000 1.54 0 10:21 19.03.2021
1295 Clouds 7 1011 87 10000 1.54 270 09:43 19.03.2021
1296 Clouds 7 1011 87 10000 1.54 270 09:22 19.03.2021
1297 Clear 7 1012 87 10000 2.66 278 08:51 19.03.2021
1298 Clear 7 1012 87 10000 2.65 276 08:26 19.03.2021
1299 Clear 8 1012 81 10000 0.51 0 07:43 19.03.2021
1300 Clear 9 1013 76 10000 1.03 0 06:59 19.03.2021
1301 Clear 10 1013 71 10000 1.54 300 05:26 19.03.2021
1302 Clear 18 1011 45 10000 5.14 280 00:59 19.03.2021
1303 Clear 21 1010 37 10000 4.63 270 23:54 18.03.2021
1304 Clear 21 1010 37 10000 4.63 270 23:28 18.03.2021
1305 Clear 22 1010 35 10000 5.14 290 22:44 18.03.2021
1306 Clear 22 1010 35 10000 5.14 290 22:44 18.03.2021
1307 Clear 22 1010 35 10000 5.14 290 22:25 18.03.2021
1308 Clear 22 1011 35 10000 3.6 290 21:40 18.03.2021
1309 Clear 22 1011 35 10000 3.6 290 21:21 18.03.2021
1310 Clear 22 1011 35 10000 2.57 140 20:39 18.03.2021
1311 Clear 22 1011 35 10000 2.57 140 20:20 18.03.2021
1312 Clear 20 1012 40 10000 2.57 330 19:42 18.03.2021
1313 Clear 20 1012 40 10000 2.57 330 19:22 18.03.2021
1314 Clear 18 1013 42 10000 3.09 340 18:41 18.03.2021
1315 Clear 17 1014 48 10000 1.03 0 17:54 18.03.2021
1316 Clear 17 1014 48 10000 1.03 0 17:26 18.03.2021
1317 Clear 15 1015 51 10000 2.57 0 16:52 18.03.2021
1318 Clear 15 1015 51 10000 2.57 0 16:32 18.03.2021
1319 Clear 12 1016 62 10000 1.54 60 15:56 18.03.2021
1320 Clear 12 1016 62 10000 1.54 60 15:37 18.03.2021
1321 Clear 12 1016 62 10000 1.54 60 15:18 18.03.2021
1322 Clear 12 1014 53 10000 0.55 265 14:41 18.03.2021
1323 Clouds 6 1017 93 10000 0.53 340 13:57 18.03.2021
1324 Clouds 6 1017 93 10000 1.06 7 13:27 18.03.2021
1325 Clear 4 1017 93 10000 1.54 300 12:57 18.03.2021
1326 Clear 4 1017 93 10000 1.54 300 12:36 18.03.2021
1327 Clear 4 1017 93 10000 1.54 300 12:36 18.03.2021
1328 Clear 4 1017 93 10000 1.54 300 12:18 18.03.2021
1329 Clear 5 1017 93 10000 1.03 0 11:40 18.03.2021
1330 Clear 6 1017 87 10000 1.03 0 10:57 18.03.2021
1331 Clear 6 1017 87 10000 1.03 0 10:38 18.03.2021
1332 Clear 6 1017 87 10000 1.03 0 10:20 18.03.2021
1333 Clear 8 1017 76 10000 2.57 290 09:30 18.03.2021
1334 Clear 9 1018 71 10000 3.09 300 08:57 18.03.2021
1335 Clear 9 1018 71 10000 3.09 300 08:33 18.03.2021
1336 Clear 8 1019 76 10000 1.03 0 07:58 18.03.2021
1337 Clear 8 1019 76 10000 1.03 0 07:40 18.03.2021
1338 Clear 9 1019 76 10000 2.06 300 06:40 18.03.2021
1339 Clear 9 1019 76 10000 2.06 300 06:21 18.03.2021
1340 Clear 9 1020 81 10000 2.06 280 04:42 18.03.2021
1341 Clear 17 1021 39 10000 1.54 50 00:39 18.03.2021
1342 Clouds 18 1021 39 10000 2.06 0 23:18 17.03.2021
1343 Clear 19 1021 37 10000 4.12 90 22:38 17.03.2021
1344 Clear 19 1021 37 10000 4.12 90 22:19 17.03.2021
1345 Clear 19 1022 34 10000 5.14 90 21:48 17.03.2021
1346 Clear 19 1022 34 10000 5.14 90 21:30 17.03.2021
1347 Clear 18 1023 39 10000 4.63 100 20:45 17.03.2021
1348 Clear 18 1023 39 10000 4.63 100 20:26 17.03.2021
1349 Clear 18 1024 39 10000 3.6 0 19:57 17.03.2021
1350 Clear 18 1024 39 10000 3.6 0 19:25 17.03.2021
1351 Clear 15 1025 44 10000 6.17 120 18:59 17.03.2021
1352 Clear 15 1025 44 10000 6.17 120 18:59 17.03.2021
1353 Clear 15 1025 44 10000 6.17 120 18:40 17.03.2021
1354 Clouds 15 1026 44 10000 3.09 0 17:58 17.03.2021
1355 Clouds 15 1026 44 10000 3.09 0 17:27 17.03.2021
1356 Clouds 14 1027 51 10000 3.6 0 16:57 17.03.2021
1357 Clouds 14 1027 51 10000 3.6 0 16:37 17.03.2021
1358 Clouds 14 1027 51 10000 3.6 0 16:19 17.03.2021
1359 Clouds 13 1027 54 10000 3.09 0 15:40 17.03.2021
1360 Clouds 12 1027 58 10000 6.17 120 14:46 17.03.2021
1361 Clouds 12 1027 58 10000 6.17 120 14:28 17.03.2021
1362 Clear 10 1027 62 10000 6.17 130 13:56 17.03.2021
1363 Clear 10 1027 62 10000 6.17 130 13:38 17.03.2021
1364 Clear 9 1027 66 10000 4.12 120 12:59 17.03.2021
1365 Clear 9 1027 66 10000 4.12 120 12:34 17.03.2021
1366 Clear 10 1027 62 10000 4.63 130 11:54 17.03.2021
1367 Clear 10 1027 62 10000 4.63 130 11:27 17.03.2021
1368 Clear 11 1027 58 10000 5.14 110 10:59 17.03.2021
1369 Clear 11 1027 58 10000 5.14 110 10:40 17.03.2021
1370 Clouds 12 1027 54 10000 5.14 110 09:59 17.03.2021
1371 Clouds 12 1027 54 10000 5.14 110 09:41 17.03.2021
1372 Clouds 12 1027 54 10000 5.14 110 09:19 17.03.2021
1373 Clear 12 1027 58 10000 5.66 120 08:43 17.03.2021
1374 Clear 12 1027 58 10000 5.66 120 08:24 17.03.2021
1375 Clear 12 1026 58 10000 5.14 130 07:37 17.03.2021
1376 Clear 13 1026 54 10000 3.6 70 06:47 17.03.2021
1377 Clear 14 1024 51 10000 3.6 90 04:27 17.03.2021
1378 Clear 15 1023 44 10000 3.6 90 03:30 17.03.2021
1379 Clouds 18 1020 29 10000 2.57 90 00:43 17.03.2021
1380 Clouds 18 1020 29 10000 2.57 90 00:20 17.03.2021
1381 Clouds 19 1020 32 10000 2.57 110 23:22 16.03.2021
1382 Clouds 18 1019 34 10000 1.03 0 22:43 16.03.2021
1383 Clouds 18 1019 34 10000 1.03 0 22:25 16.03.2021
1384 Clear 20 1019 28 10000 3.09 60 21:42 16.03.2021
1385 Clear 20 1019 28 10000 3.09 60 21:24 16.03.2021
1386 Clear 20 1020 32 10000 2.57 0 20:47 16.03.2021
1387 Clear 20 1020 32 10000 2.57 0 20:19 16.03.2021
1388 Clear 20 1020 32 10000 2.57 0 20:19 16.03.2021
1389 Clear 19 1020 32 10000 2.57 0 19:46 16.03.2021
1390 Clear 19 1020 32 10000 2.57 0 19:27 16.03.2021
1391 Clear 18 1020 32 10000 1.54 0 18:52 16.03.2021
1392 Clear 18 1020 32 10000 1.54 0 18:30 16.03.2021
1393 Clear 16 1021 44 10000 2.57 340 17:51 16.03.2021
1394 Clear 16 1021 44 10000 2.57 340 17:33 16.03.2021
1395 Clouds 15 1021 55 10000 2.57 340 16:54 16.03.2021
1396 Clouds 15 1021 55 10000 2.57 340 16:54 16.03.2021
1397 Clouds 15 1021 55 10000 2.57 340 16:54 16.03.2021
1398 Clouds 15 1021 55 10000 2.57 340 16:54 16.03.2021
1399 Clouds 15 1021 55 10000 2.57 340 16:54 16.03.2021
1400 Clouds 15 1021 55 10000 2.57 340 16:54 16.03.2021
1401 Clouds 15 1021 55 10000 2.57 340 16:54 16.03.2021
1402 Clouds 15 1021 55 10000 2.57 340 16:54 16.03.2021
1403 Clouds 15 1021 55 10000 2.57 340 16:31 16.03.2021
1404 Clear 13 1021 62 10000 3.09 320 15:58 16.03.2021
1405 Clear 13 1021 62 10000 3.09 320 15:37 16.03.2021
1406 Clear 13 1021 62 10000 3.09 320 15:19 16.03.2021
1407 Clear 13 1021 62 10000 3.09 320 15:19 16.03.2021
1408 Clouds 11 1021 71 10000 2.57 290 14:41 16.03.2021
1409 Clouds 11 1021 71 10000 2.57 290 14:22 16.03.2021
1410 Clouds 8 1021 87 10000 2.06 300 13:57 16.03.2021
1411 Clouds 8 1021 87 10000 2.06 300 13:29 16.03.2021
1412 Clear 7 1020 81 10000 1.54 0 12:56 16.03.2021
1413 Clear 7 1020 81 10000 1.54 0 12:56 16.03.2021
1414 Clear 7 1020 81 10000 1.54 0 12:36 16.03.2021
1415 Clear 7 1019 87 10000 1.54 290 11:56 16.03.2021
1416 Clear 7 1019 87 10000 1.54 290 11:32 16.03.2021
1417 Clear 8 1019 87 10000 2.57 300 10:46 16.03.2021
1418 Clear 8 1019 87 10000 2.57 300 10:20 16.03.2021
1419 Clear 9 1018 81 10000 2.57 290 09:40 16.03.2021
1420 Clear 9 1018 81 10000 2.57 290 09:40 16.03.2021
1421 Clear 9 1018 81 10000 2.57 290 09:19 16.03.2021
1422 Clouds 11 1017 71 10000 3.6 280 08:52 16.03.2021
1423 Clouds 11 1017 71 10000 3.6 280 08:33 16.03.2021
1424 Clouds 12 1017 66 10000 3.09 290 07:50 16.03.2021
1425 Clouds 12 1017 66 10000 2.57 300 06:57 16.03.2021
1426 Clouds 12 1017 66 10000 2.57 300 06:37 16.03.2021
1427 Clouds 12 1017 66 10000 2.06 290 05:35 16.03.2021
1428 Clear 14 1015 54 10000 4.12 260 02:46 16.03.2021
1429 Clear 14 1015 54 10000 4.12 260 02:25 16.03.2021
1430 Clear 16 1013 51 10000 6.17 280 00:25 16.03.2021
1431 Clear 16 1013 51 10000 6.17 280 00:25 16.03.2021
1432 Clear 18 1012 45 10000 8.23 280 23:29 15.03.2021
1433 Clear 20 1012 40 10000 9.77 290 22:57 15.03.2021
1434 Clear 20 1012 40 10000 9.77 290 22:38 15.03.2021
1435 Clear 20 1012 40 10000 9.77 290 22:20 15.03.2021
1436 Clear 21 1011 40 10000 9.26 290 21:44 15.03.2021
1437 Clear 21 1011 40 10000 9.26 290 21:26 15.03.2021
1438 Clear 21 1011 43 10000 9.77 300 20:45 15.03.2021
1439 Clear 21 1011 43 10000 9.77 300 20:26 15.03.2021
1440 Clear 21 1012 43 10000 4.12 270 19:56 15.03.2021
1441 Clear 21 1012 43 10000 4.12 270 19:35 15.03.2021
1442 Clear 20 1012 49 10000 3.6 320 18:58 15.03.2021
1443 Clear 20 1012 49 10000 3.6 320 18:33 15.03.2021
1444 Clear 17 1013 59 10000 4.12 300 17:57 15.03.2021
1445 Clear 17 1013 59 10000 4.12 300 17:39 15.03.2021
1446 Clear 17 1013 59 10000 4.12 300 17:21 15.03.2021
1447 Clear 15 1013 63 10000 3.6 290 16:42 15.03.2021
1448 Clear 12 1013 82 10000 3.09 270 15:55 15.03.2021
1449 Clear 12 1013 82 10000 3.09 270 15:28 15.03.2021
1450 Clear 12 1013 82 10000 3.09 270 15:28 15.03.2021
1451 Clear 11 1013 87 10000 1.54 300 14:47 15.03.2021
1452 Clear 11 1013 87 10000 1.54 300 14:28 15.03.2021
1453 Clear 10 1012 93 10000 1.54 320 13:59 15.03.2021
1454 Clear 10 1012 93 10000 1.54 320 13:35 15.03.2021
1455 Clouds 10 1012 87 10000 1.03 0 12:51 15.03.2021
1456 Clouds 10 1012 87 10000 1.03 0 12:21 15.03.2021
1457 Clouds 9 1012 93 10000 1.03 0 11:59 15.03.2021
1458 Clouds 9 1012 93 10000 1.03 0 11:40 15.03.2021
1459 Clouds 9 1012 93 10000 1.03 0 11:21 15.03.2021
1460 Clouds 10 1012 87 10000 3.09 290 10:39 15.03.2021
1461 Clouds 10 1012 87 10000 3.09 290 10:21 15.03.2021
1462 Clouds 10 1012 93 10000 2.06 300 09:40 15.03.2021
1463 Clouds 10 1012 93 10000 2.06 300 09:20 15.03.2021
1464 Clear 9 1011 93 10000 2.06 290 08:42 15.03.2021
1465 Clear 9 1011 93 10000 2.06 290 08:21 15.03.2021
1466 Clear 10 1011 93 10000 1.03 0 07:33 15.03.2021
1467 Clear 11 1011 87 10000 3.09 310 06:48 15.03.2021
1468 Clouds 12 1011 87 10000 3.09 290 05:35 15.03.2021
1469 Clouds 14 1011 77 10000 3.09 310 03:20 15.03.2021
1470 Clear 18 1011 63 10000 3.09 290 00:27 15.03.2021
1471 Clear 23 1011 46 10000 3.09 300 23:23 14.03.2021
1472 Clear 24 1011 38 10000 3.09 310 22:49 14.03.2021
1473 Clear 24 1011 38 10000 3.09 310 22:27 14.03.2021
1474 Clouds 23 1012 38 10000 2.57 330 21:52 14.03.2021
1475 Clouds 23 1012 38 10000 2.57 330 21:23 14.03.2021
1476 Clouds 22 1013 43 10000 3.09 300 20:52 14.03.2021
1477 Clouds 22 1013 43 10000 3.09 300 20:27 14.03.2021
1478 Clear 23 1014 35 10000 2.57 300 19:58 14.03.2021
1479 Clear 23 1014 35 10000 2.57 300 19:40 14.03.2021
1480 Clear 23 1014 35 10000 2.57 300 19:18 14.03.2021
1481 Clear 22 1014 35 10000 1.03 0 18:36 14.03.2021
1482 Clear 18 1016 48 10000 1.03 0 17:44 14.03.2021
1483 Clear 18 1016 48 10000 1.03 0 17:24 14.03.2021
1484 Clouds 16 1017 59 10000 0.32 263 16:52 14.03.2021
1485 Clouds 16 1017 59 10000 0.32 263 16:33 14.03.2021
1486 Clouds 12 1018 71 10000 0.98 46 15:57 14.03.2021
1487 Clouds 12 1018 71 10000 0.98 46 15:39 14.03.2021
1488 Clear 9 1018 87 10000 0.51 0 14:45 14.03.2021
1489 Clear 9 1018 87 10000 0.51 0 14:26 14.03.2021
1490 Clouds 6 1018 100 10000 1.03 0 13:50 14.03.2021
1491 Clouds 6 1018 100 10000 1.03 0 13:29 14.03.2021
1492 Clear 5 1018 93 10000 1.28 44 12:47 14.03.2021
1493 Clear 5 1018 93 10000 1.2 56 12:29 14.03.2021
1494 Clear 5 1019 93 10000 1.2 56 11:54 14.03.2021
1495 Clear 5 1019 93 10000 1.2 56 11:36 14.03.2021
1496 Clear 6 1019 93 10000 1.54 290 10:56 14.03.2021
1497 Clear 6 1019 93 10000 1.54 290 10:37 14.03.2021
1498 Clear 6 1019 93 10000 1.54 290 10:18 14.03.2021
1499 Clear 6 1019 100 10000 1.02 73 09:43 14.03.2021
1500 Clear 6 1019 100 10000 0.97 89 09:22 14.03.2021
1501 Clear 7 1019 93 10000 0.51 0 08:48 14.03.2021
1502 Clear 7 1019 93 10000 0.51 0 08:29 14.03.2021
1503 Clear 8 1019 87 10000 0.59 123 07:47 14.03.2021
1504 Clear 9 1018 87 10000 2.06 300 06:51 14.03.2021
1505 Clear 9 1018 81 10000 0.51 0 05:32 14.03.2021
1506 Clear 19 1016 42 10000 2.57 300 00:52 14.03.2021
1507 Clear 19 1016 42 10000 2.57 300 00:19 14.03.2021
1508 Clear 25 1016 27 10000 3.09 280 23:52 13.03.2021
1509 Clear 25 1016 27 10000 3.09 280 23:30 13.03.2021
1510 Clear 26 1016 24 10000 2.57 290 22:53 13.03.2021
1511 Clear 26 1016 24 10000 2.57 290 22:27 13.03.2021
1512 Clear 26 1016 21 10000 1.54 280 21:44 13.03.2021
1513 Clear 26 1016 21 10000 1.54 280 21:25 13.03.2021
1514 Clear 25 1016 23 10000 0.51 0 20:50 13.03.2021
1515 Clear 25 1016 23 10000 0.51 0 20:30 13.03.2021
1516 Clear 23 1017 31 10000 2.06 310 19:53 13.03.2021
1517 Clear 23 1017 31 10000 2.06 310 19:29 13.03.2021
1518 Clear 21 1018 32 10000 1.54 300 18:44 13.03.2021
1519 Clear 21 1018 32 10000 1.54 300 18:23 13.03.2021
1520 Clear 19 1019 45 10000 1.03 0 17:59 13.03.2021
1521 Clear 19 1019 45 10000 1.03 0 17:40 13.03.2021
1522 Clear 19 1019 45 10000 1.03 0 17:21 13.03.2021
1523 Clear 15 1019 58 10000 0.51 0 16:42 13.03.2021
1524 Clear 12 1020 76 10000 0.51 0 15:59 13.03.2021
1525 Clear 12 1020 76 10000 0.51 0 15:25 13.03.2021
1526 Clouds 9 1020 87 10000 1.54 300 14:47 13.03.2021
1527 Clouds 9 1020 87 10000 1.54 300 14:25 13.03.2021
1528 Clouds 9 1020 87 10000 1.54 300 14:25 13.03.2021
1529 Clouds 8 1020 87 10000 1.54 290 13:46 13.03.2021
1530 Clouds 8 1020 87 10000 1.54 290 13:23 13.03.2021
1531 Clouds 6 1020 100 10000 2.57 300 12:43 13.03.2021
1532 Clouds 6 1020 100 10000 2.57 300 12:18 13.03.2021
1533 Clouds 7 1020 93 10000 2.06 300 11:43 13.03.2021
1534 Clouds 7 1020 93 10000 2.06 300 11:24 13.03.2021
1535 Clear 6 1019 93 10000 2.57 300 10:49 13.03.2021
1536 Clear 6 1019 93 10000 2.57 300 10:25 13.03.2021
1537 Clear 8 1019 93 10000 3.09 290 09:38 13.03.2021
1538 Clear 9 1019 87 10000 2.57 300 08:58 13.03.2021
1539 Clear 9 1019 87 10000 2.57 300 08:58 13.03.2021
1540 Clear 9 1019 87 10000 2.57 300 08:38 13.03.2021
1541 Clear 9 1019 87 10000 2.57 300 08:18 13.03.2021
1542 Clear 9 1019 87 10000 4.12 290 07:39 13.03.2021
1543 Clear 11 1018 82 10000 3.6 280 05:31 13.03.2021
1544 Clear 15 1017 67 10000 2.06 280 02:42 13.03.2021
1545 Clear 18 1016 55 10000 3.09 280 00:37 13.03.2021
1546 Clear 22 1016 35 10000 4.12 290 23:48 12.03.2021
1547 Clear 22 1016 35 10000 4.12 290 23:30 12.03.2021
1548 Clear 23 1016 33 10000 4.63 300 22:41 12.03.2021
1549 Clear 23 1016 33 10000 4.63 300 22:21 12.03.2021
1550 Clear 24 1016 29 10000 4.12 310 21:39 12.03.2021
1551 Clear 24 1016 29 10000 4.12 310 21:21 12.03.2021
1552 Clear 23 1017 35 10000 3.6 300 20:55 12.03.2021
1553 Clear 23 1017 35 10000 3.6 300 20:31 12.03.2021
1554 Clear 22 1017 35 10000 3.6 280 19:54 12.03.2021
1555 Clear 22 1017 35 10000 3.6 280 19:34 12.03.2021
1556 Clear 20 1018 45 10000 4.12 310 18:54 12.03.2021
1557 Clear 20 1018 45 10000 4.12 310 18:33 12.03.2021
1558 Clear 18 1018 48 10000 3.6 330 17:46 12.03.2021
1559 Clear 18 1018 48 10000 3.6 330 17:27 12.03.2021
1560 Clear 16 1019 59 10000 3.6 290 16:51 12.03.2021
1561 Clear 16 1019 59 10000 3.6 290 16:29 12.03.2021
1562 Clear 13 1019 71 10000 2.57 260 15:45 12.03.2021
1563 Clear 13 1019 71 10000 2.57 260 15:21 12.03.2021
1564 Clear 12 1020 71 10000 3.6 270 14:42 12.03.2021
1565 Clear 12 1020 71 10000 3.6 270 14:19 12.03.2021
1566 Clear 9 1020 87 10000 3.6 290 13:40 12.03.2021
1567 Clear 9 1020 87 10000 3.6 290 13:20 12.03.2021
1568 Clear 7 1019 93 10000 2.41 266 12:49 12.03.2021
1569 Clear 7 1019 93 10000 2.12 261 12:28 12.03.2021
1570 Clear 8 1019 93 10000 2.57 290 11:54 12.03.2021
1571 Clear 8 1019 93 10000 2.57 290 11:30 12.03.2021
1572 Clear 9 1019 87 10000 1.54 310 10:57 12.03.2021
1573 Clear 9 1019 87 10000 1.54 310 10:28 12.03.2021
1574 Clear 9 1018 87 10000 3.6 290 09:58 12.03.2021
1575 Clear 9 1018 87 10000 3.6 290 09:28 12.03.2021
1576 Clear 9 1018 87 10000 2.06 300 08:51 12.03.2021
1577 Clear 9 1018 87 10000 2.06 300 08:33 12.03.2021
1578 Clear 10 1018 87 10000 2.57 290 07:41 12.03.2021
1579 Clear 10 1018 87 10000 2.57 290 07:18 12.03.2021
1580 Clear 11 1018 82 10000 2.57 290 06:39 12.03.2021
1581 Clouds 15 1019 63 10000 4.63 320 03:28 12.03.2021
1582 Clouds 17 1019 51 10000 6.69 270 00:52 12.03.2021
1583 Clouds 17 1019 55 10000 6.69 270 23:40 11.03.2021
1584 Clouds 18 1018 52 10000 7.72 280 22:52 11.03.2021
1585 Clouds 18 1018 52 10000 7.72 280 22:32 11.03.2021
1586 Clouds 17 1018 59 10000 8.75 280 21:58 11.03.2021
1587 Clouds 17 1018 59 10000 8.75 280 21:39 11.03.2021
1588 Clouds 17 1018 59 10000 8.75 280 21:20 11.03.2021
1589 Clouds 18 1017 55 10000 7.2 280 20:44 11.03.2021
1590 Clouds 18 1017 55 10000 7.2 280 20:21 11.03.2021
1591 Clouds 17 1017 55 10000 9.26 290 19:46 11.03.2021
1592 Clouds 17 1017 55 10000 9.26 290 19:27 11.03.2021
1593 Clouds 17 1016 55 10000 9.26 290 18:49 11.03.2021
1594 Clouds 17 1016 55 10000 9.26 290 18:31 11.03.2021
1595 Clouds 17 1016 55 10000 10.8 290 17:45 11.03.2021
1596 Clouds 17 1016 55 10000 10.8 290 17:24 11.03.2021
1597 Clouds 16 1015 55 10000 8.23 270 16:29 11.03.2021
1598 Clouds 14 1015 62 10000 6.69 270 15:49 11.03.2021
1599 Clouds 14 1015 62 10000 6.69 270 15:22 11.03.2021
1600 Clouds 14 1015 58 10000 6.69 270 14:49 11.03.2021
1601 Clouds 14 1015 58 10000 6.69 270 14:20 11.03.2021
1602 Clouds 13 1013 62 10000 9.77 280 13:49 11.03.2021
1603 Clouds 13 1013 62 10000 9.77 280 13:31 11.03.2021
1604 Clouds 13 1013 62 10000 9.77 280 13:31 11.03.2021
1605 Clouds 12 1013 62 10000 7.72 270 12:58 11.03.2021
1606 Clouds 12 1013 62 10000 7.72 270 12:39 11.03.2021
1607 Clouds 12 1013 62 10000 7.72 270 12:21 11.03.2021
1608 Clouds 11 1013 62 10000 6.17 270 11:43 11.03.2021
1609 Clouds 11 1013 62 10000 6.17 270 11:21 11.03.2021
1610 Clouds 10 1013 66 10000 9.26 280 10:42 11.03.2021
1611 Clouds 10 1013 66 10000 9.26 280 10:20 11.03.2021
1612 Clouds 10 1013 62 10000 8.75 270 09:41 11.03.2021
1613 Clouds 10 1013 62 10000 8.75 270 09:22 11.03.2021
1614 Clouds 10 1014 66 10000 9.26 280 08:47 11.03.2021
1615 Clouds 10 1014 66 10000 9.26 280 08:19 11.03.2021
1616 Rain 10 1013 66 10000 8.23 270 07:29 11.03.2021
1617 Rain 9 1013 71 10000 7.72 270 06:50 11.03.2021
1618 Rain 9 1013 71 10000 7.72 270 06:30 11.03.2021
1619 Rain 9 1012 66 10000 9.77 290 03:43 11.03.2021
1620 Rain 9 1010 66 10000 7.72 270 01:18 11.03.2021
1621 Rain 8 1010 76 10000 4.63 260 23:32 10.03.2021
1622 Rain 7 1008 81 10000 4.12 230 22:57 10.03.2021
1623 Rain 7 1008 81 10000 4.12 230 22:33 10.03.2021
1624 Rain 8 1006 76 6000 7.72 280 21:47 10.03.2021
1625 Rain 8 1006 76 6000 7.72 280 21:25 10.03.2021
1626 Rain 9 1006 76 10000 7.2 270 20:48 10.03.2021
1627 Rain 9 1006 76 10000 7.2 270 20:30 10.03.2021
1628 Rain 9 1006 76 10000 7.2 270 20:30 10.03.2021
1629 Rain 8 1004 87 4000 7.2 270 19:53 10.03.2021
1630 Rain 8 1004 87 4000 7.2 270 19:30 10.03.2021
1631 Rain 10 1003 81 4000 4.63 260 18:47 10.03.2021
1632 Rain 10 1003 81 4000 4.63 260 18:47 10.03.2021
1633 Rain 10 1003 81 4000 4.63 260 18:28 10.03.2021
1634 Rain 10 1002 81 4000 5.14 270 17:57 10.03.2021
1635 Rain 10 1002 81 4000 5.14 270 17:57 10.03.2021
1636 Rain 10 1002 81 4000 5.14 270 17:39 10.03.2021
1637 Rain 10 1002 81 4000 5.14 270 17:19 10.03.2021
1638 Rain 10 1002 81 4000 3.6 240 16:45 10.03.2021
1639 Rain 10 1002 81 4000 3.6 240 16:25 10.03.2021
1640 Rain 11 1001 82 4000 5.66 270 15:48 10.03.2021
1641 Rain 11 1001 82 4000 5.66 270 15:25 10.03.2021
1642 Rain 11 1001 82 4000 5.66 270 15:25 10.03.2021
1643 Rain 11 1000 87 8000 1.54 250 14:57 10.03.2021
1644 Rain 11 1000 87 8000 1.54 250 14:21 10.03.2021
1645 Rain 11 1000 87 6000 1.03 0 13:52 10.03.2021
1646 Rain 11 1000 87 6000 1.03 0 13:31 10.03.2021
1647 Rain 13 1000 76 10000 4.63 260 12:46 10.03.2021
1648 Rain 13 1000 76 10000 4.63 260 12:23 10.03.2021
1649 Rain 14 999 82 10000 4.63 260 11:47 10.03.2021
1650 Rain 14 999 82 10000 4.63 260 11:21 10.03.2021
1651 Rain 12 999 100 10000 1.54 140 10:50 10.03.2021
1652 Rain 12 999 100 10000 1.54 140 10:31 10.03.2021
1653 Rain 12 1000 100 6000 0.51 0 09:52 10.03.2021
1654 Rain 12 1000 100 6000 0.51 0 09:32 10.03.2021
1655 Rain 14 1000 82 10000 2.06 200 08:58 10.03.2021
1656 Rain 14 1000 82 10000 2.06 200 08:40 10.03.2021
1657 Rain 14 1000 82 10000 2.06 200 08:21 10.03.2021
1658 Rain 14 1002 82 10000 2.57 0 07:41 10.03.2021
1659 Rain 14 1002 82 10000 2.57 0 07:19 10.03.2021
1660 Rain 15 1002 88 10000 2.06 0 06:46 10.03.2021
1661 Rain 17 1003 77 10000 2.06 0 02:42 10.03.2021
1662 Clouds 22 1002 46 10000 9.26 270 23:53 09.03.2021
1663 Clouds 22 1002 46 10000 9.26 270 23:26 09.03.2021
1664 Clear 25 1001 27 10000 7.2 260 22:47 09.03.2021
1665 Clear 25 1001 27 10000 7.2 260 22:28 09.03.2021
1666 Clear 26 1002 24 10000 9.26 290 21:56 09.03.2021
1667 Clear 26 1002 24 10000 9.26 290 21:37 09.03.2021
1668 Clear 26 1002 24 10000 9.26 290 21:18 09.03.2021
1669 Clear 24 1002 22 10000 10.04 305 20:43 09.03.2021
1670 Clear 26 1003 24 10000 6.69 270 20:21 09.03.2021
1671 Clear 24 1003 21 10000 10.22 303 19:53 09.03.2021
1672 Clear 26 1004 22 10000 8.23 280 19:27 09.03.2021
1673 Clear 26 1004 22 10000 8.23 280 18:51 09.03.2021
1674 Clear 26 1004 22 10000 8.23 280 18:28 09.03.2021
1675 Clear 24 1005 27 10000 3.09 0 17:53 09.03.2021
1676 Clear 24 1005 27 10000 3.09 0 17:33 09.03.2021
1677 Clear 19 1007 39 10000 3.09 310 16:55 09.03.2021
1678 Clear 19 1007 39 10000 3.09 310 16:37 09.03.2021
1679 Clear 19 1007 39 10000 3.09 310 16:18 09.03.2021
1680 Clear 14 1008 62 10000 1.03 0 15:43 09.03.2021
1681 Clear 14 1008 62 10000 1.03 0 15:21 09.03.2021
1682 Clear 11 1009 76 10000 1.54 320 14:31 09.03.2021
1683 Clouds 8 1009 87 10000 1.54 300 13:57 09.03.2021
1684 Clouds 8 1009 87 10000 1.54 300 13:38 09.03.2021
1685 Clear 5 1009 100 10000 1.54 280 13:19 09.03.2021
1686 Clear 5 1009 100 10000 1.54 280 12:39 09.03.2021
1687 Clear 6 1010 93 10000 2.06 300 12:18 09.03.2021
1688 Clear 6 1010 93 10000 2.06 300 11:41 09.03.2021
1689 Clear 6 1010 93 10000 2.06 300 11:21 09.03.2021
1690 Clear 6 1010 93 10000 2.06 290 10:54 09.03.2021
1691 Clear 6 1010 93 10000 2.06 290 10:36 09.03.2021
1692 Clear 6 1010 93 10000 2.06 290 10:18 09.03.2021
1693 Clear 7 1010 93 10000 2.06 280 09:41 09.03.2021
1694 Clear 7 1010 93 10000 2.06 280 09:22 09.03.2021
1695 Clear 8 1011 87 10000 2.06 290 08:36 09.03.2021
1696 Clear 8 1012 87 10000 2.06 300 07:52 09.03.2021
1697 Clear 8 1012 87 10000 2.06 300 07:31 09.03.2021
1698 Clear 9 1012 81 10000 2.06 300 06:59 09.03.2021
1699 Clear 10 1012 76 10000 1.54 300 05:54 09.03.2021
1700 Clear 10 1012 76 10000 1.54 300 05:34 09.03.2021
1701 Clouds 19 1013 37 10000 3.6 270 00:18 09.03.2021
1702 Clouds 21 1013 30 10000 3.09 0 23:42 08.03.2021
1703 Clouds 21 1013 30 10000 3.09 0 23:23 08.03.2021
1704 Clouds 21 1014 28 10000 3.6 290 22:44 08.03.2021
1705 Clouds 21 1014 28 10000 3.6 290 22:26 08.03.2021
1706 Clear 21 1015 28 10000 4.12 280 21:53 08.03.2021
1707 Clear 21 1015 28 10000 4.12 280 21:34 08.03.2021
1708 Clear 21 1016 28 10000 3.6 310 20:45 08.03.2021
1709 Clear 21 1016 28 10000 3.6 310 20:25 08.03.2021
1710 Clear 21 1017 28 10000 5.14 310 19:55 08.03.2021
1711 Clear 21 1017 28 10000 5.14 310 19:28 08.03.2021
1712 Clear 20 1018 32 10000 3.09 310 18:39 08.03.2021
1713 Clear 20 1018 32 10000 3.09 310 18:20 08.03.2021
1714 Clear 17 1019 45 10000 3.6 300 17:50 08.03.2021
1715 Clear 17 1019 45 10000 3.6 300 17:25 08.03.2021
1716 Clear 15 1020 55 10000 3.09 270 16:46 08.03.2021
1717 Clear 15 1020 55 10000 3.09 270 16:27 08.03.2021
1718 Clear 12 1021 62 10000 3.09 270 15:49 08.03.2021
1719 Clear 12 1021 62 10000 3.09 270 15:26 08.03.2021
1720 Clear 10 1022 76 10000 2.57 320 14:43 08.03.2021
1721 Clear 10 1022 76 10000 2.57 320 14:20 08.03.2021
1722 Clear 7 1022 87 10000 1.54 280 13:37 08.03.2021
1723 Clear 5 1022 93 10000 1.54 310 13:18 08.03.2021
1724 Clear 5 1022 93 10000 1.54 310 12:42 08.03.2021
1725 Clear 5 1022 93 10000 1.54 310 12:22 08.03.2021
1726 Clear 5 1022 93 10000 1.03 0 11:38 08.03.2021
1727 Clear 6 1021 87 10000 1.54 280 11:18 08.03.2021
1728 Clear 6 1021 87 10000 1.54 280 10:41 08.03.2021
1729 Clear 6 1021 87 10000 1.54 280 10:19 08.03.2021
1730 Clear 7 1021 81 10000 2.51 282 09:41 08.03.2021
1731 Clear 7 1021 81 10000 2.67 286 09:22 08.03.2021
1732 Clear 8 1021 81 10000 2.06 280 08:27 08.03.2021
1733 Clear 10 1021 66 10000 1.54 310 07:23 08.03.2021
1734 Clear 11 1020 66 10000 2.06 0 06:42 08.03.2021
1735 Clouds 14 1019 54 10000 4.12 290 03:37 08.03.2021
1736 Clouds 16 1015 51 10000 9.26 290 00:43 08.03.2021
1737 Clouds 16 1014 51 10000 11.32 280 23:54 07.03.2021
1738 Clouds 16 1014 51 10000 11.32 280 23:28 07.03.2021
1739 Clouds 17 1013 48 10000 11.83 290 22:59 07.03.2021
1740 Clouds 17 1013 48 10000 11.83 290 22:40 07.03.2021
1741 Clouds 17 1013 48 10000 11.83 290 22:20 07.03.2021
1742 Clouds 17 1013 51 10000 10.8 280 21:42 07.03.2021
1743 Clouds 17 1013 51 10000 10.8 280 21:23 07.03.2021
1744 Clouds 17 1014 55 10000 5.66 260 20:43 07.03.2021
1745 Clouds 17 1014 55 10000 5.66 260 20:24 07.03.2021
1746 Rain 14 1014 72 10000 5.66 270 19:56 07.03.2021
1747 Rain 14 1014 72 10000 5.66 270 19:37 07.03.2021
1748 Rain 14 1014 72 10000 5.66 270 19:19 07.03.2021
1749 Clouds 18 1012 45 10000 8.75 270 18:40 07.03.2021
1750 Clouds 18 1012 45 10000 8.75 270 18:19 07.03.2021
1751 Rain 17 1012 45 10000 9.77 280 17:39 07.03.2021
1752 Rain 17 1012 45 10000 9.77 280 17:20 07.03.2021
1753 Clouds 18 1011 45 10000 11.32 280 16:44 07.03.2021
1754 Clouds 18 1011 45 10000 11.32 280 16:21 07.03.2021
1755 Rain 15 1010 72 10000 6.69 270 15:56 07.03.2021
1756 Rain 15 1010 72 10000 6.69 270 15:38 07.03.2021
1757 Rain 16 1010 55 10000 5.14 270 15:19 07.03.2021
1758 Rain 16 1010 55 10000 5.14 270 14:29 07.03.2021
1759 Clouds 16 1011 51 10000 6.17 270 13:51 07.03.2021
1760 Clouds 16 1011 51 10000 6.17 270 13:31 07.03.2021
1761 Clouds 16 1011 44 10000 5.66 260 12:59 07.03.2021
1762 Clouds 16 1011 44 10000 5.66 260 12:40 07.03.2021
1763 Clouds 16 1011 44 10000 5.66 260 12:20 07.03.2021
1764 Clouds 16 1011 44 10000 5.14 250 11:24 07.03.2021
1765 Clouds 15 1011 47 10000 4.12 0 10:56 07.03.2021
1766 Clouds 15 1011 47 10000 4.12 0 10:38 07.03.2021
1767 Clouds 15 1011 47 10000 4.12 0 10:38 07.03.2021
1768 Clouds 15 1011 55 10000 4.12 250 09:56 07.03.2021
1769 Clouds 15 1011 55 10000 4.12 250 09:30 07.03.2021
1770 Clouds 16 1011 55 10000 3.09 0 08:59 07.03.2021
1771 Clouds 16 1011 55 10000 3.09 0 08:40 07.03.2021
1772 Clouds 16 1011 55 10000 3.09 0 08:21 07.03.2021
1773 Clouds 16 1010 67 10000 3.6 0 06:25 07.03.2021
1774 Clouds 15 1012 77 10000 1.54 320 02:39 07.03.2021
1775 Rain 17 1012 67 10000 2.57 360 00:34 07.03.2021
1776 Rain 17 1011 67 10000 5.14 260 23:40 06.03.2021
1777 Rain 17 1011 67 10000 5.14 260 23:20 06.03.2021
1778 Rain 19 1011 59 10000 4.12 200 22:45 06.03.2021
1779 Rain 19 1011 59 10000 4.12 200 22:21 06.03.2021
1780 Clouds 22 1010 49 10000 8.75 290 21:46 06.03.2021
1781 Clouds 22 1010 49 10000 8.75 290 21:20 06.03.2021
1782 Clouds 23 1010 40 10000 6.17 0 20:42 06.03.2021
1783 Clouds 24 1009 38 10000 7.72 280 19:59 06.03.2021
1784 Clouds 24 1009 38 10000 7.72 280 19:37 06.03.2021
1785 Clouds 24 1009 38 10000 7.72 280 19:18 06.03.2021
1786 Clouds 23 1010 35 10000 8.75 290 18:41 06.03.2021
1787 Rain 23 1010 35 10000 8.75 290 18:20 06.03.2021
1788 Rain 23 1009 46 10000 10.8 290 17:49 06.03.2021
1789 Rain 23 1009 46 10000 10.8 290 17:30 06.03.2021
1790 Clouds 21 1009 56 10000 8.23 290 16:57 06.03.2021
1791 Clouds 21 1009 56 10000 8.23 290 16:32 06.03.2021
1792 Clouds 19 1009 59 10000 4.12 0 15:56 06.03.2021
1793 Clouds 19 1009 59 10000 4.12 0 15:38 06.03.2021
1794 Clouds 19 1009 59 10000 4.12 0 15:18 06.03.2021
1795 Rain 18 1009 55 10000 4.12 290 14:31 06.03.2021
1796 Clouds 18 1009 52 10000 4.12 280 13:50 06.03.2021
1797 Clouds 18 1009 52 10000 4.12 280 13:32 06.03.2021
1798 Clouds 17 1008 34 10000 2.06 0 12:58 06.03.2021
1799 Clouds 17 1008 34 10000 2.06 0 12:38 06.03.2021
1800 Clouds 17 1008 34 10000 2.06 0 12:38 06.03.2021
1801 Clouds 16 1008 31 10000 0.51 0 12:18 06.03.2021
1802 Clouds 16 1008 31 10000 0.51 0 11:29 06.03.2021
1803 Clear 17 1009 23 10000 4.63 260 10:59 06.03.2021
1804 Clear 17 1009 23 10000 4.63 260 10:41 06.03.2021
1805 Clear 14 1008 35 10000 2.06 0 09:56 06.03.2021
1806 Clear 14 1008 35 10000 2.06 0 09:24 06.03.2021
1807 Clear 17 1008 29 10000 2.06 0 08:54 06.03.2021
1808 Clear 17 1008 29 10000 2.06 0 08:29 06.03.2021
1809 Clear 17 1009 31 10000 2.06 0 07:43 06.03.2021
1810 Clear 17 1009 31 10000 2.06 0 07:21 06.03.2021
1811 Clear 20 1008 28 10000 2.06 0 05:50 06.03.2021
1812 Clouds 15 1009 59 10000 2.75 288 03:36 06.03.2021
1813 Clouds 18 1008 49 10000 2.73 275 01:32 06.03.2021
1814 Clouds 20 1007 39 10000 2.66 258 00:46 06.03.2021
1815 Clouds 24 1006 28 10000 2.75 248 23:41 05.03.2021
1816 Clear 29 1005 18 10000 4.12 256 23:19 05.03.2021
1817 Clear 29 1005 18 10000 4.12 256 22:43 05.03.2021
1818 Clear 32 1005 23 10000 8.75 290 22:20 05.03.2021
1819 Clear 32 1005 23 10000 8.75 290 21:43 05.03.2021
1820 Clear 32 1005 23 10000 8.75 290 21:23 05.03.2021
1821 Clear 32 1006 23 10000 3.6 0 20:47 05.03.2021
1822 Clear 32 1006 23 10000 3.6 0 20:24 05.03.2021
1823 Clear 30 1007 30 10000 3.09 340 19:45 05.03.2021
1824 Clear 30 1007 30 10000 3.09 340 19:22 05.03.2021
1825 Clear 27 1008 36 10000 2.57 310 18:44 05.03.2021
1826 Clear 27 1008 36 10000 2.57 310 18:25 05.03.2021
1827 Clear 24 1009 43 10000 1.03 0 17:49 05.03.2021
1828 Clear 24 1009 43 10000 1.03 0 17:31 05.03.2021
1829 Clear 22 1011 49 10000 1.54 0 16:42 05.03.2021
1830 Clear 22 1011 49 10000 1.54 0 16:23 05.03.2021
1831 Clear 18 1011 63 10000 1.54 0 15:54 05.03.2021
1832 Clear 18 1011 63 10000 1.54 0 15:27 05.03.2021
1833 Clear 15 1012 77 10000 1.54 90 14:46 05.03.2021
1834 Clear 15 1012 77 10000 1.54 90 14:24 05.03.2021
1835 Clear 12 1013 87 10000 0.51 0 13:43 05.03.2021
1836 Clear 12 1013 87 10000 0.51 0 13:21 05.03.2021
1837 Clear 9 1013 100 10000 0.75 37 12:43 05.03.2021
1838 Clear 9 1013 100 10000 0.31 16 11:39 05.03.2021
1839 Clear 9 1013 100 10000 0.31 16 11:39 05.03.2021
1840 Clear 9 1013 100 10000 0.26 359 11:19 05.03.2021
1841 Clear 10 1013 93 10000 0.26 359 10:43 05.03.2021
1842 Clear 10 1013 93 10000 0.27 331 10:24 05.03.2021
1843 Clear 11 1013 87 10000 0.51 0 09:53 05.03.2021
1844 Clear 11 1013 87 10000 0.51 0 09:29 05.03.2021
1845 Clear 11 1013 93 10000 1.54 300 08:56 05.03.2021
1846 Clear 11 1013 93 10000 1.54 300 08:36 05.03.2021
1847 Clear 11 1013 93 10000 1.54 300 08:18 05.03.2021
1848 Clear 12 1014 87 10000 1.54 300 07:30 05.03.2021
1849 Clear 13 1014 82 10000 1.54 280 06:33 05.03.2021
1850 Clear 14 1015 77 10000 1.54 290 05:33 05.03.2021
1851 Clear 24 1014 41 10000 1.54 280 00:53 05.03.2021
1852 Clear 28 1015 30 10000 2.57 300 23:44 04.03.2021
1853 Clear 28 1015 30 10000 2.57 300 23:19 04.03.2021
1854 Clear 28 1015 32 10000 2.57 0 22:28 04.03.2021
1855 Clear 28 1015 30 10000 1.54 0 21:52 04.03.2021
1856 Clear 28 1015 30 10000 1.54 0 21:29 04.03.2021
1857 Clear 27 1017 32 10000 2.06 0 20:42 04.03.2021
1858 Clear 27 1017 32 10000 2.06 0 20:24 04.03.2021
1859 Clear 26 1017 34 10000 1.54 0 19:58 04.03.2021
1860 Clear 26 1017 34 10000 1.54 0 19:39 04.03.2021
1861 Clear 26 1017 34 10000 1.54 0 19:21 04.03.2021
1862 Clear 24 1018 38 10000 1.54 0 18:45 04.03.2021
1863 Clear 24 1018 38 10000 1.54 0 18:24 04.03.2021
1864 Clear 23 1019 43 10000 1.54 0 17:46 04.03.2021
1865 Clear 23 1019 43 10000 1.54 0 17:27 04.03.2021
1866 Clear 20 1020 56 10000 2.06 290 16:47 04.03.2021
1867 Clear 20 1020 56 10000 2.06 290 16:28 04.03.2021
1868 Clear 17 1021 63 10000 1.54 170 15:50 04.03.2021
1869 Clear 17 1021 63 10000 1.54 170 15:31 04.03.2021
1870 Clear 15 1022 77 10000 1.03 0 14:48 04.03.2021
1871 Clear 15 1022 77 10000 1.03 0 14:26 04.03.2021
1872 Clear 15 1022 77 10000 1.03 0 14:26 04.03.2021
1873 Clear 11 1022 93 10000 1.03 0 13:47 04.03.2021
1874 Clear 11 1022 93 10000 1.03 0 13:29 04.03.2021
1875 Clear 8 1022 93 10000 0.44 218 12:49 04.03.2021
1876 Clear 8 1022 93 10000 0.44 218 12:31 04.03.2021
1877 Clear 9 1021 93 10000 0.51 290 11:43 04.03.2021
1878 Clear 9 1021 93 10000 0.51 290 11:23 04.03.2021
1879 Clear 10 1021 93 10000 0.51 223 10:47 04.03.2021
1880 Clear 10 1021 93 10000 0.74 253 10:26 04.03.2021
1881 Clear 11 1021 93 10000 2.06 310 09:37 04.03.2021
1882 Clear 11 1021 87 10000 1.03 0 08:56 04.03.2021
1883 Clear 11 1021 87 10000 1.03 0 08:34 04.03.2021
1884 Clear 12 1020 94 10000 2.06 290 07:49 04.03.2021
1885 Clear 14 1020 82 10000 1.03 0 06:52 04.03.2021
1886 Clear 14 1020 82 10000 1.03 0 06:23 04.03.2021
1887 Clear 18 1019 63 10000 1.54 300 02:39 04.03.2021
1888 Clouds 21 1018 52 10000 3.09 310 01:24 04.03.2021
1889 Clouds 25 1016 41 10000 4.63 280 22:43 03.03.2021
1890 Clouds 25 1016 41 10000 4.63 280 22:25 03.03.2021
1891 Clear 25 1016 41 10000 5.14 290 21:43 03.03.2021
1892 Clear 25 1016 41 10000 5.14 290 21:24 03.03.2021
1893 Clear 25 1016 38 10000 5.14 300 20:56 03.03.2021
1894 Clear 25 1016 38 10000 5.14 300 20:38 03.03.2021
1895 Clear 26 1016 38 10000 5.14 120 19:57 03.03.2021
1896 Clear 26 1016 38 10000 5.14 120 19:38 03.03.2021
1897 Clear 26 1016 38 10000 5.14 120 19:18 03.03.2021
1898 Clear 26 1016 38 10000 5.14 120 19:18 03.03.2021
1899 Clear 26 1016 38 10000 3.6 0 18:41 03.03.2021
1900 Clear 24 1016 46 10000 4.63 300 17:59 03.03.2021
1901 Clear 24 1016 46 10000 4.63 300 17:59 03.03.2021
1902 Clear 24 1016 46 10000 4.63 300 17:36 03.03.2021
1903 Clear 24 1016 46 10000 4.63 300 17:18 03.03.2021
1904 Clear 21 1017 64 10000 2.57 320 16:39 03.03.2021
1905 Clear 21 1017 64 10000 2.57 320 16:21 03.03.2021
1906 Clear 19 1017 68 10000 1.03 0 15:33 03.03.2021
1907 Clear 17 1017 77 10000 2.57 280 14:52 03.03.2021
1908 Clear 17 1017 77 10000 2.57 280 14:28 03.03.2021
1909 Clear 15 1017 88 10000 2.57 290 13:52 03.03.2021
1910 Clear 15 1017 88 10000 2.57 290 13:30 03.03.2021
1911 Clouds 14 1017 88 10000 2.06 300 12:44 03.03.2021
1912 Clouds 14 1017 88 10000 2.06 300 12:24 03.03.2021
1913 Clouds 14 1016 88 10000 3.09 300 11:46 03.03.2021
1914 Clouds 14 1016 88 10000 3.09 300 11:27 03.03.2021
1915 Clouds 14 1016 88 10000 3.09 290 10:46 03.03.2021
1916 Clouds 14 1016 88 10000 3.09 290 10:23 03.03.2021
1917 Clear 14 1016 88 10000 2.57 300 09:45 03.03.2021
1918 Clear 14 1015 88 10000 3.09 290 08:57 03.03.2021
1919 Clear 14 1015 88 10000 3.09 290 08:39 03.03.2021
1920 Clear 14 1015 88 10000 3.09 290 08:18 03.03.2021
1921 Clear 14 1015 82 10000 2.57 290 07:39 03.03.2021
1922 Clouds 15 1016 77 10000 1.54 300 06:47 03.03.2021
1923 Clouds 17 1015 67 10000 0.71 225 05:45 03.03.2021
1924 Clouds 18 1015 63 10000 2.57 300 04:50 03.03.2021
1925 Clouds 18 1015 63 10000 2.57 300 04:24 03.03.2021
1926 Clear 25 1013 38 10000 2.06 300 00:39 03.03.2021
1927 Clouds 28 1013 28 10000 3.09 0 23:44 02.03.2021
1928 Clear 29 1013 24 10000 2.57 0 22:54 02.03.2021
1929 Clear 29 1013 24 10000 2.57 0 22:24 02.03.2021
1930 Clear 29 1013 28 10000 2.06 0 21:59 02.03.2021
1931 Clear 29 1013 28 10000 2.06 0 21:37 02.03.2021
1932 Clear 29 1013 28 10000 2.06 0 21:18 02.03.2021
1933 Clear 28 1013 34 10000 3.09 0 20:41 02.03.2021
1934 Clear 28 1013 34 10000 3.09 0 20:21 02.03.2021
1935 Clear 27 1013 36 10000 3.6 310 19:47 02.03.2021
1936 Clear 27 1013 36 10000 3.6 310 19:28 02.03.2021
1937 Clear 26 1014 44 10000 3.6 320 18:43 02.03.2021
1938 Clear 26 1014 44 10000 3.6 320 18:24 02.03.2021
1939 Clear 23 1015 56 10000 3.6 320 17:58 02.03.2021
1940 Clear 23 1015 56 10000 3.6 320 17:39 02.03.2021
1941 Clear 23 1015 56 10000 3.6 320 17:20 02.03.2021
1942 Clear 20 1015 68 10000 2.06 0 16:47 02.03.2021
1943 Clouds 18 1016 77 10000 1.54 0 15:54 02.03.2021
1944 Clouds 18 1016 77 10000 1.54 0 15:27 02.03.2021
1945 Clouds 16 1016 88 10000 2.06 280 14:49 02.03.2021
1946 Clouds 16 1016 88 10000 2.06 280 14:19 02.03.2021
1947 Fog 15 1016 94 4000 0.51 0 13:44 02.03.2021
1948 Fog 15 1016 94 4000 0.51 0 13:24 02.03.2021
1949 Clouds 15 1015 94 10000 1.06 217 12:45 02.03.2021
1950 Clouds 15 1015 94 10000 0.87 217 12:25 02.03.2021
1951 Clouds 15 1015 94 10000 1.03 0 11:45 02.03.2021
1952 Clouds 15 1015 94 10000 1.03 0 11:22 02.03.2021
1953 Clouds 15 1015 94 10000 1.54 300 10:49 02.03.2021
1954 Clouds 15 1015 94 10000 1.54 300 10:25 02.03.2021
1955 Clouds 15 1015 94 10000 1.03 350 09:41 02.03.2021
1956 Clouds 15 1015 94 10000 1.03 350 09:22 02.03.2021
1957 Clouds 16 1015 88 10000 1.54 290 08:40 02.03.2021
1958 Clouds 16 1015 88 10000 1.54 290 08:22 02.03.2021
1959 Clouds 15 1015 94 10000 0.59 204 07:40 02.03.2021
1960 Clouds 15 1015 94 10000 1.54 290 06:36 02.03.2021
1961 Clouds 16 1015 88 10000 2.06 270 05:46 02.03.2021
1962 Clouds 16 1015 88 10000 2.06 270 05:28 02.03.2021
1963 Clouds 19 1015 77 10000 3.6 290 01:46 02.03.2021
1964 Clouds 19 1015 77 10000 3.6 290 01:28 02.03.2021
1965 Rain 19 1014 77 10000 3.6 320 00:51 02.03.2021
1966 Rain 20 1014 77 10000 3.6 290 23:28 01.03.2021
1967 Clouds 22 1013 64 10000 4.63 310 22:42 01.03.2021
1968 Clouds 22 1013 64 10000 4.63 310 22:22 01.03.2021
1969 Clouds 22 1013 60 10000 3.6 270 21:50 01.03.2021
1970 Clouds 22 1013 60 10000 3.6 270 21:24 01.03.2021
1971 Clouds 22 1013 60 10000 5.66 310 20:48 01.03.2021
1972 Clouds 22 1013 60 10000 5.66 310 20:27 01.03.2021
1973 Clouds 23 1013 56 10000 5.14 230 19:54 01.03.2021
1974 Clouds 23 1013 56 10000 5.14 230 19:33 01.03.2021
1975 Clouds 24 1012 53 10000 4.63 0 18:46 01.03.2021
1976 Clouds 24 1012 53 10000 4.63 0 18:25 01.03.2021
1977 Clouds 24 1013 53 10000 4.12 0 17:56 01.03.2021
1978 Clouds 24 1013 53 10000 4.12 0 17:37 01.03.2021
1979 Clouds 24 1013 53 10000 4.12 0 17:18 01.03.2021
1980 Clouds 22 1014 60 10000 3.6 280 16:40 01.03.2021
1981 Clouds 22 1014 60 10000 3.6 280 16:22 01.03.2021
1982 Clouds 20 1014 68 10000 3.09 290 15:40 01.03.2021
1983 Clouds 20 1014 68 10000 3.09 290 15:19 01.03.2021
1984 Clouds 19 1014 68 10000 3.09 270 14:44 01.03.2021
1985 Clouds 19 1014 68 10000 3.09 270 14:26 01.03.2021
1986 Clouds 18 1014 72 10000 1.54 250 13:39 01.03.2021
1987 Clouds 18 1014 72 10000 1.54 250 13:21 01.03.2021
1988 Clouds 18 1013 72 10000 3.09 260 12:51 01.03.2021
1989 Clouds 18 1013 72 10000 3.09 260 12:30 01.03.2021
1990 Clouds 18 1013 72 10000 2.57 290 11:58 01.03.2021
1991 Clouds 18 1013 72 10000 2.57 290 11:34 01.03.2021
1992 Clouds 18 1013 72 10000 3.09 280 10:44 01.03.2021
1993 Clouds 18 1013 72 10000 3.09 280 10:23 01.03.2021
1994 Clouds 19 1013 68 10000 2.57 240 09:56 01.03.2021
1995 Clouds 19 1013 68 10000 2.57 240 09:38 01.03.2021
1996 Clouds 19 1013 68 10000 2.57 240 09:20 01.03.2021
1997 Clouds 19 1014 68 10000 3.09 0 08:44 01.03.2021
1998 Clouds 19 1014 68 10000 3.6 270 07:44 01.03.2021
1999 Clouds 19 1014 63 10000 3.09 0 06:51 01.03.2021
2000 Clouds 20 1015 60 10000 3.09 230 02:47 01.03.2021
2001 Clouds 23 1014 49 10000 5.66 270 23:58 28.02.2021
2002 Clouds 23 1014 49 10000 5.66 270 23:22 28.02.2021
2003 Clouds 24 1014 43 10000 9.77 290 22:45 28.02.2021
2004 Clouds 24 1014 43 10000 9.77 290 22:21 28.02.2021
2005 Clouds 26 1014 38 10000 9.26 290 21:47 28.02.2021
2006 Clouds 26 1014 38 10000 9.26 290 21:24 28.02.2021
2007 Clouds 27 1014 34 10000 6.69 0 20:49 28.02.2021
2008 Clouds 27 1014 34 10000 6.69 0 20:30 28.02.2021
2009 Clouds 25 1014 38 10000 3.09 0 19:47 28.02.2021
2010 Clouds 25 1014 38 10000 3.09 0 19:27 28.02.2021
2011 Clear 25 1014 38 10000 3.09 0 18:47 28.02.2021
2012 Clear 25 1014 38 10000 3.09 0 18:28 28.02.2021
2013 Clear 25 1014 38 10000 3.09 0 18:28 28.02.2021
2014 Clear 23 1015 40 10000 4.12 0 17:58 28.02.2021
2015 Clear 23 1015 40 10000 4.12 0 17:38 28.02.2021
2016 Clear 23 1015 40 10000 4.12 0 17:19 28.02.2021
2017 Clear 20 1016 45 10000 3.6 320 16:46 28.02.2021
2018 Clear 20 1016 45 10000 3.6 320 16:26 28.02.2021
2019 Clear 16 1017 59 10000 3.09 310 15:51 28.02.2021
2020 Clear 16 1017 59 10000 3.09 310 15:26 28.02.2021
2021 Clear 14 1017 72 10000 3.09 270 14:58 28.02.2021
2022 Clear 14 1017 72 10000 3.09 270 14:32 28.02.2021
2023 Clear 12 1018 76 10000 2.06 280 13:56 28.02.2021
2024 Clear 12 1018 76 10000 2.06 280 13:36 28.02.2021
2025 Clear 12 1018 76 10000 2.06 280 13:18 28.02.2021
2026 Clear 9 1018 87 10000 1.54 290 12:48 28.02.2021
2027 Clear 9 1018 87 10000 1.54 290 12:30 28.02.2021
2028 Clear 10 1017 81 10000 2.57 290 11:55 28.02.2021
2029 Clear 10 1017 81 10000 2.57 290 11:26 28.02.2021
2030 Clear 11 1017 76 10000 2.57 300 10:59 28.02.2021
2031 Clear 11 1017 76 10000 2.57 300 10:29 28.02.2021
2032 Clear 11 1016 76 10000 3.09 310 09:57 28.02.2021
2033 Clear 11 1016 76 10000 3.09 310 09:35 28.02.2021
2034 Clear 12 1016 71 10000 3.6 290 08:55 28.02.2021
2035 Clear 12 1016 71 10000 3.6 290 08:33 28.02.2021
2036 Clear 13 1016 67 10000 3.09 290 07:59 28.02.2021
2037 Clear 13 1016 67 10000 3.09 290 07:39 28.02.2021
2038 Clear 13 1016 67 10000 3.09 290 07:19 28.02.2021
2039 Clear 14 1016 62 10000 3.6 280 06:23 28.02.2021
2040 Clear 18 1015 39 10000 2.57 210 03:46 28.02.2021
2041 Clear 20 1014 34 10000 2.57 0 02:20 28.02.2021
2042 Clear 22 1013 30 10000 5.66 270 00:58 28.02.2021
2043 Clear 22 1013 30 10000 5.66 270 00:58 28.02.2021
2044 Clear 22 1013 30 10000 5.66 270 00:37 28.02.2021
2045 Clear 25 1012 25 10000 8.75 290 23:48 27.02.2021
2046 Clear 25 1012 25 10000 8.75 290 23:20 27.02.2021
2047 Clear 26 1012 24 10000 9.26 300 22:49 27.02.2021
2048 Clear 26 1012 24 10000 9.26 300 22:23 27.02.2021
2049 Clear 27 1011 21 10000 7.2 280 21:51 27.02.2021
2050 Clear 27 1011 21 10000 7.2 280 21:33 27.02.2021
2051 Clear 28 1011 21 10000 7.2 290 20:54 27.02.2021
2052 Clear 28 1011 21 10000 7.2 290 20:34 27.02.2021
2053 Clear 27 1012 26 10000 6.17 290 19:56 27.02.2021
2054 Clear 27 1012 26 10000 6.17 290 19:37 27.02.2021
2055 Clear 27 1012 26 10000 6.17 290 19:19 27.02.2021
2056 Clear 25 1012 33 10000 4.63 300 18:37 27.02.2021
2057 Clear 25 1012 33 10000 4.63 300 18:18 27.02.2021
2058 Clear 23 1013 46 10000 3.6 290 17:42 27.02.2021
2059 Clear 23 1013 46 10000 3.6 290 17:19 27.02.2021
2060 Clear 20 1014 60 10000 2.06 0 16:50 27.02.2021
2061 Clear 20 1014 60 10000 2.06 0 16:30 27.02.2021
2062 Clear 17 1014 72 10000 2.57 290 15:47 27.02.2021
2063 Clear 17 1014 72 10000 2.57 290 15:20 27.02.2021
2064 Clear 15 1015 77 10000 2.06 270 14:41 27.02.2021
2065 Clear 15 1015 77 10000 2.06 270 14:22 27.02.2021
2066 Clear 14 1015 82 10000 2.57 250 13:47 27.02.2021
2067 Clear 14 1015 82 10000 2.57 250 13:22 27.02.2021
2068 Clear 12 1015 94 10000 1.54 280 12:49 27.02.2021
2069 Clear 12 1015 94 10000 1.54 280 12:25 27.02.2021
2070 Clear 12 1015 94 10000 2.06 290 11:52 27.02.2021
2071 Clear 12 1015 94 10000 2.06 290 11:31 27.02.2021
2072 Clouds 13 1015 88 10000 1.54 300 10:53 27.02.2021
2073 Clouds 13 1015 88 10000 1.54 300 10:34 27.02.2021
2074 Clouds 14 1014 82 10000 2.57 260 09:54 27.02.2021
2075 Clouds 14 1014 82 10000 2.57 260 09:32 27.02.2021
2076 Clouds 15 1014 77 10000 2.57 310 08:44 27.02.2021
2077 Clouds 15 1014 77 10000 2.57 310 08:24 27.02.2021
2078 Clouds 16 1014 72 10000 3.09 280 07:58 27.02.2021
2079 Clouds 16 1014 72 10000 3.09 280 07:25 27.02.2021
2080 Clear 23 1012 49 10000 2.57 290 01:30 27.02.2021
2081 Rain 26 1011 38 10000 4.12 310 00:31 27.02.2021
2082 Clear 29 1011 30 10000 5.66 310 23:41 26.02.2021
2083 Clear 29 1011 30 10000 5.66 310 23:21 26.02.2021
2084 Clear 30 1010 25 10000 2.06 50 22:34 26.02.2021
2085 Clear 31 1010 23 10000 4.63 300 21:54 26.02.2021
2086 Clear 31 1010 23 10000 4.63 300 21:35 26.02.2021
2087 Clear 30 1011 26 10000 3.6 320 20:55 26.02.2021
2088 Clear 30 1011 26 10000 3.6 320 20:36 26.02.2021
2089 Clear 30 1011 26 10000 3.6 320 20:18 26.02.2021
2090 Clear 29 1011 32 10000 3.09 0 19:26 26.02.2021
2091 Clear 27 1011 39 10000 4.12 320 18:52 26.02.2021
2092 Clear 27 1011 39 10000 4.12 320 18:24 26.02.2021
2093 Clear 25 1012 47 10000 3.6 300 17:56 26.02.2021
2094 Clear 25 1012 47 10000 3.6 300 17:36 26.02.2021
2095 Clear 22 1013 53 10000 3.09 300 16:59 26.02.2021
2096 Clear 22 1013 53 10000 3.09 300 16:40 26.02.2021
2097 Clear 22 1013 53 10000 3.09 300 16:40 26.02.2021
2098 Clear 22 1013 53 10000 3.09 300 16:22 26.02.2021
2099 Clear 19 1013 63 10000 2.57 270 15:43 26.02.2021
2100 Clear 19 1013 63 10000 2.57 270 15:23 26.02.2021
2101 Clear 17 1013 72 10000 1.54 240 14:52 26.02.2021
2102 Clear 17 1013 72 10000 1.54 240 14:34 26.02.2021
2103 Clear 14 1013 88 10000 3.09 280 13:49 26.02.2021
2104 Clear 14 1013 88 10000 3.09 280 13:30 26.02.2021
2105 Clear 13 1013 88 10000 2.57 270 12:48 26.02.2021
2106 Clear 13 1013 88 10000 2.57 270 12:26 26.02.2021
2107 Clouds 13 1012 88 10000 2.57 290 11:40 26.02.2021
2108 Clear 13 1011 88 10000 2.06 310 10:55 26.02.2021
2109 Clear 13 1011 88 10000 2.06 310 10:24 26.02.2021
2110 Clear 14 1011 82 10000 2.57 290 09:47 26.02.2021
2111 Clear 14 1011 82 10000 2.57 290 09:27 26.02.2021
2112 Clouds 15 1010 82 10000 3.09 270 08:33 26.02.2021
2113 Clouds 15 1010 77 10000 2.57 290 07:56 26.02.2021
2114 Clouds 15 1010 77 10000 2.57 290 07:20 26.02.2021
2115 Clear 15 1010 77 10000 2.57 300 06:28 26.02.2021
2116 Clear 18 1010 63 10000 3.6 300 04:52 26.02.2021
2117 Clear 20 1009 56 10000 3.09 300 02:36 26.02.2021
2118 Clear 29 1007 26 10000 3.09 300 00:25 26.02.2021
2119 Clouds 33 1007 18 10000 4.63 300 23:31 25.02.2021
2120 Clouds 33 1007 16 10000 3.6 310 22:51 25.02.2021
2121 Clouds 33 1007 16 10000 3.6 310 22:33 25.02.2021
2122 Clear 33 1007 19 10000 3.09 0 21:48 25.02.2021
2123 Clear 33 1007 19 10000 3.09 0 21:30 25.02.2021
2124 Clear 32 1008 23 10000 3.6 320 20:43 25.02.2021
2125 Clear 32 1008 23 10000 3.6 320 20:24 25.02.2021
2126 Clear 30 1009 26 10000 2.57 0 19:53 25.02.2021
2127 Clear 30 1009 26 10000 2.57 0 19:22 25.02.2021
2128 Clear 27 1011 34 10000 3.09 310 18:59 25.02.2021
2129 Clear 27 1011 34 10000 3.09 310 18:33 25.02.2021
2130 Clear 24 1012 43 10000 1.54 330 17:57 25.02.2021
2131 Clear 24 1012 43 10000 1.54 330 17:30 25.02.2021
2132 Clear 22 1013 49 10000 1.03 0 16:54 25.02.2021
2133 Clear 22 1013 49 10000 1.03 0 16:31 25.02.2021
2134 Clear 26 1010 29 10000 0.53 228 15:36 25.02.2021
2135 Clear 23 1011 35 10000 0.03 342 15:18 25.02.2021
2136 Clear 20 1012 43 10000 0.17 119 14:29 25.02.2021
2137 Clear 20 1012 43 10000 0.17 119 13:56 25.02.2021
2138 Clear 20 1012 43 10000 0.17 119 13:36 25.02.2021
2139 Clear 18 1013 51 10000 0.35 333 13:18 25.02.2021
2140 Clear 13 1013 68 10000 0.28 326 12:23 25.02.2021
2141 Clear 13 1013 68 10000 0.28 326 11:48 25.02.2021
2142 Clear 11 1013 73 10000 0.13 281 11:22 25.02.2021
2143 Clear 11 1013 73 10000 0.13 281 10:47 25.02.2021
2144 Clear 11 1013 72 10000 0.04 81 10:29 25.02.2021
2145 Clear 11 1013 72 10000 0.04 81 09:45 25.02.2021
2146 Clear 12 1013 71 10000 0.23 3 08:57 25.02.2021
2147 Clear 12 1013 69 10000 0.28 269 08:25 25.02.2021
2148 Clear 12 1013 69 10000 0.28 269 07:57 25.02.2021
2149 Clear 12 1013 69 10000 0.28 269 07:35 25.02.2021
2150 Clear 13 1013 72 10000 0.56 274 06:55 25.02.2021
2151 Clear 16 1014 67 10000 1.91 251 02:39 25.02.2021
2152 Clear 18 1014 60 10000 2.17 242 01:38 25.02.2021
2153 Clear 19 1013 50 10000 2.46 241 00:42 25.02.2021
2154 Clear 25 1012 35 10000 2.84 238 23:53 24.02.2021
2155 Clear 28 1011 24 10000 3.62 241 23:28 24.02.2021
2156 Clear 28 1011 24 10000 3.62 241 23:28 24.02.2021
2157 Clear 28 1011 24 10000 3.62 241 22:45 24.02.2021
2158 Clear 29 1011 20 10000 3.74 244 22:25 24.02.2021
2159 Clear 29 1011 20 10000 3.74 244 21:46 24.02.2021
2160 Clear 30 1012 18 10000 3.81 241 20:59 24.02.2021
2161 Clear 30 1012 18 10000 3.81 241 20:40 24.02.2021
2162 Clear 29 1014 26 10000 3.09 270 20:20 24.02.2021
2163 Clear 29 1014 26 10000 3.09 270 19:29 24.02.2021
2164 Clear 27 1015 34 10000 4.12 320 18:59 24.02.2021
2165 Clear 27 1015 34 10000 4.12 320 18:34 24.02.2021
2166 Clear 24 1016 46 10000 3.6 310 17:56 24.02.2021
2167 Clear 24 1016 46 10000 3.6 310 17:30 24.02.2021
2168 Clear 24 1016 46 10000 3.6 310 17:30 24.02.2021
2169 Clear 24 1016 46 10000 3.6 310 17:30 24.02.2021
2170 Clear 24 1016 46 10000 3.6 310 17:30 24.02.2021
2171 Clear 21 1017 52 10000 3.09 260 16:57 24.02.2021
2172 Clear 21 1017 52 10000 3.09 260 16:39 24.02.2021
2173 Clear 21 1017 52 10000 3.09 260 16:19 24.02.2021
2174 Clear 17 1018 72 10000 3.09 280 15:38 24.02.2021
2175 Clear 14 1018 82 10000 4.12 290 14:53 24.02.2021
2176 Clear 14 1018 82 10000 4.12 290 14:34 24.02.2021
2177 Clouds 12 1019 87 10000 3.6 270 13:58 24.02.2021
2178 Clouds 12 1019 87 10000 3.6 270 13:38 24.02.2021
2179 Clouds 12 1019 87 10000 3.6 270 13:19 24.02.2021
2180 Clouds 10 1019 93 10000 2.57 290 12:43 24.02.2021
2181 Clouds 10 1019 93 10000 2.57 290 12:23 24.02.2021
2182 Clear 10 1018 100 10000 3.09 290 11:45 24.02.2021
2183 Clear 10 1018 93 10000 2.57 310 10:49 24.02.2021
2184 Clear 10 1018 93 10000 2.57 310 10:29 24.02.2021
2185 Clear 11 1018 93 10000 3.6 280 09:41 24.02.2021
2186 Clear 11 1018 93 10000 3.6 280 09:18 24.02.2021
2187 Clear 12 1018 87 10000 2.57 290 08:33 24.02.2021
2188 Clear 12 1019 87 10000 2.06 290 07:55 24.02.2021
2189 Clear 12 1019 87 10000 2.06 290 07:19 24.02.2021
2190 Clear 13 1019 82 10000 2.57 300 06:20 24.02.2021
2191 Clear 17 1019 63 10000 3.6 290 02:44 24.02.2021
2192 Clear 26 1017 31 10000 5.14 300 23:55 23.02.2021
2193 Clouds 27 1017 29 10000 2.57 0 22:51 23.02.2021
2194 Clouds 27 1017 29 10000 2.57 0 22:23 23.02.2021
2195 Clear 27 1017 29 10000 2.06 0 21:49 23.02.2021
2196 Clear 27 1017 29 10000 2.06 0 21:27 23.02.2021
2197 Clear 25 1018 33 10000 3.6 320 20:59 23.02.2021
2198 Clear 25 1018 33 10000 3.6 320 20:39 23.02.2021
2199 Clear 25 1018 33 10000 3.6 320 20:20 23.02.2021
2200 Clear 24 1019 38 10000 4.12 300 19:46 23.02.2021
2201 Clear 24 1019 38 10000 4.12 300 19:26 23.02.2021
2202 Clear 22 1019 43 10000 3.09 290 18:44 23.02.2021
2203 Clear 22 1019 43 10000 3.09 290 18:26 23.02.2021
2204 Clear 19 1020 52 10000 4.12 310 17:53 23.02.2021
2205 Clear 19 1020 52 10000 4.12 310 17:27 23.02.2021
2206 Clear 17 1021 55 10000 4.63 300 16:46 23.02.2021
2207 Clear 17 1021 55 10000 4.63 300 16:24 23.02.2021
2208 Clear 14 1022 62 10000 5.66 290 15:50 23.02.2021
2209 Clear 14 1022 62 10000 5.66 290 15:50 23.02.2021
2210 Clear 14 1022 62 10000 5.66 290 15:31 23.02.2021
2211 Clear 12 1022 66 10000 4.63 300 14:55 23.02.2021
2212 Clear 12 1022 66 10000 4.63 300 14:37 23.02.2021
2213 Clear 12 1022 66 10000 4.63 300 14:19 23.02.2021
2214 Clear 7 1023 87 10000 4.12 290 13:38 23.02.2021
2215 Clear 7 1023 87 10000 4.12 290 12:59 23.02.2021
2216 Clear 7 1023 87 10000 4.12 290 12:41 23.02.2021
2217 Clear 7 1023 87 10000 4.12 290 12:18 23.02.2021
2218 Clear 8 1023 81 10000 3.6 280 11:45 23.02.2021
2219 Clear 8 1023 81 10000 3.6 280 11:18 23.02.2021
2220 Clear 8 1022 81 10000 3.09 290 10:38 23.02.2021
2221 Clear 8 1022 81 10000 3.6 280 09:59 23.02.2021
2222 Clear 8 1022 81 10000 3.6 280 09:41 23.02.2021
2223 Clear 8 1022 81 10000 3.6 280 09:21 23.02.2021
2224 Clear 8 1023 81 10000 4.12 280 08:45 23.02.2021
2225 Clear 8 1023 81 10000 4.12 280 08:20 23.02.2021
2226 Clear 8 1023 81 10000 3.09 290 07:34 23.02.2021
2227 Clouds 10 1023 71 10000 3.6 280 05:27 23.02.2021
2228 Clouds 12 1022 58 10000 6.69 280 02:37 23.02.2021
2229 Clouds 12 1022 58 10000 6.69 280 02:19 23.02.2021
2230 Clouds 14 1020 54 10000 8.23 290 00:19 23.02.2021
2231 Clouds 15 1020 51 10000 8.23 280 23:30 22.02.2021
2232 Clouds 15 1020 51 10000 9.26 290 22:43 22.02.2021
2233 Clouds 15 1020 51 10000 9.26 290 22:22 22.02.2021
2234 Clouds 15 1019 51 10000 9.77 290 21:57 22.02.2021
2235 Clouds 15 1019 51 10000 9.77 290 21:38 22.02.2021
2236 Clouds 15 1019 51 10000 9.77 290 21:19 22.02.2021
2237 Clouds 15 1019 51 10000 9.26 300 20:43 22.02.2021
2238 Clouds 15 1019 51 10000 9.26 300 20:23 22.02.2021
2239 Clouds 15 1019 47 10000 5.66 270 19:39 22.02.2021
2240 Clouds 15 1019 47 10000 5.66 270 19:21 22.02.2021
2241 Clouds 15 1019 47 10000 8.23 290 18:46 22.02.2021
2242 Clouds 15 1019 47 10000 8.23 290 18:28 22.02.2021
2243 Clouds 17 1017 37 10000 4.5 252 17:43 22.02.2021
2244 Clouds 14 1019 47 10000 5.14 300 17:18 22.02.2021
2245 Clouds 14 1019 47 10000 5.14 300 16:47 22.02.2021
2246 Clouds 14 1019 47 10000 5.14 300 16:25 22.02.2021
2247 Clouds 13 1018 50 10000 4.63 290 15:31 22.02.2021
2248 Clouds 12 1018 58 10000 3.6 0 14:49 22.02.2021
2249 Clouds 12 1018 58 10000 3.6 0 14:30 22.02.2021
2250 Clouds 10 1018 66 10000 2.57 0 13:51 22.02.2021
2251 Clouds 10 1018 66 10000 2.57 0 13:25 22.02.2021
2252 Clouds 9 1017 71 10000 2.06 290 12:44 22.02.2021
2253 Clouds 9 1017 71 10000 2.06 290 12:22 22.02.2021
2254 Clouds 10 1017 62 10000 2.57 250 11:45 22.02.2021
2255 Clouds 10 1017 62 10000 2.57 250 11:25 22.02.2021
2256 Clouds 10 1016 62 10000 2.57 230 10:50 22.02.2021
2257 Clouds 10 1016 62 10000 2.57 230 10:31 22.02.2021
2258 Clouds 10 1016 66 10000 2.57 0 09:50 22.02.2021
2259 Clouds 10 1016 66 10000 2.57 0 09:30 22.02.2021
2260 Clouds 10 1016 71 10000 2.57 260 08:57 22.02.2021
2261 Clouds 10 1016 71 10000 2.57 260 08:38 22.02.2021
2262 Clouds 10 1016 71 10000 2.06 0 07:58 22.02.2021
2263 Clouds 10 1016 71 10000 2.06 0 07:27 22.02.2021
2264 Clouds 11 1016 66 10000 2.57 280 06:46 22.02.2021
2265 Clouds 11 1016 66 10000 3.09 250 05:45 22.02.2021
2266 Clouds 11 1015 66 10000 3.6 240 03:29 22.02.2021
2267 Clouds 11 1015 66 10000 3.6 240 03:29 22.02.2021
2268 Clouds 11 1015 66 10000 3.6 240 03:29 22.02.2021
2269 Clouds 11 1015 71 10000 5.66 260 02:51 22.02.2021
2270 Clouds 13 1013 58 10000 8.75 290 00:46 22.02.2021
2271 Clouds 13 1013 58 10000 8.75 290 00:23 22.02.2021
2272 Clouds 13 1013 58 10000 7.72 290 23:33 21.02.2021
2273 Clouds 14 1012 54 10000 8.23 290 22:53 21.02.2021
2274 Clouds 14 1012 54 10000 8.23 290 22:23 21.02.2021
2275 Clouds 14 1012 58 10000 10.29 290 21:43 21.02.2021
2276 Clouds 14 1012 58 10000 10.29 290 21:24 21.02.2021
2277 Clouds 14 1011 58 10000 11.32 280 20:43 21.02.2021
2278 Clouds 14 1011 58 10000 11.32 280 20:20 21.02.2021
2279 Clouds 15 1011 51 10000 12.86 290 19:51 21.02.2021
2280 Clouds 15 1011 51 10000 12.86 290 19:33 21.02.2021
2281 Rain 13 1011 62 10000 9.26 280 18:49 21.02.2021
2282 Rain 13 1011 62 10000 9.26 280 18:25 21.02.2021
2283 Clouds 14 1010 54 10000 9.26 270 17:30 21.02.2021
2284 Rain 12 1010 71 10000 5.66 270 16:58 21.02.2021
2285 Rain 12 1010 71 10000 5.66 270 16:35 21.02.2021
2286 Rain 11 1009 82 10000 4.12 0 15:57 21.02.2021
2287 Rain 11 1009 82 10000 4.12 0 15:22 21.02.2021
2288 Rain 11 1008 82 10000 4.12 290 14:51 21.02.2021
2289 Rain 11 1008 82 10000 4.12 290 14:30 21.02.2021
2290 Rain 11 1009 82 10000 1.03 0 13:47 21.02.2021
2291 Rain 11 1009 82 10000 1.03 0 13:23 21.02.2021
2292 Rain 10 1009 76 10000 1.54 350 12:32 21.02.2021
2293 Rain 10 1010 81 10000 1.54 330 11:56 21.02.2021
2294 Rain 10 1010 81 10000 1.54 330 11:36 21.02.2021
2295 Rain 11 1011 66 10000 0.51 0 10:36 21.02.2021
2296 Rain 11 1011 66 10000 0.51 0 10:18 21.02.2021
2297 Clouds 11 1012 62 10000 1.54 0 09:41 21.02.2021
2298 Clouds 11 1012 62 10000 1.54 0 09:23 21.02.2021
2299 Clouds 10 1012 66 10000 2.06 290 08:32 21.02.2021
2300 Clouds 11 1013 58 10000 2.57 310 07:43 21.02.2021
2301 Clouds 11 1013 58 10000 2.57 310 07:21 21.02.2021
2302 Clouds 13 1015 50 10000 4.63 250 04:58 21.02.2021
2303 Clear 14 1015 44 10000 2.57 0 02:32 21.02.2021
2304 Clear 18 1014 32 10000 6.17 270 00:52 21.02.2021
2305 Clear 18 1014 32 10000 6.17 270 00:20 21.02.2021
2306 Clear 20 1014 30 10000 6.69 270 23:29 20.02.2021
2307 Clear 21 1014 28 10000 9.26 290 22:49 20.02.2021
2308 Clear 21 1014 28 10000 9.26 290 22:29 20.02.2021
2309 Clear 21 1014 32 10000 6.17 290 21:47 20.02.2021
2310 Clear 21 1014 32 10000 6.17 290 21:27 20.02.2021
2311 Clear 20 1015 34 10000 2.57 0 20:51 20.02.2021
2312 Clear 20 1015 34 10000 2.57 0 20:30 20.02.2021
2313 Clear 19 1015 32 10000 4.12 0 19:53 20.02.2021
2314 Clear 19 1015 32 10000 4.12 0 19:33 20.02.2021
2315 Clear 19 1016 32 10000 4.63 310 18:46 20.02.2021
2316 Clear 19 1016 32 10000 4.63 310 18:27 20.02.2021
2317 Clear 18 1017 32 10000 5.66 300 17:43 20.02.2021
2318 Clouds 18 1017 32 10000 5.66 300 17:25 20.02.2021
2319 Clouds 15 1018 51 10000 4.12 320 16:43 20.02.2021
2320 Clouds 15 1018 51 10000 4.12 320 16:22 20.02.2021
2321 Clouds 13 1018 58 10000 3.6 290 15:37 20.02.2021
2322 Clouds 11 1019 66 10000 2.57 260 14:49 20.02.2021
2323 Clouds 11 1019 66 10000 2.57 260 14:24 20.02.2021
2324 Clouds 9 1020 76 10000 2.57 280 13:51 20.02.2021
2325 Clouds 9 1020 76 10000 2.57 280 13:27 20.02.2021
2326 Clouds 6 1020 87 10000 2.57 310 12:52 20.02.2021
2327 Clouds 6 1020 87 10000 2.57 310 12:32 20.02.2021
2328 Clouds 6 1020 87 10000 2.06 300 11:48 20.02.2021
2329 Clouds 6 1020 87 10000 2.06 300 11:48 20.02.2021
2330 Clouds 6 1020 87 10000 2.06 300 11:30 20.02.2021
2331 Clouds 6 1020 87 10000 3.09 290 10:50 20.02.2021
2332 Clouds 7 1020 81 10000 3.09 280 09:59 20.02.2021
2333 Clouds 7 1020 81 10000 3.09 280 09:40 20.02.2021
2334 Clouds 8 1021 81 10000 3.09 300 08:49 20.02.2021
2335 Clouds 8 1021 81 10000 3.09 300 08:19 20.02.2021
2336 Clouds 11 1022 62 10000 1.54 240 03:40 20.02.2021
2337 Clouds 12 1022 54 10000 2.57 240 02:30 20.02.2021
2338 Clouds 12 1022 58 10000 4.12 280 01:50 20.02.2021
2339 Clouds 13 1021 50 10000 3.6 290 00:48 20.02.2021
2340 Clouds 13 1021 50 10000 3.6 290 00:23 20.02.2021
2341 Clouds 14 1021 47 10000 4.63 310 23:19 19.02.2021
2342 Clear 14 1021 47 10000 4.63 300 22:28 19.02.2021
2343 Clear 14 1021 47 10000 4.12 300 21:58 19.02.2021
2344 Clear 14 1021 47 10000 4.12 300 21:32 19.02.2021
2345 Clouds 14 1021 47 10000 3.09 0 20:57 19.02.2021
2346 Clouds 14 1021 47 10000 3.09 0 20:37 19.02.2021
2347 Clouds 14 1021 47 10000 3.09 0 20:18 19.02.2021
2348 Clouds 15 1021 44 10000 6.17 290 19:30 19.02.2021
2349 Clouds 14 1021 44 10000 7.2 290 18:57 19.02.2021
2350 Clouds 14 1021 44 10000 7.2 290 18:35 19.02.2021
2351 Clouds 13 1022 47 10000 4.12 300 17:56 19.02.2021
2352 Clouds 13 1022 47 10000 4.12 300 17:23 19.02.2021
2353 Clouds 12 1022 50 10000 4.12 0 16:39 19.02.2021
2354 Clouds 12 1022 50 10000 4.12 0 16:20 19.02.2021
2355 Clouds 11 1023 50 10000 2.57 310 15:45 19.02.2021
2356 Clouds 11 1023 50 10000 2.57 310 15:27 19.02.2021
2357 Clouds 9 1023 66 10000 2.06 320 14:38 19.02.2021
2358 Clouds 9 1023 66 10000 2.06 320 14:20 19.02.2021
2359 Clouds 8 1023 71 10000 3.6 300 13:44 19.02.2021
2360 Clouds 8 1023 71 10000 3.6 300 13:24 19.02.2021
2361 Clouds 7 1022 76 10000 3.09 300 12:42 19.02.2021
2362 Clouds 7 1022 76 10000 3.09 300 12:23 19.02.2021
2363 Clouds 7 1022 81 10000 2.57 290 11:51 19.02.2021
2364 Clouds 7 1022 81 10000 2.57 290 11:23 19.02.2021
2365 Clouds 7 1022 81 10000 2.57 290 10:50 19.02.2021
2366 Clouds 7 1022 81 10000 2.57 290 10:22 19.02.2021
2367 Clouds 7 1022 81 10000 3.09 280 09:40 19.02.2021
2368 Clouds 7 1022 81 10000 3.09 280 09:22 19.02.2021
2369 Clouds 8 1021 71 10000 2.57 240 08:50 19.02.2021
2370 Clouds 8 1021 71 10000 2.57 240 08:23 19.02.2021
2371 Clear 2 1023 92 10000 3.1 283 07:48 19.02.2021
2372 Clouds 8 1021 71 10000 2.06 280 07:27 19.02.2021
2373 Clouds 8 1021 71 10000 2.06 280 06:49 19.02.2021
2374 Clouds 8 1021 66 10000 3.09 270 05:21 19.02.2021
2375 Clouds 8 1020 66 10000 3.6 300 04:41 19.02.2021
2376 Clouds 8 1018 71 10000 5.14 260 01:47 19.02.2021
2377 Clouds 9 1017 66 10000 7.2 290 00:36 19.02.2021
2378 Clouds 8 1016 76 10000 5.14 270 23:52 18.02.2021
2379 Clouds 8 1016 76 10000 5.14 270 23:33 18.02.2021
2380 Rain 8 1016 87 10000 5.14 300 22:44 18.02.2021
2381 Rain 8 1016 87 10000 5.14 300 22:26 18.02.2021
2382 Rain 9 1014 71 9000 3.09 0 21:45 18.02.2021
2383 Rain 9 1014 71 9000 3.09 0 21:24 18.02.2021
2384 Clouds 11 1013 58 10000 7.2 0 20:41 18.02.2021
2385 Clouds 11 1013 58 10000 7.2 0 20:21 18.02.2021
2386 Clouds 13 1011 50 10000 10.29 280 19:46 18.02.2021
2387 Clouds 13 1011 50 10000 10.29 280 19:25 18.02.2021
2388 Rain 13 1011 47 6000 7.2 280 18:52 18.02.2021
2389 Rain 13 1011 47 6000 7.2 280 18:27 18.02.2021
2390 Clouds 14 1009 51 10000 8.23 290 17:52 18.02.2021
2391 Clouds 14 1009 51 10000 8.23 290 17:25 18.02.2021
2392 Clouds 13 1009 58 10000 9.77 290 16:52 18.02.2021
2393 Clouds 13 1009 58 10000 9.77 290 16:33 18.02.2021
2394 Rain 14 1008 54 10000 8.75 280 15:44 18.02.2021
2395 Rain 14 1008 54 10000 8.75 280 15:24 18.02.2021
2396 Rain 13 1007 71 10000 7.2 270 14:58 18.02.2021
2397 Rain 13 1007 71 10000 7.2 270 14:36 18.02.2021
2398 Rain 12 1006 87 10000 2.06 300 13:50 18.02.2021
2399 Rain 12 1006 87 10000 2.06 300 13:23 18.02.2021
2400 Rain 11 1006 93 10000 2.38 322 12:57 18.02.2021
2401 Rain 11 1006 93 10000 2.38 322 12:36 18.02.2021
2402 Rain 11 1005 93 10000 1.54 340 11:48 18.02.2021
2403 Rain 11 1005 93 10000 1.54 340 11:28 18.02.2021
2404 Rain 11 1005 93 10000 1.54 340 11:28 18.02.2021
2405 Rain 11 1005 93 10000 3.58 355 10:58 18.02.2021
2406 Rain 11 1005 93 10000 3.58 355 10:40 18.02.2021
2407 Rain 11 1005 93 10000 3.42 343 10:20 18.02.2021
2408 Rain 11 1007 93 10000 2.06 330 09:39 18.02.2021
2409 Rain 11 1007 93 10000 2.06 330 09:19 18.02.2021
2410 Rain 12 1006 82 10000 1.54 280 08:31 18.02.2021
2411 Rain 13 1007 71 10000 1.54 0 07:58 18.02.2021
2412 Rain 13 1007 71 10000 1.54 0 07:30 18.02.2021
2413 Rain 13 1008 76 10000 2.56 318 06:20 18.02.2021
2414 Clouds 16 1011 48 10000 5.66 260 00:53 18.02.2021
2415 Clouds 18 1011 42 10000 7.72 280 23:47 17.02.2021
2416 Clouds 18 1011 42 10000 7.72 280 23:19 17.02.2021
2417 Clouds 18 1012 42 10000 4.63 0 22:40 17.02.2021
2418 Clouds 18 1012 42 10000 4.63 0 22:40 17.02.2021
2419 Clouds 18 1012 42 10000 4.63 0 22:22 17.02.2021
2420 Clouds 18 1012 42 10000 4.63 0 22:22 17.02.2021
2421 Clouds 17 1012 45 10000 4.63 270 21:45 17.02.2021
2422 Clouds 17 1012 45 10000 4.63 270 21:20 17.02.2021
2423 Clouds 17 1013 48 10000 7.2 290 20:42 17.02.2021
2424 Clouds 17 1013 48 10000 7.2 290 20:23 17.02.2021
2425 Clouds 18 1013 42 10000 8.23 290 19:38 17.02.2021
2426 Clouds 17 1013 45 10000 8.23 290 18:59 17.02.2021
2427 Clouds 17 1013 45 10000 8.23 290 18:59 17.02.2021
2428 Clouds 17 1013 45 10000 8.23 290 18:40 17.02.2021
2429 Clouds 18 1013 39 10000 7.72 290 17:47 17.02.2021
2430 Clouds 18 1013 39 10000 7.72 290 17:23 17.02.2021
2431 Clouds 17 1014 42 10000 5.66 290 16:54 17.02.2021
2432 Clouds 17 1014 42 10000 5.66 290 16:36 17.02.2021
2433 Clouds 17 1014 42 10000 5.66 290 16:18 17.02.2021
2434 Clouds 17 1014 45 10000 6.17 280 15:42 17.02.2021
2435 Clouds 17 1014 45 10000 6.17 280 15:22 17.02.2021
2436 Clouds 14 1014 58 10000 2.06 280 14:44 17.02.2021
2437 Clouds 14 1014 58 10000 2.06 280 14:44 17.02.2021
2438 Clouds 14 1014 58 10000 2.06 280 14:26 17.02.2021
2439 Clouds 13 1015 67 10000 2.42 263 13:45 17.02.2021
2440 Clouds 11 1015 71 10000 0.51 0 12:59 17.02.2021
2441 Clouds 11 1015 71 10000 0.51 0 12:26 17.02.2021
2442 Clouds 11 1014 71 10000 2.57 280 11:50 17.02.2021
2443 Clouds 11 1014 71 10000 2.57 280 11:30 17.02.2021
2444 Clouds 10 1014 76 10000 2 266 10:59 17.02.2021
2445 Clouds 10 1014 76 10000 2 266 10:40 17.02.2021
2446 Clouds 10 1014 76 10000 2.08 267 10:20 17.02.2021
2447 Clouds 10 1015 76 10000 2.06 290 09:41 17.02.2021
2448 Clouds 10 1015 76 10000 2.06 290 09:18 17.02.2021
2449 Clear 11 1015 66 10000 1.54 300 08:42 17.02.2021
2450 Clear 11 1015 66 10000 1.54 300 08:20 17.02.2021
2451 Clear 11 1015 66 10000 1.54 280 07:24 17.02.2021
2452 Clear 15 1015 51 10000 4.63 300 03:54 17.02.2021
2453 Clear 16 1015 48 10000 4.63 270 02:33 17.02.2021
2454 Clear 17 1014 48 10000 4.12 310 01:37 17.02.2021
2455 Clouds 20 1013 40 10000 4.63 270 00:28 17.02.2021
2456 Clear 21 1012 37 10000 7.2 290 23:49 16.02.2021
2457 Clear 21 1012 37 10000 7.2 290 23:25 16.02.2021
2458 Clear 23 1012 31 10000 9.26 290 22:42 16.02.2021
2459 Clear 23 1012 31 10000 9.26 290 22:22 16.02.2021
2460 Clear 23 1012 28 10000 9.77 290 21:40 16.02.2021
2461 Clear 23 1012 28 10000 9.77 290 21:22 16.02.2021
2462 Clear 24 1012 29 10000 8.23 290 20:57 16.02.2021
2463 Clear 24 1012 29 10000 8.23 290 20:38 16.02.2021
2464 Clear 24 1012 29 10000 8.23 290 20:19 16.02.2021
2465 Clear 24 1012 27 10000 7.72 290 19:39 16.02.2021
2466 Clear 24 1012 27 10000 7.72 290 19:21 16.02.2021
2467 Clear 24 1012 23 10000 7.72 280 18:38 16.02.2021
2468 Clear 24 1012 23 10000 7.72 280 18:19 16.02.2021
2469 Clear 22 1012 33 10000 4.12 350 17:48 16.02.2021
2470 Clear 22 1012 33 10000 4.12 350 17:23 16.02.2021
2471 Clear 19 1013 45 10000 3.6 330 16:45 16.02.2021
2472 Clear 19 1013 45 10000 3.6 330 16:24 16.02.2021
2473 Clear 17 1014 55 10000 3.6 280 15:44 16.02.2021
2474 Clear 17 1014 55 10000 3.6 280 15:26 16.02.2021
2475 Clear 15 1014 63 10000 2.57 270 14:47 16.02.2021
2476 Clear 15 1014 63 10000 2.57 270 14:28 16.02.2021
2477 Clear 12 1015 76 10000 2.57 290 13:53 16.02.2021
2478 Clear 12 1015 76 10000 2.57 290 13:30 16.02.2021
2479 Clear 9 1015 87 10000 2.15 259 12:44 16.02.2021
2480 Clear 9 1015 87 10000 2.08 269 12:20 16.02.2021
2481 Clear 9 1014 87 10000 1.54 290 11:44 16.02.2021
2482 Clear 9 1014 87 10000 1.54 290 11:22 16.02.2021
2483 Clear 10 1014 87 10000 3.09 280 10:50 16.02.2021
2484 Clear 10 1014 87 10000 3.09 280 10:31 16.02.2021
2485 Clear 12 1014 76 10000 3.09 280 09:56 16.02.2021
2486 Clear 12 1014 76 10000 3.09 280 09:29 16.02.2021
2487 Clear 12 1014 76 10000 3.6 280 08:58 16.02.2021
2488 Clear 12 1014 76 10000 3.6 280 08:38 16.02.2021
2489 Clear 12 1014 76 10000 3.6 280 08:18 16.02.2021
2490 Clear 13 1014 71 10000 3.6 290 07:19 16.02.2021
2491 Clear 16 1014 59 10000 1.54 300 04:33 16.02.2021
2492 Clear 24 1012 35 10000 4.63 280 00:44 16.02.2021
2493 Clear 26 1012 29 10000 5.14 300 23:31 15.02.2021
2494 Clear 27 1011 28 10000 6.69 300 22:59 15.02.2021
2495 Clear 27 1011 28 10000 6.69 300 22:40 15.02.2021
2496 Clear 25 1011 26 10000 4.57 238 21:56 15.02.2021
2497 Clear 27 1013 28 10000 3.09 0 21:37 15.02.2021
2498 Clear 27 1013 28 10000 3.09 0 21:19 15.02.2021
2499 Clear 27 1013 28 10000 3.09 0 20:42 15.02.2021
2500 Clear 27 1013 28 10000 3.09 0 20:19 15.02.2021
2501 Clear 26 1014 27 10000 3.09 330 19:43 15.02.2021
2502 Clear 26 1014 27 10000 3.09 330 19:21 15.02.2021
2503 Clear 24 1015 31 10000 3.09 340 18:42 15.02.2021
2504 Clear 24 1015 31 10000 3.09 340 18:21 15.02.2021
2505 Clear 22 1016 35 10000 1.54 300 17:41 15.02.2021
2506 Clear 22 1016 35 10000 1.54 300 17:21 15.02.2021
2507 Clear 20 1017 40 10000 2.06 300 16:48 15.02.2021
2508 Clear 20 1017 40 10000 2.06 300 16:26 15.02.2021
2509 Clear 16 1017 51 10000 1.03 0 15:49 15.02.2021
2510 Clear 16 1017 51 10000 1.03 0 15:22 15.02.2021
2511 Clear 18 1016 33 10000 0.42 67 14:49 15.02.2021
2512 Clear 18 1016 33 10000 0.42 67 14:49 15.02.2021
2513 Clear 10 1018 81 10000 1.54 110 14:21 15.02.2021
2514 Clear 10 1018 81 10000 1.54 110 13:50 15.02.2021
2515 Clear 10 1018 81 10000 1.54 110 13:27 15.02.2021
2516 Clear 6 1018 100 10000 1.02 94 12:52 15.02.2021
2517 Clear 6 1018 100 10000 1.02 94 12:33 15.02.2021
2518 Clear 7 1018 93 10000 0.92 91 11:54 15.02.2021
2519 Clear 7 1018 93 10000 1.12 78 11:27 15.02.2021
2520 Clear 7 1018 93 10000 1.12 78 10:56 15.02.2021
2521 Clear 7 1018 93 10000 1.12 78 10:38 15.02.2021
2522 Clear 7 1018 93 10000 1.17 98 10:20 15.02.2021
2523 Clear 8 1018 87 10000 1.17 98 09:51 15.02.2021
2524 Clear 8 1018 87 10000 1.17 98 09:31 15.02.2021
2525 Clear 9 1017 87 10000 0.43 166 08:23 15.02.2021
2526 Clear 11 1017 76 10000 2.06 300 07:27 15.02.2021
2527 Clear 12 1018 71 10000 2.57 290 06:42 15.02.2021
2528 Clear 13 1017 67 10000 2.57 280 04:41 15.02.2021
2529 Clear 16 1016 55 10000 2.06 290 02:21 15.02.2021
2530 Clear 22 1014 35 10000 3.09 310 00:19 15.02.2021
2531 Clear 23 1014 31 10000 4.63 290 23:25 14.02.2021
2532 Clear 24 1013 27 10000 3.09 300 22:46 14.02.2021
2533 Clear 24 1013 27 10000 3.09 300 22:27 14.02.2021
2534 Clear 24 1013 25 10000 3.6 290 21:53 14.02.2021
2535 Clear 24 1013 25 10000 3.6 290 21:30 14.02.2021
2536 Clear 23 1014 27 10000 3.6 0 20:53 14.02.2021
2537 Clear 23 1014 27 10000 3.6 0 20:30 14.02.2021
2538 Clear 21 1014 28 10000 3.09 0 19:49 14.02.2021
2539 Clear 21 1014 28 10000 3.09 0 19:29 14.02.2021
2540 Clear 22 1015 30 10000 4.12 0 18:42 14.02.2021
2541 Clear 22 1015 30 10000 4.12 0 18:42 14.02.2021
2542 Clear 22 1015 30 10000 4.12 0 18:21 14.02.2021
2543 Clear 20 1015 34 10000 3.09 310 17:40 14.02.2021
2544 Clear 18 1016 42 10000 3.09 0 16:57 14.02.2021
2545 Clear 18 1016 42 10000 3.09 0 16:38 14.02.2021
2546 Clear 18 1016 42 10000 3.09 0 16:18 14.02.2021
2547 Clear 17 1016 51 10000 2.06 0 15:41 14.02.2021
2548 Clouds 15 1017 58 10000 2.06 270 14:58 14.02.2021
2549 Clouds 15 1017 58 10000 2.06 270 14:29 14.02.2021
2550 Clouds 13 1016 67 10000 3.09 300 13:55 14.02.2021
2551 Clouds 13 1016 67 10000 3.09 300 13:31 14.02.2021
2552 Clouds 11 1016 76 10000 3.09 290 12:45 14.02.2021
2553 Clouds 11 1016 76 10000 3.09 290 12:21 14.02.2021
2554 Clouds 11 1016 71 10000 3.09 300 11:50 14.02.2021
2555 Clouds 11 1016 71 10000 3.09 300 11:21 14.02.2021
2556 Clouds 11 1015 71 10000 1.54 290 10:39 14.02.2021
2557 Clouds 12 1015 71 10000 1.03 300 09:56 14.02.2021
2558 Clouds 12 1015 71 10000 1.03 300 09:38 14.02.2021
2559 Clouds 12 1015 71 10000 1.03 300 09:19 14.02.2021
2560 Clouds 13 1015 62 10000 1.54 300 08:35 14.02.2021
2561 Clouds 14 1016 58 10000 2.57 290 07:55 14.02.2021
2562 Clouds 14 1016 58 10000 1.54 290 06:49 14.02.2021
2563 Clouds 14 1016 54 10000 1.03 0 05:37 14.02.2021
2564 Clouds 15 1015 51 10000 4.63 270 03:23 14.02.2021
2565 Clouds 17 1014 45 10000 5.66 320 01:42 14.02.2021
2566 Clear 19 1013 39 10000 3.09 0 00:46 14.02.2021
2567 Clear 20 1012 37 10000 3.09 50 23:59 13.02.2021
2568 Clear 20 1012 37 10000 3.09 50 23:37 13.02.2021
2569 Clear 20 1012 37 10000 3.09 50 23:19 13.02.2021
2570 Clear 21 1012 32 10000 7.2 290 22:32 13.02.2021
2571 Clear 22 1012 28 10000 6.69 0 21:53 13.02.2021
2572 Clear 22 1012 28 10000 6.69 0 21:34 13.02.2021
2573 Clear 23 1012 25 10000 6.17 270 20:46 13.02.2021
2574 Clear 23 1012 25 10000 6.17 270 20:27 13.02.2021
2575 Clear 23 1012 27 10000 7.2 270 19:48 13.02.2021
2576 Clear 23 1012 27 10000 7.2 270 19:48 13.02.2021
2577 Clear 23 1012 27 10000 7.2 270 19:24 13.02.2021
2578 Clear 22 1012 28 10000 6.17 300 18:50 13.02.2021
2579 Clear 22 1012 28 10000 6.17 300 18:27 13.02.2021
2580 Clear 22 1012 30 10000 5.66 300 17:44 13.02.2021
2581 Clear 22 1012 30 10000 5.66 300 17:25 13.02.2021
2582 Clear 20 1012 40 10000 5.14 290 16:53 13.02.2021
2583 Clear 20 1012 40 10000 5.14 290 16:35 13.02.2021
2584 Clear 18 1013 48 10000 5.14 300 15:43 13.02.2021
2585 Clear 18 1013 48 10000 5.14 300 15:25 13.02.2021
2586 Clear 16 1013 59 10000 3.6 270 14:40 13.02.2021
2587 Clear 14 1014 67 10000 3.09 280 13:49 13.02.2021
2588 Clear 14 1014 67 10000 3.09 280 13:27 13.02.2021
2589 Clear 11 1014 82 10000 2.06 250 12:52 13.02.2021
2590 Clear 11 1014 82 10000 2.06 250 12:21 13.02.2021
2591 Clear 11 1013 82 10000 3.09 280 11:55 13.02.2021
2592 Clear 11 1013 82 10000 3.09 280 11:22 13.02.2021
2593 Clear 11 1013 82 10000 3.09 280 10:58 13.02.2021
2594 Clear 11 1013 82 10000 3.09 280 10:40 13.02.2021
2595 Clear 11 1013 82 10000 3.09 280 10:21 13.02.2021
2596 Clear 14 1013 72 10000 3.09 260 09:45 13.02.2021
2597 Clear 14 1013 72 10000 3.09 260 09:22 13.02.2021
2598 Clear 14 1013 72 10000 5.14 290 08:42 13.02.2021
2599 Clear 15 1013 72 10000 4.12 280 07:56 13.02.2021
2600 Clear 15 1013 72 10000 2.57 310 06:50 13.02.2021
2601 Clear 15 1013 72 10000 2.57 310 06:22 13.02.2021
2602 Clear 18 1012 59 10000 3.09 290 04:27 13.02.2021
2603 Clear 21 1011 49 10000 1.03 0 02:25 13.02.2021
2604 Clear 27 1010 32 10000 4.12 0 00:52 13.02.2021
2605 Clear 28 1010 26 10000 5.66 310 23:55 12.02.2021
2606 Clear 28 1010 26 10000 5.66 310 23:32 12.02.2021
2607 Clear 29 1010 23 10000 6.17 300 22:59 12.02.2021
2608 Clear 29 1010 23 10000 6.17 300 22:30 12.02.2021
2609 Clear 29 1010 26 10000 2.06 0 21:53 12.02.2021
2610 Clear 29 1010 26 10000 2.06 0 21:34 12.02.2021
2611 Clear 28 1011 24 10000 3.09 320 20:57 12.02.2021
2612 Clear 28 1011 24 10000 3.09 320 20:38 12.02.2021
2613 Clear 28 1011 24 10000 3.09 320 20:19 12.02.2021
2614 Clear 26 1013 31 10000 2.57 310 19:47 12.02.2021
2615 Clear 26 1013 31 10000 2.57 310 19:25 12.02.2021
2616 Clear 24 1014 38 10000 2.57 320 18:30 12.02.2021
2617 Clear 23 1015 40 10000 1.54 0 17:48 12.02.2021
2618 Clear 23 1015 40 10000 1.54 0 17:25 12.02.2021
2619 Clear 20 1016 56 10000 1.03 0 16:36 12.02.2021
2620 Clear 17 1017 67 10000 1.54 150 15:47 12.02.2021
2621 Clear 17 1017 67 10000 1.54 150 15:21 12.02.2021
2622 Clear 17 1017 67 10000 1.54 150 15:21 12.02.2021
2623 Clouds 15 1017 77 10000 1.03 0 14:43 12.02.2021
2624 Clouds 15 1017 77 10000 1.03 0 14:24 12.02.2021
2625 Clouds 13 1018 88 10000 1.54 290 13:41 12.02.2021
2626 Clouds 13 1018 88 10000 1.54 290 13:22 12.02.2021
2627 Clouds 10 1018 93 10000 0.39 179 12:49 12.02.2021
2628 Clouds 10 1018 93 10000 0.39 179 12:30 12.02.2021
2629 Clear 10 1018 93 10000 2.06 290 11:42 12.02.2021
2630 Clear 10 1018 93 10000 2.06 290 11:20 12.02.2021
2631 Clear 10 1018 93 10000 1.03 0 10:44 12.02.2021
2632 Clear 11 1018 87 10000 1.03 0 09:50 12.02.2021
2633 Clear 11 1018 87 10000 1.03 0 09:29 12.02.2021
2634 Clear 12 1017 87 10000 1.54 290 08:51 12.02.2021
2635 Clear 12 1017 87 10000 1.54 290 08:29 12.02.2021
2636 Clear 12 1017 87 10000 2.06 290 07:57 12.02.2021
2637 Clear 12 1017 87 10000 2.06 290 07:35 12.02.2021
2638 Clear 14 1017 77 10000 2.06 310 06:55 12.02.2021
2639 Clear 13 1016 76 10000 1.54 280 05:47 12.02.2021
2640 Clear 15 1016 72 10000 2.06 290 04:31 12.02.2021
2641 Clear 22 1014 43 10000 7.72 290 01:32 12.02.2021
2642 Clear 24 1013 41 10000 9.26 290 23:41 11.02.2021
2643 Clear 24 1013 41 10000 9.26 290 23:22 11.02.2021
2644 Clouds 24 1013 41 10000 9.77 290 22:46 11.02.2021
2645 Clouds 24 1013 41 10000 9.77 290 22:24 11.02.2021
2646 Clear 25 1012 44 10000 9.77 290 21:59 11.02.2021
2647 Clear 25 1012 44 10000 9.77 290 21:36 11.02.2021
2648 Clear 25 1012 44 10000 9.77 290 21:18 11.02.2021
2649 Clear 25 1012 41 10000 9.77 290 20:41 11.02.2021
2650 Clear 25 1012 41 10000 9.77 290 20:21 11.02.2021
2651 Clear 24 1012 38 10000 9.77 290 19:47 11.02.2021
2652 Clear 24 1012 38 10000 9.77 290 19:28 11.02.2021
2653 Clear 25 1012 27 10000 10.29 290 18:49 11.02.2021
2654 Clear 25 1012 27 10000 10.29 290 18:25 11.02.2021
2655 Clear 26 1011 25 10000 9.26 290 17:51 11.02.2021
2656 Clear 26 1011 25 10000 9.26 290 17:22 11.02.2021
2657 Clear 26 1011 29 10000 9.26 290 16:53 11.02.2021
2658 Clear 26 1011 29 10000 9.26 290 16:34 11.02.2021
2659 Clear 26 1011 29 10000 9.26 290 16:34 11.02.2021
2660 Clear 24 1011 35 10000 4.12 0 15:58 11.02.2021
2661 Clear 24 1011 35 10000 4.12 0 15:38 11.02.2021
2662 Clear 24 1011 35 10000 4.12 0 15:20 11.02.2021
2663 Clear 21 1011 56 10000 3.6 320 14:38 11.02.2021
2664 Clear 21 1011 56 10000 3.6 320 14:19 11.02.2021
2665 Clear 18 1011 72 10000 3.09 270 13:37 11.02.2021
2666 Clear 18 1011 72 10000 3.09 270 13:18 11.02.2021
2667 Clear 16 1010 82 10000 3.09 300 12:37 11.02.2021
2668 Clear 16 1010 82 10000 3.09 270 11:58 11.02.2021
2669 Clear 16 1010 82 10000 3.09 270 11:40 11.02.2021
2670 Clear 16 1010 82 10000 3.09 270 11:20 11.02.2021
2671 Clear 15 1009 88 10000 1.54 280 10:42 11.02.2021
2672 Clear 15 1009 88 10000 1.54 280 10:22 11.02.2021
2673 Clear 16 1009 82 10000 2.57 290 09:42 11.02.2021
2674 Clear 16 1009 82 10000 2.57 290 09:19 11.02.2021
2675 Clear 16 1009 82 10000 2.57 290 09:19 11.02.2021
2676 Clear 17 1009 77 10000 1.75 286 08:49 11.02.2021
2677 Clear 17 1009 77 10000 1.62 279 07:53 11.02.2021
2678 Clear 18 1009 72 10000 1.75 275 06:46 11.02.2021
2679 Clear 18 1009 72 10000 1.73 280 06:23 11.02.2021
2680 Clear 21 1008 60 10000 1.92 286 03:46 11.02.2021
2681 Clouds 22 1009 42 10000 2.18 263 02:25 11.02.2021
2682 Clear 33 1007 25 10000 5.66 290 00:24 11.02.2021
2683 Clear 33 1007 25 10000 5.66 290 00:24 11.02.2021
2684 Clear 33 1007 25 10000 5.66 290 23:54 10.02.2021
2685 Clear 33 1007 25 10000 5.66 290 23:20 10.02.2021
2686 Clear 33 1007 24 10000 3.6 0 22:44 10.02.2021
2687 Clear 33 1007 24 10000 3.6 0 22:24 10.02.2021
2688 Clear 33 1008 24 10000 4.63 290 21:40 10.02.2021
2689 Clear 33 1008 24 10000 4.63 290 21:21 10.02.2021
2690 Clear 33 1008 25 10000 4.12 290 20:52 10.02.2021
2691 Clear 33 1008 25 10000 4.12 290 20:29 10.02.2021
2692 Clear 32 1009 27 10000 3.6 310 19:50 10.02.2021
2693 Clear 32 1009 27 10000 3.6 310 19:50 10.02.2021
2694 Clear 32 1009 27 10000 3.6 310 19:29 10.02.2021
2695 Clear 31 1010 27 10000 3.6 300 18:49 10.02.2021
2696 Clear 31 1010 27 10000 3.6 300 18:29 10.02.2021
2697 Clear 29 1011 34 10000 1.54 0 17:59 10.02.2021
2698 Clear 29 1011 34 10000 1.54 0 17:40 10.02.2021
2699 Clear 29 1011 34 10000 1.54 0 17:20 10.02.2021
2700 Clear 26 1013 41 10000 1.54 0 16:45 10.02.2021
2701 Clear 26 1013 41 10000 1.54 0 16:24 10.02.2021
2702 Clear 23 1013 46 10000 1.03 0 15:25 10.02.2021
2703 Clear 19 1014 59 10000 0.51 0 14:54 10.02.2021
2704 Clear 19 1014 59 10000 0.51 0 14:35 10.02.2021
2705 Clear 15 1015 72 10000 1.54 120 13:55 10.02.2021
2706 Clear 15 1015 72 10000 1.54 120 13:30 10.02.2021
2707 Clear 13 1015 76 10000 1.23 60 12:55 10.02.2021
2708 Clear 13 1015 76 10000 1.18 59 12:31 10.02.2021
2709 Clear 12 1015 94 10000 1.54 130 11:59 10.02.2021
2710 Clear 12 1015 94 10000 1.54 130 11:39 10.02.2021
2711 Clear 12 1015 94 10000 1.54 130 11:21 10.02.2021
2712 Clear 13 1014 94 10000 0.87 13 10:25 10.02.2021
2713 Clear 13 1014 88 10000 1.03 0 09:57 10.02.2021
2714 Clear 13 1014 88 10000 1.03 0 09:33 10.02.2021
2715 Clear 15 1014 82 10000 1.03 270 08:56 10.02.2021
2716 Clear 15 1014 82 10000 1.03 270 08:35 10.02.2021
2717 Clear 17 1014 72 10000 2.06 300 07:39 10.02.2021
2718 Clear 17 1015 72 10000 0.44 36 06:22 10.02.2021
2719 Clear 27 1013 32 10000 2.57 150 01:37 10.02.2021
2720 Clear 31 1012 23 10000 2.57 110 00:22 10.02.2021
2721 Clear 32 1012 22 10000 4.12 120 23:33 09.02.2021
2722 Clear 32 1013 22 10000 4.63 110 22:49 09.02.2021
2723 Clear 32 1013 22 10000 4.63 110 22:24 09.02.2021
2724 Clear 32 1013 22 10000 4.12 110 21:52 09.02.2021
2725 Clear 32 1013 22 10000 4.12 110 21:24 09.02.2021
2726 Clear 32 1014 20 10000 5.14 80 20:44 09.02.2021
2727 Clear 32 1014 20 10000 5.14 80 20:25 09.02.2021
2728 Clear 31 1015 23 10000 5.14 110 19:52 09.02.2021
2729 Clear 31 1015 23 10000 5.14 110 19:29 09.02.2021
2730 Clear 30 1016 28 10000 5.14 110 18:49 09.02.2021
2731 Clear 30 1016 28 10000 5.14 110 18:31 09.02.2021
2732 Clear 28 1016 34 10000 4.63 110 17:50 09.02.2021
2733 Clear 28 1016 34 10000 4.63 110 17:28 09.02.2021
2734 Clear 25 1017 41 10000 4.12 110 16:54 09.02.2021
2735 Clear 25 1017 41 10000 4.12 110 16:20 09.02.2021
2736 Clear 23 1018 49 10000 2.57 0 15:58 09.02.2021
2737 Clear 23 1018 49 10000 2.57 0 15:40 09.02.2021
2738 Clear 23 1018 49 10000 2.57 0 15:40 09.02.2021
2739 Clear 23 1018 49 10000 2.57 0 15:21 09.02.2021
2740 Clear 20 1019 64 10000 2.06 100 14:43 09.02.2021
2741 Clear 20 1019 64 10000 2.06 100 14:23 09.02.2021
2742 Clouds 16 1019 88 10000 1.03 0 13:43 09.02.2021
2743 Clouds 16 1019 88 10000 1.03 0 13:20 09.02.2021
2744 Clouds 19 1018 47 10000 0.82 103 12:47 09.02.2021
2745 Clouds 17 1018 58 10000 0.32 110 12:27 09.02.2021
2746 Clouds 17 1018 58 10000 0.32 110 11:44 09.02.2021
2747 Clouds 14 1018 66 10000 0.17 86 11:21 09.02.2021
2748 Clouds 14 1018 66 10000 0.17 86 10:57 09.02.2021
2749 Clouds 14 1018 66 10000 0.24 57 10:21 09.02.2021
2750 Clouds 14 1018 66 10000 0.24 57 09:54 09.02.2021
2751 Clouds 15 1018 65 10000 0.08 286 09:26 09.02.2021
2752 Clouds 15 1018 65 10000 0.08 286 08:56 09.02.2021
2753 Clouds 15 1018 64 10000 0.29 254 08:29 09.02.2021
2754 Clouds 15 1018 64 10000 0.29 254 07:41 09.02.2021
2755 Clouds 16 1017 60 10000 0.65 244 05:34 09.02.2021
2756 Clouds 17 1017 51 10000 0.49 296 03:48 09.02.2021
2757 Clouds 19 1016 44 10000 0.61 194 01:51 09.02.2021
2758 Clouds 26 1014 32 10000 1.39 206 00:21 09.02.2021
2759 Clouds 27 1014 25 10000 2.2 208 23:23 08.02.2021
2760 Clouds 27 1014 25 10000 2.2 208 22:59 08.02.2021
2761 Clear 30 1014 28 10000 2.06 280 22:39 08.02.2021
2762 Clear 30 1014 28 10000 2.06 280 22:21 08.02.2021
2763 Clear 30 1014 28 10000 2.06 280 21:39 08.02.2021
2764 Clear 30 1014 28 10000 2.06 280 21:20 08.02.2021
2765 Clear 29 1015 30 10000 3.6 320 20:44 08.02.2021
2766 Clear 29 1015 30 10000 3.6 320 20:23 08.02.2021
2767 Clear 28 1016 30 10000 1.54 0 19:49 08.02.2021
2768 Clear 28 1016 30 10000 1.54 0 19:27 08.02.2021
2769 Clear 27 1016 34 10000 2.06 90 18:50 08.02.2021
2770 Clear 27 1016 34 10000 2.06 90 18:50 08.02.2021
2771 Clear 27 1016 34 10000 2.06 90 18:25 08.02.2021
2772 Clear 25 1017 41 10000 3.6 100 17:47 08.02.2021
2773 Clear 25 1017 41 10000 3.6 100 17:27 08.02.2021
2774 Clear 23 1018 43 10000 4.12 120 16:57 08.02.2021
2775 Clear 23 1018 43 10000 4.12 120 16:39 08.02.2021
2776 Clear 23 1018 43 10000 4.12 120 16:18 08.02.2021
2777 Clear 19 1018 55 10000 5.14 120 15:37 08.02.2021
2778 Clear 19 1018 55 10000 5.14 120 15:18 08.02.2021
2779 Clear 19 1018 55 10000 5.14 120 14:48 08.02.2021
2780 Clear 19 1018 55 10000 5.14 120 14:28 08.02.2021
2781 Clear 17 1019 63 10000 3.6 120 13:46 08.02.2021
2782 Clear 17 1019 63 10000 3.6 120 13:27 08.02.2021
2783 Clear 15 1018 59 10000 1.53 75 12:39 08.02.2021
2784 Clear 13 1018 67 10000 1.59 72 11:59 08.02.2021
2785 Clear 13 1018 67 10000 1.59 72 11:35 08.02.2021
2786 Clear 10 1018 77 10000 1.51 70 10:46 08.02.2021
2787 Clear 11 1018 76 10000 1.74 69 10:26 08.02.2021
2788 Clear 11 1018 76 10000 1.74 69 10:26 08.02.2021
2789 Clear 11 1018 76 10000 1.74 69 09:55 08.02.2021
2790 Clear 11 1018 76 10000 1.74 69 09:36 08.02.2021
2791 Clear 11 1018 74 10000 1.85 71 08:54 08.02.2021
2792 Clear 12 1018 72 10000 1.98 72 08:24 08.02.2021
2793 Clear 12 1018 72 10000 1.98 72 07:38 08.02.2021
2794 Clear 13 1017 71 10000 1.94 73 06:33 08.02.2021
2795 Clear 16 1017 67 10000 2.21 60 04:54 08.02.2021
2796 Clear 20 1016 49 10000 2.57 140 02:26 08.02.2021
2797 Clear 25 1015 33 10000 5.14 110 00:24 08.02.2021
2798 Clear 26 1015 31 10000 6.17 110 23:53 07.02.2021
2799 Clear 26 1015 31 10000 6.17 110 23:28 07.02.2021
2800 Clear 26 1016 31 10000 6.17 110 22:56 07.02.2021
2801 Clear 26 1016 31 10000 6.17 110 22:37 07.02.2021
2802 Clear 26 1016 31 10000 6.17 110 22:19 07.02.2021
2803 Clear 26 1016 34 10000 6.17 110 21:49 07.02.2021
2804 Clear 26 1016 34 10000 6.17 110 21:22 07.02.2021
2805 Clear 25 1017 36 10000 7.2 100 20:49 07.02.2021
2806 Clouds 25 1017 36 10000 7.2 100 20:27 07.02.2021
2807 Clouds 24 1018 38 10000 5.66 100 19:47 07.02.2021
2808 Clouds 24 1018 38 10000 5.66 100 19:27 07.02.2021
2809 Clouds 23 1019 40 10000 6.69 110 18:44 07.02.2021
2810 Clouds 23 1019 40 10000 6.69 110 18:26 07.02.2021
2811 Clouds 22 1020 40 10000 8.23 110 17:45 07.02.2021
2812 Clouds 22 1020 40 10000 8.23 110 17:23 07.02.2021
2813 Clouds 21 1020 43 10000 6.69 80 16:59 07.02.2021
2814 Clouds 21 1020 43 10000 6.69 80 16:41 07.02.2021
2815 Clouds 21 1020 43 10000 6.69 80 16:20 07.02.2021
2816 Clouds 20 1020 45 10000 6.69 60 15:44 07.02.2021
2817 Clouds 20 1020 45 10000 6.69 60 15:21 07.02.2021
2818 Clouds 19 1020 48 10000 7.72 120 14:44 07.02.2021
2819 Clouds 19 1020 48 10000 7.72 120 14:26 07.02.2021
2820 Clouds 18 1020 52 10000 4.12 110 13:44 07.02.2021
2821 Clear 18 1020 52 10000 4.12 110 13:26 07.02.2021
2822 Clear 16 1020 55 10000 5.66 130 12:40 07.02.2021
2823 Clear 16 1020 55 10000 5.66 130 12:21 07.02.2021
2824 Clear 16 1020 55 10000 5.14 120 11:42 07.02.2021
2825 Clear 16 1020 55 10000 5.14 120 11:24 07.02.2021
2826 Clear 17 1020 51 10000 5.14 120 10:30 07.02.2021
2827 Clear 17 1019 51 10000 4.63 110 09:57 07.02.2021
2828 Clear 17 1019 51 10000 4.63 110 09:38 07.02.2021
2829 Clear 17 1019 51 10000 4.63 110 09:38 07.02.2021
2830 Clear 17 1019 51 10000 4.63 110 09:18 07.02.2021
2831 Clear 17 1019 51 10000 4.63 110 09:18 07.02.2021
2832 Clear 20 1017 42 10000 6.69 120 07:57 07.02.2021
2833 Clear 21 1017 40 10000 6.69 100 06:32 07.02.2021
2834 Clear 23 1015 31 10000 3.6 50 04:45 07.02.2021
2835 Clear 23 1012 40 10000 1.03 0 02:52 07.02.2021
2836 Clear 29 1011 28 10000 4.12 290 00:39 07.02.2021
2837 Clear 31 1010 23 10000 1.03 0 23:53 06.02.2021
2838 Clear 32 1010 19 10000 5.66 300 22:59 06.02.2021
2839 Clear 32 1010 19 10000 5.66 300 22:21 06.02.2021
2840 Clear 32 1009 22 10000 6.17 290 21:37 06.02.2021
2841 Clear 32 1009 22 10000 6.17 290 21:19 06.02.2021
2842 Clear 33 1009 18 10000 3.09 0 20:44 06.02.2021
2843 Clear 33 1009 18 10000 3.09 0 20:22 06.02.2021
2844 Clear 32 1010 20 10000 3.6 0 19:46 06.02.2021
2845 Clear 32 1010 20 10000 3.6 0 19:25 06.02.2021
2846 Clear 30 1010 30 10000 3.6 320 18:45 06.02.2021
2847 Clear 30 1010 30 10000 3.6 320 18:26 06.02.2021
2848 Clear 28 1011 36 10000 3.6 320 17:41 06.02.2021
2849 Clear 28 1011 36 10000 3.6 320 17:21 06.02.2021
2850 Clear 25 1012 44 10000 1.54 0 16:55 06.02.2021
2851 Clear 25 1012 44 10000 1.54 0 16:30 06.02.2021
2852 Clear 22 1013 56 10000 1.54 0 15:53 06.02.2021
2853 Clear 22 1013 56 10000 1.54 0 15:34 06.02.2021
2854 Clear 19 1014 63 10000 2.06 290 14:59 06.02.2021
2855 Clear 19 1014 63 10000 2.06 290 14:39 06.02.2021
2856 Clear 19 1014 63 10000 2.06 290 14:21 06.02.2021
2857 Clear 17 1014 72 10000 1.54 100 13:45 06.02.2021
2858 Clear 13 1014 88 10000 1.03 0 12:47 06.02.2021
2859 Clear 13 1014 88 10000 1.03 0 12:20 06.02.2021
2860 Clear 13 1013 88 10000 2.57 290 11:40 06.02.2021
2861 Clear 13 1013 88 10000 2.57 290 11:20 06.02.2021
2862 Clear 14 1013 82 10000 0.37 118 10:52 06.02.2021
2863 Clear 14 1013 82 10000 0.49 109 10:26 06.02.2021
2864 Clear 14 1013 82 10000 2.57 290 09:38 06.02.2021
2865 Clear 14 1013 82 10000 2.57 290 09:19 06.02.2021
2866 Clear 15 1013 77 10000 2.06 300 08:59 06.02.2021
2867 Clear 15 1013 77 10000 2.06 300 08:29 06.02.2021
2868 Clear 17 1012 63 10000 2.06 280 06:58 06.02.2021
2869 Clear 18 1012 59 10000 2.06 310 05:41 06.02.2021
2870 Clear 24 1011 38 10000 3.09 290 02:50 06.02.2021
2871 Clear 33 1010 16 10000 3.6 300 00:58 06.02.2021
2872 Clear 33 1010 16 10000 3.6 300 00:40 06.02.2021
2873 Clear 33 1010 16 10000 3.6 300 00:18 06.02.2021
2874 Clear 35 1009 12 10000 4.12 310 23:34 05.02.2021
2875 Clear 35 1009 12 10000 2.06 0 22:51 05.02.2021
2876 Clear 35 1009 12 10000 2.06 0 22:25 05.02.2021
2877 Clear 35 1009 14 10000 3.6 130 21:57 05.02.2021
2878 Clear 35 1009 14 10000 3.6 130 21:37 05.02.2021
2879 Clear 35 1010 14 10000 3.09 0 20:56 05.02.2021
2880 Clear 35 1010 14 10000 3.09 0 20:20 05.02.2021
2881 Clear 34 1011 20 10000 4.12 320 19:45 05.02.2021
2882 Clear 34 1011 20 10000 4.12 320 19:18 05.02.2021
2883 Clear 32 1012 29 10000 3.6 300 18:40 05.02.2021
2884 Clear 32 1012 29 10000 3.6 300 18:19 05.02.2021
2885 Clear 29 1013 32 10000 2.57 290 17:36 05.02.2021
2886 Clear 26 1014 41 10000 2.06 0 16:58 05.02.2021
2887 Clear 26 1014 41 10000 2.06 0 16:39 05.02.2021
2888 Clear 26 1014 41 10000 2.06 0 16:20 05.02.2021
2889 Clear 23 1014 49 10000 2.57 280 15:45 05.02.2021
2890 Clear 23 1014 49 10000 2.57 280 15:22 05.02.2021
2891 Clear 20 1015 56 10000 1.03 0 14:38 05.02.2021
2892 Clear 20 1015 56 10000 1.03 0 14:19 05.02.2021
2893 Clear 17 1015 77 10000 0.51 0 13:43 05.02.2021
2894 Clear 17 1015 77 10000 0.51 0 13:24 05.02.2021
2895 Clear 22 1014 36 10000 0.95 265 12:42 05.02.2021
2896 Clear 19 1014 48 10000 1 267 12:20 05.02.2021
2897 Clear 19 1014 48 10000 1 267 11:39 05.02.2021
2898 Clear 16 1014 53 10000 0.96 271 11:20 05.02.2021
2899 Clear 16 1014 53 10000 0.96 271 10:48 05.02.2021
2900 Clear 16 1014 51 10000 1.1 279 10:25 05.02.2021
2901 Clear 16 1014 51 10000 1.1 279 09:43 05.02.2021
2902 Clear 17 1014 52 10000 1.1 282 09:24 05.02.2021
2903 Clear 17 1014 52 10000 1.1 282 08:41 05.02.2021
2904 Clear 17 1014 51 10000 1.08 275 07:42 05.02.2021
2905 Clear 18 1014 50 10000 1.02 270 07:22 05.02.2021
2906 Clear 18 1014 50 10000 1.02 270 06:33 05.02.2021
2907 Clear 19 1014 48 10000 1.22 265 05:33 05.02.2021
2908 Clear 23 1015 35 10000 1.79 250 02:26 05.02.2021
2909 Clear 25 1014 31 10000 1.93 234 01:28 05.02.2021
2910 Clear 25 1014 31 10000 1.93 234 00:36 05.02.2021
2911 Clear 31 1013 22 10000 3.37 229 00:18 05.02.2021
2912 Clear 31 1013 22 10000 3.37 229 23:41 04.02.2021
2913 Clear 33 1013 18 10000 3.2 248 23:22 04.02.2021
2914 Clear 33 1013 18 10000 3.2 248 22:54 04.02.2021
2915 Clear 36 1014 16 10000 3.6 300 22:30 04.02.2021
2916 Clear 36 1014 16 10000 3.6 300 21:55 04.02.2021
2917 Clear 36 1014 16 10000 3.6 300 21:37 04.02.2021
2918 Clear 35 1014 17 10000 3.6 290 20:56 04.02.2021
2919 Clear 35 1014 17 10000 3.6 290 20:34 04.02.2021
2920 Clear 34 1015 22 10000 2.57 330 19:51 04.02.2021
2921 Clear 34 1015 22 10000 2.57 330 19:23 04.02.2021
2922 Clear 31 1016 22 10000 2.06 290 18:40 04.02.2021
2923 Clear 31 1016 22 10000 2.06 290 18:21 04.02.2021
2924 Clear 28 1017 36 10000 1.03 0 17:45 04.02.2021
2925 Clear 28 1017 36 10000 1.03 0 17:21 04.02.2021
2926 Clear 25 1018 44 10000 1.54 0 16:49 04.02.2021
2927 Clear 25 1018 44 10000 1.54 0 16:20 04.02.2021
2928 Clear 22 1019 49 10000 1.03 0 15:41 04.02.2021
2929 Clear 22 1019 49 10000 1.03 0 15:21 04.02.2021
2930 Clear 18 1020 59 10000 1.03 0 14:56 04.02.2021
2931 Clear 18 1020 59 10000 1.03 0 14:37 04.02.2021
2932 Clear 18 1020 59 10000 1.03 0 14:19 04.02.2021
2933 Clear 16 1020 72 10000 0.51 0 13:41 04.02.2021
2934 Clear 11 1020 93 10000 0.61 294 12:57 04.02.2021
2935 Clear 11 1020 93 10000 0.79 290 12:21 04.02.2021
2936 Clear 19 1019 48 10000 0.79 290 11:50 04.02.2021
2937 Clear 12 1019 87 10000 1.54 290 11:32 04.02.2021
2938 Clear 12 1019 87 10000 1.54 290 10:44 04.02.2021
2939 Clear 12 1019 87 10000 1.54 290 10:18 04.02.2021
2940 Clear 13 1019 88 10000 1.54 290 09:43 04.02.2021
2941 Clear 13 1019 88 10000 1.54 290 09:18 04.02.2021
2942 Clear 14 1019 82 10000 2.06 290 08:41 04.02.2021
2943 Clear 14 1019 82 10000 2.06 290 08:20 04.02.2021
2944 Clear 16 1018 54 10000 0.88 231 07:41 04.02.2021
2945 Clear 17 1019 63 10000 3.09 310 06:55 04.02.2021
2946 Clear 17 1019 63 10000 3.09 310 06:35 04.02.2021
2947 Clear 20 1018 52 10000 3.09 290 03:53 04.02.2021
2948 Clear 23 1018 40 10000 3.09 280 02:25 04.02.2021
2949 Clear 31 1016 22 10000 3.09 320 00:35 04.02.2021
2950 Clear 32 1016 18 10000 4.12 300 23:39 03.02.2021
2951 Clear 33 1016 17 10000 2.06 0 22:43 03.02.2021
2952 Clear 33 1016 17 10000 2.06 0 22:22 03.02.2021
2953 Clear 33 1016 17 10000 3.09 0 21:56 03.02.2021
2954 Clear 33 1016 17 10000 3.09 0 21:25 03.02.2021
2955 Clear 32 1016 19 10000 3.09 330 20:58 03.02.2021
2956 Clear 32 1016 19 10000 3.09 330 20:38 03.02.2021
2957 Clear 32 1016 19 10000 3.09 330 20:19 03.02.2021
2958 Clear 30 1017 25 10000 3.6 320 19:42 03.02.2021
2959 Clear 30 1017 25 10000 3.6 320 19:18 03.02.2021
2960 Clear 28 1018 26 10000 2.57 320 18:41 03.02.2021
2961 Clear 28 1018 26 10000 2.57 320 18:19 03.02.2021
2962 Clear 25 1018 27 10000 2.06 310 17:48 03.02.2021
2963 Clear 25 1018 27 10000 2.06 310 17:29 03.02.2021
2964 Clear 21 1019 46 10000 1.54 0 16:51 03.02.2021
2965 Clear 21 1019 46 10000 1.54 0 16:26 03.02.2021
2966 Clear 19 1020 52 10000 1.54 290 15:41 03.02.2021
2967 Clear 19 1020 52 10000 1.54 290 15:23 03.02.2021
2968 Clear 16 1020 59 10000 1.03 0 14:53 03.02.2021
2969 Clear 16 1020 59 10000 1.03 0 14:25 03.02.2021
2970 Clear 13 1020 76 10000 2.06 290 13:50 03.02.2021
2971 Clear 13 1020 76 10000 2.06 290 13:21 03.02.2021
2972 Clear 9 1020 93 10000 1.54 270 12:46 03.02.2021
2973 Clear 9 1020 93 10000 1.54 270 12:22 03.02.2021
2974 Clear 9 1019 93 10000 2.06 290 11:43 03.02.2021
2975 Clear 9 1019 93 10000 2.06 290 11:24 03.02.2021
2976 Clear 10 1019 93 10000 2.06 300 10:45 03.02.2021
2977 Clear 10 1019 93 10000 2.06 300 10:20 03.02.2021
2978 Clear 12 1018 82 10000 2.57 300 09:45 03.02.2021
2979 Clear 12 1018 82 10000 2.57 300 09:27 03.02.2021
2980 Clear 12 1018 82 10000 3.09 300 08:48 03.02.2021
2981 Clear 13 1018 59 10000 1.49 261 07:59 03.02.2021
2982 Clear 14 1018 72 10000 2.57 300 07:19 03.02.2021
2983 Clear 14 1018 72 10000 2.57 300 06:38 03.02.2021
2984 Clear 16 1018 63 10000 2.06 310 04:49 03.02.2021
2985 Clear 18 1018 59 10000 3.6 290 03:53 03.02.2021
2986 Clear 19 1017 55 10000 2.57 290 02:42 03.02.2021
2987 Clear 24 1016 33 10000 2.57 300 01:48 03.02.2021
2988 Clear 27 1015 28 10000 4.12 300 00:24 03.02.2021
2989 Clear 28 1014 26 10000 4.12 310 23:44 02.02.2021
2990 Clear 28 1014 26 10000 4.12 310 23:26 02.02.2021
2991 Clear 29 1014 26 10000 2.57 0 22:47 02.02.2021
2992 Clear 29 1014 26 10000 2.57 0 22:21 02.02.2021
2993 Clear 29 1014 26 10000 2.57 0 21:46 02.02.2021
2994 Clear 29 1014 26 10000 2.57 0 21:24 02.02.2021
2995 Clear 29 1014 26 10000 2.57 0 21:24 02.02.2021
2996 Clear 29 1014 21 10000 3.09 0 20:49 02.02.2021
2997 Clear 29 1014 21 10000 3.09 0 20:21 02.02.2021
2998 Clear 28 1015 28 10000 4.12 0 19:52 02.02.2021
2999 Clear 28 1015 28 10000 4.12 0 19:34 02.02.2021
3000 Clear 26 1016 34 10000 3.09 320 18:57 02.02.2021
3001 Clear 26 1016 34 10000 3.09 320 18:38 02.02.2021
3002 Clear 26 1016 34 10000 3.09 320 18:20 02.02.2021
3003 Clear 23 1016 46 10000 2.57 310 17:38 02.02.2021
3004 Clear 23 1016 46 10000 2.57 310 17:19 02.02.2021
3005 Clear 20 1017 52 10000 2.57 330 16:44 02.02.2021
3006 Clear 20 1017 52 10000 2.57 330 16:25 02.02.2021
3007 Clear 18 1018 63 10000 2.06 300 15:54 02.02.2021
3008 Clear 18 1018 63 10000 2.06 300 15:29 02.02.2021
3009 Clear 15 1018 77 10000 2.57 290 14:52 02.02.2021
3010 Clear 15 1018 77 10000 2.57 290 14:33 02.02.2021
3011 Clear 18 1017 39 10000 0.74 257 13:56 02.02.2021
3012 Clear 11 1019 93 10000 1.54 310 13:38 02.02.2021
3013 Clear 11 1019 93 10000 1.54 310 13:19 02.02.2021
3014 Clear 11 1019 93 10000 1.54 310 12:42 02.02.2021
3015 Clear 10 1018 93 10000 2.06 300 11:46 02.02.2021
3016 Clear 10 1018 93 10000 2.06 300 11:25 02.02.2021
3017 Clear 11 1018 87 10000 2.57 300 10:56 02.02.2021
3018 Clear 11 1018 87 10000 2.57 300 10:31 02.02.2021
3019 Clouds 11 1017 87 10000 1.27 268 09:48 02.02.2021
3020 Clouds 11 1017 87 10000 1.44 258 09:26 02.02.2021
3021 Clouds 11 1017 87 10000 1.44 258 09:26 02.02.2021
3022 Clear 13 1017 82 10000 2.06 290 08:59 02.02.2021
3023 Clear 13 1017 82 10000 2.06 290 08:32 02.02.2021
3024 Clouds 14 1017 77 10000 2.57 300 07:37 02.02.2021
3025 Clear 14 1017 77 10000 1.54 310 06:43 02.02.2021
3026 Clear 15 1017 67 10000 3.09 290 05:53 02.02.2021
3027 Clear 16 1016 63 10000 3.09 300 04:57 02.02.2021
3028 Clear 17 1016 59 10000 2.06 290 02:44 02.02.2021
3029 Clear 17 1016 59 10000 2.06 290 02:23 02.02.2021
3030 Clear 25 1014 29 10000 3.6 310 00:35 02.02.2021
3031 Clear 26 1013 25 10000 5.14 310 23:30 01.02.2021
3032 Clear 27 1013 24 10000 2.06 0 22:51 01.02.2021
3033 Clear 27 1013 24 10000 2.06 0 22:32 01.02.2021
3034 Clear 27 1013 21 10000 2.57 0 21:53 01.02.2021
3035 Clear 27 1013 21 10000 2.57 0 21:34 01.02.2021
3036 Clear 26 1013 25 10000 5.66 140 20:56 01.02.2021
3037 Clear 26 1013 25 10000 5.66 140 20:36 01.02.2021
3038 Clear 26 1013 25 10000 5.66 140 20:18 01.02.2021
3039 Clear 27 1014 24 10000 2.06 0 19:38 01.02.2021
3040 Clear 27 1014 24 10000 2.06 0 19:18 01.02.2021
3041 Clear 25 1014 33 10000 3.6 310 18:46 01.02.2021
3042 Clear 25 1014 33 10000 3.6 310 18:26 01.02.2021
3043 Clear 22 1015 37 10000 2.57 340 17:47 01.02.2021
3044 Clear 22 1015 37 10000 2.57 340 17:23 01.02.2021
3045 Clear 20 1016 49 10000 1.54 0 16:46 01.02.2021
3046 Clear 20 1016 49 10000 1.54 0 16:28 01.02.2021
3047 Clear 18 1017 59 10000 1.54 310 15:42 01.02.2021
3048 Clear 18 1017 59 10000 1.54 310 15:19 01.02.2021
3049 Clear 15 1017 72 10000 1.03 0 14:51 01.02.2021
3050 Clear 15 1017 72 10000 1.03 0 14:24 01.02.2021
3051 Clear 16 1016 53 10000 1.22 251 13:46 01.02.2021
3052 Clear 14 1017 60 10000 1.31 251 13:26 01.02.2021
3053 Clear 14 1017 60 10000 1.31 251 12:45 01.02.2021
3054 Clear 12 1017 68 10000 1.44 275 12:25 01.02.2021
3055 Clear 12 1017 68 10000 1.44 275 12:25 01.02.2021
3056 Clear 12 1017 68 10000 1.44 275 12:25 01.02.2021
3057 Clear 12 1017 68 10000 1.44 275 11:43 01.02.2021
3058 Clear 9 1016 78 10000 1.28 280 11:21 01.02.2021
3059 Clear 9 1016 78 10000 1.28 280 10:50 01.02.2021
3060 Clear 10 1016 78 10000 1.34 281 10:22 01.02.2021
3061 Clear 10 1016 78 10000 1.34 281 09:53 01.02.2021
3062 Clear 10 1016 78 10000 1.34 281 09:35 01.02.2021
3063 Clear 10 1016 78 10000 1.26 293 08:56 01.02.2021
3064 Clear 10 1016 78 10000 1.33 291 08:26 01.02.2021
3065 Clouds 11 1016 74 10000 1.5 285 06:59 01.02.2021
3066 Clouds 12 1017 70 10000 1.5 296 04:33 01.02.2021
3067 Clouds 13 1016 70 10000 0.94 342 02:39 01.02.2021
3068 Rain 16 1014 64 10000 2.77 259 23:57 31.01.2021
3069 Rain 19 1013 49 10000 4.16 300 22:56 31.01.2021
3070 Rain 19 1013 49 10000 4.16 300 22:37 31.01.2021
3071 Rain 19 1013 49 10000 4.16 300 22:37 31.01.2021
3072 Rain 22 1013 35 10000 3.86 10 22:18 31.01.2021
3073 Rain 22 1013 35 10000 3.86 10 21:42 31.01.2021
3074 Rain 23 1013 31 10000 4.47 15 21:19 31.01.2021
3075 Rain 23 1013 31 10000 4.47 15 20:42 31.01.2021
3076 Clouds 23 1013 30 10000 3.9 24 20:20 31.01.2021
3077 Clouds 23 1013 30 10000 3.9 24 19:38 31.01.2021
3078 Clear 24 1014 25 10000 1.01 266 19:19 31.01.2021
3079 Clear 24 1014 25 10000 1.01 266 18:44 31.01.2021
3080 Clear 24 1014 26 10000 0.53 296 18:24 31.01.2021
3081 Clear 24 1014 26 10000 0.53 296 17:50 31.01.2021
3082 Clear 23 1015 30 10000 0.29 40 17:24 31.01.2021
3083 Clear 23 1015 30 10000 0.29 40 16:59 31.01.2021
3084 Clear 23 1015 30 10000 0.29 40 16:39 31.01.2021
3085 Clear 21 1015 35 10000 0.46 85 16:19 31.01.2021
3086 Clear 21 1015 35 10000 0.46 85 15:48 31.01.2021
3087 Clear 19 1016 40 10000 0.86 84 15:18 31.01.2021
3088 Clear 17 1016 47 10000 0.23 125 14:28 31.01.2021
3089 Clear 17 1016 47 10000 0.23 125 13:59 31.01.2021
3090 Clear 17 1016 47 10000 0.23 125 13:38 31.01.2021
3091 Clear 15 1017 56 10000 0.16 250 12:57 31.01.2021
3092 Clear 15 1017 56 10000 0.16 250 12:38 31.01.2021
3093 Clear 13 1017 64 10000 0.43 287 12:20 31.01.2021
3094 Clear 13 1017 64 10000 0.43 287 11:38 31.01.2021
3095 Clear 9 1017 77 10000 0.66 282 11:19 31.01.2021
3096 Clear 9 1017 77 10000 0.66 282 10:44 31.01.2021
3097 Clear 9 1016 76 10000 0.92 281 10:25 31.01.2021
3098 Clear 9 1016 76 10000 0.92 281 09:34 31.01.2021
3099 Clear 10 1016 75 10000 1.02 265 08:34 31.01.2021
3100 Clear 10 1016 75 10000 1.02 265 08:34 31.01.2021
3101 Clouds 11 1016 73 10000 1.17 254 07:50 31.01.2021
3102 Clouds 13 1016 65 10000 1.36 256 06:25 31.01.2021
3103 Clear 15 1014 47 10000 2.18 229 01:55 31.01.2021
3104 Clear 22 1012 27 10000 3.19 223 00:28 31.01.2021
3105 Clear 22 1012 27 10000 3.19 223 23:42 30.01.2021
3106 Clear 23 1012 24 10000 3.22 223 23:20 30.01.2021
3107 Clear 23 1012 24 10000 3.22 223 22:37 30.01.2021
3108 Clear 23 1012 23 10000 2.96 219 21:43 30.01.2021
3109 Clear 23 1012 23 10000 2.5 214 21:23 30.01.2021
3110 Clear 23 1012 23 10000 2.5 214 20:54 30.01.2021
3111 Clear 23 1012 23 10000 2.5 214 20:34 30.01.2021
3112 Clear 23 1012 23 10000 1.97 208 19:58 30.01.2021
3113 Clear 23 1012 23 10000 1.97 208 19:39 30.01.2021
3114 Clear 22 1013 24 10000 1.61 205 19:19 30.01.2021
3115 Clear 22 1013 24 10000 1.61 205 18:40 30.01.2021
3116 Clear 22 1013 24 10000 1.61 205 18:40 30.01.2021
3117 Clear 21 1014 27 10000 1.24 194 18:19 30.01.2021
3118 Clear 21 1014 27 10000 1.24 194 17:37 30.01.2021
3119 Clear 19 1014 32 10000 1.18 185 17:18 30.01.2021
3120 Clear 19 1014 32 10000 1.18 185 16:37 30.01.2021
3121 Clouds 17 1014 38 10000 0.81 163 16:19 30.01.2021
3122 Clouds 17 1014 38 10000 0.81 163 15:44 30.01.2021
3123 Clouds 15 1015 45 10000 0.73 147 15:22 30.01.2021
3124 Clouds 15 1015 45 10000 0.73 147 14:52 30.01.2021
3125 Clouds 13 1015 52 10000 0.5 156 14:24 30.01.2021
3126 Clouds 13 1015 52 10000 0.5 156 13:42 30.01.2021
3127 Clouds 11 1015 58 10000 0.47 226 13:20 30.01.2021
3128 Clouds 11 1016 57 10000 0.6 241 12:42 30.01.2021
3129 Clear 9 1015 63 10000 0.98 270 12:21 30.01.2021
3130 Clear 9 1015 63 10000 0.98 270 11:40 30.01.2021
3131 Clear 6 1015 75 10000 1.09 257 10:54 30.01.2021
3132 Clear 6 1014 77 10000 1.19 250 09:54 30.01.2021
3133 Clear 6 1014 77 10000 1.19 250 09:31 30.01.2021
3134 Clear 6 1013 78 10000 1.13 249 08:56 30.01.2021
3135 Clear 6 1013 78 10000 1.13 249 08:56 30.01.2021
3136 Clear 6 1013 78 10000 1.13 249 08:36 30.01.2021
3137 Clear 8 1012 75 10000 1.39 267 07:23 30.01.2021
3138 Clear 8 1012 73 10000 1.5 267 06:19 30.01.2021
3139 Clear 10 1011 68 10000 2.08 255 03:35 30.01.2021
3140 Clear 13 1009 57 10000 2.56 251 02:26 30.01.2021
3141 Clear 13 1009 57 10000 2.56 251 01:35 30.01.2021
3142 Clear 15 1008 46 10000 3.02 254 00:47 30.01.2021
3143 Clear 19 1007 34 10000 3.81 255 00:21 30.01.2021
3144 Clear 19 1007 34 10000 3.81 255 23:49 29.01.2021
3145 Clear 20 1006 29 10000 4.4 255 23:24 29.01.2021
3146 Clear 20 1006 29 10000 4.4 255 22:45 29.01.2021
3147 Clear 21 1006 26 10000 4.8 247 22:20 29.01.2021
3148 Clear 21 1006 32 10000 4.12 0 21:37 29.01.2021
3149 Clear 21 1006 32 10000 4.12 0 21:19 29.01.2021
3150 Clear 21 1006 32 10000 4.12 0 20:41 29.01.2021
3151 Clear 21 1006 32 10000 4.12 0 20:21 29.01.2021
3152 Clear 21 1006 35 10000 2.57 0 19:38 29.01.2021
3153 Clear 21 1006 35 10000 2.57 0 19:19 29.01.2021
3154 Clear 21 1006 35 10000 2.57 0 19:19 29.01.2021
3155 Clear 20 1006 40 10000 3.6 0 18:42 29.01.2021
3156 Clear 18 1007 42 10000 2.06 0 17:45 29.01.2021
3157 Clear 18 1007 42 10000 2.06 0 17:22 29.01.2021
3158 Clear 16 1007 48 10000 3.6 320 16:47 29.01.2021
3159 Clear 16 1007 48 10000 3.6 320 16:24 29.01.2021
3160 Clear 14 1007 54 10000 4.12 300 15:51 29.01.2021
3161 Clear 14 1007 54 10000 4.12 300 15:31 29.01.2021
3162 Clear 12 1008 71 10000 3.6 270 14:48 29.01.2021
3163 Clear 12 1008 71 10000 3.6 270 14:18 29.01.2021
3164 Clear 10 1008 76 10000 3.6 250 13:44 29.01.2021
3165 Clear 10 1008 76 10000 3.6 250 13:26 29.01.2021
3166 Clear 7 1008 93 10000 2.57 280 12:29 29.01.2021
3167 Clear 6 1008 93 10000 3.6 290 11:50 29.01.2021
3168 Clear 6 1008 93 10000 3.6 290 11:20 29.01.2021
3169 Clear 6 1007 93 10000 2.06 300 10:52 29.01.2021
3170 Clear 6 1007 93 10000 2.06 300 10:33 29.01.2021
3171 Clear 7 1007 87 10000 2.57 290 09:49 29.01.2021
3172 Clear 7 1007 87 10000 2.57 290 09:28 29.01.2021
3173 Clear 8 1007 81 10000 2.57 280 08:46 29.01.2021
3174 Clear 8 1007 81 10000 2.57 280 08:22 29.01.2021
3175 Clear 9 1007 76 10000 2.57 280 07:41 29.01.2021
3176 Clear 9 1007 76 10000 2.57 280 07:20 29.01.2021
3177 Clouds 9 1007 81 10000 1.54 300 05:23 29.01.2021
3178 Clouds 13 1007 58 10000 2.57 0 03:50 29.01.2021
3179 Clouds 15 1006 44 10000 7.2 280 00:44 29.01.2021
3180 Clouds 15 1006 44 10000 7.2 280 00:22 29.01.2021
3181 Clouds 17 1007 39 10000 7.2 280 23:44 28.01.2021
3182 Clouds 17 1007 39 10000 7.2 280 23:25 28.01.2021
3183 Clear 16 1007 41 10000 9.77 290 22:47 28.01.2021
3184 Clear 16 1007 41 10000 9.77 290 22:27 28.01.2021
3185 Clear 16 1007 41 10000 8.75 300 21:57 28.01.2021
3186 Clear 16 1007 41 10000 8.75 300 21:34 28.01.2021
3187 Clear 16 1008 44 10000 8.23 290 20:59 28.01.2021
3188 Clear 16 1008 44 10000 8.23 290 20:39 28.01.2021
3189 Clear 16 1008 44 10000 8.23 290 20:18 28.01.2021
3190 Clouds 16 1007 44 10000 9.26 300 19:41 28.01.2021
3191 Clouds 16 1007 44 10000 9.26 300 19:23 28.01.2021
3192 Clouds 16 1006 36 10000 4.57 269 18:43 28.01.2021
3193 Clouds 16 1008 44 10000 9.77 300 18:20 28.01.2021
3194 Clouds 16 1008 44 10000 9.77 300 17:46 28.01.2021
3195 Clouds 16 1008 44 10000 9.77 300 17:27 28.01.2021
3196 Clouds 15 1008 47 10000 9.77 290 16:45 28.01.2021
3197 Clouds 15 1008 47 10000 9.77 290 16:24 28.01.2021
3198 Clouds 14 1008 51 10000 10.29 290 15:44 28.01.2021
3199 Clouds 14 1008 51 10000 10.29 290 15:19 28.01.2021
3200 Clouds 14 1008 54 10000 7.72 280 14:42 28.01.2021
3201 Clouds 14 1008 54 10000 7.72 280 14:23 28.01.2021
3202 Clouds 13 1008 50 10000 6.69 270 13:48 28.01.2021
3203 Clear 11 1008 58 10000 7.2 280 12:59 28.01.2021
3204 Clear 11 1008 58 10000 7.2 280 12:40 28.01.2021
3205 Clear 11 1008 58 10000 7.2 280 12:21 28.01.2021
3206 Clouds 11 1009 62 10000 7.2 280 11:43 28.01.2021
3207 Clouds 11 1009 62 10000 7.2 280 11:20 28.01.2021
3208 Clouds 11 1009 62 10000 7.2 280 11:20 28.01.2021
3209 Clouds 12 1009 62 10000 7.2 280 10:54 28.01.2021
3210 Clouds 12 1009 62 10000 7.2 280 10:34 28.01.2021
3211 Clouds 11 1009 66 10000 3.6 290 09:59 28.01.2021
3212 Clouds 11 1009 66 10000 3.6 290 09:30 28.01.2021
3213 Clouds 12 1009 62 10000 6.17 290 08:57 28.01.2021
3214 Clouds 12 1009 62 10000 6.17 290 08:38 28.01.2021
3215 Rain 11 1010 71 10000 3.09 300 07:45 28.01.2021
3216 Clouds 12 1010 62 10000 3.6 270 06:50 28.01.2021
3217 Clouds 12 1010 62 10000 3.6 270 06:30 28.01.2021
3218 Rain 12 1011 71 10000 4.63 280 04:30 28.01.2021
3219 Clouds 12 1010 71 10000 6.17 270 01:39 28.01.2021
3220 Clouds 13 1010 67 10000 4.63 270 23:49 27.01.2021
3221 Clouds 13 1010 67 10000 4.63 270 23:24 27.01.2021
3222 Clouds 13 1009 67 10000 5.66 270 22:42 27.01.2021
3223 Clouds 13 1009 67 10000 5.66 270 22:22 27.01.2021
3224 Rain 15 1009 58 10000 6.69 270 21:43 27.01.2021
3225 Rain 15 1009 58 10000 6.69 270 21:24 27.01.2021
3226 Rain 14 1009 72 10000 6.69 290 20:52 27.01.2021
3227 Rain 14 1009 72 10000 6.69 290 20:27 27.01.2021
3228 Rain 13 1009 82 9000 5.14 280 19:50 27.01.2021
3229 Rain 13 1009 82 9000 5.14 280 19:23 27.01.2021
3230 Rain 11 1010 82 9000 2.06 290 18:46 27.01.2021
3231 Rain 11 1010 82 9000 2.06 290 18:26 27.01.2021
3232 Rain 11 1010 87 4000 1.54 0 17:56 27.01.2021
3233 Rain 11 1010 87 4000 1.54 0 17:38 27.01.2021
3234 Rain 11 1010 87 4000 2.06 280 16:58 27.01.2021
3235 Rain 11 1010 87 4000 2.06 280 16:39 27.01.2021
3236 Rain 11 1010 87 4000 2.06 280 16:21 27.01.2021
3237 Rain 11 1010 87 4000 2.57 290 15:49 27.01.2021
3238 Rain 11 1010 87 4000 2.57 290 15:29 27.01.2021
3239 Rain 11 1011 82 10000 2.57 320 14:24 27.01.2021
3240 Rain 11 1010 76 9000 2.57 310 13:53 27.01.2021
3241 Rain 11 1010 76 9000 2.57 310 13:35 27.01.2021
3242 Clouds 11 1010 76 10000 2.06 300 12:42 27.01.2021
3243 Clouds 11 1010 76 10000 2.06 300 12:23 27.01.2021
3244 Clouds 11 1011 76 10000 3.6 0 11:48 27.01.2021
3245 Clouds 11 1011 76 10000 3.6 0 11:26 27.01.2021
3246 Clouds 11 1011 76 10000 3.6 270 10:45 27.01.2021
3247 Rain 11 1011 76 10000 3.6 270 10:22 27.01.2021
3248 Rain 11 1012 76 10000 3.09 270 09:53 27.01.2021
3249 Rain 11 1012 76 10000 3.09 270 09:27 27.01.2021
3250 Rain 11 1012 71 10000 3.6 260 08:40 27.01.2021
3251 Rain 12 1013 66 10000 3.6 240 07:46 27.01.2021
3252 Rain 12 1013 66 10000 3.6 240 07:26 27.01.2021
3253 Clouds 12 1014 66 10000 3.09 250 06:25 27.01.2021
3254 Rain 11 1014 76 10000 2.57 320 05:49 27.01.2021
3255 Rain 11 1014 76 10000 4.12 270 04:57 27.01.2021
3256 Rain 11 1015 76 10000 4.63 270 02:24 27.01.2021
3257 Rain 12 1014 66 10000 5.14 270 01:57 27.01.2021
3258 Rain 13 1013 62 10000 6.69 270 00:51 27.01.2021
3259 Rain 13 1013 62 10000 7.72 280 23:51 26.01.2021
3260 Rain 13 1013 62 10000 7.72 280 23:32 26.01.2021
3261 Clouds 15 1013 51 10000 9.77 280 22:52 26.01.2021
3262 Clouds 15 1013 51 10000 9.77 280 22:33 26.01.2021
3263 Clouds 15 1013 51 10000 10.8 290 21:57 26.01.2021
3264 Clouds 15 1013 51 10000 10.8 290 21:39 26.01.2021
3265 Clouds 15 1013 51 10000 10.8 290 21:21 26.01.2021
3266 Clouds 14 1014 42 10000 5.37 263 20:40 26.01.2021
3267 Clouds 16 1013 48 10000 9.77 280 20:21 26.01.2021
3268 Clouds 16 1013 48 10000 9.77 280 19:46 26.01.2021
3269 Clouds 16 1013 48 10000 9.77 280 19:24 26.01.2021
3270 Clouds 14 1014 40 10000 4.17 265 18:49 26.01.2021
3271 Clouds 14 1014 51 10000 8.23 280 18:28 26.01.2021
3272 Clouds 14 1014 51 10000 8.23 280 17:55 26.01.2021
3273 Clouds 14 1014 51 10000 8.23 280 17:37 26.01.2021
3274 Clouds 13 1014 54 10000 7.2 280 16:56 26.01.2021
3275 Clouds 13 1014 54 10000 7.2 280 16:37 26.01.2021
3276 Clouds 13 1014 54 10000 7.2 280 16:19 26.01.2021
3277 Clouds 11 1014 62 10000 2.57 0 15:46 26.01.2021
3278 Clouds 11 1014 62 10000 2.57 0 15:24 26.01.2021
3279 Clouds 11 1014 62 10000 5.14 270 14:46 26.01.2021
3280 Clouds 11 1014 62 10000 5.14 270 14:28 26.01.2021
3281 Clouds 12 1014 54 10000 5.66 270 13:37 26.01.2021
3282 Clouds 12 1014 54 10000 5.66 270 13:18 26.01.2021
3283 Clouds 11 1014 54 10000 5.14 260 12:42 26.01.2021
3284 Clouds 11 1014 54 10000 5.14 260 12:22 26.01.2021
3285 Clouds 11 1014 54 10000 6.17 270 11:51 26.01.2021
3286 Clouds 11 1014 54 10000 6.17 270 11:25 26.01.2021
3287 Clouds 11 1013 50 10000 4.12 280 10:42 26.01.2021
3288 Clouds 11 1013 50 10000 4.12 280 10:22 26.01.2021
3289 Clouds 11 1013 54 10000 4.12 0 09:40 26.01.2021
3290 Clouds 11 1013 54 10000 4.12 0 09:22 26.01.2021
3291 Clouds 11 1013 50 10000 5.14 280 08:49 26.01.2021
3292 Clouds 11 1013 50 10000 5.14 280 08:18 26.01.2021
3293 Clouds 11 1013 50 10000 6.17 290 07:19 26.01.2021
3294 Clouds 12 1013 43 10000 5.66 280 05:53 26.01.2021
3295 Clouds 12 1013 43 10000 5.66 280 05:34 26.01.2021
3296 Clouds 13 1013 44 10000 5.14 280 03:39 26.01.2021
3297 Clouds 14 1012 41 10000 6.69 280 01:19 26.01.2021
3298 Clouds 15 1012 38 10000 7.72 280 00:30 26.01.2021
3299 Clouds 16 1011 39 10000 7.72 280 23:33 25.01.2021
3300 Clouds 16 1012 39 10000 6.69 280 22:51 25.01.2021
3301 Clouds 16 1012 39 10000 6.69 280 22:31 25.01.2021
3302 Clouds 16 1012 41 10000 7.72 290 21:47 25.01.2021
3303 Clouds 16 1012 41 10000 7.72 290 21:20 25.01.2021
3304 Clouds 16 1011 44 10000 8.75 280 20:44 25.01.2021
3305 Clouds 16 1011 44 10000 8.75 280 20:24 25.01.2021
3306 Clouds 17 1011 42 10000 8.23 290 19:48 25.01.2021
3307 Clouds 17 1011 42 10000 8.23 290 19:23 25.01.2021
3308 Clouds 16 1011 44 10000 10.29 290 18:46 25.01.2021
3309 Clouds 16 1011 44 10000 10.29 290 18:24 25.01.2021
3310 Clouds 15 1012 47 10000 10.29 280 17:49 25.01.2021
3311 Clouds 15 1012 47 10000 10.29 280 17:25 25.01.2021
3312 Clouds 15 1011 47 10000 9.77 270 16:50 25.01.2021
3313 Clouds 15 1011 47 10000 9.77 270 16:50 25.01.2021
3314 Clouds 15 1011 47 10000 9.77 270 16:26 25.01.2021
3315 Rain 15 1010 55 9000 9.26 280 15:57 25.01.2021
3316 Rain 15 1010 55 9000 9.26 280 15:39 25.01.2021
3317 Rain 15 1010 55 9000 9.26 280 15:19 25.01.2021
3318 Clouds 15 1009 58 10000 9.26 280 14:39 25.01.2021
3319 Clouds 15 1009 58 10000 9.26 280 14:18 25.01.2021
3320 Rain 14 1008 62 9000 6.69 260 13:44 25.01.2021
3321 Rain 14 1008 62 9000 6.69 260 13:21 25.01.2021
3322 Clouds 14 1008 62 10000 5.66 260 12:44 25.01.2021
3323 Clouds 14 1008 62 10000 5.66 260 12:19 25.01.2021
3324 Rain 14 1008 58 10000 9.77 280 11:31 25.01.2021
3325 Clouds 14 1008 54 10000 7.2 260 10:53 25.01.2021
3326 Clouds 14 1008 54 10000 7.2 260 10:22 25.01.2021
3327 Rain 14 1008 54 10000 7.2 270 09:53 25.01.2021
3328 Rain 14 1008 54 10000 7.2 270 09:31 25.01.2021
3329 Clouds 14 1009 54 10000 6.69 270 08:38 25.01.2021
3330 Clouds 14 1010 51 10000 6.17 270 07:58 25.01.2021
3331 Clouds 14 1010 51 10000 6.17 270 07:29 25.01.2021
3332 Clouds 15 1011 47 10000 8.23 290 06:38 25.01.2021
3333 Clear 16 1011 39 10000 8.23 300 02:32 25.01.2021
3334 Clouds 16 1010 31 10000 3.6 264 00:42 25.01.2021
3335 Clear 19 1010 19 10000 11.83 290 23:38 24.01.2021
3336 Clear 19 1010 19 10000 11.83 290 23:18 24.01.2021
3337 Clear 22 1010 16 10000 11.83 290 22:40 24.01.2021
3338 Clear 22 1010 16 10000 11.83 290 22:18 24.01.2021
3339 Clear 23 1010 15 10000 10.8 290 21:31 24.01.2021
3340 Clear 24 1010 14 10000 9.77 300 20:49 24.01.2021
3341 Clear 24 1010 14 10000 9.77 300 20:24 24.01.2021
3342 Clear 24 1010 16 10000 10.29 290 19:58 24.01.2021
3343 Clear 24 1010 16 10000 10.29 290 19:39 24.01.2021
3344 Clear 24 1010 16 10000 10.29 290 19:20 24.01.2021
3345 Clear 25 1010 15 10000 9.26 290 18:55 24.01.2021
3346 Clear 25 1010 15 10000 9.26 290 18:36 24.01.2021
3347 Clear 25 1010 15 10000 9.26 290 18:36 24.01.2021
3348 Clear 25 1010 15 10000 9.26 290 18:18 24.01.2021
3349 Clear 23 1010 23 10000 5.14 300 17:43 24.01.2021
3350 Clear 23 1010 23 10000 5.14 300 17:19 24.01.2021
3351 Clear 21 1011 40 10000 3.09 0 16:42 24.01.2021
3352 Clear 21 1011 40 10000 3.09 0 16:21 24.01.2021
3353 Clouds 18 1012 55 10000 2.06 290 15:47 24.01.2021
3354 Clouds 18 1012 55 10000 2.06 290 15:21 24.01.2021
3355 Clear 15 1013 63 10000 2.57 260 14:57 24.01.2021
3356 Clear 15 1013 63 10000 2.57 260 14:33 24.01.2021
3357 Clear 13 1013 71 10000 2.57 260 13:40 24.01.2021
3358 Clear 10 1014 81 10000 3.09 300 12:56 24.01.2021
3359 Clear 10 1014 81 10000 3.09 300 12:36 24.01.2021
3360 Clear 10 1014 81 10000 3.09 300 12:18 24.01.2021
3361 Clear 9 1014 87 10000 3.09 290 11:43 24.01.2021
3362 Clear 9 1014 87 10000 3.09 290 11:22 24.01.2021
3363 Clear 10 1014 81 10000 2.57 300 10:36 24.01.2021
3364 Clear 11 1014 76 10000 2.57 290 09:50 24.01.2021
3365 Clear 11 1014 76 10000 2.57 290 09:22 24.01.2021
3366 Clear 12 1015 76 10000 2.57 300 08:51 24.01.2021
3367 Clear 15 1016 67 10000 3.6 280 05:18 24.01.2021
3368 Clear 18 1015 59 10000 2.06 280 02:21 24.01.2021
3369 Clear 25 1014 31 10000 4.12 280 00:58 24.01.2021
3370 Clear 25 1014 31 10000 4.12 280 00:22 24.01.2021
3371 Clear 26 1013 29 10000 6.69 280 23:42 23.01.2021
3372 Clear 26 1013 29 10000 6.69 280 23:22 23.01.2021
3373 Clear 26 1013 31 10000 7.72 290 22:41 23.01.2021
3374 Clear 26 1013 31 10000 7.72 290 22:20 23.01.2021
3375 Clear 27 1013 28 10000 8.23 300 21:24 23.01.2021
3376 Clear 27 1013 29 10000 8.23 290 20:59 23.01.2021
3377 Clear 27 1013 29 10000 8.23 290 20:39 23.01.2021
3378 Clear 27 1013 29 10000 8.23 290 20:21 23.01.2021
3379 Clear 26 1014 31 10000 7.2 290 19:45 23.01.2021
3380 Clear 26 1014 31 10000 7.2 290 19:20 23.01.2021
3381 Clear 26 1014 36 10000 4.63 290 18:43 23.01.2021
3382 Clear 26 1014 36 10000 4.63 290 18:24 23.01.2021
3383 Clear 25 1014 38 10000 6.69 300 17:44 23.01.2021
3384 Clear 25 1014 38 10000 6.69 300 17:25 23.01.2021
3385 Clouds 25 1014 44 10000 6.69 290 16:46 23.01.2021
3386 Clouds 25 1014 44 10000 6.69 290 16:24 23.01.2021
3387 Clouds 23 1014 49 10000 6.69 280 15:31 23.01.2021
3388 Clouds 22 1014 56 10000 6.69 280 14:53 23.01.2021
3389 Clouds 22 1014 56 10000 6.69 280 14:28 23.01.2021
3390 Clouds 21 1013 60 10000 3.09 0 13:50 23.01.2021
3391 Clouds 21 1013 60 10000 3.09 0 13:26 23.01.2021
3392 Clouds 19 1012 68 10000 2.06 310 12:46 23.01.2021
3393 Clouds 19 1012 68 10000 2.06 310 12:25 23.01.2021
3394 Clouds 20 1012 64 10000 3.09 310 11:44 23.01.2021
3395 Clouds 20 1012 64 10000 3.09 310 11:18 23.01.2021
3396 Clouds 21 1012 60 10000 2.57 0 10:27 23.01.2021
3397 Clouds 21 1011 56 10000 3.6 270 09:54 23.01.2021
3398 Clouds 21 1011 56 10000 3.6 270 09:29 23.01.2021
3399 Clouds 22 1011 53 10000 6.17 280 08:44 23.01.2021
3400 Clear 22 1011 53 10000 5.66 280 07:49 23.01.2021
3401 Clouds 22 1012 53 10000 6.69 280 06:55 23.01.2021
3402 Clouds 23 1012 49 10000 8.23 290 03:24 23.01.2021
3403 Clouds 25 1011 44 10000 6.17 280 00:33 23.01.2021
3404 Clear 27 1011 39 10000 6.17 270 23:36 22.01.2021
3405 Clear 28 1011 39 10000 6.69 270 22:45 22.01.2021
3406 Clear 28 1011 39 10000 6.69 270 22:21 22.01.2021
3407 Clear 28 1011 39 10000 5.14 0 21:42 22.01.2021
3408 Clear 28 1011 39 10000 5.14 0 21:23 22.01.2021
3409 Clear 28 1011 39 10000 2.57 0 20:46 22.01.2021
3410 Clear 28 1011 39 10000 2.57 0 20:26 22.01.2021
3411 Clear 29 1012 37 10000 5.66 280 19:47 22.01.2021
3412 Clear 29 1012 37 10000 5.66 280 19:19 22.01.2021
3413 Clear 28 1013 36 10000 5.66 280 18:45 22.01.2021
3414 Clear 28 1013 36 10000 5.66 280 18:26 22.01.2021
3415 Clear 27 1014 34 10000 7.72 280 17:50 22.01.2021
3416 Clear 27 1014 34 10000 7.72 280 17:32 22.01.2021
3417 Clear 24 1014 38 10000 2.57 0 16:54 22.01.2021
3418 Clear 24 1014 38 10000 2.57 0 16:30 22.01.2021
3419 Clear 22 1015 49 10000 2.57 0 15:45 22.01.2021
3420 Clear 22 1015 49 10000 2.57 0 15:23 22.01.2021
3421 Clear 21 1015 60 10000 2.57 280 14:32 22.01.2021
3422 Clear 18 1015 68 10000 3.6 260 13:53 22.01.2021
3423 Clear 18 1015 68 10000 3.6 260 13:35 22.01.2021
3424 Clear 16 1016 82 10000 4.12 290 12:55 22.01.2021
3425 Clear 16 1016 82 10000 4.12 290 12:26 22.01.2021
3426 Clear 14 1015 88 10000 3.09 290 11:48 22.01.2021
3427 Clear 14 1015 88 10000 3.09 290 11:30 22.01.2021
3428 Clear 14 1015 88 10000 3.09 290 10:46 22.01.2021
3429 Clear 14 1015 88 10000 3.09 290 10:22 22.01.2021
3430 Clear 15 1015 82 10000 3.6 290 09:39 22.01.2021
3431 Clear 15 1015 82 10000 2.06 300 08:57 22.01.2021
3432 Clear 15 1015 82 10000 2.06 300 08:30 22.01.2021
3433 Clear 15 1015 82 10000 1.54 290 07:40 22.01.2021
3434 Clouds 21 1016 56 10000 4.12 290 03:41 22.01.2021
3435 Clouds 25 1015 44 10000 8.23 290 00:54 22.01.2021
3436 Clouds 25 1014 41 10000 7.2 290 23:56 21.01.2021
3437 Clouds 25 1014 41 10000 7.2 290 23:38 21.01.2021
3438 Clouds 26 1014 38 10000 5.66 290 22:57 21.01.2021
3439 Clouds 26 1014 38 10000 5.66 290 22:38 21.01.2021
3440 Clear 26 1014 38 10000 7.2 280 21:44 21.01.2021
3441 Clear 26 1014 38 10000 7.2 280 21:22 21.01.2021
3442 Clear 27 1014 34 10000 8.75 290 20:55 21.01.2021
3443 Clear 27 1014 34 10000 8.75 290 20:36 21.01.2021
3444 Clear 27 1014 34 10000 8.75 290 20:18 21.01.2021
3445 Clear 26 1015 34 10000 8.75 290 19:44 21.01.2021
3446 Clear 26 1015 34 10000 8.75 290 19:23 21.01.2021
3447 Clouds 28 1012 26 10000 5.85 284 18:41 21.01.2021
3448 Clouds 27 1013 27 10000 5.14 289 18:21 21.01.2021
3449 Clouds 27 1013 27 10000 5.14 289 17:57 21.01.2021
3450 Clear 25 1015 38 10000 8.23 290 17:21 21.01.2021
3451 Clear 25 1015 38 10000 8.23 290 16:54 21.01.2021
3452 Clear 25 1015 38 10000 8.23 290 16:36 21.01.2021
3453 Clear 25 1015 38 10000 8.23 290 16:18 21.01.2021
3454 Clear 23 1016 49 10000 2.57 0 15:39 21.01.2021
3455 Clear 23 1016 49 10000 2.57 0 15:21 21.01.2021
3456 Clear 19 1016 68 10000 2.57 270 14:37 21.01.2021
3457 Clear 16 1017 77 10000 1.54 280 13:52 21.01.2021
3458 Clear 16 1017 77 10000 1.54 280 13:33 21.01.2021
3459 Clear 13 1017 88 10000 1.89 266 12:58 21.01.2021
3460 Clear 13 1017 88 10000 1.89 266 12:39 21.01.2021
3461 Clear 13 1017 88 10000 1.93 270 12:21 21.01.2021
3462 Clear 12 1017 94 10000 2.57 290 11:49 21.01.2021
3463 Clear 12 1017 94 10000 2.57 290 11:25 21.01.2021
3464 Clear 13 1017 88 10000 3.6 290 10:51 21.01.2021
3465 Clear 13 1017 88 10000 3.6 290 10:30 21.01.2021
3466 Clear 13 1016 88 10000 2.06 300 09:44 21.01.2021
3467 Clear 13 1016 88 10000 2.06 300 09:25 21.01.2021
3468 Clear 13 1015 88 10000 1.62 275 08:44 21.01.2021
3469 Clear 13 1015 88 10000 1.64 267 08:23 21.01.2021
3470 Clear 14 1016 77 10000 3.09 290 07:27 21.01.2021
3471 Clear 16 1016 67 10000 3.6 290 06:53 21.01.2021
3472 Clear 15 1016 77 10000 3.09 290 05:20 21.01.2021
3473 Clouds 21 1015 52 10000 2.06 290 02:27 21.01.2021
3474 Clouds 26 1014 29 10000 5.14 280 00:47 21.01.2021
3475 Clouds 26 1014 31 10000 3.6 270 23:53 20.01.2021
3476 Clouds 26 1014 31 10000 3.6 270 23:32 20.01.2021
3477 Clouds 27 1014 28 10000 6.69 290 22:58 20.01.2021
3478 Clouds 27 1014 28 10000 6.69 290 22:37 20.01.2021
3479 Clear 28 1014 26 10000 5.14 280 21:56 20.01.2021
3480 Clear 28 1014 26 10000 5.14 280 21:24 20.01.2021
3481 Clear 29 1014 20 10000 8.23 290 20:58 20.01.2021
3482 Clear 29 1014 20 10000 8.23 290 20:36 20.01.2021
3483 Clear 29 1014 20 10000 8.23 290 20:36 20.01.2021
3484 Clear 29 1014 20 10000 8.23 290 20:18 20.01.2021
3485 Clear 29 1014 26 10000 3.6 270 19:40 20.01.2021
3486 Clear 29 1014 26 10000 3.6 270 19:21 20.01.2021
3487 Clear 27 1014 36 10000 4.12 310 18:41 20.01.2021
3488 Clear 24 1015 41 10000 3.09 320 17:56 20.01.2021
3489 Clear 24 1015 41 10000 3.09 320 17:37 20.01.2021
3490 Clear 22 1016 46 10000 2.06 280 16:52 20.01.2021
3491 Clear 22 1016 46 10000 2.06 280 16:32 20.01.2021
3492 Clear 19 1017 55 10000 2.57 290 15:48 20.01.2021
3493 Clear 19 1017 55 10000 2.57 290 15:19 20.01.2021
3494 Clear 17 1018 63 10000 0.51 0 14:46 20.01.2021
3495 Clear 17 1018 63 10000 0.51 0 14:22 20.01.2021
3496 Clear 14 1018 72 10000 2.06 290 13:41 20.01.2021
3497 Clear 14 1018 72 10000 2.06 290 13:21 20.01.2021
3498 Clear 11 1019 87 10000 2.57 280 12:35 20.01.2021
3499 Clear 9 1019 93 10000 1.03 241 11:54 20.01.2021
3500 Clear 9 1019 93 10000 1.03 241 11:35 20.01.2021
3501 Clear 10 1019 93 10000 1.03 0 10:55 20.01.2021
3502 Clear 10 1019 93 10000 1.03 0 10:28 20.01.2021
3503 Clear 12 1019 82 10000 2.06 300 09:48 20.01.2021
3504 Clear 12 1019 82 10000 2.06 300 09:24 20.01.2021
3505 Clear 13 1019 76 10000 2.57 310 08:47 20.01.2021
3506 Clear 13 1019 76 10000 2.57 310 08:26 20.01.2021
3507 Clear 12 1019 82 10000 0.51 0 07:56 20.01.2021
3508 Clear 12 1019 82 10000 0.51 0 07:25 20.01.2021
3509 Clear 13 1019 82 10000 2.06 320 05:24 20.01.2021
3510 Clear 21 1018 43 10000 3.09 210 02:59 20.01.2021
3511 Clear 25 1016 33 10000 4.12 280 00:59 20.01.2021
3512 Clear 25 1016 33 10000 4.12 280 00:25 20.01.2021
3513 Clear 26 1015 29 10000 5.14 270 23:42 19.01.2021
3514 Clear 26 1015 29 10000 5.14 270 23:18 19.01.2021
3515 Clear 26 1015 31 10000 4.12 270 22:41 19.01.2021
3516 Clear 26 1015 31 10000 4.12 270 22:22 19.01.2021
3517 Clear 27 1015 28 10000 6.69 290 21:58 19.01.2021
3518 Clear 27 1015 28 10000 6.69 290 21:39 19.01.2021
3519 Clear 27 1015 29 10000 6.17 300 20:55 19.01.2021
3520 Clear 27 1015 29 10000 6.17 300 20:36 19.01.2021
3521 Clear 27 1015 29 10000 6.17 300 20:18 19.01.2021
3522 Clear 26 1016 29 10000 4.12 290 19:37 19.01.2021
3523 Clear 26 1016 29 10000 4.12 290 19:19 19.01.2021
3524 Clear 24 1016 38 10000 3.09 40 18:39 19.01.2021
3525 Clear 24 1016 38 10000 3.09 40 18:21 19.01.2021
3526 Clear 24 1017 43 10000 3.09 0 17:44 19.01.2021
3527 Clear 24 1017 43 10000 3.09 0 17:22 19.01.2021
3528 Clear 22 1017 46 10000 4.12 140 16:41 19.01.2021
3529 Clear 22 1017 46 10000 4.12 140 16:23 19.01.2021
3530 Clouds 21 1017 56 10000 2.06 290 15:52 19.01.2021
3531 Clouds 21 1017 56 10000 2.06 290 15:33 19.01.2021
3532 Clouds 19 1018 63 10000 2.57 0 14:49 19.01.2021
3533 Clouds 19 1018 63 10000 2.57 0 14:28 19.01.2021
3534 Clouds 17 1018 72 10000 2.57 290 13:52 19.01.2021
3535 Clouds 17 1018 72 10000 2.57 290 13:24 19.01.2021
3536 Clouds 15 1018 77 10000 2.06 280 12:55 19.01.2021
3537 Clouds 15 1018 77 10000 2.06 280 12:30 19.01.2021
3538 Clouds 14 1017 82 10000 2.06 310 11:52 19.01.2021
3539 Clouds 14 1017 82 10000 2.06 310 11:30 19.01.2021
3540 Clouds 15 1017 77 10000 1.54 290 10:59 19.01.2021
3541 Clouds 15 1017 77 10000 1.54 290 10:40 19.01.2021
3542 Clouds 15 1017 77 10000 1.54 290 10:18 19.01.2021
3543 Clouds 15 1017 77 10000 2.06 290 09:42 19.01.2021
3544 Clouds 15 1017 77 10000 2.06 290 09:19 19.01.2021
3545 Clouds 16 1017 72 10000 1.54 290 08:33 19.01.2021
3546 Clouds 17 1017 67 10000 2.06 300 07:51 19.01.2021
3547 Clouds 18 1017 55 10000 1.54 0 06:58 19.01.2021
3548 Clouds 18 1016 55 10000 3.6 260 03:34 19.01.2021
3549 Clear 19 1016 52 10000 5.66 280 02:21 19.01.2021
3550 Clear 22 1015 43 10000 8.75 290 00:23 19.01.2021
3551 Clouds 23 1014 40 10000 9.26 290 23:41 18.01.2021
3552 Clouds 23 1014 40 10000 9.26 290 23:22 18.01.2021
3553 Clouds 23 1014 43 10000 9.77 290 22:41 18.01.2021
3554 Clouds 23 1014 43 10000 9.77 290 22:20 18.01.2021
3555 Clear 23 1014 46 10000 10.8 290 21:43 18.01.2021
3556 Clear 23 1014 46 10000 10.8 290 21:22 18.01.2021
3557 Clear 23 1014 49 10000 6.69 280 20:45 18.01.2021
3558 Clear 23 1014 49 10000 6.69 280 20:27 18.01.2021
3559 Clear 25 1014 41 10000 6.17 280 19:51 18.01.2021
3560 Clear 25 1014 41 10000 6.17 280 19:33 18.01.2021
3561 Clear 25 1015 36 10000 7.2 290 18:48 18.01.2021
3562 Clear 25 1015 36 10000 7.2 290 18:24 18.01.2021
3563 Clear 23 1015 40 10000 3.6 0 17:46 18.01.2021
3564 Clear 23 1015 40 10000 3.6 0 17:25 18.01.2021
3565 Clear 23 1015 46 10000 2.57 0 16:48 18.01.2021
3566 Clear 23 1015 46 10000 2.57 0 16:23 18.01.2021
3567 Clear 20 1016 52 10000 4.12 300 15:49 18.01.2021
3568 Clear 20 1016 52 10000 4.12 300 15:25 18.01.2021
3569 Clear 17 1016 72 10000 3.09 280 14:46 18.01.2021
3570 Clear 17 1016 72 10000 3.09 280 14:28 18.01.2021
3571 Clear 14 1016 77 10000 3.09 290 13:47 18.01.2021
3572 Clear 14 1016 77 10000 3.09 290 13:28 18.01.2021
3573 Clear 14 1017 77 10000 3.6 280 12:56 18.01.2021
3574 Clear 14 1017 77 10000 3.6 280 12:36 18.01.2021
3575 Clear 14 1017 77 10000 3.6 280 12:18 18.01.2021
3576 Clouds 14 1016 77 10000 4.12 280 11:40 18.01.2021
3577 Clouds 14 1016 77 10000 4.12 280 11:20 18.01.2021
3578 Clouds 14 1016 77 10000 4.12 280 11:20 18.01.2021
3579 Clouds 15 1017 72 10000 3.6 290 10:44 18.01.2021
3580 Clouds 14 1017 77 10000 2.57 290 09:50 18.01.2021
3581 Clouds 14 1017 77 10000 2.57 290 09:32 18.01.2021
3582 Clouds 16 1017 63 10000 3.6 300 08:54 18.01.2021
3583 Clouds 16 1017 63 10000 3.6 300 08:18 18.01.2021
3584 Clouds 17 1017 59 10000 3.09 0 07:36 18.01.2021
3585 Clouds 16 1018 59 10000 3.09 310 05:35 18.01.2021
3586 Clouds 16 1018 55 10000 2.06 250 04:37 18.01.2021
3587 Clouds 16 1018 55 10000 2.06 250 04:18 18.01.2021
3588 Clouds 18 1018 48 10000 3.6 250 03:41 18.01.2021
3589 Clouds 18 1018 48 10000 3.6 250 03:20 18.01.2021
3590 Clouds 18 1018 48 10000 4.12 260 02:37 18.01.2021
3591 Clear 21 1016 43 10000 6.17 270 00:49 18.01.2021
3592 Clear 21 1016 43 10000 6.17 270 00:30 18.01.2021
3593 Clouds 22 1016 37 10000 7.72 270 23:48 17.01.2021
3594 Clouds 22 1016 37 10000 7.72 270 23:20 17.01.2021
3595 Clouds 22 1016 37 10000 6.17 0 22:39 17.01.2021
3596 Clouds 22 1016 37 10000 6.17 0 22:20 17.01.2021
3597 Clear 24 1015 35 10000 3.6 340 21:40 17.01.2021
3598 Clear 24 1015 35 10000 3.6 340 21:22 17.01.2021
3599 Clear 23 1015 35 10000 5.66 300 20:48 17.01.2021
3600 Clear 23 1015 35 10000 5.66 300 20:28 17.01.2021
3601 Clear 23 1016 35 10000 3.6 0 19:42 17.01.2021
3602 Clear 23 1016 35 10000 3.6 0 19:23 17.01.2021
3603 Clear 21 1017 40 10000 5.66 310 18:43 17.01.2021
3604 Clear 21 1017 40 10000 5.66 310 18:23 17.01.2021
3605 Clear 20 1018 42 10000 4.12 310 17:48 17.01.2021
3606 Clear 20 1018 42 10000 4.12 310 17:26 17.01.2021
3607 Clear 18 1019 52 10000 3.6 290 16:44 17.01.2021
3608 Clear 18 1019 52 10000 3.6 290 16:21 17.01.2021
3609 Clear 17 1019 55 10000 3.6 300 15:43 17.01.2021
3610 Clear 17 1019 55 10000 3.6 300 15:24 17.01.2021
3611 Clear 15 1020 67 10000 3.6 310 14:49 17.01.2021
3612 Clear 15 1020 67 10000 3.6 310 14:26 17.01.2021
3613 Clear 13 1021 76 10000 3.09 280 13:45 17.01.2021
3614 Clear 13 1021 76 10000 3.09 280 13:27 17.01.2021
3615 Clear 10 1020 87 10000 2.57 280 12:53 17.01.2021
3616 Clear 10 1020 87 10000 2.57 280 12:31 17.01.2021
3617 Clear 10 1020 87 10000 3.09 290 11:56 17.01.2021
3618 Clear 10 1020 87 10000 3.09 290 11:23 17.01.2021
3619 Clear 10 1020 87 10000 3.09 280 10:48 17.01.2021
3620 Clear 10 1020 87 10000 3.09 280 10:21 17.01.2021
3621 Clouds 11 1020 82 10000 3.09 300 09:26 17.01.2021
3622 Clouds 10 1020 87 10000 3.09 280 08:45 17.01.2021
3623 Clouds 11 1020 87 10000 2.06 290 06:52 17.01.2021
3624 Clouds 13 1020 76 10000 2.06 320 04:28 17.01.2021
3625 Clear 17 1019 55 10000 3.09 260 02:47 17.01.2021
3626 Clear 21 1018 46 10000 7.72 290 00:48 17.01.2021
3627 Clear 21 1018 46 10000 7.72 290 00:18 17.01.2021
3628 Clouds 22 1018 43 10000 6.17 290 23:49 16.01.2021
3629 Clouds 22 1018 43 10000 6.17 290 23:19 16.01.2021
3630 Clouds 23 1017 38 10000 4.63 0 22:36 16.01.2021
3631 Clouds 24 1017 38 10000 2.06 0 21:58 16.01.2021
3632 Clouds 24 1017 38 10000 2.06 0 21:26 16.01.2021
3633 Clear 23 1017 38 10000 3.09 0 20:59 16.01.2021
3634 Clear 23 1017 38 10000 3.09 0 20:41 16.01.2021
3635 Clear 23 1017 38 10000 3.09 0 20:19 16.01.2021
3636 Clear 22 1018 43 10000 4.12 300 19:42 16.01.2021
3637 Clear 22 1018 43 10000 4.12 300 19:24 16.01.2021
3638 Clear 21 1018 49 10000 3.6 310 18:42 16.01.2021
3639 Clear 21 1018 49 10000 3.6 310 18:24 16.01.2021
3640 Clear 19 1019 48 10000 4.63 300 17:46 16.01.2021
3641 Clear 19 1019 48 10000 4.63 300 17:28 16.01.2021
3642 Clear 17 1020 55 10000 4.12 310 16:45 16.01.2021
3643 Clear 17 1020 55 10000 4.12 310 16:26 16.01.2021
3644 Clear 17 1020 55 10000 4.12 310 16:26 16.01.2021
3645 Clear 16 1020 59 10000 3.6 310 15:48 16.01.2021
3646 Clear 16 1020 59 10000 3.6 310 15:18 16.01.2021
3647 Clear 14 1020 67 10000 3.6 310 14:19 16.01.2021
3648 Clear 12 1021 76 10000 2.57 260 13:48 16.01.2021
3649 Clear 12 1021 76 10000 2.57 260 13:21 16.01.2021
3650 Clear 10 1021 81 10000 2.57 270 12:39 16.01.2021
3651 Clear 10 1021 81 10000 2.57 270 12:20 16.01.2021
3652 Clouds 9 1020 87 10000 2.57 290 11:46 16.01.2021
3653 Clouds 9 1020 87 10000 2.57 290 11:24 16.01.2021
3654 Clouds 10 1020 81 10000 2.06 280 10:45 16.01.2021
3655 Clouds 10 1020 81 10000 2.06 280 10:19 16.01.2021
3656 Clouds 10 1019 81 10000 2.57 270 09:32 16.01.2021
3657 Clouds 11 1019 76 10000 2.06 290 08:35 16.01.2021
3658 Clouds 11 1019 76 10000 3.6 290 07:31 16.01.2021
3659 Clouds 11 1019 71 10000 2.57 260 06:43 16.01.2021
3660 Clouds 11 1018 76 10000 2.06 300 04:39 16.01.2021
3661 Clouds 13 1017 58 10000 3.09 260 02:55 16.01.2021
3662 Clouds 14 1015 58 10000 6.17 280 00:49 16.01.2021
3663 Clouds 14 1015 58 10000 6.17 280 00:26 16.01.2021
3664 Clouds 15 1014 58 10000 6.17 290 23:49 15.01.2021
3665 Clouds 16 1014 55 10000 5.14 270 22:51 15.01.2021
3666 Clouds 16 1014 55 10000 5.14 270 22:23 15.01.2021
3667 Rain 14 1014 72 10000 3.6 300 21:46 15.01.2021
3668 Clouds 13 1013 67 10000 2.06 170 20:58 15.01.2021
3669 Clouds 13 1013 67 10000 2.06 170 20:40 15.01.2021
3670 Rain 13 1013 67 10000 2.06 170 20:19 15.01.2021
3671 Rain 15 1013 55 9000 3.09 0 19:40 15.01.2021
3672 Rain 15 1013 55 9000 3.09 0 19:22 15.01.2021
3673 Clouds 14 1013 58 10000 3.09 0 18:42 15.01.2021
3674 Clouds 14 1013 58 10000 3.09 0 18:19 15.01.2021
3675 Clouds 15 1012 55 10000 7.72 280 17:50 15.01.2021
3676 Clouds 15 1012 55 10000 7.72 280 17:22 15.01.2021
3677 Clouds 14 1013 62 10000 3.09 0 16:49 15.01.2021
3678 Clouds 14 1013 62 10000 3.09 0 16:24 15.01.2021
3679 Clouds 13 1012 58 10000 4.12 270 15:41 15.01.2021
3680 Clouds 13 1012 58 10000 4.12 270 15:21 15.01.2021
3681 Clouds 13 1012 62 10000 4.12 270 14:46 15.01.2021
3682 Clouds 13 1012 62 10000 4.12 270 14:27 15.01.2021
3683 Clouds 12 1012 76 10000 3.6 270 13:43 15.01.2021
3684 Clouds 12 1012 76 10000 3.6 270 13:23 15.01.2021
3685 Clouds 11 1012 76 10000 3.09 260 12:57 15.01.2021
3686 Clouds 11 1012 76 10000 3.09 260 12:32 15.01.2021
3687 Rain 10 1011 87 10000 2.57 290 11:50 15.01.2021
3688 Rain 10 1011 87 10000 2.57 290 11:32 15.01.2021
3689 Rain 11 1010 93 10000 2.06 280 10:57 15.01.2021
3690 Rain 11 1010 93 10000 2.06 280 10:39 15.01.2021
3691 Rain 11 1010 93 10000 2.57 290 09:56 15.01.2021
3692 Rain 11 1010 93 10000 2.57 290 09:35 15.01.2021
3693 Rain 11 1009 93 10000 1.54 320 08:48 15.01.2021
3694 Rain 11 1009 93 10000 1.54 320 08:21 15.01.2021
3695 Rain 12 1010 87 10000 2.57 290 07:41 15.01.2021
3696 Rain 12 1010 87 10000 2.57 290 07:19 15.01.2021
3697 Clouds 14 1010 62 10000 1.54 310 04:35 15.01.2021
3698 Clouds 17 1010 55 10000 2.06 280 01:48 15.01.2021
3699 Clouds 19 1010 45 10000 3.09 300 23:55 14.01.2021
3700 Clouds 19 1010 45 10000 3.09 300 23:23 14.01.2021
3701 Rain 17 1011 59 10000 2.57 340 22:44 14.01.2021
3702 Rain 17 1011 59 10000 2.57 340 22:25 14.01.2021
3703 Clouds 22 1009 28 10000 4.25 254 21:48 14.01.2021
3704 Clear 21 1010 37 10000 4.12 280 21:21 14.01.2021
3705 Clear 21 1010 37 10000 4.12 280 20:51 14.01.2021
3706 Clear 21 1010 37 10000 4.12 280 20:26 14.01.2021
3707 Clear 21 1010 43 10000 3.09 0 19:46 14.01.2021
3708 Clear 21 1010 43 10000 3.09 0 19:27 14.01.2021
3709 Clear 21 1010 43 10000 4.12 0 18:55 14.01.2021
3710 Clear 21 1010 43 10000 4.12 0 18:30 14.01.2021
3711 Clear 21 1011 43 10000 4.12 320 17:50 14.01.2021
3712 Clear 21 1011 43 10000 4.12 320 17:27 14.01.2021
3713 Clear 20 1011 52 10000 3.6 320 16:44 14.01.2021
3714 Clear 20 1011 52 10000 3.6 320 16:23 14.01.2021
3715 Clear 17 1012 63 10000 2.57 270 15:45 14.01.2021
3716 Clear 15 1013 67 10000 2.57 270 14:59 14.01.2021
3717 Clear 15 1013 67 10000 2.57 270 14:39 14.01.2021
3718 Clear 15 1013 67 10000 2.57 270 14:19 14.01.2021
3719 Clear 15 1013 67 10000 2.57 270 14:19 14.01.2021
3720 Clear 13 1014 76 10000 2.57 280 13:53 14.01.2021
3721 Clear 13 1014 76 10000 2.57 280 13:21 14.01.2021
3722 Clouds 11 1014 87 10000 2.06 290 12:49 14.01.2021
3723 Clouds 11 1014 87 10000 2.06 290 12:20 14.01.2021
3724 Clouds 9 1014 93 10000 1.54 290 11:43 14.01.2021
3725 Clouds 9 1014 93 10000 1.54 290 11:21 14.01.2021
3726 Clouds 9 1014 93 10000 1.6 265 10:52 14.01.2021
3727 Clouds 9 1014 93 10000 1.59 268 10:27 14.01.2021
3728 Clouds 10 1014 87 10000 3.09 300 09:48 14.01.2021
3729 Clouds 10 1014 87 10000 3.09 300 09:23 14.01.2021
3730 Clouds 10 1014 87 10000 2.57 280 08:49 14.01.2021
3731 Clouds 10 1014 87 10000 2.57 280 08:27 14.01.2021
3732 Clear 10 1014 87 10000 3.09 300 07:49 14.01.2021
3733 Clear 12 1015 82 10000 3.09 290 06:53 14.01.2021
3734 Clear 13 1015 76 10000 3.6 290 05:56 14.01.2021
3735 Clear 20 1014 42 10000 3.09 300 01:42 14.01.2021
3736 Clear 25 1014 27 10000 2.06 0 23:55 13.01.2021
3737 Clear 25 1014 27 10000 2.06 0 23:23 13.01.2021
3738 Clear 25 1014 27 10000 3.09 100 22:29 13.01.2021
3739 Clear 25 1014 27 10000 4.12 0 21:57 13.01.2021
3740 Clear 25 1014 27 10000 4.12 0 21:39 13.01.2021
3741 Clear 23 1015 33 10000 3.09 0 20:59 13.01.2021
3742 Clear 23 1015 33 10000 3.09 0 20:37 13.01.2021
3743 Clear 23 1015 33 10000 3.09 0 20:18 13.01.2021
3744 Clear 22 1015 43 10000 3.09 320 19:42 13.01.2021
3745 Clear 22 1015 43 10000 3.09 320 19:20 13.01.2021
3746 Clear 20 1016 37 10000 2.06 320 18:41 13.01.2021
3747 Clear 18 1017 52 10000 1.54 0 17:51 13.01.2021
3748 Clear 18 1017 52 10000 1.54 0 17:26 13.01.2021
3749 Clear 15 1018 58 10000 1.03 0 16:58 13.01.2021
3750 Clear 15 1018 58 10000 1.03 0 16:22 13.01.2021
3751 Clear 13 1019 67 10000 0.51 0 15:56 13.01.2021
3752 Clear 13 1019 67 10000 0.51 0 15:38 13.01.2021
3753 Clear 11 1020 71 10000 1.03 0 14:49 13.01.2021
3754 Clear 8 1020 81 10000 0.15 116 13:55 13.01.2021
3755 Clear 8 1020 81 10000 0.15 116 13:32 13.01.2021
3756 Fog 4 1021 100 250 1.03 0 12:47 13.01.2021
3757 Fog 4 1021 100 250 1.03 0 12:29 13.01.2021
3758 Clear 3 1021 100 10000 1.54 290 11:59 13.01.2021
3759 Clear 3 1021 100 10000 1.54 290 11:40 13.01.2021
3760 Clear 3 1021 100 10000 1.54 290 11:22 13.01.2021
3761 Mist 4 1020 100 3900 0.5 227 10:41 13.01.2021
3762 Mist 4 1020 100 3900 0.76 245 10:22 13.01.2021
3763 Clear 4 1020 100 10000 0.76 245 09:34 13.01.2021
3764 Clear 5 1020 100 10000 0.94 245 08:53 13.01.2021
3765 Clear 5 1020 100 10000 0.94 245 08:32 13.01.2021
3766 Clear 7 1020 87 10000 2.57 280 07:37 13.01.2021
3767 Clear 8 1020 81 10000 3.09 280 06:58 13.01.2021
3768 Clear 9 1020 81 10000 2.57 290 04:21 13.01.2021
3769 Clouds 10 1020 76 10000 2.06 300 03:48 13.01.2021
3770 Clouds 10 1020 76 10000 2.06 300 03:29 13.01.2021
3771 Clouds 14 1019 54 10000 4.12 330 01:44 13.01.2021
3772 Clouds 16 1019 48 10000 4.12 310 00:29 13.01.2021
3773 Clouds 17 1018 45 10000 4.63 300 23:24 12.01.2021
3774 Clear 16 1018 48 10000 4.63 310 22:47 12.01.2021
3775 Clear 16 1018 48 10000 4.63 310 22:24 12.01.2021
3776 Clear 16 1018 44 10000 3.6 330 21:51 12.01.2021
3777 Clear 16 1018 44 10000 3.6 330 21:30 12.01.2021
3778 Clear 16 1018 41 10000 4.12 0 20:49 12.01.2021
3779 Clear 16 1018 41 10000 4.12 0 20:27 12.01.2021
3780 Clear 15 1019 47 10000 3.09 0 19:55 12.01.2021
3781 Clear 15 1019 47 10000 3.09 0 19:35 12.01.2021
3782 Clear 15 1020 47 10000 4.12 0 18:46 12.01.2021
3783 Clear 15 1020 47 10000 4.12 0 18:24 12.01.2021
3784 Clouds 13 1020 47 10000 3.09 0 17:44 12.01.2021
3785 Clouds 13 1020 47 10000 3.09 0 17:25 12.01.2021
3786 Clouds 13 1020 54 10000 3.09 0 16:44 12.01.2021
3787 Clouds 13 1020 54 10000 3.09 0 16:24 12.01.2021
3788 Clouds 12 1020 50 10000 3.09 330 15:41 12.01.2021
3789 Clouds 12 1020 50 10000 3.09 330 15:21 12.01.2021
3790 Clouds 11 1020 54 10000 4.63 0 14:43 12.01.2021
3791 Clouds 11 1020 54 10000 4.63 0 14:23 12.01.2021
3792 Clouds 9 1021 66 10000 3.09 320 13:52 12.01.2021
3793 Clouds 9 1021 66 10000 3.09 320 13:18 12.01.2021
3794 Clouds 7 1020 76 10000 3.09 300 12:24 12.01.2021
3795 Clouds 7 1020 70 10000 2.57 0 11:41 12.01.2021
3796 Clouds 6 1020 75 10000 3.09 290 10:55 12.01.2021
3797 Clouds 6 1020 75 10000 3.09 290 10:25 12.01.2021
3798 Clouds 8 1019 66 10000 2.57 0 09:58 12.01.2021
3799 Clouds 8 1019 66 10000 2.57 0 09:29 12.01.2021
3800 Clouds 8 1019 61 10000 3.6 280 08:54 12.01.2021
3801 Clouds 8 1019 61 10000 3.6 280 08:26 12.01.2021
3802 Clouds 8 1020 61 10000 2.57 0 07:37 12.01.2021
3803 Clouds 7 1021 65 10000 2.06 270 06:39 12.01.2021
3804 Clouds 8 1021 57 10000 3.6 270 05:34 12.01.2021
3805 Clouds 9 1022 66 10000 2.57 250 03:27 12.01.2021
3806 Clouds 9 1021 61 10000 3.09 240 02:19 12.01.2021
3807 Clouds 10 1021 57 10000 5.14 280 01:28 12.01.2021
3808 Clouds 12 1020 50 10000 8.75 290 23:57 11.01.2021
3809 Clouds 12 1020 50 10000 8.75 290 23:36 11.01.2021
3810 Clouds 12 1020 50 10000 8.75 290 23:18 11.01.2021
3811 Clouds 13 1020 47 10000 10.29 290 22:44 11.01.2021
3812 Clouds 13 1020 47 10000 10.29 290 22:26 11.01.2021
3813 Clouds 12 1020 47 10000 9.77 280 21:39 11.01.2021
3814 Clouds 12 1020 47 10000 9.77 280 21:21 11.01.2021
3815 Clouds 13 1020 50 10000 11.32 290 20:41 11.01.2021
3816 Clouds 13 1020 50 10000 11.32 290 20:23 11.01.2021
3817 Clouds 14 1019 47 10000 9.77 300 19:56 11.01.2021
3818 Clouds 14 1019 47 10000 9.77 300 19:33 11.01.2021
3819 Clouds 12 1019 54 10000 4.63 280 18:46 11.01.2021
3820 Clouds 12 1019 54 10000 4.63 280 18:46 11.01.2021
3821 Clouds 12 1019 54 10000 4.63 280 18:27 11.01.2021
3822 Clouds 10 1019 57 10000 3.09 240 17:56 11.01.2021
3823 Clouds 10 1019 57 10000 3.09 240 17:37 11.01.2021
3824 Clouds 10 1019 57 10000 3.09 240 17:19 11.01.2021
3825 Clouds 10 1019 66 10000 5.66 310 16:39 11.01.2021
3826 Clouds 10 1019 66 10000 5.66 310 16:20 11.01.2021
3827 Clouds 9 1019 71 10000 3.09 0 15:47 11.01.2021
3828 Clouds 9 1019 71 10000 3.09 0 15:26 11.01.2021
3829 Clouds 7 1018 76 10000 2.06 320 14:39 11.01.2021
3830 Clouds 6 1017 81 10000 4.12 290 13:50 11.01.2021
3831 Clouds 6 1017 81 10000 4.12 290 13:26 11.01.2021
3832 Clouds 4 1017 93 10000 3.09 300 12:51 11.01.2021
3833 Clouds 4 1017 93 10000 3.09 300 12:32 11.01.2021
3834 Clouds 3 1015 93 10000 3.09 280 11:56 11.01.2021
3835 Clouds 3 1015 93 10000 3.09 280 11:27 11.01.2021
3836 Rain 3 1014 93 10000 2.06 270 10:47 11.01.2021
3837 Rain 3 1014 93 10000 2.06 270 10:25 11.01.2021
3838 Rain 3 1013 93 10000 2.57 270 09:42 11.01.2021
3839 Rain 3 1013 93 10000 2.57 270 09:21 11.01.2021
3840 Rain 3 1012 93 10000 3.6 320 08:44 11.01.2021
3841 Rain 3 1012 93 10000 3.6 320 08:18 11.01.2021
3842 Clouds 5 1012 87 10000 2.57 300 07:27 11.01.2021
3843 Rain 5 1011 87 10000 0.51 0 06:58 11.01.2021
3844 Rain 4 1009 93 10000 2.57 340 03:51 11.01.2021
3845 Rain 6 1007 87 10000 2.57 0 01:33 11.01.2021
3846 Rain 8 1005 71 10000 3.6 260 23:59 10.01.2021
3847 Rain 8 1005 71 10000 3.6 260 23:30 10.01.2021
3848 Rain 7 1006 81 10000 7.72 280 22:48 10.01.2021
3849 Rain 7 1006 81 10000 7.72 280 22:24 10.01.2021
3850 Rain 7 1005 87 10000 5.14 270 21:45 10.01.2021
3851 Rain 7 1005 87 10000 5.14 270 21:21 10.01.2021
3852 Rain 7 1005 87 10000 5.14 270 21:21 10.01.2021
3853 Rain 9 1004 71 10000 4.12 260 20:53 10.01.2021
3854 Rain 9 1004 71 10000 4.12 260 20:33 10.01.2021
3855 Rain 9 1004 71 10000 4.12 260 20:33 10.01.2021
3856 Rain 8 1004 71 10000 4.63 260 19:43 10.01.2021
3857 Rain 8 1004 71 10000 4.63 260 19:25 10.01.2021
3858 Rain 9 1005 76 10000 6.17 270 18:49 10.01.2021
3859 Rain 9 1005 76 10000 6.17 270 18:21 10.01.2021
3860 Rain 10 1004 66 10000 4.12 250 17:41 10.01.2021
3861 Rain 10 1004 66 10000 4.12 250 17:20 10.01.2021
3862 Rain 8 1004 76 10000 3.6 240 16:33 10.01.2021
3863 Rain 8 1004 76 10000 3.6 240 16:33 10.01.2021
3864 Rain 7 1004 81 10000 4.12 240 15:56 10.01.2021
3865 Rain 7 1004 81 10000 4.12 240 15:25 10.01.2021
3866 Rain 8 1003 71 10000 5.14 260 14:50 10.01.2021
3867 Rain 8 1003 71 10000 5.14 260 14:31 10.01.2021
3868 Rain 8 1003 76 10000 6.69 280 13:55 10.01.2021
3869 Rain 8 1003 76 10000 6.69 280 13:55 10.01.2021
3870 Rain 8 1003 76 10000 6.69 280 13:37 10.01.2021
3871 Rain 8 1003 76 10000 6.69 280 13:18 10.01.2021
3872 Rain 7 1002 87 10000 5.14 260 12:43 10.01.2021
3873 Rain 7 1002 87 10000 5.14 260 12:18 10.01.2021
3874 Rain 7 1002 87 8000 6.17 260 11:23 10.01.2021
3875 Rain 8 1001 81 10000 8.23 280 10:58 10.01.2021
3876 Rain 8 1001 81 10000 8.23 280 10:31 10.01.2021
3877 Rain 9 999 81 10000 4.63 260 09:59 10.01.2021
3878 Rain 9 999 81 10000 4.63 260 09:24 10.01.2021
3879 Rain 9 999 81 10000 3.09 0 08:20 10.01.2021
3880 Rain 9 1000 81 10000 5.66 270 07:28 10.01.2021
3881 Rain 9 1001 87 9000 5.14 0 06:19 10.01.2021
3882 Rain 10 1000 87 10000 3.6 0 05:35 10.01.2021
3883 Rain 11 1000 76 10000 3.6 240 02:56 10.01.2021
3884 Rain 11 1000 82 10000 2.57 0 00:48 10.01.2021
3885 Rain 11 1001 76 10000 3.09 200 23:43 09.01.2021
3886 Rain 11 1001 76 10000 3.09 200 23:25 09.01.2021
3887 Rain 12 1001 71 10000 6.17 250 22:44 09.01.2021
3888 Rain 12 1001 71 10000 6.17 250 22:18 09.01.2021
3889 Rain 14 1001 62 10000 7.2 270 21:41 09.01.2021
3890 Rain 14 1001 62 10000 7.2 270 21:23 09.01.2021
3891 Rain 15 1001 55 10000 10.29 270 20:59 09.01.2021
3892 Rain 15 1001 55 10000 10.29 270 20:38 09.01.2021
3893 Clouds 16 1002 48 10000 8.23 270 19:44 09.01.2021
3894 Clouds 16 1002 48 10000 8.23 270 19:22 09.01.2021
3895 Rain 14 1003 54 10000 8.75 250 18:39 09.01.2021
3896 Rain 14 1003 54 10000 8.75 250 18:20 09.01.2021
3897 Rain 14 1003 54 10000 5.66 0 17:45 09.01.2021
3898 Rain 14 1003 54 10000 5.66 0 17:27 09.01.2021
3899 Rain 13 1004 58 10000 5.66 0 16:33 09.01.2021
3900 Clouds 13 1005 54 10000 5.66 270 15:48 09.01.2021
3901 Clouds 13 1005 54 10000 5.66 270 15:48 09.01.2021
3902 Clouds 13 1005 54 10000 5.66 270 15:28 09.01.2021
3903 Clouds 13 1006 54 10000 5.66 240 14:40 09.01.2021
3904 Clouds 13 1006 54 10000 5.66 240 14:20 09.01.2021
3905 Clouds 13 1007 54 10000 4.12 0 13:47 09.01.2021
3906 Clouds 13 1007 54 10000 4.12 0 13:29 09.01.2021
3907 Clouds 12 1007 54 10000 4.63 270 12:48 09.01.2021
3908 Clouds 12 1007 54 10000 4.63 270 12:22 09.01.2021
3909 Clouds 11 1008 62 10000 2.06 0 11:50 09.01.2021
3910 Clouds 11 1008 62 10000 2.06 0 11:29 09.01.2021
3911 Rain 11 1008 66 10000 5.66 270 10:52 09.01.2021
3912 Rain 11 1008 66 10000 5.66 270 10:30 09.01.2021
3913 Clouds 12 1009 54 10000 5.66 260 09:46 09.01.2021
3914 Clouds 12 1009 54 10000 5.66 260 09:25 09.01.2021
3915 Clouds 13 1009 50 10000 4.63 260 08:28 09.01.2021
3916 Clouds 12 1012 58 10000 2.57 260 06:56 09.01.2021
3917 Clouds 12 1012 58 10000 2.57 260 06:38 09.01.2021
3918 Clear 13 1013 50 10000 6.69 290 04:43 09.01.2021
3919 Clouds 9 1013 68 10000 2.97 273 02:48 09.01.2021
3920 Clear 14 1013 47 10000 10.29 290 02:29 09.01.2021
3921 Clear 14 1013 47 10000 10.29 290 01:36 09.01.2021
3922 Clear 16 1013 41 10000 9.26 290 00:34 09.01.2021
3923 Clear 17 1013 42 10000 10.8 290 23:50 08.01.2021
3924 Clear 17 1013 42 10000 10.8 290 23:50 08.01.2021
3925 Clear 17 1013 42 10000 10.8 290 23:50 08.01.2021
3926 Clear 18 1013 36 10000 11.83 290 22:56 08.01.2021
3927 Clouds 19 1013 34 10000 10.8 290 21:59 08.01.2021
3928 Clouds 19 1013 34 10000 10.8 290 21:34 08.01.2021
3929 Clear 19 1014 34 10000 10.8 290 20:42 08.01.2021
3930 Clear 19 1014 34 10000 10.8 290 20:23 08.01.2021
3931 Clear 19 1014 34 10000 6.69 290 19:39 08.01.2021
3932 Clear 19 1014 34 10000 6.69 290 19:20 08.01.2021
3933 Clouds 18 1015 39 10000 6.69 280 18:34 08.01.2021
3934 Clear 16 1016 44 10000 4.63 0 17:55 08.01.2021
3935 Clear 16 1016 44 10000 4.63 0 17:30 08.01.2021
3936 Clouds 15 1017 44 10000 4.12 130 16:51 08.01.2021
3937 Clouds 13 1017 47 10000 3.09 0 15:55 08.01.2021
3938 Clouds 13 1017 47 10000 3.09 0 15:33 08.01.2021
3939 Clouds 13 1018 54 10000 3.09 130 14:40 08.01.2021
3940 Clouds 13 1018 54 10000 3.09 130 14:18 08.01.2021
3941 Clouds 11 1018 62 10000 2.57 0 13:22 08.01.2021
3942 Clouds 9 1019 76 10000 2.06 290 12:52 08.01.2021
3943 Clouds 9 1019 76 10000 2.06 290 12:23 08.01.2021
3944 Clouds 8 1018 81 10000 2.57 290 11:50 08.01.2021
3945 Clouds 8 1018 81 10000 2.57 290 11:30 08.01.2021
3946 Clouds 6 1018 87 10000 2.06 300 10:57 08.01.2021
3947 Clouds 6 1018 87 10000 2.06 300 10:38 08.01.2021
3948 Clouds 7 1018 81 10000 1.54 300 09:54 08.01.2021
3949 Clouds 7 1018 81 10000 1.54 300 09:35 08.01.2021
3950 Clouds 7 1019 81 10000 1.03 0 08:42 08.01.2021
3951 Clouds 9 1019 76 10000 2.06 290 07:29 08.01.2021
3952 Clouds 9 1019 76 10000 2.06 300 06:43 08.01.2021
3953 Clouds 16 1019 44 10000 8.23 290 00:35 08.01.2021
3954 Clouds 16 1018 44 10000 9.77 290 23:42 07.01.2021
3955 Clouds 16 1018 48 10000 11.83 290 22:51 07.01.2021
3956 Clouds 16 1018 48 10000 11.83 290 22:33 07.01.2021
3957 Clouds 18 1018 42 10000 9.77 290 21:49 07.01.2021
3958 Clouds 18 1018 42 10000 9.77 290 21:29 07.01.2021
3959 Clear 19 1017 37 10000 9.26 290 20:48 07.01.2021
3960 Clear 19 1017 37 10000 9.26 290 20:29 07.01.2021
3961 Clear 17 1017 39 10000 7.72 300 19:47 07.01.2021
3962 Clear 17 1017 39 10000 7.72 300 19:47 07.01.2021
3963 Clear 17 1017 39 10000 7.72 300 19:23 07.01.2021
3964 Clear 18 1017 36 10000 5.14 0 18:46 07.01.2021
3965 Clear 18 1017 36 10000 5.14 0 18:20 07.01.2021
3966 Clear 16 1018 41 10000 5.66 280 17:32 07.01.2021
3967 Clear 16 1018 41 10000 5.66 280 16:55 07.01.2021
3968 Clear 16 1018 41 10000 5.66 280 16:32 07.01.2021
3969 Clear 15 1019 44 10000 3.09 0 15:48 07.01.2021
3970 Clear 15 1019 44 10000 3.09 0 15:30 07.01.2021
3971 Clouds 13 1019 54 10000 5.14 300 14:31 07.01.2021
3972 Clouds 12 1019 58 10000 5.14 300 13:50 07.01.2021
3973 Clouds 12 1019 58 10000 5.14 300 13:28 07.01.2021
3974 Clear 9 1018 60 10000 4.29 266 12:52 07.01.2021
3975 Clear 10 1018 61 10000 3.1 240 12:21 07.01.2021
3976 Clear 10 1018 61 10000 3.1 240 11:38 07.01.2021
3977 Clear 10 1017 61 10000 3.6 220 10:54 07.01.2021
3978 Clear 10 1017 61 10000 3.6 220 10:35 07.01.2021
3979 Clear 10 1016 61 10000 3.1 0 09:50 07.01.2021
3980 Clear 10 1016 61 10000 3.1 0 09:32 07.01.2021
3981 Clear 11 1015 66 10000 3.6 0 08:31 07.01.2021
3982 Clear 12 1015 62 10000 4.6 210 07:57 07.01.2021
3983 Clear 12 1015 62 10000 4.6 210 07:38 07.01.2021
3984 Rain 13 1014 87 10000 2.6 290 05:46 07.01.2021
3985 Rain 17 1012 67 10000 4.6 230 00:59 07.01.2021
3986 Clouds 22 1012 40 10000 7.2 270 23:52 06.01.2021
3987 Clouds 23 1012 40 10000 6.2 280 22:50 06.01.2021
3988 Clouds 23 1012 40 10000 6.2 280 22:19 06.01.2021
3989 Clear 23 1012 38 10000 10.3 280 21:41 06.01.2021
3990 Clear 23 1012 38 10000 10.3 280 21:22 06.01.2021
3991 Clear 25 1012 31 10000 8.7 290 20:40 06.01.2021
3992 Clear 25 1012 31 10000 8.7 290 20:19 06.01.2021
3993 Clear 26 1012 31 10000 8.7 290 19:42 06.01.2021
3994 Clear 26 1012 31 10000 8.7 290 19:24 06.01.2021
3995 Clear 26 1013 34 10000 8.2 290 18:42 06.01.2021
3996 Clear 25 1014 31 10000 2.1 0 18:24 06.01.2021
3997 Clear 25 1014 31 10000 2.1 0 17:43 06.01.2021
3998 Clear 25 1014 31 10000 2.1 0 17:25 06.01.2021
3999 Clear 22 1015 37 10000 3.1 320 16:51 06.01.2021
4000 Clear 22 1015 37 10000 3.1 320 16:20 06.01.2021
4001 Clear 19 1016 55 10000 2.6 250 15:54 06.01.2021
4002 Clear 19 1016 55 10000 2.6 250 15:32 06.01.2021
4003 Clear 16 1017 63 10000 2.6 260 14:56 06.01.2021
4004 Clear 16 1017 63 10000 2.6 260 14:27 06.01.2021
4005 Clear 14 1018 76 10000 2.1 270 13:47 06.01.2021
4006 Clear 14 1018 76 10000 2.1 270 13:24 06.01.2021
4007 Clear 12 1018 81 10000 2.6 270 12:49 06.01.2021
4008 Clear 12 1018 81 10000 2.6 270 12:26 06.01.2021
4009 Clouds 11 1018 87 10000 2.6 290 11:39 06.01.2021
4010 Clouds 11 1018 87 10000 2.6 290 11:20 06.01.2021
4011 Clouds 12 1017 81 10000 2.1 310 10:29 06.01.2021
4012 Clouds 12 1017 81 10000 2.1 300 09:51 06.01.2021
4013 Clouds 13 1016 76 10000 2.6 300 08:59 06.01.2021
4014 Clouds 13 1016 76 10000 2.6 300 08:38 06.01.2021
4015 Clouds 14 1017 71 10000 2.6 300 07:58 06.01.2021
4016 Clouds 14 1017 67 10000 3.1 300 06:55 06.01.2021
4017 Clear 15 1017 62 10000 3.1 290 05:34 06.01.2021
4018 Clear 17 1017 59 10000 2.6 300 04:34 06.01.2021
4019 Clear 20 1016 45 10000 0.5 0 02:47 06.01.2021
4020 Clear 20 1016 45 10000 0.5 0 02:25 06.01.2021
4021 Clear 26 1015 27 10000 5.1 290 00:51 06.01.2021
4022 Clear 27 1014 24 10000 5.1 280 23:31 05.01.2021
4023 Clear 28 1014 21 10000 5.7 0 22:44 05.01.2021
4024 Clear 28 1014 21 10000 5.7 0 22:21 05.01.2021
4025 Clear 29 1014 25 10000 3.6 0 21:56 05.01.2021
4026 Clear 28 1015 24 10000 5.1 130 20:56 05.01.2021
4027 Clear 28 1015 24 10000 5.1 130 20:25 05.01.2021
4028 Clear 28 1015 24 10000 4.6 130 19:44 05.01.2021
4029 Clear 28 1015 24 10000 4.6 130 19:21 05.01.2021
4030 Clear 26 1016 29 10000 3.1 360 18:44 05.01.2021
4031 Clear 26 1016 29 10000 3.1 360 18:44 05.01.2021
4032 Clear 26 1016 29 10000 3.1 360 18:25 05.01.2021
4033 Clear 23 1017 33 10000 2.6 330 17:50 05.01.2021
4034 Clear 21 1018 46 10000 1 0 17:29 05.01.2021
4035 Clear 21 1018 46 10000 1 0 16:53 05.01.2021
4036 Clear 18 1019 52 10000 1 0 16:22 05.01.2021
4037 Clear 18 1019 52 10000 1 0 15:51 05.01.2021
4038 Clear 18 1019 52 10000 1 0 15:25 05.01.2021
4039 Clear 14 1020 62 10000 1 0 14:41 05.01.2021
4040 Clear 12 1020 71 10000 1.5 110 13:51 05.01.2021
4041 Clear 12 1020 71 10000 1.5 110 13:30 05.01.2021
4042 Clear 9 1021 87 10000 0.5 0 12:50 05.01.2021
4043 Clear 9 1021 87 10000 0.5 0 12:28 05.01.2021
4044 Clear 6 1020 93 10000 0.5 0 11:40 05.01.2021
4045 Clear 6 1020 93 10000 0.5 0 11:20 05.01.2021
4046 Clear 6 1020 93 10000 0.5 0 11:19 05.01.2021
4047 Clear 7 1020 93 10000 0.18 78 10:43 05.01.2021
4048 Clear 8 1020 93 10000 1.5 300 09:50 05.01.2021
4049 Clear 8 1020 93 10000 1.5 300 09:30 05.01.2021
4050 Clear 9 1019 87 10000 0.11 201 08:28 05.01.2021
4051 Clear 10 1019 81 10000 1 0 07:46 05.01.2021
4052 Clear 14 1019 58 10000 2.6 270 04:58 05.01.2021
4053 Clear 24 1018 22 10000 4.1 300 00:59 05.01.2021
4054 Clear 25 1017 24 10000 3.1 290 23:59 04.01.2021
4055 Clear 25 1017 24 10000 3.1 290 23:36 04.01.2021
4056 Clear 25 1017 23 10000 3.1 290 23:18 04.01.2021
4057 Clear 24 1017 23 10000 2.1 30 22:41 04.01.2021
4058 Clear 24 1018 23 10000 2.6 0 21:53 04.01.2021
4059 Clear 24 1018 23 10000 2.6 0 21:35 04.01.2021
4060 Clear 23 1019 20 10000 2.6 330 20:51 04.01.2021
4061 Clear 23 1019 20 10000 2.6 330 20:31 04.01.2021
4062 Clear 22 1019 26 10000 1 0 19:53 04.01.2021
4063 Clear 22 1019 26 10000 1 0 19:29 04.01.2021
4064 Clear 20 1020 28 10000 3.1 330 18:58 04.01.2021
4065 Clear 20 1020 28 10000 3.1 330 18:25 04.01.2021
4066 Clear 18 1021 34 10000 2.6 290 17:44 04.01.2021
4067 Clear 18 1021 34 10000 2.6 290 17:25 04.01.2021
4068 Clear 18 1019 28 10000 0.95 140 16:48 04.01.2021
4069 Clear 15 1022 51 10000 2.6 0 16:27 04.01.2021
4070 Clear 15 1022 51 10000 2.6 0 15:50 04.01.2021
4071 Clear 12 1023 62 10000 1.5 0 15:31 04.01.2021
4072 Clear 12 1023 62 10000 1.5 0 14:46 04.01.2021
4073 Clear 11 1023 66 10000 0.5 0 13:48 04.01.2021
4074 Clear 11 1023 66 10000 0.5 0 13:25 04.01.2021
4075 Clear 8 1023 81 10000 1.5 120 12:44 04.01.2021
4076 Clear 7 1022 81 10000 3.6 290 11:58 04.01.2021
4077 Clear 7 1022 81 10000 3.6 290 11:22 04.01.2021
4078 Clear 7 1022 75 10000 3.1 280 10:49 04.01.2021
4079 Clear 7 1022 75 10000 3.1 280 10:28 04.01.2021
4080 Clear 7 1021 81 10000 3.6 290 09:53 04.01.2021
4081 Clear 7 1021 81 10000 3.6 290 09:20 04.01.2021
4082 Clear 8 1021 75 10000 3.1 280 08:46 04.01.2021
4083 Clear 9 1021 70 10000 3.6 290 07:58 04.01.2021
4084 Clear 9 1021 70 10000 3.6 290 07:37 04.01.2021
4085 Clear 9 1021 66 10000 2.1 300 05:33 04.01.2021
4086 Clear 13 1020 47 10000 2.1 0 03:40 04.01.2021
4087 Clouds 18 1018 27 10000 3.1 250 00:47 04.01.2021
4088 Clear 20 1017 27 10000 8.2 300 23:49 03.01.2021
4089 Clear 20 1017 27 10000 8.2 300 23:49 03.01.2021
4090 Clear 20 1017 24 10000 8.2 300 23:21 03.01.2021
4091 Clouds 21 1017 24 10000 8.2 290 22:52 03.01.2021
4092 Clouds 21 1017 24 10000 8.2 290 22:30 03.01.2021
4093 Clear 22 1017 23 10000 7.7 290 21:48 03.01.2021
4094 Clear 22 1017 21 10000 7.7 290 21:26 03.01.2021
4095 Clear 22 1017 21 10000 7.7 290 21:26 03.01.2021
4096 Clear 22 1017 24 10000 9.3 290 20:45 03.01.2021
4097 Clear 22 1017 24 10000 9.3 290 20:26 03.01.2021
4098 Clear 22 1017 21 10000 9.3 290 19:55 03.01.2021
4099 Clear 21 1017 26 10000 7.2 280 19:34 03.01.2021
4100 Clear 21 1017 26 10000 7.2 280 18:56 03.01.2021
4101 Clear 21 1017 26 10000 7.2 280 18:38 03.01.2021
4102 Clear 21 1017 23 10000 7.7 280 17:59 03.01.2021
4103 Clear 21 1017 23 10000 7.7 280 17:40 03.01.2021
4104 Clear 21 1017 26 10000 7.7 280 17:22 03.01.2021
4105 Clear 20 1017 28 10000 4.1 270 16:42 03.01.2021
4106 Clear 20 1017 28 10000 4.1 270 16:19 03.01.2021
4107 Clear 18 1017 36 10000 4.1 300 15:45 03.01.2021
4108 Clear 18 1017 36 10000 4.1 300 15:23 03.01.2021
4109 Clear 17 1018 42 10000 3.1 290 14:44 03.01.2021
4110 Clear 17 1018 42 10000 3.1 290 14:22 03.01.2021
4111 Clear 15 1018 54 10000 4.6 310 13:38 03.01.2021
4112 Clear 15 1018 54 10000 4.6 310 13:19 03.01.2021
4113 Clear 12 1017 71 10000 3.6 280 11:53 03.01.2021
4114 Clear 14 1017 62 10000 3.6 260 11:34 03.01.2021
4115 Clear 14 1017 62 10000 3.6 260 10:58 03.01.2021
4116 Clear 14 1017 62 10000 3.6 260 10:33 03.01.2021
4117 Clear 15 1016 58 10000 3.6 230 09:52 03.01.2021
4118 Clear 15 1016 58 10000 3.6 230 09:26 03.01.2021
4119 Clear 15 1016 58 10000 4.6 0 08:31 03.01.2021
4120 Clouds 16 1016 67 10000 3.1 280 06:57 03.01.2021
4121 Clouds 17 1015 77 10000 2.6 310 03:29 03.01.2021
4122 Rain 18 1015 68 10000 4.6 250 02:26 03.01.2021
4123 Clear 25 1011 29 10000 6.7 300 00:27 03.01.2021
4124 Clear 25 1011 29 10000 6.7 300 23:46 02.01.2021
4125 Clear 25 1011 29 10000 6.7 300 23:19 02.01.2021
4126 Clear 27 1011 28 10000 9.8 290 22:47 02.01.2021
4127 Clear 27 1011 28 10000 9.8 290 22:28 02.01.2021
4128 Clear 27 1011 32 10000 8.7 290 21:47 02.01.2021
4129 Clear 27 1011 32 10000 8.7 290 21:28 02.01.2021
4130 Clear 28 1011 32 10000 8.2 290 20:45 02.01.2021
4131 Clear 28 1011 32 10000 8.2 290 20:25 02.01.2021
4132 Clear 27 1012 30 10000 3.6 300 19:44 02.01.2021
4133 Clear 27 1012 30 10000 3.6 300 19:20 02.01.2021
4134 Clear 27 1012 30 10000 3.6 300 19:20 02.01.2021
4135 Clear 26 1012 26 10000 3.6 300 18:43 02.01.2021
4136 Clear 26 1012 26 10000 3.6 300 18:25 02.01.2021
4137 Clear 24 1013 25 10000 3.6 320 17:46 02.01.2021
4138 Clear 24 1013 25 10000 3.6 320 17:26 02.01.2021
4139 Clear 23 1013 24 10000 1.67 245 16:41 02.01.2021
4140 Clear 18 1015 42 10000 2.1 0 16:20 02.01.2021
4141 Clear 18 1015 42 10000 2.1 0 15:43 02.01.2021
4142 Clear 18 1015 42 10000 2.1 0 15:25 02.01.2021
4143 Clear 15 1017 51 10000 2.1 280 14:37 02.01.2021
4144 Clear 15 1017 51 10000 2.1 280 14:18 02.01.2021
4145 Clear 13 1018 58 10000 2.6 290 13:39 02.01.2021
4146 Clear 10 1018 71 10000 2.6 310 12:54 02.01.2021
4147 Clear 10 1018 71 10000 2.6 310 12:32 02.01.2021
4148 Clear 7 1018 87 10000 3.1 300 11:48 02.01.2021
4149 Clear 7 1018 87 10000 3.1 300 11:22 02.01.2021
4150 Clear 8 1018 75 10000 2.6 280 10:51 02.01.2021
4151 Clear 8 1018 75 10000 2.6 280 10:28 02.01.2021
4152 Clear 9 1018 70 10000 2.6 290 09:52 02.01.2021
4153 Clear 9 1018 70 10000 2.6 290 09:23 02.01.2021
4154 Clear 10 1018 66 10000 4.1 280 08:50 02.01.2021
4155 Clear 10 1018 66 10000 4.1 280 08:25 02.01.2021
4156 Clear 10 1019 66 10000 2.6 300 07:44 02.01.2021
4157 Clear 10 1019 66 10000 2.6 300 07:21 02.01.2021
4158 Clear 11 1019 57 10000 2.6 290 06:28 02.01.2021
4159 Clear 13 1019 54 10000 2.1 280 04:44 02.01.2021
4160 Clear 23 1016 20 10000 3.1 260 00:56 02.01.2021
4161 Clear 23 1016 20 10000 3.1 260 00:35 02.01.2021
4162 Clear 25 1016 20 10000 3.6 270 23:49 01.01.2021
4163 Clear 25 1016 20 10000 3.6 270 23:20 01.01.2021
4164 Clear 25 1016 17 10000 5.1 270 22:47 01.01.2021
4165 Clear 25 1016 17 10000 5.1 270 22:22 01.01.2021
4166 Clear 26 1015 21 10000 5.7 280 21:44 01.01.2021
4167 Clear 26 1015 19 10000 5.7 280 21:22 01.01.2021
4168 Clear 25 1016 19 10000 5.7 310 20:52 01.01.2021
4169 Clear 25 1016 19 10000 5.7 310 20:20 01.01.2021
4170 Clear 25 1016 23 10000 3.1 0 19:43 01.01.2021
4171 Clear 25 1016 23 10000 3.1 0 19:23 01.01.2021
4172 Clear 24 1016 31 10000 3.6 0 18:52 01.01.2021
4173 Clear 24 1016 31 10000 3.6 0 18:34 01.01.2021
4174 Clear 22 1016 35 10000 4.1 290 17:59 01.01.2021
4175 Clear 22 1016 35 10000 4.1 290 17:41 01.01.2021
4176 Clear 19 1017 52 10000 3.6 300 17:18 01.01.2021
4177 Clear 19 1017 52 10000 3.6 300 16:37 01.01.2021
4178 Clear 17 1017 63 10000 4.1 300 15:45 01.01.2021
4179 Clear 14 1018 71 10000 2.1 290 14:56 01.01.2021
4180 Clear 14 1018 71 10000 2.1 290 14:37 01.01.2021
4181 Clear 12 1018 81 10000 2.6 250 13:46 01.01.2021
4182 Clear 12 1018 81 10000 2.6 250 13:25 01.01.2021
4183 Clear 10 1018 87 10000 2.6 270 12:43 01.01.2021
4184 Clear 10 1018 87 10000 2.6 270 12:18 01.01.2021
4185 Clear 8 1018 93 10000 2.6 290 11:39 01.01.2021
4186 Clear 8 1018 93 10000 2.6 290 11:18 01.01.2021
4187 Clear 8 1018 100 10000 3.1 290 10:35 01.01.2021
4188 Clear 9 1017 93 10000 3.6 290 09:47 01.01.2021
4189 Clear 9 1017 93 10000 3.6 290 09:20 01.01.2021
4190 Clear 9 1017 93 10000 2.1 290 08:29 01.01.2021
4191 Clouds 13 1018 76 10000 1.5 280 04:53 01.01.2021
4192 Clear 16 1018 63 10000 4.1 310 02:44 01.01.2021
4193 Clear 16 1017 63 10000 4.1 310 01:35 01.01.2021
4194 Clear 17 1017 55 10000 4.6 320 00:28 01.01.2021
4195 Clear 18 1016 52 10000 4.6 310 23:36 31.12.2020
4196 Clear 18 1016 52 10000 4.6 310 23:18 31.12.2020
4197 Clear 18 1016 52 10000 5.7 310 22:38 31.12.2020
4198 Clear 18 1016 52 10000 5.7 310 22:19 31.12.2020
4199 Clouds 18 1016 52 10000 5.1 300 21:47 31.12.2020
4200 Clouds 18 1016 52 10000 5.1 300 21:24 31.12.2020
4201 Clouds 18 1017 55 10000 2.6 0 20:49 31.12.2020
4202 Clouds 18 1017 55 10000 2.6 0 20:18 31.12.2020
4203 Clouds 18 1017 52 10000 3.6 0 19:46 31.12.2020
4204 Clouds 18 1017 52 10000 3.6 0 19:28 31.12.2020
4205 Clouds 17 1017 51 10000 4.6 0 18:49 31.12.2020
4206 Clouds 17 1017 51 10000 4.6 0 18:24 31.12.2020
4207 Clouds 16 1018 55 10000 3.1 320 17:44 31.12.2020
4208 Clouds 16 1018 55 10000 3.1 320 17:23 31.12.2020
4209 Clouds 15 1018 62 10000 4.1 290 16:43 31.12.2020
4210 Clouds 15 1018 62 10000 4.1 290 16:43 31.12.2020
4211 Clouds 15 1018 62 10000 4.1 290 16:43 31.12.2020
4212 Clouds 15 1018 62 10000 4.1 290 16:23 31.12.2020
4213 Clouds 13 1018 62 10000 3.6 330 15:46 31.12.2020
4214 Clouds 13 1018 62 10000 3.6 330 15:22 31.12.2020
4215 Clouds 13 1016 59 10000 3.74 258 14:56 31.12.2020
4216 Clouds 12 1018 66 10000 2.6 300 14:37 31.12.2020
4217 Clouds 12 1018 66 10000 2.6 300 14:19 31.12.2020
4218 Clouds 12 1018 66 10000 2.6 300 14:19 31.12.2020
4219 Clouds 12 1018 66 10000 2.6 300 13:38 31.12.2020
4220 Clouds 12 1018 66 10000 2.6 300 13:19 31.12.2020
4221 Clouds 11 1018 71 10000 3.1 330 12:53 31.12.2020
4222 Clouds 11 1018 71 10000 3.1 330 12:34 31.12.2020
4223 Clouds 12 1018 62 10000 4.6 0 11:51 31.12.2020
4224 Clouds 12 1018 62 10000 4.6 0 11:32 31.12.2020
4225 Clouds 12 1018 62 10000 3.1 250 10:46 31.12.2020
4226 Clouds 12 1018 62 10000 3.1 250 10:28 31.12.2020
4227 Clouds 12 1017 62 10000 5.1 270 09:51 31.12.2020
4228 Clouds 12 1017 62 10000 5.1 270 09:26 31.12.2020
4229 Clouds 11 1017 66 10000 5.1 260 08:50 31.12.2020
4230 Clouds 11 1017 66 10000 5.1 260 08:31 31.12.2020
4231 Clouds 11 1018 66 10000 4.6 270 07:56 31.12.2020
4232 Clouds 11 1018 66 10000 4.6 270 07:27 31.12.2020
4233 Clouds 11 1018 62 10000 5.7 270 05:30 31.12.2020
4234 Clouds 11 1018 66 10000 4.6 270 03:38 31.12.2020
4235 Rain 11 1018 71 10000 5.7 270 02:44 31.12.2020
4236 Rain 11 1018 71 10000 5.7 270 02:25 31.12.2020
4237 Clouds 12 1018 62 10000 8.7 290 01:43 31.12.2020
4238 Clouds 12 1018 62 10000 8.7 290 01:21 31.12.2020
4239 Clouds 13 1018 58 10000 10.3 290 00:41 31.12.2020
4240 Clouds 13 1017 62 10000 9.3 280 23:41 30.12.2020
4241 Clouds 13 1017 62 10000 9.3 280 23:19 30.12.2020
4242 Clouds 13 1017 58 10000 11.3 290 22:43 30.12.2020
4243 Clouds 13 1017 58 10000 11.3 290 22:23 30.12.2020
4244 Rain 14 1017 54 10000 11.3 280 21:38 30.12.2020
4245 Rain 14 1017 54 10000 11.3 280 21:19 30.12.2020
4246 Clouds 14 1017 50 10000 11.3 290 20:41 30.12.2020
4247 Clouds 14 1017 50 10000 11.3 290 20:20 30.12.2020
4248 Rain 15 1017 51 10000 11.8 290 19:38 30.12.2020
4249 Rain 15 1017 51 10000 11.8 290 19:19 30.12.2020
4250 Rain 15 1017 51 10000 11.8 290 18:41 30.12.2020
4251 Rain 15 1017 51 10000 11.8 290 18:22 30.12.2020
4252 Clouds 14 1017 54 10000 10.8 290 17:50 30.12.2020
4253 Clouds 14 1017 54 10000 10.8 290 17:30 30.12.2020
4254 Rain 13 1017 58 10000 8.7 280 16:48 30.12.2020
4255 Rain 13 1017 58 10000 8.7 280 16:20 30.12.2020
4256 Clouds 13 1018 58 10000 6.2 260 15:42 30.12.2020
4257 Clouds 13 1018 58 10000 6.2 260 15:24 30.12.2020
4258 Rain 11 1018 62 10000 6.2 300 14:43 30.12.2020
4259 Rain 11 1018 62 10000 6.2 300 14:22 30.12.2020
4260 Rain 10 1018 76 10000 2.6 310 13:20 30.12.2020
4261 Clouds 9 1018 76 10000 2.6 0 12:27 30.12.2020
4262 Clouds 8 1017 75 10000 2.1 240 11:49 30.12.2020
4263 Clouds 8 1017 75 10000 2.1 240 11:23 30.12.2020
4264 Clouds 9 1017 70 10000 3.6 220 10:59 30.12.2020
4265 Clouds 9 1017 70 10000 3.6 220 10:39 30.12.2020
4266 Clouds 9 1017 70 10000 3.6 220 10:20 30.12.2020
4267 Clouds 8 1016 75 10000 4.6 240 09:44 30.12.2020
4268 Clouds 8 1016 70 10000 2.6 0 08:54 30.12.2020
4269 Clouds 8 1016 70 10000 4.6 160 07:53 30.12.2020
4270 Clear 8 1016 70 10000 4.6 160 07:27 30.12.2020
4271 Clear 8 1016 70 10000 4.6 250 06:40 30.12.2020
4272 Clear 8 1016 65 10000 6.2 290 05:49 30.12.2020
4273 Clear 8 1016 65 10000 6.2 290 05:30 30.12.2020
4274 Clear 9 1014 57 10000 9.8 290 03:43 30.12.2020
4275 Clear 9 1014 57 10000 9.8 290 03:23 30.12.2020
4276 Clear 9 1014 57 10000 7.7 290 02:34 30.12.2020
4277 Clear 10 1013 57 10000 9.3 290 01:46 30.12.2020
4278 Clear 10 1013 57 10000 9.3 290 01:46 30.12.2020
4279 Clouds 10 1013 57 10000 9.3 290 01:28 30.12.2020
4280 Clouds 10 1011 61 10000 10.3 290 00:41 30.12.2020
4281 Clouds 10 1011 61 10000 10.3 290 00:22 30.12.2020
4282 Rain 11 1010 62 10000 12.3 290 23:43 29.12.2020
4283 Rain 11 1010 62 10000 12.3 290 23:24 29.12.2020
4284 Rain 11 1008 81 10000 8.7 280 22:49 29.12.2020
4285 Rain 11 1008 81 10000 8.7 280 22:31 29.12.2020
4286 Rain 11 1008 87 10000 4.1 270 21:54 29.12.2020
4287 Rain 11 1008 87 10000 4.1 270 21:36 29.12.2020
4288 Rain 15 1007 62 10000 8.2 270 20:55 29.12.2020
4289 Rain 15 1007 62 10000 8.2 270 20:37 29.12.2020
4290 Rain 15 1007 62 10000 8.2 270 20:19 29.12.2020
4291 Rain 17 1006 48 10000 7.7 270 19:40 29.12.2020
4292 Rain 17 1006 48 10000 7.7 270 19:20 29.12.2020
4293 Rain 15 1007 67 10000 7.2 290 18:46 29.12.2020
4294 Rain 15 1007 67 10000 7.2 290 18:27 29.12.2020
4295 Rain 16 1007 67 10000 6.7 270 17:44 29.12.2020
4296 Rain 16 1007 67 10000 6.7 270 17:20 29.12.2020
4297 Rain 13 1008 87 7000 6.7 270 16:46 29.12.2020
4298 Rain 13 1008 87 7000 6.7 270 16:24 29.12.2020
4299 Rain 17 1006 59 10000 2.1 0 15:37 29.12.2020
4300 Rain 17 1006 59 10000 2.1 0 15:18 29.12.2020
4301 Rain 17 1007 55 10000 3.1 270 14:36 29.12.2020
4302 Rain 17 1007 55 10000 3.1 270 14:18 29.12.2020
4303 Rain 16 1008 67 10000 1 0 13:45 29.12.2020
4304 Clouds 16 1008 67 10000 1 0 13:20 29.12.2020
4305 Clouds 14 1008 87 10000 1 0 12:37 29.12.2020
4306 Clouds 14 1008 87 10000 1 0 12:19 29.12.2020
4307 Clouds 13 1008 93 10000 1 0 11:52 29.12.2020
4308 Clouds 13 1008 93 10000 1 0 11:31 29.12.2020
4309 Clouds 13 1009 87 10000 0.5 0 10:27 29.12.2020
4310 Clouds 14 1009 87 10000 2.34 303 09:48 29.12.2020
4311 Clouds 14 1009 87 10000 2.21 312 09:20 29.12.2020
4312 Clouds 14 1009 87 10000 2.21 312 09:20 29.12.2020
4313 Clouds 15 1010 82 10000 2.1 310 08:53 29.12.2020
4314 Clouds 15 1010 82 10000 2.1 310 08:22 29.12.2020
4315 Clouds 15 1011 82 10000 1 290 07:26 29.12.2020
4316 Clouds 15 1012 82 10000 1 0 06:26 29.12.2020
4317 Clouds 18 1014 68 10000 1 0 03:45 29.12.2020
4318 Clouds 20 1013 52 10000 3.1 0 00:47 29.12.2020
4319 Clouds 21 1013 49 10000 4.6 260 23:55 28.12.2020
4320 Clouds 21 1013 49 10000 4.6 260 23:33 28.12.2020
4321 Clouds 21 1013 52 10000 7.2 280 22:24 28.12.2020
4322 Clouds 22 1014 49 10000 6.7 280 21:44 28.12.2020
4323 Clouds 22 1014 49 10000 6.7 280 21:24 28.12.2020
4324 Clouds 22 1014 46 10000 4.1 290 20:40 28.12.2020
4325 Clouds 22 1014 46 10000 4.1 290 20:22 28.12.2020
4326 Clouds 22 1014 46 10000 5.1 270 19:46 28.12.2020
4327 Clouds 22 1014 46 10000 5.1 270 19:23 28.12.2020
4328 Clouds 24 1012 28 10000 4.96 273 18:50 28.12.2020
4329 Clear 23 1014 40 10000 6.2 290 18:28 28.12.2020
4330 Clear 23 1014 40 10000 6.2 290 17:42 28.12.2020
4331 Clear 23 1014 40 10000 6.2 290 17:23 28.12.2020
4332 Clear 22 1014 43 10000 4.6 290 16:38 28.12.2020
4333 Clear 22 1014 43 10000 4.6 290 16:20 28.12.2020
4334 Clouds 21 1014 52 10000 3.6 310 15:45 28.12.2020
4335 Clouds 18 1014 68 10000 2.6 290 14:56 28.12.2020
4336 Clouds 17 1015 72 10000 2.6 280 13:55 28.12.2020
4337 Clouds 17 1015 72 10000 2.6 280 13:32 28.12.2020
4338 Clouds 14 1015 87 10000 2.6 300 12:41 28.12.2020
4339 Clouds 14 1015 87 10000 2.6 300 12:22 28.12.2020
4340 Clear 11 1015 93 10000 2.15 277 11:45 28.12.2020
4341 Clear 11 1015 93 10000 2.41 280 11:24 28.12.2020
4342 Clear 12 1015 93 10000 0.5 0 10:45 28.12.2020
4343 Clear 12 1015 93 10000 0.5 0 10:27 28.12.2020
4344 Clear 12 1015 93 10000 2.02 287 09:46 28.12.2020
4345 Clear 12 1015 93 10000 1.88 286 09:19 28.12.2020
4346 Clear 13 1016 87 10000 1.89 280 07:35 28.12.2020
4347 Clear 14 1016 87 10000 2.6 320 06:50 28.12.2020
4348 Clear 16 1015 77 10000 2.6 300 04:31 28.12.2020
4349 Clear 21 1014 49 10000 2.1 0 02:22 28.12.2020
4350 Clear 23 1012 46 10000 8.2 290 00:53 28.12.2020
4351 Clear 25 1011 41 10000 9.8 300 23:46 27.12.2020
4352 Clear 27 1010 36 10000 8.7 290 23:19 27.12.2020
4353 Clear 28 1010 32 10000 8.7 300 21:57 27.12.2020
4354 Clear 28 1010 32 10000 8.7 300 21:57 27.12.2020
4355 Clear 28 1010 32 10000 8.7 300 21:26 27.12.2020
4356 Clear 28 1010 34 10000 5.7 280 20:47 27.12.2020
4357 Clear 29 1010 32 10000 5.7 270 19:25 27.12.2020
4358 Clear 28 1010 42 10000 4.1 300 18:57 27.12.2020
4359 Clear 28 1010 42 10000 4.1 300 18:38 27.12.2020
4360 Clear 28 1010 42 10000 4.1 300 18:18 27.12.2020
4361 Clear 25 1011 50 10000 3.1 320 17:43 27.12.2020
4362 Clear 25 1011 50 10000 3.1 320 17:21 27.12.2020
4363 Clear 23 1012 53 10000 2.1 0 16:30 27.12.2020
4364 Clear 20 1013 64 10000 1.5 260 15:40 27.12.2020
4365 Clear 18 1014 72 10000 1.5 320 14:58 27.12.2020
4366 Clear 18 1014 72 10000 1.5 320 14:38 27.12.2020
4367 Clear 16 1014 82 10000 1.02 243 13:43 27.12.2020
4368 Clear 16 1014 82 10000 0.67 258 13:19 27.12.2020
4369 Clouds 13 1014 93 10000 2.6 280 12:41 27.12.2020
4370 Clear 11 1014 100 10000 2.6 290 11:46 27.12.2020
4371 Clear 11 1014 100 10000 2.6 290 11:28 27.12.2020
4372 Clouds 10 1014 100 10000 1.5 110 10:51 27.12.2020
4373 Clear 11 1014 100 10000 2.1 290 10:23 27.12.2020
4374 Clear 11 1014 100 10000 2.1 290 09:41 27.12.2020
4375 Clear 12 1014 93 10000 0.64 273 08:29 27.12.2020
4376 Clear 12 1014 93 10000 0.64 273 08:29 27.12.2020
4377 Clear 12 1014 100 10000 0.64 273 07:58 27.12.2020
4378 Clear 12 1014 100 10000 0.65 271 07:25 27.12.2020
4379 Clear 14 1015 87 10000 1.5 270 05:39 27.12.2020
4380 Clear 16 1015 82 10000 2.6 310 03:26 27.12.2020
4381 Clear 19 1014 68 10000 2.1 310 02:40 27.12.2020
4382 Clear 24 1014 44 10000 4.6 300 00:58 27.12.2020
4383 Clear 25 1014 41 10000 4.6 300 23:44 26.12.2020
4384 Clear 25 1014 41 10000 4.6 300 23:26 26.12.2020
4385 Clear 25 1014 41 10000 5.1 300 22:46 26.12.2020
4386 Clear 25 1014 41 10000 5.1 300 22:20 26.12.2020
4387 Clear 25 1014 41 10000 5.1 300 21:54 26.12.2020
4388 Clear 25 1014 41 10000 5.1 300 21:31 26.12.2020
4389 Clear 25 1014 41 10000 3.6 0 20:46 26.12.2020
4390 Clear 25 1014 41 10000 3.6 0 20:26 26.12.2020
4391 Clear 24 1015 47 10000 4.6 280 19:50 26.12.2020
4392 Clouds 24 1015 47 10000 4.6 280 19:22 26.12.2020
4393 Clouds 23 1015 49 10000 4.1 280 18:36 26.12.2020
4394 Clouds 22 1015 53 10000 5.1 290 17:48 26.12.2020
4395 Clouds 22 1015 53 10000 5.1 290 17:29 26.12.2020
4396 Clouds 21 1016 60 10000 3.6 280 16:40 26.12.2020
4397 Clouds 21 1016 60 10000 3.6 280 16:21 26.12.2020
4398 Clouds 19 1016 68 10000 3.1 300 15:24 26.12.2020
4399 Clouds 17 1017 77 10000 2.6 300 14:44 26.12.2020
4400 Clouds 17 1017 77 10000 2.6 300 14:20 26.12.2020
4401 Clouds 16 1016 82 10000 2.1 300 13:39 26.12.2020
4402 Clouds 16 1016 82 10000 2.1 300 13:20 26.12.2020
4403 Clouds 14 1016 93 10000 1.5 350 12:42 26.12.2020
4404 Clouds 13 1016 93 10000 1 0 12:19 26.12.2020
4405 Clouds 13 1016 93 10000 1 0 11:42 26.12.2020
4406 Clouds 13 1016 93 10000 1 0 11:20 26.12.2020
4407 Clouds 13 1016 93 10000 1.5 300 10:49 26.12.2020
4408 Clouds 13 1016 93 10000 1.5 300 10:27 26.12.2020
4409 Clouds 13 1016 93 10000 0.5 0 09:49 26.12.2020
4410 Clouds 15 1015 82 10000 2.1 260 08:56 26.12.2020
4411 Clouds 15 1015 82 10000 2.1 260 08:20 26.12.2020
4412 Clouds 13 1016 93 10000 2.1 300 07:21 26.12.2020
4413 Clear 15 1017 87 10000 0.5 0 05:52 26.12.2020
4414 Clear 17 1016 77 10000 1 0 02:48 26.12.2020
4415 Clouds 19 1015 63 10000 4.1 270 00:40 26.12.2020
4416 Clouds 20 1015 64 10000 4.1 270 23:56 25.12.2020
4417 Clouds 20 1015 64 10000 4.1 270 23:37 25.12.2020
4418 Clouds 20 1015 64 10000 4.1 270 23:19 25.12.2020
4419 Clouds 19 1015 63 10000 6.2 270 22:26 25.12.2020
4420 Clouds 20 1015 60 10000 4.6 0 21:44 25.12.2020
4421 Clouds 20 1015 60 10000 4.6 0 21:25 25.12.2020
4422 Clouds 21 1014 60 10000 6.7 280 20:45 25.12.2020
4423 Clouds 21 1014 60 10000 6.7 280 20:27 25.12.2020
4424 Clouds 22 1014 60 10000 4.6 270 19:43 25.12.2020
4425 Clouds 19 1015 77 10000 2.6 0 18:49 25.12.2020
4426 Clouds 19 1015 77 10000 2.6 0 18:30 25.12.2020
4427 Rain 16 1015 93 10000 1.5 310 17:35 25.12.2020
4428 Rain 15 1015 93 10000 2.6 300 16:55 25.12.2020
4429 Rain 15 1015 93 10000 2.6 300 16:25 25.12.2020
4430 Rain 15 1016 87 10000 2.6 280 15:50 25.12.2020
4431 Rain 15 1016 87 10000 2.6 280 15:31 25.12.2020
4432 Rain 15 1016 87 10000 0.5 0 14:32 25.12.2020
4433 Rain 13 1016 93 10000 1.67 282 13:57 25.12.2020
4434 Rain 13 1016 93 10000 1.67 282 13:37 25.12.2020
4435 Rain 13 1016 93 10000 1.45 288 13:18 25.12.2020
4436 Rain 13 1016 93 10000 1.45 288 13:18 25.12.2020
4437 Rain 13 1016 93 10000 2.31 295 12:27 25.12.2020
4438 Rain 12 1016 100 10000 2.31 295 11:48 25.12.2020
4439 Rain 12 1016 100 10000 1.94 298 11:24 25.12.2020
4440 Rain 12 1016 100 10000 1.94 298 11:24 25.12.2020
4441 Clouds 11 1016 100 10000 1.94 298 10:47 25.12.2020
4442 Clouds 11 1016 100 10000 2.31 296 10:19 25.12.2020
4443 Clouds 12 1015 93 10000 1.5 0 09:26 25.12.2020
4444 Clouds 12 1015 100 10000 2.37 317 08:37 25.12.2020
4445 Rain 13 1016 93 10000 2.1 260 06:52 25.12.2020
4446 Rain 13 1016 93 10000 2.1 260 06:21 25.12.2020
4447 Rain 14 1015 87 10000 1.5 260 02:23 25.12.2020
4448 Clouds 17 1014 67 10000 5.7 270 00:32 25.12.2020
4449 Clouds 18 1014 63 10000 6.7 290 23:32 24.12.2020
4450 Clouds 20 1013 52 10000 4.6 310 22:55 24.12.2020
4451 Clouds 20 1013 52 10000 4.6 310 22:25 24.12.2020
4452 Rain 17 1014 77 10000 5.1 270 21:52 24.12.2020
4453 Rain 17 1013 77 10000 3.1 0 20:59 24.12.2020
4454 Rain 17 1013 88 9000 2.6 320 19:54 24.12.2020
4455 Rain 16 1013 82 8000 1 0 18:22 24.12.2020
4456 Rain 12 1011 66 10000 4.1 270 17:39 24.12.2020
4457 Rain 12 1011 66 10000 4.1 270 17:21 24.12.2020
4458 Rain 12 1011 66 10000 4.1 270 16:25 24.12.2020
4459 Rain 12 1011 66 10000 4.1 270 15:49 24.12.2020
4460 Rain 16 1011 77 10000 1 0 15:25 24.12.2020
4461 Rain 15 1011 77 9000 2.1 0 14:56 24.12.2020
4462 Rain 15 1011 77 9000 2.1 0 14:37 24.12.2020
4463 Rain 15 1011 77 9000 2.1 0 14:18 24.12.2020
4464 Rain 14 1011 82 10000 3.6 310 13:38 24.12.2020
4465 Rain 14 1011 82 10000 3.6 310 13:18 24.12.2020
4466 Rain 14 1011 76 10000 3.1 0 12:39 24.12.2020
4467 Rain 14 1011 76 10000 3.1 0 12:18 24.12.2020
4468 Rain 14 1010 71 10000 3.6 0 11:38 24.12.2020
4469 Rain 14 1010 71 10000 3.6 0 11:19 24.12.2020
4470 Rain 14 1010 71 10000 3.1 300 10:43 24.12.2020
4471 Rain 15 1009 67 10000 5.7 270 09:58 24.12.2020
4472 Rain 15 1009 67 10000 5.7 270 09:40 24.12.2020
4473 Clouds 15 1009 62 10000 5.1 270 08:48 24.12.2020
4474 Clouds 15 1009 62 10000 4.1 0 07:51 24.12.2020
4475 Clouds 15 1009 62 10000 4.1 0 07:51 24.12.2020
4476 Clouds 15 1009 62 10000 4.1 0 07:30 24.12.2020
4477 Clouds 16 1010 59 10000 4.6 0 06:23 24.12.2020
4478 Rain 14 1011 71 10000 6.2 260 03:23 24.12.2020
4479 Rain 14 1011 71 10000 5.7 270 01:48 24.12.2020
4480 Rain 14 1011 71 10000 5.7 270 01:48 24.12.2020
4481 Rain 14 1011 71 10000 5.7 270 01:18 24.12.2020
4482 Rain 16 1010 59 10000 8.7 270 00:23 24.12.2020
4483 Clouds 16 1010 59 10000 9.3 270 23:56 23.12.2020
4484 Clouds 16 1010 59 10000 9.3 270 23:38 23.12.2020
4485 Clouds 16 1010 59 10000 9.3 270 23:18 23.12.2020
4486 Clouds 17 1011 51 10000 8.2 270 22:42 23.12.2020
4487 Clouds 17 1011 51 10000 8.2 270 22:19 23.12.2020
4488 Clouds 18 1011 45 10000 11.3 290 21:32 23.12.2020
4489 Clear 19 1011 42 10000 10.3 290 20:59 23.12.2020
4490 Clear 19 1011 42 10000 10.3 290 20:37 23.12.2020
4491 Clear 19 1011 42 10000 10.3 290 20:19 23.12.2020
4492 Clear 19 1011 37 10000 11.3 290 19:42 23.12.2020
4493 Clear 19 1011 37 10000 11.3 290 19:22 23.12.2020
4494 Clear 19 1012 37 10000 9.3 290 18:52 23.12.2020
4495 Clear 19 1012 37 10000 9.3 290 18:34 23.12.2020
4496 Clear 18 1012 39 10000 8.2 290 17:43 23.12.2020
4497 Clouds 18 1012 42 10000 7.7 290 17:22 23.12.2020
4498 Clouds 18 1012 42 10000 7.7 290 16:56 23.12.2020
4499 Clouds 18 1012 42 10000 7.7 290 16:31 23.12.2020
4500 Clear 17 1013 45 10000 7.2 290 15:59 23.12.2020
4501 Clear 17 1013 45 10000 7.2 290 15:39 23.12.2020
4502 Clear 17 1013 45 10000 7.2 290 15:21 23.12.2020
4503 Clear 14 1013 50 10000 5.1 270 14:45 23.12.2020
4504 Clear 14 1013 50 10000 5.1 270 14:22 23.12.2020
4505 Clouds 14 1014 50 10000 6.7 270 13:46 23.12.2020
4506 Clouds 14 1014 50 10000 6.7 270 13:20 23.12.2020
4507 Clouds 13 1014 54 10000 5.7 270 12:55 23.12.2020
4508 Clouds 13 1014 54 10000 5.7 270 12:31 23.12.2020
4509 Clouds 13 1014 54 10000 6.7 280 11:56 23.12.2020
4510 Clouds 13 1014 54 10000 6.7 280 11:36 23.12.2020
4511 Clouds 13 1013 54 10000 3.6 270 10:56 23.12.2020
4512 Clouds 13 1013 54 10000 3.6 270 10:38 23.12.2020
4513 Clouds 13 1014 54 10000 3.6 280 09:38 23.12.2020
4514 Clouds 13 1014 54 10000 3.6 280 09:38 23.12.2020
4515 Clouds 12 1014 58 10000 2.6 250 08:57 23.12.2020
4516 Clouds 12 1014 58 10000 2.6 250 08:33 23.12.2020
4517 Clear 14 1015 50 10000 4.6 270 07:49 23.12.2020
4518 Clear 14 1015 47 10000 6.7 270 06:42 23.12.2020
4519 Clouds 14 1015 50 10000 6.7 270 05:58 23.12.2020
4520 Clouds 14 1015 50 10000 6.7 270 05:22 23.12.2020
4521 Clouds 16 1014 51 10000 8.2 290 01:57 23.12.2020
4522 Clouds 16 1014 55 10000 8.2 280 00:32 23.12.2020
4523 Clouds 17 1014 51 10000 10.3 280 23:41 22.12.2020
4524 Clouds 17 1014 51 10000 10.3 280 23:22 22.12.2020
4525 Clouds 18 1014 52 10000 10.3 280 22:42 22.12.2020
4526 Clouds 18 1014 52 10000 10.3 280 22:24 22.12.2020
4527 Rain 18 1014 48 10000 10.3 290 21:50 22.12.2020
4528 Rain 18 1014 48 10000 10.3 290 21:20 22.12.2020
4529 Clear 19 1014 52 10000 8.7 290 20:53 22.12.2020
4530 Clear 19 1014 52 10000 8.7 290 20:35 22.12.2020
4531 Rain 17 1015 55 10000 8.2 280 19:52 22.12.2020
4532 Rain 17 1015 55 10000 8.2 280 19:28 22.12.2020
4533 Rain 16 1015 59 10000 5.1 260 18:58 22.12.2020
4534 Rain 16 1015 59 10000 5.1 260 18:38 22.12.2020
4535 Rain 16 1015 59 10000 5.1 260 18:19 22.12.2020
4536 Rain 15 1015 58 10000 4.6 280 17:36 22.12.2020
4537 Rain 15 1015 58 10000 4.6 280 17:36 22.12.2020
4538 Rain 15 1015 58 10000 4.6 280 17:18 22.12.2020
4539 Clouds 14 1015 58 10000 5.7 260 16:46 22.12.2020
4540 Clouds 14 1015 58 10000 5.7 260 16:19 22.12.2020
4541 Clouds 14 1015 58 10000 7.2 280 15:45 22.12.2020
4542 Clouds 14 1015 58 10000 7.2 280 15:27 22.12.2020
4543 Rain 14 1015 54 10000 6.2 270 14:46 22.12.2020
4544 Rain 14 1015 54 10000 6.2 270 14:28 22.12.2020
4545 Clouds 14 1015 54 10000 4.6 260 13:55 22.12.2020
4546 Clouds 14 1015 54 10000 4.6 260 13:36 22.12.2020
4547 Clouds 14 1015 54 10000 4.6 260 13:18 22.12.2020
4548 Clouds 12 1016 62 10000 2.1 0 12:42 22.12.2020
4549 Clear 12 1016 62 10000 2.1 0 12:22 22.12.2020
4550 Clear 7 1015 87 10000 2.6 290 11:55 22.12.2020
4551 Clear 7 1015 87 10000 2.6 290 11:37 22.12.2020
4552 Clear 7 1015 87 10000 2.6 290 11:18 22.12.2020
4553 Clear 8 1015 81 10000 3.6 290 10:45 22.12.2020
4554 Clear 8 1015 81 10000 3.6 290 10:23 22.12.2020
4555 Clear 8 1015 81 10000 1.5 290 09:49 22.12.2020
4556 Clear 8 1015 81 10000 1.5 290 09:21 22.12.2020
4557 Clear 7 1016 87 10000 2.47 286 08:45 22.12.2020
4558 Clear 7 1016 87 10000 2.55 278 08:25 22.12.2020
4559 Clear 8 1016 81 10000 0.5 0 07:47 22.12.2020
4560 Clear 9 1017 76 10000 2.1 310 06:37 22.12.2020
4561 Clear 11 1017 66 10000 2.49 276 05:39 22.12.2020
4562 Clear 16 1017 41 10000 5.1 260 02:36 22.12.2020
4563 Clear 19 1016 34 10000 8.2 290 00:43 22.12.2020
4564 Clear 21 1016 30 10000 9.8 290 23:51 21.12.2020
4565 Clear 21 1016 30 10000 9.8 290 23:23 21.12.2020
4566 Clear 22 1016 28 10000 8.2 290 22:37 21.12.2020
4567 Clear 22 1016 28 10000 8.2 290 22:19 21.12.2020
4568 Clear 22 1016 28 10000 8.2 290 22:19 21.12.2020
4569 Clear 21 1016 35 10000 7.2 290 21:48 21.12.2020
4570 Clear 21 1016 35 10000 7.2 290 21:30 21.12.2020
4571 Clear 21 1016 35 10000 2.1 0 20:45 21.12.2020
4572 Clear 21 1016 35 10000 2.1 0 20:21 21.12.2020
4573 Clear 20 1017 40 10000 3.1 310 19:54 21.12.2020
4574 Clear 20 1017 40 10000 3.1 310 19:36 21.12.2020
4575 Clear 20 1017 40 10000 3.1 310 19:18 21.12.2020
4576 Clear 20 1017 42 10000 3.1 0 18:44 21.12.2020
4577 Clear 18 1018 48 10000 3.6 0 18:25 21.12.2020
4578 Clear 18 1018 48 10000 3.6 0 17:42 21.12.2020
4579 Clear 18 1018 48 10000 3.6 0 17:23 21.12.2020
4580 Clouds 16 1019 48 10000 4.1 300 16:45 21.12.2020
4581 Clouds 16 1019 48 10000 4.1 300 16:21 21.12.2020
4582 Clouds 16 1019 51 10000 3.6 320 15:43 21.12.2020
4583 Clouds 14 1020 54 10000 2.6 310 14:58 21.12.2020
4584 Clouds 14 1020 54 10000 2.6 310 14:36 21.12.2020
4585 Clouds 14 1020 54 10000 2.6 310 14:18 21.12.2020
4586 Clear 12 1020 66 10000 2.1 300 13:40 21.12.2020
4587 Clear 12 1020 66 10000 2.1 300 13:21 21.12.2020
4588 Clear 10 1020 76 10000 2.1 300 12:42 21.12.2020
4589 Clear 10 1020 76 10000 2.1 300 12:22 21.12.2020
4590 Clouds 9 1020 81 10000 3.1 290 11:43 21.12.2020
4591 Clouds 9 1020 81 10000 3.1 290 11:22 21.12.2020
4592 Clouds 9 1020 81 10000 3.1 290 11:22 21.12.2020
4593 Clouds 7 1020 75 10000 2.1 263 10:58 21.12.2020
4594 Clouds 9 1020 81 10000 2.1 290 10:39 21.12.2020
4595 Clouds 9 1020 81 10000 2.1 290 09:56 21.12.2020
4596 Clouds 9 1020 81 10000 2.1 290 09:38 21.12.2020
4597 Clouds 9 1020 81 10000 2.1 290 09:20 21.12.2020
4598 Clouds 9 1019 81 10000 2.1 280 08:26 21.12.2020
4599 Clouds 10 1019 71 10000 2.1 250 07:19 21.12.2020
4600 Clouds 12 1020 58 10000 3.1 260 05:39 21.12.2020
4601 Clouds 12 1019 58 10000 4.1 260 04:30 21.12.2020
4602 Clear 15 1017 47 10000 8.7 280 00:36 21.12.2020
4603 Clear 17 1017 45 10000 9.8 280 23:47 20.12.2020
4604 Clear 17 1017 45 10000 9.8 280 23:20 20.12.2020
4605 Clear 18 1017 45 10000 8.2 280 22:44 20.12.2020
4606 Clear 18 1017 45 10000 8.2 280 22:23 20.12.2020
4607 Clear 19 1016 42 10000 6.7 270 21:42 20.12.2020
4608 Clear 19 1016 42 10000 6.7 270 21:22 20.12.2020
4609 Clear 19 1016 42 10000 6.7 270 20:57 20.12.2020
4610 Clear 19 1016 42 10000 6.7 270 20:37 20.12.2020
4611 Clear 19 1016 42 10000 6.7 270 20:18 20.12.2020
4612 Clear 18 1017 45 10000 5.7 270 19:41 20.12.2020
4613 Clouds 18 1017 45 10000 5.7 270 19:20 20.12.2020
4614 Clouds 19 1017 42 10000 6.2 300 18:45 20.12.2020
4615 Clouds 19 1017 42 10000 6.2 300 18:27 20.12.2020
4616 Clouds 18 1017 48 10000 4.6 0 17:47 20.12.2020
4617 Clouds 18 1017 48 10000 4.6 0 17:28 20.12.2020
4618 Clouds 18 1017 48 10000 4.6 0 17:28 20.12.2020
4619 Clouds 16 1018 51 10000 3.6 0 16:47 20.12.2020
4620 Clouds 16 1018 51 10000 3.6 0 16:28 20.12.2020
4621 Clouds 15 1018 51 10000 1.5 0 15:51 20.12.2020
4622 Clouds 15 1018 51 10000 1.5 0 15:27 20.12.2020
4623 Clouds 14 1019 58 10000 2.1 0 14:56 20.12.2020
4624 Clouds 13 1019 58 10000 2.1 0 14:35 20.12.2020
4625 Clouds 13 1019 58 10000 2.1 0 13:49 20.12.2020
4626 Clouds 13 1019 58 10000 2.1 0 13:30 20.12.2020
4627 Clouds 12 1019 66 10000 2.1 0 12:59 20.12.2020
4628 Clouds 11 1018 66 10000 2.1 210 12:40 20.12.2020
4629 Clouds 11 1018 66 10000 2.1 210 12:21 20.12.2020
4630 Clouds 11 1018 66 10000 2.1 210 11:45 20.12.2020
4631 Clouds 11 1018 66 10000 2.1 210 11:26 20.12.2020
4632 Clouds 11 1018 66 10000 1.5 290 10:48 20.12.2020
4633 Clouds 11 1018 66 10000 1.5 290 10:21 20.12.2020
4634 Clouds 11 1018 71 10000 2.1 0 09:46 20.12.2020
4635 Clouds 11 1018 71 10000 2.1 0 09:27 20.12.2020
4636 Clouds 11 1018 76 10000 1.5 270 08:59 20.12.2020
4637 Clouds 11 1018 76 10000 1.5 270 08:40 20.12.2020
4638 Clear 12 1018 62 10000 2.6 230 07:29 20.12.2020
4639 Clear 11 1018 71 10000 2.1 290 06:18 20.12.2020
4640 Clear 13 1017 58 10000 3.6 230 02:24 20.12.2020
4641 Clouds 15 1016 54 10000 2.1 0 00:39 20.12.2020
4642 Clouds 15 1016 58 10000 2.1 240 23:22 19.12.2020
4643 Clouds 16 1015 51 10000 6.7 290 22:57 19.12.2020
4644 Clouds 16 1015 51 10000 6.7 290 22:39 19.12.2020
4645 Clouds 16 1015 51 10000 6.7 290 22:19 19.12.2020
4646 Rain 15 1015 62 10000 4.6 290 21:43 19.12.2020
4647 Rain 15 1015 62 10000 4.6 290 21:25 19.12.2020
4648 Rain 15 1015 58 10000 4.6 280 20:46 19.12.2020
4649 Rain 15 1015 58 10000 4.6 280 20:22 19.12.2020
4650 Clouds 15 1015 54 10000 4.1 290 19:54 19.12.2020
4651 Clouds 15 1015 54 10000 4.1 290 19:36 19.12.2020
4652 Rain 14 1015 62 10000 3.6 280 18:43 19.12.2020
4653 Rain 14 1015 62 10000 3.6 280 18:25 19.12.2020
4654 Clouds 15 1015 58 10000 2.1 0 17:49 19.12.2020
4655 Clouds 14 1015 54 10000 4.6 290 17:28 19.12.2020
4656 Clouds 14 1015 54 10000 4.6 290 16:55 19.12.2020
4657 Clouds 14 1015 54 10000 4.6 290 16:36 19.12.2020
4658 Clouds 14 1015 54 10000 4.6 290 16:36 19.12.2020
4659 Clouds 14 1015 54 10000 4.6 290 16:18 19.12.2020
4660 Clouds 13 1016 71 10000 3.1 0 15:47 19.12.2020
4661 Rain 11 1016 81 10000 2.6 300 14:49 19.12.2020
4662 Rain 11 1016 81 10000 2.6 300 14:24 19.12.2020
4663 Clouds 11 1016 76 10000 2.6 270 13:42 19.12.2020
4664 Clouds 11 1016 76 10000 2.6 270 13:21 19.12.2020
4665 Clouds 11 1015 76 10000 2.1 280 12:54 19.12.2020
4666 Clouds 11 1015 76 10000 2.1 280 12:36 19.12.2020
4667 Clouds 11 1015 76 10000 2.1 280 12:18 19.12.2020
4668 Clouds 10 1015 81 10000 2.1 300 11:40 19.12.2020
4669 Clouds 10 1015 76 10000 2.1 260 10:47 19.12.2020
4670 Clouds 10 1015 76 10000 2.1 260 10:27 19.12.2020
4671 Clouds 10 1015 76 10000 2.1 280 09:59 19.12.2020
4672 Clouds 10 1015 76 10000 2.1 280 09:39 19.12.2020
4673 Clouds 11 1015 66 10000 2.1 0 08:52 19.12.2020
4674 Clouds 11 1015 66 10000 3.1 250 07:55 19.12.2020
4675 Clouds 11 1015 66 10000 3.1 250 07:18 19.12.2020
4676 Clouds 11 1015 66 10000 3.1 0 06:39 19.12.2020
4677 Clouds 12 1015 58 10000 2.1 0 05:19 19.12.2020
4678 Clouds 13 1014 50 10000 5.7 290 03:28 19.12.2020
4679 Clouds 16 1011 44 10000 9.8 300 00:41 19.12.2020
4680 Clouds 16 1011 44 10000 9.8 300 00:18 19.12.2020
4681 Clouds 16 1011 44 10000 9.8 300 23:48 18.12.2020
4682 Clouds 17 1011 45 10000 10.3 290 23:24 18.12.2020
4683 Clouds 17 1011 45 10000 10.3 290 22:47 18.12.2020
4684 Clouds 17 1011 45 10000 10.3 290 22:24 18.12.2020
4685 Clouds 17 1010 45 10000 9.3 290 21:50 18.12.2020
4686 Clouds 17 1010 45 10000 9.3 290 21:31 18.12.2020
4687 Clouds 17 1011 42 10000 6.2 270 20:43 18.12.2020
4688 Clouds 17 1011 42 10000 6.2 270 20:22 18.12.2020
4689 Clouds 19 1008 31 10000 7.43 263 19:45 18.12.2020
4690 Clouds 19 1008 31 10000 7.09 257 19:22 18.12.2020
4691 Clouds 19 1008 27 10000 7.85 260 18:45 18.12.2020
4692 Clouds 16 1011 51 10000 6.7 310 18:24 18.12.2020
4693 Clouds 16 1011 51 10000 6.7 310 17:30 18.12.2020
4694 Clouds 17 1011 48 10000 3.1 0 16:57 18.12.2020
4695 Clouds 17 1011 48 10000 3.1 0 16:38 18.12.2020
4696 Clouds 17 1011 48 10000 3.1 0 16:18 18.12.2020
4697 Clouds 16 1011 55 10000 2.1 310 15:42 18.12.2020
4698 Clear 13 1012 76 10000 2.6 270 15:24 18.12.2020
4699 Clear 13 1012 76 10000 2.6 270 14:55 18.12.2020
4700 Clear 13 1012 76 10000 2.6 270 14:22 18.12.2020
4701 Clear 12 1013 76 10000 3.1 290 13:51 18.12.2020
4702 Clear 12 1013 76 10000 3.1 290 13:31 18.12.2020
4703 Clouds 10 1013 87 10000 2.6 280 12:50 18.12.2020
4704 Clouds 10 1013 87 10000 2.6 280 12:22 18.12.2020
4705 Clear 9 1013 87 10000 2.1 290 11:23 18.12.2020
4706 Clear 8 1012 93 10000 3.1 290 10:40 18.12.2020
4707 Clear 8 1012 93 10000 3.1 290 10:20 18.12.2020
4708 Clear 9 1012 87 10000 4.1 280 09:39 18.12.2020
4709 Clear 9 1012 87 10000 4.1 280 09:21 18.12.2020
4710 Clear 9 1012 87 10000 4.1 280 09:21 18.12.2020
4711 Clear 10 1013 81 10000 3.6 280 08:54 18.12.2020
4712 Clear 10 1013 81 10000 3.6 280 08:30 18.12.2020
4713 Clear 10 1013 81 10000 3.1 280 07:39 18.12.2020
4714 Clear 10 1013 81 10000 3.1 280 07:18 18.12.2020
4715 Clear 11 1014 76 10000 3.1 300 06:49 18.12.2020
4716 Clear 11 1014 76 10000 2.1 290 05:41 18.12.2020
4717 Clear 12 1015 76 10000 1 290 04:51 18.12.2020
4718 Clear 18 1013 48 10000 4.1 300 01:58 18.12.2020
4719 Clear 18 1013 48 10000 4.1 300 01:39 18.12.2020
4720 Clear 20 1012 40 10000 5.1 0 23:59 17.12.2020
4721 Clear 22 1012 35 10000 4.1 330 23:25 17.12.2020
4722 Clear 22 1012 35 10000 4.1 330 22:58 17.12.2020
4723 Clear 22 1012 35 10000 4.1 330 22:58 17.12.2020
4724 Clear 22 1012 35 10000 4.1 330 22:40 17.12.2020
4725 Clear 22 1012 35 10000 4.1 330 22:40 17.12.2020
4726 Clear 22 1012 35 10000 4.1 330 22:22 17.12.2020
4727 Clear 22 1013 33 10000 3.6 0 21:42 17.12.2020
4728 Clear 22 1013 33 10000 3.6 0 21:42 17.12.2020
4729 Clear 22 1013 33 10000 3.6 0 21:19 17.12.2020
4730 Clear 21 1011 37 10000 5.32 255 20:41 17.12.2020
4731 Clear 20 1014 40 10000 5.7 120 20:19 17.12.2020
4732 Clear 20 1014 40 10000 5.7 120 19:48 17.12.2020
4733 Clear 20 1014 40 10000 5.7 120 19:24 17.12.2020
4734 Clear 20 1014 42 10000 5.1 310 18:42 17.12.2020
4735 Clear 20 1014 42 10000 5.1 310 18:23 17.12.2020
4736 Clear 20 1014 42 10000 5.1 310 18:23 17.12.2020
4737 Clear 19 1015 42 10000 2.6 0 17:54 17.12.2020
4738 Clear 19 1015 42 10000 2.6 0 17:32 17.12.2020
4739 Clear 19 1015 45 10000 3.1 0 16:46 17.12.2020
4740 Clear 19 1015 45 10000 3.1 0 16:27 17.12.2020
4741 Clear 17 1016 51 10000 3.6 300 15:52 17.12.2020
4742 Clear 17 1016 51 10000 3.6 300 15:52 17.12.2020
4743 Clear 17 1016 51 10000 3.6 300 15:34 17.12.2020
4744 Clear 15 1016 54 10000 4.1 300 14:55 17.12.2020
4745 Clear 15 1016 54 10000 4.1 300 14:34 17.12.2020
4746 Clear 12 1017 66 10000 2.6 290 13:58 17.12.2020
4747 Clear 12 1017 66 10000 2.6 290 13:35 17.12.2020
4748 Clouds 9 1017 70 10000 2.6 270 12:49 17.12.2020
4749 Clouds 9 1017 70 10000 2.6 270 12:26 17.12.2020
4750 Clouds 9 1017 70 10000 2.6 280 11:45 17.12.2020
4751 Clouds 9 1017 70 10000 2.6 280 11:25 17.12.2020
4752 Clouds 9 1017 70 10000 3.1 290 10:56 17.12.2020
4753 Clouds 9 1017 70 10000 3.1 290 10:56 17.12.2020
4754 Clouds 9 1017 70 10000 3.1 290 10:21 17.12.2020
4755 Clouds 9 1017 70 10000 3.1 280 09:29 17.12.2020
4756 Clouds 8 1017 70 10000 4.1 280 07:55 17.12.2020
4757 Clouds 8 1017 70 10000 4.1 280 07:35 17.12.2020
4758 Clear 9 1018 70 10000 2.6 280 06:54 17.12.2020
4759 Clear 9 1018 70 10000 2.6 280 06:32 17.12.2020
4760 Clear 10 1018 66 10000 2.6 290 05:59 17.12.2020
4761 Clear 18 1015 31 10000 4.6 270 00:40 17.12.2020
4762 Clouds 20 1015 28 10000 6.7 300 23:54 16.12.2020
4763 Clear 20 1014 29 10000 3.1 0 23:21 16.12.2020
4764 Clear 20 1014 29 10000 3.1 0 22:55 16.12.2020
4765 Clear 20 1014 29 10000 3.1 0 22:35 16.12.2020
4766 Clear 21 1014 26 10000 4.6 320 21:52 16.12.2020
4767 Clear 21 1015 28 10000 3.1 320 21:34 16.12.2020
4768 Clear 21 1015 28 10000 3.1 320 20:56 16.12.2020
4769 Clear 21 1015 28 10000 3.1 320 20:37 16.12.2020
4770 Clear 21 1015 28 10000 3.1 320 20:37 16.12.2020
4771 Clear 21 1015 28 10000 3.1 320 20:18 16.12.2020
4772 Clear 20 1015 30 10000 5.7 300 19:20 16.12.2020
4773 Clear 19 1016 37 10000 3.6 300 18:54 16.12.2020
4774 Clear 19 1016 37 10000 3.6 300 18:27 16.12.2020
4775 Clear 20 1014 29 10000 3.09 261 17:44 16.12.2020
4776 Clear 15 1017 51 10000 4.1 310 17:18 16.12.2020
4777 Clear 15 1017 51 10000 4.1 310 16:39 16.12.2020
4778 Clear 16 1015 35 10000 2.32 251 16:20 16.12.2020
4779 Clear 16 1015 35 10000 2.32 251 15:49 16.12.2020
4780 Clear 11 1019 62 10000 3.1 300 15:26 16.12.2020
4781 Clear 11 1019 62 10000 3.1 300 14:46 16.12.2020
4782 Clear 11 1019 62 10000 3.1 300 14:28 16.12.2020
4783 Clear 9 1019 61 10000 3.1 260 13:45 16.12.2020
4784 Clear 9 1019 61 10000 3.1 260 13:27 16.12.2020
4785 Clear 7 1020 81 10000 2.6 280 12:48 16.12.2020
4786 Clear 7 1020 81 10000 2.6 280 12:25 16.12.2020
4787 Clear 4 1020 86 10000 2.6 300 11:38 16.12.2020
4788 Clear 4 1020 86 10000 2.6 300 11:19 16.12.2020
4789 Clear 4 1020 86 10000 2.1 280 10:43 16.12.2020
4790 Clear 4 1020 86 10000 2.1 280 10:18 16.12.2020
4791 Clear 4 1020 86 10000 2.1 280 10:18 16.12.2020
4792 Clear 4 1019 86 10000 2.1 270 09:34 16.12.2020
4793 Clear 5 1019 80 10000 1.5 0 08:23 16.12.2020
4794 Clouds 6 1019 75 10000 1 0 07:47 16.12.2020
4795 Clouds 6 1019 75 10000 1 0 07:29 16.12.2020
4796 Clouds 8 1020 65 10000 1.5 300 05:42 16.12.2020
4797 Clouds 10 1019 53 10000 5.7 270 02:20 16.12.2020
4798 Clear 13 1018 50 10000 10.3 290 23:57 15.12.2020
4799 Clear 13 1018 50 10000 10.3 290 23:37 15.12.2020
4800 Clear 13 1018 50 10000 11.8 290 22:44 15.12.2020
4801 Clouds 13 1018 50 10000 11.8 290 22:22 15.12.2020
4802 Clouds 13 1018 54 10000 10.8 290 21:49 15.12.2020
4803 Clouds 13 1018 54 10000 10.8 290 21:24 15.12.2020
4804 Clouds 14 1017 50 10000 10.8 290 20:46 15.12.2020
4805 Clouds 14 1017 50 10000 10.8 290 20:27 15.12.2020
4806 Clouds 14 1017 50 10000 9.8 290 19:55 15.12.2020
4807 Clouds 14 1017 50 10000 9.8 290 19:34 15.12.2020
4808 Clouds 13 1017 50 10000 7.7 290 18:55 15.12.2020
4809 Clouds 13 1017 50 10000 7.7 290 18:36 15.12.2020
4810 Clouds 13 1017 50 10000 7.7 290 18:18 15.12.2020
4811 Clear 13 1018 43 10000 5.1 250 17:41 15.12.2020
4812 Clear 12 1018 46 10000 5.7 290 17:20 15.12.2020
4813 Clear 12 1018 46 10000 5.7 290 16:34 15.12.2020
4814 Clouds 12 1018 50 10000 3.1 0 15:59 15.12.2020
4815 Clouds 12 1018 50 10000 3.1 0 15:34 15.12.2020
4816 Clouds 9 1019 47 10000 2.1 0 14:51 15.12.2020
4817 Clouds 9 1019 53 10000 2.1 0 14:25 15.12.2020
4818 Clouds 8 1019 53 10000 1.5 320 13:54 15.12.2020
4819 Clear 8 1019 52 10000 3.1 0 13:33 15.12.2020
4820 Clouds 8 1019 52 10000 3.1 0 12:47 15.12.2020
4821 Clouds 8 1019 52 10000 3.1 0 12:25 15.12.2020
4822 Clouds 7 1019 56 10000 2.6 0 11:57 15.12.2020
4823 Clouds 7 1019 56 10000 2.6 0 11:27 15.12.2020
4824 Clouds 7 1018 56 10000 4.1 260 10:57 15.12.2020
4825 Clouds 7 1018 56 10000 4.1 260 10:35 15.12.2020
4826 Clouds 7 1018 56 10000 5.7 260 09:53 15.12.2020
4827 Clouds 7 1018 56 10000 5.7 260 09:32 15.12.2020
4828 Clouds 7 1018 56 10000 5.7 260 09:32 15.12.2020
4829 Clouds 7 1018 56 10000 5.7 260 09:32 15.12.2020
4830 Clouds 7 1018 56 10000 5.1 260 08:57 15.12.2020
4831 Clouds 7 1018 56 10000 5.1 260 08:29 15.12.2020
4832 Clouds 7 1018 90 10000 5.7 260 07:52 15.12.2020
4833 Clouds 7 1018 88 10000 5.7 260 07:28 15.12.2020
4834 Clouds 7 1018 89 10000 6.7 270 06:37 15.12.2020
4835 Clear 8 1017 52 10000 7.2 280 04:18 15.12.2020
4836 Clouds 10 1014 46 10000 9.8 280 00:36 15.12.2020
4837 Clouds 10 1014 46 10000 9.8 280 00:36 15.12.2020
4838 Clouds 11 1013 50 10000 11.3 290 23:27 14.12.2020
4839 Clouds 11 1012 50 10000 10.8 290 22:58 14.12.2020
4840 Clouds 11 1012 50 10000 10.8 290 22:36 14.12.2020
4841 Clouds 12 1011 46 10000 10.3 290 21:54 14.12.2020
4842 Clouds 12 1011 46 10000 10.3 290 21:54 14.12.2020
4843 Clouds 12 1011 46 10000 10.3 290 21:35 14.12.2020
4844 Clouds 12 1011 54 10000 11.3 290 20:52 14.12.2020
4845 Clouds 12 1011 54 10000 11.3 290 20:30 14.12.2020
4846 Rain 12 1010 50 10000 11.3 280 19:55 14.12.2020
4847 Rain 12 1010 50 10000 11.3 280 19:29 14.12.2020
4848 Rain 10 1010 57 10000 7.2 270 18:51 14.12.2020
4849 Rain 10 1008 61 8000 10.8 280 18:32 14.12.2020
4850 Rain 10 1008 61 8000 10.8 280 17:48 14.12.2020
4851 Rain 10 1008 61 8000 10.8 280 17:28 14.12.2020
4852 Rain 12 1007 54 8000 11.8 290 16:52 14.12.2020
4853 Rain 12 1007 54 8000 11.8 290 16:29 14.12.2020
4854 Rain 11 1006 66 10000 9.8 280 15:46 14.12.2020
4855 Rain 11 1006 66 10000 9.8 280 15:25 14.12.2020
4856 Rain 10 1006 61 9000 6.7 270 14:43 14.12.2020
4857 Rain 10 1006 61 9000 6.7 270 14:24 14.12.2020
4858 Clouds 11 1006 53 10000 7.2 280 13:44 14.12.2020
4859 Clouds 11 1006 53 10000 7.2 280 13:20 14.12.2020
4860 Rain 10 1005 66 10000 4.6 240 12:52 14.12.2020
4861 Rain 10 1005 66 10000 4.6 240 12:28 14.12.2020
4862 Rain 7 1004 93 10000 1 0 11:35 14.12.2020
4863 Rain 6 1003 100 10000 1 0 10:40 14.12.2020
4864 Rain 6 1003 100 10000 1 0 10:21 14.12.2020
4865 Rain 6 1003 100 10000 2.6 290 09:43 14.12.2020
4866 Rain 6 1004 93 10000 2.1 300 08:47 14.12.2020
4867 Rain 6 1004 93 10000 2.1 300 08:29 14.12.2020
4868 Rain 6 1004 100 10000 4.18 294 07:44 14.12.2020
4869 Rain 6 1006 93 10000 1.5 0 06:48 14.12.2020
4870 Rain 7 1007 87 10000 3.1 170 05:35 14.12.2020
4871 Rain 10 1009 66 10000 5.7 250 02:26 14.12.2020
4872 Rain 10 1011 66 10000 6.7 250 00:56 14.12.2020
4873 Rain 12 1012 58 10000 6.7 260 00:33 14.12.2020
4874 Rain 12 1012 58 10000 6.7 260 23:50 13.12.2020
4875 Rain 12 1012 58 10000 6.7 260 23:30 13.12.2020
4876 Rain 12 1012 58 10000 8.2 260 22:47 13.12.2020
4877 Rain 12 1012 58 10000 8.2 260 22:20 13.12.2020
4878 Clouds 12 1013 58 10000 8.2 260 21:45 13.12.2020
4879 Clouds 12 1013 58 10000 8.2 260 21:26 13.12.2020
4880 Rain 12 1014 62 10000 8.7 270 20:35 13.12.2020
4881 Clouds 13 1015 54 10000 9.8 280 19:57 13.12.2020
4882 Clouds 13 1015 54 10000 9.8 280 19:37 13.12.2020
4883 Rain 13 1015 54 10000 9.8 280 19:19 13.12.2020
4884 Clouds 13 1016 54 10000 9.3 280 18:42 13.12.2020
4885 Rain 13 1016 54 10000 9.3 280 18:20 13.12.2020
4886 Rain 13 1017 54 10000 9.8 280 17:47 13.12.2020
4887 Clouds 13 1017 54 10000 9.8 280 17:21 13.12.2020
4888 Clouds 13 1017 54 10000 8.2 280 16:55 13.12.2020
4889 Clouds 13 1017 54 10000 8.2 280 16:37 13.12.2020
4890 Clouds 11 1018 62 10000 10.8 290 15:58 13.12.2020
4891 Clouds 11 1018 62 10000 10.8 290 15:38 13.12.2020
4892 Clouds 11 1018 62 10000 10.8 290 15:20 13.12.2020
4893 Clouds 10 1019 66 10000 7.2 280 14:43 13.12.2020
4894 Clouds 10 1019 66 10000 7.2 280 14:20 13.12.2020
4895 Clouds 10 1019 61 10000 6.2 260 13:42 13.12.2020
4896 Clouds 10 1019 61 10000 6.2 260 13:22 13.12.2020
4897 Clouds 10 1019 61 10000 6.2 260 13:22 13.12.2020
4898 Rain 8 1018 70 10000 3.6 250 12:39 13.12.2020
4899 Rain 8 1018 70 10000 3.6 250 12:20 13.12.2020
4900 Rain 9 1018 61 10000 3.6 250 11:35 13.12.2020
4901 Clouds 9 1017 61 10000 7.7 280 10:49 13.12.2020
4902 Clouds 9 1017 61 10000 7.7 280 10:30 13.12.2020
4903 Clouds 9 1017 61 10000 7.2 280 09:54 13.12.2020
4904 Rain 9 1016 61 10000 7.7 280 08:58 13.12.2020
4905 Rain 9 1016 61 10000 7.7 280 08:33 13.12.2020
4906 Clouds 9 1016 61 10000 5.7 0 07:29 13.12.2020
4907 Clouds 10 1015 57 10000 7.2 290 03:31 13.12.2020
4908 Clouds 10 1014 57 10000 5.7 280 02:40 13.12.2020
4909 Clear 11 1013 57 10000 7.2 290 01:37 13.12.2020
4910 Clear 11 1013 57 10000 7.2 290 01:37 13.12.2020
4911 Clear 11 1013 57 10000 7.2 290 01:37 13.12.2020
4912 Clear 12 1012 54 10000 8.7 290 00:47 13.12.2020
4913 Clear 13 1011 50 10000 10.8 290 23:50 12.12.2020
4914 Clear 13 1011 50 10000 10.8 290 23:29 12.12.2020
4915 Clear 13 1011 54 10000 10.8 280 22:39 12.12.2020
4916 Clouds 14 1010 47 10000 10.8 290 21:56 12.12.2020
4917 Clouds 14 1010 47 10000 10.8 290 21:32 12.12.2020
4918 Clouds 14 1009 50 10000 10.8 300 20:48 12.12.2020
4919 Clouds 14 1009 50 10000 10.8 300 20:24 12.12.2020
4920 Clouds 13 1009 54 10000 10.8 290 19:54 12.12.2020
4921 Clouds 13 1009 54 10000 10.8 290 19:35 12.12.2020
4922 Clouds 14 1009 54 10000 8.7 290 18:58 12.12.2020
4923 Clouds 14 1009 54 10000 8.7 290 18:40 12.12.2020
4924 Clouds 14 1009 54 10000 8.7 290 18:22 12.12.2020
4925 Clouds 13 1008 50 10000 8.7 290 17:41 12.12.2020
4926 Clouds 12 1008 54 10000 9.3 290 16:52 12.12.2020
4927 Clouds 12 1008 46 10000 8.7 290 15:58 12.12.2020
4928 Clouds 12 1008 46 10000 8.7 290 15:40 12.12.2020
4929 Clouds 11 1008 53 10000 5.7 300 14:54 12.12.2020
4930 Clouds 11 1008 53 10000 5.7 300 14:54 12.12.2020
4931 Clouds 11 1008 53 10000 5.7 300 14:35 12.12.2020
4932 Clouds 10 1007 61 10000 2.6 260 13:46 12.12.2020
4933 Clouds 10 1007 61 10000 2.6 260 13:26 12.12.2020
4934 Clouds 9 1007 66 10000 5.1 280 12:37 12.12.2020
4935 Clouds 9 1007 61 10000 2.6 0 11:28 12.12.2020
4936 Clouds 8 1006 65 10000 3.6 310 10:46 12.12.2020
4937 Clouds 8 1006 65 10000 3.6 220 09:24 12.12.2020
4938 Clouds 9 1007 61 10000 3.6 0 08:41 12.12.2020
4939 Rain 7 1006 93 10000 2.6 270 01:59 12.12.2020
4940 Rain 7 1005 93 9000 2.1 0 23:31 11.12.2020
4941 Rain 8 1006 81 10000 3.1 0 21:32 11.12.2020
4942 Rain 9 1007 76 4000 5.7 250 19:46 11.12.2020
4943 Rain 12 1007 62 10000 9.8 270 17:30 11.12.2020
4944 Rain 11 1007 66 5000 8.2 260 14:39 11.12.2020
4945 Rain 11 1007 66 5000 5.7 0 13:46 11.12.2020
4946 Rain 9 1008 76 10000 8.2 270 12:29 11.12.2020
4947 Rain 9 1008 70 10000 6.7 270 11:55 11.12.2020
4948 Rain 9 1008 70 10000 6.7 270 11:37 11.12.2020
4949 Rain 8 1008 75 10000 7.7 270 10:40 11.12.2020
4950 Rain 8 1008 81 10000 4.6 280 07:51 11.12.2020
4951 Rain 9 1009 76 10000 5.7 270 05:36 11.12.2020
4952 Rain 8 1009 81 10000 4.1 0 04:47 11.12.2020
4953 Rain 8 1007 81 10000 6.2 270 00:54 11.12.2020
4954 Rain 9 1006 76 10000 5.1 260 23:28 10.12.2020
4955 Clouds 16 1005 48 10000 7.2 290 21:37 10.12.2020
4956 Clouds 16 1005 48 10000 7.2 290 20:51 10.12.2020
4957 Clouds 16 1005 48 10000 7.2 290 20:29 10.12.2020
4958 Rain 13 1006 62 10000 5.1 280 19:29 10.12.2020
4959 Rain 13 1006 62 10000 5.1 280 18:48 10.12.2020
4960 Clouds 14 1005 54 10000 2.6 0 17:29 10.12.2020
4961 Rain 11 1007 76 10000 4.1 0 15:58 10.12.2020
4962 Rain 11 1007 76 10000 4.1 0 15:21 10.12.2020
4963 Rain 10 1007 68 10000 3.14 266 14:43 10.12.2020
4964 Rain 11 1006 81 10000 1.5 280 13:42 10.12.2020
4965 Rain 9 1007 87 10000 2.61 260 12:21 10.12.2020
4966 Clouds 10 1008 76 10000 1 0 10:54 10.12.2020
4967 Clouds 11 1010 76 10000 1.5 310 08:21 10.12.2020
4968 Clear 11 1011 71 10000 2.18 275 07:26 10.12.2020
4969 Clear 12 1013 66 10000 0.5 0 05:34 10.12.2020
4970 Clear 14 1014 58 10000 1.5 0 02:31 10.12.2020
4971 Clear 15 1014 51 10000 2.6 310 01:25 10.12.2020
4972 Clear 17 1014 45 10000 5.1 0 23:38 09.12.2020
4973 Clouds 18 1016 42 10000 3.1 0 20:37 09.12.2020
4974 Clouds 18 1017 45 10000 6.2 300 19:46 09.12.2020
4975 Clouds 17 1018 45 10000 5.1 300 18:36 09.12.2020
4976 Clouds 16 1016 36 10000 3.57 275 16:57 09.12.2020
4977 Clouds 15 1019 54 10000 3.6 260 16:25 09.12.2020
4978 Clouds 15 1019 54 10000 3.6 260 15:41 09.12.2020
4979 Clear 14 1020 58 10000 3.1 0 14:49 09.12.2020
4980 Clear 14 1020 58 10000 3.1 0 14:25 09.12.2020
4981 Clouds 9 1021 81 10000 1 0 13:19 09.12.2020
4982 Clouds 9 1021 81 10000 1 0 12:57 09.12.2020
4983 Clouds 9 1021 81 10000 1 0 12:22 09.12.2020
4984 Clouds 8 1020 81 10000 1.5 290 11:33 09.12.2020
4985 Clear 10 1019 66 10000 2.1 0 09:51 09.12.2020
4986 Clear 10 1019 71 10000 2.6 260 08:34 09.12.2020
4987 Clear 12 1020 58 10000 3.1 0 06:29 09.12.2020
4988 Clear 13 1021 54 10000 4.1 270 04:49 09.12.2020
4989 Clear 13 1020 58 10000 5.7 270 02:30 09.12.2020
4990 Clouds 15 1018 54 10000 9.3 280 23:49 08.12.2020
4991 Clouds 15 1018 54 10000 9.3 280 23:23 08.12.2020
4992 Rain 14 1017 67 10000 8.7 270 21:36 08.12.2020
4993 Rain 13 1017 76 10000 3.1 0 19:46 08.12.2020
4994 Rain 13 1017 76 10000 3.1 0 19:25 08.12.2020
4995 Rain 12 1016 76 10000 4.6 0 18:27 08.12.2020
4996 Rain 12 1015 81 10000 3.6 290 15:54 08.12.2020
4997 Rain 10 1014 87 10000 3.6 320 14:34 08.12.2020
4998 Rain 10 1013 93 10000 2.6 330 13:36 08.12.2020
4999 Rain 10 1012 93 10000 1.5 0 12:32 08.12.2020
5000 Rain 10 1012 93 10000 1.5 0 11:52 08.12.2020
5001 Rain 10 1011 87 10000 1 0 10:49 08.12.2020
5002 Rain 10 1011 87 10000 1 0 10:29 08.12.2020
5003 Rain 11 1010 93 10000 0.5 0 08:53 08.12.2020
5004 Rain 12 1010 87 10000 1.5 280 07:18 08.12.2020
5005 Clouds 20 1008 42 10000 5.1 270 03:42 08.12.2020
5006 Clouds 23 1007 33 10000 5.7 270 00:47 08.12.2020
5007 Clouds 23 1007 33 10000 5.7 270 00:22 08.12.2020
5008 Clear 25 1006 27 10000 7.2 280 22:41 07.12.2020
5009 Clear 27 1006 28 10000 7.7 290 21:56 07.12.2020
5010 Clear 28 1006 23 10000 6.7 280 20:31 07.12.2020
5011 Clear 27 1007 24 10000 4.6 280 18:43 07.12.2020
5012 Clear 25 1008 31 10000 3.6 340 17:28 07.12.2020
5013 Clear 21 1009 43 10000 2.6 320 16:55 07.12.2020
5014 Clear 16 1010 59 10000 1.5 130 15:30 07.12.2020
5015 Clear 16 1010 59 10000 1.5 130 14:51 07.12.2020
5016 Clear 16 1010 59 10000 1.5 130 14:18 07.12.2020
5017 Clear 14 1011 67 10000 1.86 268 13:21 07.12.2020
5018 Clear 8 1011 93 10000 0.5 0 11:44 07.12.2020
5019 Clear 8 1011 93 10000 0.5 0 11:19 07.12.2020
5020 Clear 10 1011 76 10000 2.6 300 09:42 07.12.2020
5021 Clear 11 1011 76 10000 3.6 290 08:21 07.12.2020
5022 Clear 12 1012 66 10000 0.5 0 06:29 07.12.2020
5023 Clear 14 1012 58 10000 1 0 04:48 07.12.2020
5024 Clear 23 1011 25 10000 2.6 230 01:55 07.12.2020
5025 Clear 27 1010 19 10000 4.1 280 23:50 06.12.2020
5026 Clear 28 1010 18 10000 6.2 300 22:25 06.12.2020
5027 Clear 28 1011 21 10000 4.6 0 20:56 06.12.2020
5028 Clear 28 1011 21 10000 4.6 0 20:34 06.12.2020
5029 Clear 28 1012 21 10000 6.2 290 19:54 06.12.2020
5030 Clear 27 1013 22 10000 3.6 310 18:21 06.12.2020
5031 Clear 22 1015 37 10000 2.1 300 16:47 06.12.2020
5032 Clear 17 1017 59 10000 2.6 300 14:57 06.12.2020
5033 Clear 14 1017 67 10000 2.1 300 13:42 06.12.2020
5034 Clear 11 1018 81 10000 2.1 320 12:42 06.12.2020
5035 Clear 9 1018 87 10000 2.6 300 11:57 06.12.2020
5036 Clear 9 1018 87 10000 2.6 300 11:32 06.12.2020
5037 Clear 8 1017 93 10000 2.1 290 10:45 06.12.2020
5038 Clouds 10 1017 81 10000 3.6 290 09:45 06.12.2020
5039 Clouds 11 1017 81 10000 3.1 300 08:22 06.12.2020
5040 Clear 15 1017 62 10000 3.1 300 05:38 06.12.2020
5041 Clear 24 1016 36 10000 3.1 300 00:57 06.12.2020
5042 Clear 24 1016 36 10000 3.1 300 00:37 06.12.2020
5043 Clear 24 1016 36 10000 3.1 300 00:19 06.12.2020
5044 Clear 28 1015 21 10000 3.6 0 22:26 05.12.2020
5045 Clear 28 1016 23 10000 4.1 120 21:58 05.12.2020
5046 Clear 28 1016 23 10000 4.1 120 21:37 05.12.2020
5047 Clear 28 1016 23 10000 4.1 120 21:19 05.12.2020
5048 Clear 26 1018 29 10000 3.6 330 18:55 05.12.2020
5049 Clear 23 1019 33 10000 2.1 340 17:57 05.12.2020
5050 Clear 20 1019 42 10000 0.5 0 16:49 05.12.2020
5051 Clear 20 1019 42 10000 0.5 0 16:29 05.12.2020
5052 Clear 18 1020 52 10000 0.5 0 15:24 05.12.2020
5053 Clear 12 1022 66 10000 1.5 110 13:33 05.12.2020
5054 Clear 5 1022 100 10000 0.08 147 11:50 05.12.2020
5055 Clear 6 1021 93 10000 1.5 310 10:39 05.12.2020
5056 Clear 7 1021 87 10000 0.46 229 09:31 05.12.2020
5057 Clear 9 1021 81 10000 2.1 280 07:48 05.12.2020
5058 Clear 11 1021 71 10000 2.6 290 05:34 05.12.2020
5059 Clear 23 1019 20 10000 4.1 320 00:55 05.12.2020
5060 Clear 24 1018 22 10000 2.1 0 23:36 04.12.2020
5061 Clear 23 1019 25 10000 2.6 300 21:35 04.12.2020
5062 Clear 22 1020 26 10000 2.1 0 19:22 04.12.2020
5063 Clear 20 1021 34 10000 2.6 340 18:40 04.12.2020
5064 Clear 18 1021 42 10000 1.5 0 17:47 04.12.2020
5065 Clear 16 1022 44 10000 1 0 16:37 04.12.2020
5066 Clear 13 1023 58 10000 1.5 290 15:25 04.12.2020
5067 Clear 9 1025 76 10000 2.1 290 13:37 04.12.2020
5068 Clear 9 1025 76 10000 2.1 290 13:18 04.12.2020
5069 Clear 7 1025 81 10000 0.67 219 12:22 04.12.2020
5070 Clear 4 1024 93 10000 2.6 290 10:37 04.12.2020
5071 Clear 5 1025 86 10000 1.5 310 09:24 04.12.2020
5072 Clear 7 1025 81 10000 3.1 290 06:40 04.12.2020
5073 Clear 8 1024 75 10000 2.1 290 04:53 04.12.2020
5074 Clear 8 1023 69 10000 2.4 251 01:53 04.12.2020
5075 Clear 17 1021 39 10000 6.2 290 22:49 03.12.2020
5076 Clear 16 1020 36 10000 5.1 300 21:23 03.12.2020
5077 Clear 16 1020 38 10000 6.7 300 20:46 03.12.2020
5078 Clear 17 1020 33 10000 3.1 0 19:23 03.12.2020
5079 Clear 15 1020 35 10000 3.1 0 18:41 03.12.2020
5080 Clear 15 1020 41 10000 4.6 0 17:21 03.12.2020
5081 Clear 12 1021 46 10000 3.1 0 15:59 03.12.2020
5082 Clear 12 1021 46 10000 3.1 0 15:32 03.12.2020
5083 Clouds 11 1021 50 10000 2.6 0 14:49 03.12.2020
5084 Clouds 9 1021 57 10000 4.6 330 13:55 03.12.2020
5085 Clear 7 1021 65 10000 2.6 0 12:46 03.12.2020
5086 Clear 7 1021 65 10000 2.6 0 12:23 03.12.2020
5087 Clouds 6 1020 70 10000 2.1 0 10:54 03.12.2020
5088 Clouds 7 1020 65 10000 1.5 270 08:41 03.12.2020
5089 Clouds 9 1021 74 10000 3.1 0 03:57 03.12.2020
5090 Clouds 10 1019 46 10000 3.1 270 01:54 03.12.2020
5091 Clouds 11 1018 40 10000 8.2 290 00:19 03.12.2020
5092 Clouds 14 1017 33 10000 9.3 290 22:46 02.12.2020
5093 Clear 15 1017 33 10000 10.3 290 21:46 02.12.2020
5094 Clear 15 1017 33 10000 9.3 300 20:51 02.12.2020
5095 Clear 15 1017 33 10000 9.3 300 20:32 02.12.2020
5096 Clear 15 1015 32 10000 6.81 256 19:40 02.12.2020
5097 Clear 14 1017 30 10000 8.7 300 17:50 02.12.2020
5098 Clear 14 1017 30 10000 8.7 300 17:31 02.12.2020
5099 Clear 12 1018 40 10000 7.2 300 15:46 02.12.2020
5100 Clear 10 1018 52 10000 6.7 280 13:41 02.12.2020
5101 Clouds 7 1017 74 10000 3.29 268 11:33 02.12.2020
5102 Clouds 5 1017 83 10000 2.77 279 10:25 02.12.2020
5103 Clouds 6 1016 83 10000 2.48 278 07:46 02.12.2020
5104 Clouds 9 1013 68 10000 4.7 295 23:30 01.12.2020
5105 Rain 13 1012 54 10000 10.3 290 22:20 01.12.2020
5106 Rain 12 1012 58 10000 10.8 290 19:36 01.12.2020
5107 Rain 12 1012 58 10000 10.8 290 19:36 01.12.2020
5108 Rain 12 1012 58 10000 10.8 290 18:56 01.12.2020
5109 Rain 12 1012 50 10000 9.8 300 16:48 01.12.2020
5110 Clouds 12 1012 50 10000 10.8 280 14:53 01.12.2020
5111 Clouds 7 1012 62 10000 4.33 288 12:48 01.12.2020
5112 Clouds 6 1012 71 10000 4.31 280 11:40 01.12.2020
5113 Clouds 4 1013 77 10000 3.91 282 10:53 01.12.2020
5114 Clouds 3 1013 80 10000 3.57 281 10:26 01.12.2020
5115 Clouds 3 1013 81 10000 3.44 278 07:46 01.12.2020
5116 Clouds 5 1014 75 10000 3.64 276 05:58 01.12.2020
5117 Clouds 10 1015 64 10000 3.69 262 00:57 01.12.2020
5118 Clouds 13 1014 49 10000 4.4 258 00:29 01.12.2020
5119 Clouds 15 1014 41 10000 4.74 258 23:20 30.11.2020
5120 Clouds 15 1014 41 10000 4.74 258 22:40 30.11.2020
5121 Clear 18 1016 34 10000 7.2 270 22:22 30.11.2020
5122 Clear 16 1017 38 10000 4.6 310 19:46 30.11.2020
5123 Clear 16 1018 38 10000 4.1 300 18:54 30.11.2020
5124 Clear 16 1018 38 10000 4.1 300 18:21 30.11.2020
5125 Clouds 16 1016 34 10000 4.09 248 17:45 30.11.2020
5126 Clear 13 1019 47 10000 4.1 310 16:52 30.11.2020
5127 Clear 11 1021 53 10000 5.1 300 14:47 30.11.2020
5128 Clear 9 1022 61 10000 3.1 290 13:55 30.11.2020
5129 Clear 7 1022 70 10000 3.1 260 12:57 30.11.2020
5130 Clear 7 1022 70 10000 3.1 260 12:25 30.11.2020
5131 Clear 4 1023 86 10000 3.1 290 10:59 30.11.2020
5132 Clear 4 1023 86 10000 3.1 290 10:21 30.11.2020
5133 Clear 4 1024 86 10000 2.1 290 07:58 30.11.2020
5134 Clear 11 1024 53 10000 5.7 290 01:23 30.11.2020
5135 Clear 14 1023 47 10000 8.7 300 23:25 29.11.2020
5136 Clear 14 1023 47 10000 8.7 290 21:44 29.11.2020
5137 Clear 14 1023 47 10000 8.7 290 21:25 29.11.2020
5138 Clouds 14 1023 47 10000 8.7 290 18:31 29.11.2020
5139 Clouds 13 1023 47 10000 8.7 300 17:31 29.11.2020
5140 Clear 8 1023 61 10000 3.6 0 13:35 29.11.2020
5141 Clear 8 1023 61 10000 3.6 0 13:35 29.11.2020
5142 Clouds 7 1023 62 10000 3.1 0 12:43 29.11.2020
5143 Clouds 7 1022 56 10000 2.6 0 11:22 29.11.2020
5144 Clouds 7 1020 45 10000 3.1 0 08:52 29.11.2020
5145 Clouds 7 1020 45 10000 3.1 0 08:34 29.11.2020
5146 Clear 9 1018 72 10000 2.6 0 02:31 29.11.2020
5147 Clouds 13 1014 43 10000 9.3 290 22:58 28.11.2020
5148 Clouds 12 1014 58 10000 5.1 270 21:20 28.11.2020
5149 Clouds 12 1013 46 10000 7.7 290 19:54 28.11.2020
5150 Clouds 12 1013 46 10000 7.7 290 19:27 28.11.2020
5151 Clouds 13 1013 54 10000 8.2 290 18:52 28.11.2020
5152 Clouds 13 1012 50 10000 8.2 290 17:52 28.11.2020
5153 Clouds 14 1011 47 10000 8.2 290 16:52 28.11.2020
5154 Clouds 12 1010 66 10000 4.1 320 14:58 28.11.2020
5155 Clouds 12 1010 66 10000 6.2 320 13:30 28.11.2020
5156 Rain 11 1009 76 10000 4.6 270 11:23 28.11.2020
5157 Rain 13 1008 71 10000 4.6 250 07:55 28.11.2020
5158 Rain 13 1007 71 10000 4.1 230 03:33 28.11.2020
5159 Rain 13 1007 71 10000 5.7 280 01:51 28.11.2020
5160 Rain 13 1007 71 10000 5.7 270 23:18 27.11.2020
5161 Rain 13 1007 71 10000 6.2 260 21:51 27.11.2020
5162 Rain 15 1006 62 10000 7.7 260 20:37 27.11.2020
5163 Rain 15 1006 62 10000 7.7 260 19:30 27.11.2020
5164 Clouds 14 1006 53 10000 7.68 286 18:51 27.11.2020
5165 Rain 12 1008 66 10000 6.2 250 15:19 27.11.2020
5166 Rain 12 1008 66 10000 4.1 0 13:44 27.11.2020
5167 Rain 11 1007 71 10000 3.1 0 12:48 27.11.2020
5168 Rain 10 1008 76 10000 2.6 0 11:50 27.11.2020
5169 Rain 11 1008 66 10000 2.6 0 10:51 27.11.2020
5170 Rain 11 1008 66 10000 2.6 0 10:22 27.11.2020
5171 Clouds 5 1009 79 10000 3.46 305 07:30 27.11.2020
5172 Clouds 5 1009 79 10000 3.46 305 07:30 27.11.2020
5173 Clouds 12 1013 58 10000 7.2 260 22:42 26.11.2020
5174 Clouds 12 1013 58 10000 7.2 260 22:22 26.11.2020
5175 Rain 13 1014 54 10000 6.2 260 21:25 26.11.2020
5176 Rain 11 1016 57 10000 6.2 270 19:24 26.11.2020
5177 Rain 11 1016 57 10000 6.2 270 18:30 26.11.2020
5178 Clouds 11 1016 45 10000 4.71 287 16:20 26.11.2020
5179 Clouds 9 1019 56 10000 3.1 240 13:42 26.11.2020
5180 Clouds 8 1020 61 10000 2.1 0 12:44 26.11.2020
5181 Rain 7 1020 65 10000 3.6 250 11:47 26.11.2020
5182 Clouds 7 1020 81 10000 3.6 230 10:37 26.11.2020
5183 Clouds 7 1020 65 10000 4.1 250 09:48 26.11.2020
5184 Clouds 7 1020 65 10000 4.1 250 09:29 26.11.2020
5185 Clouds 7 1020 65 10000 5.1 270 08:39 26.11.2020
5186 Clouds 7 1020 65 10000 6.2 280 06:50 26.11.2020
5187 Clouds 10 1015 61 10000 3.1 0 23:54 25.11.2020
5188 Rain 9 1013 70 7000 6.7 280 20:46 25.11.2020
5189 Rain 7 1013 75 8000 3.6 0 19:55 25.11.2020
5190 Rain 5 1013 86 4000 5.1 260 18:28 25.11.2020
5191 Rain 5 1011 86 4000 4.1 270 16:43 25.11.2020
5192 Rain 8 1008 81 9000 3.1 0 15:38 25.11.2020
5193 Rain 8 1007 75 8000 5.1 0 13:56 25.11.2020
5194 Rain 7 1007 87 10000 3.6 270 13:37 25.11.2020
5195 Rain 7 1006 93 5000 4.1 310 11:44 25.11.2020
5196 Rain 7 1006 93 5000 4.1 310 11:18 25.11.2020
5197 Rain 8 1006 81 10000 3.1 180 09:18 25.11.2020
5198 Rain 8 1008 87 10000 3.6 290 08:41 25.11.2020
5199 Rain 9 1012 81 10000 2.6 0 03:59 25.11.2020
5200 Clouds 11 1013 62 10000 4.1 270 01:52 25.11.2020
5201 Clouds 13 1013 54 10000 3.6 290 00:22 25.11.2020
5202 Clouds 13 1013 54 10000 3.6 290 23:36 24.11.2020
5203 Clouds 13 1012 41 10000 6 287 22:57 24.11.2020
5204 Rain 13 1013 62 10000 6.7 290 21:51 24.11.2020
5205 Rain 13 1013 62 10000 6.7 290 21:28 24.11.2020
5206 Rain 14 1013 54 10000 7.2 300 20:19 24.11.2020
5207 Clouds 13 1014 54 10000 5.7 280 18:39 24.11.2020
5208 Clouds 12 1011 66 10000 4.1 270 17:29 24.11.2020
5209 Clouds 12 1011 66 10000 4.1 270 16:38 24.11.2020
5210 Clouds 12 1011 66 10000 4.1 270 15:56 24.11.2020
5211 Rain 12 1014 58 10000 6.2 280 15:20 24.11.2020
5212 Rain 12 1014 58 10000 6.2 280 14:45 24.11.2020
5213 Rain 12 1014 58 10000 6.2 280 14:21 24.11.2020
5214 Clouds 10 1013 57 10000 3.1 0 12:42 24.11.2020
5215 Clouds 10 1013 57 10000 3.1 0 12:21 24.11.2020
5216 Clouds 7 1014 81 10000 1 0 11:34 24.11.2020
5217 Clouds 7 1014 81 10000 2.1 310 10:25 24.11.2020
5218 Clouds 7 1014 81 10000 2.1 0 09:40 24.11.2020
5219 Clouds 9 1013 66 10000 2.1 0 08:59 24.11.2020
5220 Clear 10 1014 57 10000 5.7 240 06:42 24.11.2020
5221 Rain 10 1012 87 10000 3.6 290 01:24 24.11.2020
5222 Rain 11 1009 71 10000 5.7 260 22:24 23.11.2020
5223 Rain 11 1009 71 10000 5.7 260 22:24 23.11.2020
5224 Rain 11 1009 76 10000 5.1 260 21:32 23.11.2020
5225 Rain 10 1010 76 6000 5.7 260 20:32 23.11.2020
5226 Rain 11 1010 71 7000 6.2 0 19:59 23.11.2020
5227 Rain 13 1009 62 9000 8.2 270 17:57 23.11.2020
5228 Clouds 15 1008 47 10000 9.3 270 16:56 23.11.2020
5229 Rain 14 1008 50 10000 9.3 270 15:18 23.11.2020
5230 Clouds 14 1008 47 10000 7.7 270 14:37 23.11.2020
5231 Clouds 11 1009 57 10000 3.6 0 12:41 23.11.2020
5232 Clouds 11 1009 57 10000 3.6 0 12:18 23.11.2020
5233 Clouds 11 1009 53 10000 3.6 0 11:41 23.11.2020
5234 Clouds 11 1009 53 10000 3.6 240 10:19 23.11.2020
5235 Clouds 12 1009 46 10000 2.6 0 08:59 23.11.2020
5236 Clouds 12 1009 46 10000 2.6 0 08:18 23.11.2020
5237 Clouds 12 1010 50 10000 1.5 230 06:36 23.11.2020
5238 Clouds 16 1011 41 10000 4.6 290 23:59 22.11.2020
5239 Clouds 17 1011 39 10000 6.2 290 22:40 22.11.2020
5240 Clouds 16 1011 41 10000 5.7 190 21:26 22.11.2020
5241 Clouds 17 1011 42 10000 5.7 280 20:35 22.11.2020
5242 Clouds 17 1011 39 10000 7.2 260 19:36 22.11.2020
5243 Clouds 18 1011 39 10000 6.2 270 18:25 22.11.2020
5244 Clouds 16 1011 41 10000 3.6 0 16:29 22.11.2020
5245 Clouds 15 1012 51 10000 2.6 0 15:27 22.11.2020
5246 Clouds 12 1013 62 10000 3.1 310 13:32 22.11.2020
5247 Clouds 11 1013 66 10000 2.6 0 12:43 22.11.2020
5248 Clouds 9 1013 76 10000 3.1 310 11:54 22.11.2020
5249 Clouds 10 1013 76 10000 3.1 300 10:51 22.11.2020
5250 Clouds 10 1013 76 10000 3.1 300 10:33 22.11.2020
5251 Clouds 10 1013 76 10000 3.1 300 10:33 22.11.2020
5252 Clouds 11 1014 57 10000 5.1 150 04:43 22.11.2020
5253 Rain 12 1012 66 10000 3.6 0 00:49 22.11.2020
5254 Rain 13 1011 76 10000 1.5 0 22:42 21.11.2020
5255 Rain 13 1010 66 10000 5.7 260 21:32 21.11.2020
5256 Rain 14 1010 58 10000 6.7 240 20:49 21.11.2020
5257 Rain 14 1010 58 10000 6.7 240 20:20 21.11.2020
5258 Clouds 15 1010 54 10000 6.2 260 19:49 21.11.2020
5259 Clouds 15 1010 54 10000 6.2 260 19:18 21.11.2020
5260 Rain 15 1010 58 10000 2.6 0 17:31 21.11.2020
5261 Rain 15 1010 54 10000 4.1 270 16:45 21.11.2020
5262 Clouds 15 1011 58 10000 4.1 250 15:41 21.11.2020
5263 Clouds 15 1011 58 10000 4.1 250 15:20 21.11.2020
5264 Clouds 14 1011 58 10000 4.1 260 14:42 21.11.2020
5265 Clouds 13 1011 62 10000 2.1 0 12:44 21.11.2020
5266 Clouds 13 1011 62 10000 2.1 0 12:22 21.11.2020
5267 Clouds 11 1011 81 10000 1 0 11:49 21.11.2020
5268 Rain 11 1012 76 10000 2.1 0 10:28 21.11.2020
5269 Rain 12 1013 71 10000 2.1 0 08:52 21.11.2020
5270 Rain 12 1013 71 10000 2.1 0 08:19 21.11.2020
5271 Clouds 13 1014 66 10000 3.1 350 05:42 21.11.2020
5272 Clouds 16 1014 55 10000 3.1 0 01:59 21.11.2020
5273 Clouds 16 1014 59 10000 4.1 260 00:21 21.11.2020
5274 Rain 17 1014 63 10000 5.7 260 22:43 20.11.2020
5275 Rain 19 1012 52 10000 9.3 290 21:44 20.11.2020
5276 Rain 19 1012 52 10000 9.3 290 21:44 20.11.2020
5277 Clouds 19 1012 52 10000 9.3 290 21:21 20.11.2020
5278 Clouds 21 1012 43 10000 5.1 270 19:55 20.11.2020
5279 Clouds 22 1012 43 10000 7.7 280 18:53 20.11.2020
5280 Clear 23 1012 43 10000 5.1 310 17:58 20.11.2020
5281 Clear 23 1012 43 10000 5.1 310 17:29 20.11.2020
5282 Clear 21 1012 49 10000 3.1 0 16:40 20.11.2020
5283 Clear 19 1013 52 10000 4.6 310 15:59 20.11.2020
5284 Clear 19 1013 52 10000 4.6 310 15:34 20.11.2020
5285 Clear 16 1014 67 10000 2.6 290 13:48 20.11.2020
5286 Clear 16 1014 67 10000 2.6 290 13:19 20.11.2020
5287 Clear 15 1014 72 10000 2.6 270 12:36 20.11.2020
5288 Clear 13 1014 76 10000 2.1 280 11:45 20.11.2020
5289 Clear 13 1014 76 10000 2.1 280 11:20 20.11.2020
5290 Clear 14 1013 67 10000 3.1 290 09:30 20.11.2020
5291 Clear 14 1013 71 10000 2.6 300 08:26 20.11.2020
5292 Clear 14 1013 71 10000 2.6 310 07:33 20.11.2020
5293 Clear 16 1012 59 10000 0.5 0 03:44 20.11.2020
5294 Clear 30 1011 16 10000 5.7 290 22:42 19.11.2020
5295 Clear 30 1011 15 10000 3.6 0 21:57 19.11.2020
5296 Clear 30 1011 15 10000 3.6 0 21:38 19.11.2020
5297 Clear 30 1011 17 10000 4.1 290 20:33 19.11.2020
5298 Clear 30 1012 16 10000 4.1 310 19:49 19.11.2020
5299 Clear 30 1012 16 10000 4.1 310 19:24 19.11.2020
5300 Clear 26 1013 27 10000 3.1 330 17:40 19.11.2020
5301 Clear 23 1014 43 10000 2.1 290 16:54 19.11.2020
5302 Clear 20 1015 45 10000 1 0 15:36 19.11.2020
5303 Clear 20 1015 45 10000 1 0 15:18 19.11.2020
5304 Clear 14 1016 71 10000 1 0 13:46 19.11.2020
5305 Clear 14 1016 71 10000 1 0 13:18 19.11.2020
5306 Clear 12 1017 81 10000 1.15 253 12:35 19.11.2020
5307 Clear 9 1016 93 10000 0.63 282 11:44 19.11.2020
5308 Clear 9 1016 93 10000 0.61 317 11:25 19.11.2020
5309 Clear 10 1016 87 10000 2.6 300 10:52 19.11.2020
5310 Clear 9 1016 93 10000 1.5 280 09:58 19.11.2020
5311 Clear 9 1016 93 10000 1.5 280 09:37 19.11.2020
5312 Clear 9 1016 93 10000 1.5 280 09:18 19.11.2020
5313 Clear 11 1016 87 10000 2.6 300 08:19 19.11.2020
5314 Clear 18 1015 63 10000 3.1 300 02:20 19.11.2020
5315 Clear 21 1015 49 10000 2.6 300 01:30 19.11.2020
5316 Clear 28 1014 26 10000 4.1 300 23:47 18.11.2020
5317 Clear 28 1014 26 10000 4.1 300 23:47 18.11.2020
5318 Clear 28 1014 26 10000 4.1 300 23:24 18.11.2020
5319 Clear 28 1014 21 10000 3.1 320 22:30 18.11.2020
5320 Clear 29 1014 23 10000 2.1 0 21:47 18.11.2020
5321 Clear 29 1014 23 10000 2.1 0 21:27 18.11.2020
5322 Clear 28 1015 24 10000 3.6 0 20:41 18.11.2020
5323 Clear 27 1015 30 10000 2.6 0 19:45 18.11.2020
5324 Clear 27 1015 30 10000 2.6 0 19:25 18.11.2020
5325 Clear 26 1016 29 10000 2.1 320 18:48 18.11.2020
5326 Clear 24 1017 29 10000 1.5 330 17:55 18.11.2020
5327 Clear 21 1018 46 10000 1 0 16:58 18.11.2020
5328 Clear 21 1018 46 10000 1 0 16:21 18.11.2020
5329 Clear 16 1019 59 10000 2.1 290 14:43 18.11.2020
5330 Clear 16 1019 59 10000 2.1 290 14:25 18.11.2020
5331 Clear 13 1019 66 10000 0.85 247 13:29 18.11.2020
5332 Clear 11 1019 81 10000 0.85 247 12:44 18.11.2020
5333 Clear 7 1019 93 10000 1.15 265 11:57 18.11.2020
5334 Clear 7 1019 93 10000 0.85 264 11:22 18.11.2020
5335 Clear 8 1018 93 10000 1.5 300 10:30 18.11.2020
5336 Clear 9 1018 87 10000 1 0 08:43 18.11.2020
5337 Clear 10 1018 81 10000 1 0 07:28 18.11.2020
5338 Clear 14 1018 67 10000 3.1 300 04:34 18.11.2020
5339 Clear 24 1016 29 10000 3.1 300 00:20 18.11.2020
5340 Clear 26 1015 24 10000 2.6 290 23:24 17.11.2020
5341 Clouds 27 1015 22 10000 4.6 300 22:44 17.11.2020
5342 Clouds 27 1015 22 10000 4.6 300 22:25 17.11.2020
5343 Clear 26 1015 27 10000 2.6 120 21:46 17.11.2020
5344 Clear 26 1015 27 10000 2.6 120 21:22 17.11.2020
5345 Clear 27 1015 28 10000 2.1 0 20:43 17.11.2020
5346 Clear 27 1015 28 10000 2.1 0 20:22 17.11.2020
5347 Clear 23 1016 43 10000 3.6 320 18:56 17.11.2020
5348 Clear 23 1016 43 10000 3.6 320 18:22 17.11.2020
5349 Clear 21 1017 46 10000 2.1 310 17:27 17.11.2020
5350 Clear 18 1018 52 10000 2.1 310 16:30 17.11.2020
5351 Clear 16 1019 59 10000 1 0 15:53 17.11.2020
5352 Clear 16 1019 59 10000 1 0 15:34 17.11.2020
5353 Clear 14 1020 67 10000 0.5 0 14:57 17.11.2020
5354 Clear 14 1020 67 10000 0.5 0 14:28 17.11.2020
5355 Clear 11 1021 81 10000 0.4 218 13:41 17.11.2020
5356 Clear 9 1021 87 10000 0.42 256 13:19 17.11.2020
5357 Clear 9 1021 87 10000 0.42 256 12:40 17.11.2020
5358 Clear 5 1021 100 10000 0.65 251 11:44 17.11.2020
5359 Clear 6 1021 93 10000 0.5 0 10:50 17.11.2020
5360 Clear 6 1021 93 10000 0.5 0 10:23 17.11.2020
5361 Clear 6 1021 93 10000 1 0 09:50 17.11.2020
5362 Clear 6 1021 93 10000 1 0 09:27 17.11.2020
5363 Clear 8 1021 93 10000 3.1 290 08:22 17.11.2020
5364 Clear 8 1021 87 10000 2.1 300 07:44 17.11.2020
5365 Clear 8 1021 93 10000 2.1 290 06:33 17.11.2020
5366 Clear 12 1021 71 10000 2.6 280 03:31 17.11.2020
5367 Clear 13 1021 66 10000 2.1 310 02:35 17.11.2020
5368 Clear 15 1020 54 10000 2.6 270 01:23 17.11.2020
5369 Clear 17 1019 48 10000 4.1 300 00:42 17.11.2020
5370 Clear 19 1018 42 10000 4.6 300 23:41 16.11.2020
5371 Clear 19 1018 42 10000 4.6 300 23:22 16.11.2020
5372 Clear 19 1018 42 10000 4.1 300 22:37 16.11.2020
5373 Clear 19 1018 42 10000 4.1 300 22:18 16.11.2020
5374 Clear 20 1018 40 10000 4.1 120 21:43 16.11.2020
5375 Clear 20 1018 40 10000 4.1 120 21:23 16.11.2020
5376 Clear 18 1019 42 10000 4.6 310 20:27 16.11.2020
5377 Clear 18 1019 42 10000 4.6 310 19:56 16.11.2020
5378 Clear 18 1019 42 10000 4.6 310 19:31 16.11.2020
5379 Clouds 17 1019 45 10000 3.1 0 18:53 16.11.2020
5380 Clouds 17 1019 45 10000 3.1 0 18:26 16.11.2020
5381 Clouds 17 1019 45 10000 4.1 310 17:37 16.11.2020
5382 Clouds 17 1019 45 10000 4.1 310 17:19 16.11.2020
5383 Clouds 16 1020 51 10000 2.6 0 16:51 16.11.2020
5384 Clouds 16 1020 51 10000 2.6 0 16:26 16.11.2020
5385 Clouds 14 1021 58 10000 2.6 300 15:45 16.11.2020
5386 Clouds 14 1021 58 10000 2.6 300 15:45 16.11.2020
5387 Clouds 14 1021 58 10000 2.6 300 15:27 16.11.2020
5388 Clouds 12 1021 66 10000 2.6 260 14:48 16.11.2020
5389 Clouds 10 1022 71 10000 2.6 270 13:50 16.11.2020
5390 Clouds 10 1022 71 10000 2.6 270 13:18 16.11.2020
5391 Clouds 9 1022 76 10000 2.1 270 12:30 16.11.2020
5392 Clouds 8 1021 81 10000 2.1 290 11:41 16.11.2020
5393 Clouds 8 1021 81 10000 2.1 290 11:21 16.11.2020
5394 Clouds 7 1021 87 10000 2.6 290 10:44 16.11.2020
5395 Clouds 7 1021 87 10000 2.6 290 10:26 16.11.2020
5396 Clouds 8 1021 81 10000 2.1 290 09:50 16.11.2020
5397 Clouds 8 1021 81 10000 2.1 290 09:25 16.11.2020
5398 Clouds 9 1021 70 10000 2.1 260 08:42 16.11.2020
5399 Clouds 10 1021 71 10000 2.32 264 07:53 16.11.2020
5400 Clouds 10 1021 71 10000 1.5 320 06:56 16.11.2020
5401 Clouds 10 1021 71 10000 1.5 320 06:38 16.11.2020
5402 Clouds 11 1022 66 10000 2.1 290 05:22 16.11.2020
5403 Clouds 12 1021 62 10000 2.6 270 03:54 16.11.2020
5404 Clear 14 1020 54 10000 1.5 0 01:44 16.11.2020
5405 Clear 15 1019 54 10000 4.1 280 00:20 16.11.2020
5406 Clear 17 1018 45 10000 6.2 300 23:28 15.11.2020
5407 Clear 17 1018 48 10000 5.7 310 22:54 15.11.2020
5408 Clear 17 1018 48 10000 5.7 310 22:22 15.11.2020
5409 Clear 18 1017 42 10000 6.7 310 21:47 15.11.2020
5410 Clear 18 1017 42 10000 6.7 310 21:27 15.11.2020
5411 Clear 19 1017 39 10000 4.1 0 20:48 15.11.2020
5412 Clear 19 1017 39 10000 4.1 0 20:28 15.11.2020
5413 Clear 17 1018 42 10000 4.6 320 19:49 15.11.2020
5414 Clear 17 1018 42 10000 4.6 320 19:24 15.11.2020
5415 Clouds 19 1018 39 10000 4.1 310 18:59 15.11.2020
5416 Clear 19 1018 39 10000 4.1 310 18:41 15.11.2020
5417 Clear 19 1018 39 10000 4.1 310 18:21 15.11.2020
5418 Clear 16 1019 41 10000 3.6 300 17:46 15.11.2020
5419 Clear 16 1019 41 10000 3.6 300 17:25 15.11.2020
5420 Clear 15 1020 44 10000 4.1 300 16:51 15.11.2020
5421 Clear 15 1020 44 10000 4.1 300 16:21 15.11.2020
5422 Clear 13 1020 47 10000 4.1 310 15:56 15.11.2020
5423 Clear 13 1020 47 10000 4.1 310 15:29 15.11.2020
5424 Clear 10 1021 57 10000 2.6 280 14:59 15.11.2020
5425 Clear 10 1021 57 10000 2.6 280 14:35 15.11.2020
5426 Clear 8 1021 65 10000 3.1 270 13:57 15.11.2020
5427 Clear 8 1021 65 10000 3.1 270 13:37 15.11.2020
5428 Clear 6 1022 75 10000 3.1 270 12:52 15.11.2020
5429 Clear 6 1022 75 10000 3.1 270 12:25 15.11.2020
5430 Clouds 4 1022 80 10000 3.6 290 11:47 15.11.2020
5431 Clouds 4 1022 80 10000 3.6 290 11:21 15.11.2020
5432 Clouds 4 1021 80 10000 2.6 290 10:54 15.11.2020
5433 Clouds 4 1021 80 10000 2.6 290 10:33 15.11.2020
5434 Clear 4 1022 80 10000 2.6 300 09:59 15.11.2020
5435 Clear 4 1022 80 10000 2.6 300 09:40 15.11.2020
5436 Clear 4 1022 80 10000 2.6 300 09:19 15.11.2020
5437 Clear 4 1022 80 10000 3.1 300 08:50 15.11.2020
5438 Clear 4 1022 80 10000 2.6 300 07:48 15.11.2020
5439 Clear 6 1022 70 10000 2.1 280 06:55 15.11.2020
5440 Clear 9 1022 79 10000 4.6 250 04:58 15.11.2020
5441 Clear 10 1022 53 10000 4.1 240 02:43 15.11.2020
5442 Clouds 12 1020 46 10000 7.7 280 00:45 15.11.2020
5443 Clouds 12 1020 46 10000 7.7 280 00:26 15.11.2020
5444 Clear 14 1019 41 10000 9.8 300 23:34 14.11.2020
5445 Clear 14 1019 44 10000 11.3 290 22:46 14.11.2020
5446 Clear 14 1019 44 10000 11.3 290 22:46 14.11.2020
5447 Clear 14 1019 44 10000 11.3 290 22:28 14.11.2020
5448 Clouds 15 1018 38 10000 10.8 290 21:41 14.11.2020
5449 Clouds 15 1018 38 10000 10.8 290 21:22 14.11.2020
5450 Clouds 15 1018 38 10000 9.8 290 20:50 14.11.2020
5451 Clouds 15 1018 38 10000 9.8 290 20:26 14.11.2020
5452 Clouds 15 1018 41 10000 9.3 290 19:46 14.11.2020
5453 Clouds 15 1018 41 10000 9.3 290 19:28 14.11.2020
5454 Clouds 15 1018 41 10000 9.8 290 18:43 14.11.2020
5455 Clouds 15 1018 41 10000 9.8 290 18:23 14.11.2020
5456 Clouds 14 1018 44 10000 7.7 290 17:49 14.11.2020
5457 Clouds 14 1018 44 10000 7.7 290 17:31 14.11.2020
5458 Clouds 13 1018 43 10000 8.2 290 16:56 14.11.2020
5459 Clouds 13 1018 43 10000 8.2 290 16:36 14.11.2020
5460 Clouds 13 1018 43 10000 8.2 290 16:18 14.11.2020
5461 Clouds 12 1017 54 10000 8.7 290 15:44 14.11.2020
5462 Clouds 12 1017 54 10000 8.7 290 15:18 14.11.2020
5463 Clouds 11 1017 57 10000 7.2 280 14:38 14.11.2020
5464 Clouds 11 1017 57 10000 7.2 280 14:20 14.11.2020
5465 Rain 10 1016 61 10000 5.1 260 13:40 14.11.2020
5466 Rain 10 1016 61 10000 5.1 260 13:21 14.11.2020
5467 Rain 9 1016 66 10000 5.7 270 12:43 14.11.2020
5468 Clouds 9 1016 66 10000 5.7 270 12:23 14.11.2020
5469 Clouds 8 1015 65 10000 6.7 270 11:41 14.11.2020
5470 Clouds 8 1015 65 10000 6.7 270 11:22 14.11.2020
5471 Clouds 8 1015 70 10000 6.2 270 10:41 14.11.2020
5472 Clouds 8 1015 70 10000 6.2 270 10:23 14.11.2020
5473 Clouds 9 1015 61 10000 9.3 280 09:45 14.11.2020
5474 Rain 9 1015 61 10000 9.3 280 09:27 14.11.2020
5475 Rain 8 1015 75 10000 7.7 290 08:48 14.11.2020
5476 Rain 8 1015 75 10000 7.7 290 08:26 14.11.2020
5477 Rain 9 1014 66 10000 5.1 270 07:42 14.11.2020
5478 Rain 9 1014 66 10000 5.1 270 07:21 14.11.2020
5479 Rain 9 1014 70 10000 7.2 280 06:29 14.11.2020
5480 Clouds 9 1014 70 10000 6.7 280 05:18 14.11.2020
5481 Rain 9 1014 76 10000 6.2 270 03:28 14.11.2020
5482 Rain 11 1012 66 10000 7.2 270 00:42 14.11.2020
5483 Rain 12 1011 62 10000 7.2 270 23:38 13.11.2020
5484 Rain 12 1011 62 10000 7.2 270 23:19 13.11.2020
5485 Rain 14 1011 50 10000 7.2 280 22:41 13.11.2020
5486 Clouds 14 1011 50 10000 7.2 280 22:22 13.11.2020
5487 Clouds 12 1011 52 10000 6.07 275 21:51 13.11.2020
5488 Clouds 14 1011 44 10000 8.6 277 21:27 13.11.2020
5489 Clouds 14 1011 44 10000 8.6 277 20:54 13.11.2020
5490 Clouds 14 1011 44 10000 8.6 277 20:33 13.11.2020
5491 Clouds 16 1010 39 10000 8.29 282 19:59 13.11.2020
5492 Clouds 16 1010 39 10000 8.29 282 19:40 13.11.2020
5493 Clouds 16 1010 38 10000 8.02 288 19:22 13.11.2020
5494 Clouds 16 1010 38 10000 8.02 288 18:44 13.11.2020
5495 Clouds 16 1011 40 10000 7.14 287 17:47 13.11.2020
5496 Clouds 14 1011 67 10000 5.1 290 17:24 13.11.2020
5497 Clouds 14 1011 67 10000 5.1 290 16:59 13.11.2020
5498 Clouds 14 1011 67 10000 5.1 290 16:40 13.11.2020
5499 Clouds 14 1011 58 10000 3.6 270 16:20 13.11.2020
5500 Clouds 14 1011 58 10000 3.6 270 15:41 13.11.2020
5501 Clouds 14 1011 58 10000 3.6 270 15:21 13.11.2020
5502 Clouds 13 1012 76 10000 1.5 0 14:38 13.11.2020
5503 Clouds 13 1012 76 10000 1.5 0 14:18 13.11.2020
5504 Clear 10 1012 93 10000 2.1 290 13:32 13.11.2020
5505 Clouds 10 1012 93 10000 2.1 290 12:59 13.11.2020
5506 Clouds 10 1012 93 10000 2.1 290 12:41 13.11.2020
5507 Rain 10 1012 93 10000 2.1 290 12:23 13.11.2020
5508 Rain 10 1012 93 10000 1.5 250 11:47 13.11.2020
5509 Rain 10 1012 93 10000 1.5 250 11:22 13.11.2020
5510 Rain 10 1012 93 10000 0.5 0 10:51 13.11.2020
5511 Rain 10 1012 93 10000 0.5 0 10:33 13.11.2020
5512 Rain 10 1012 93 10000 1.89 278 09:52 13.11.2020
5513 Rain 10 1012 93 10000 1.89 278 09:31 13.11.2020
5514 Rain 10 1013 93 10000 2.1 280 08:54 13.11.2020
5515 Rain 10 1013 93 10000 2.1 280 08:29 13.11.2020
5516 Rain 10 1013 93 10000 1.5 290 07:51 13.11.2020
5517 Rain 10 1013 93 10000 1.5 290 07:27 13.11.2020
5518 Rain 11 1014 87 10000 1 290 06:56 13.11.2020
5519 Rain 11 1014 87 10000 1 290 06:37 13.11.2020
5520 Rain 11 1014 87 10000 1.5 290 05:41 13.11.2020
5521 Clouds 14 1015 62 10000 2.6 360 03:44 13.11.2020
5522 Clouds 15 1014 51 10000 3.6 250 01:42 13.11.2020
5523 Clouds 15 1014 51 10000 2.1 0 00:37 13.11.2020
5524 Clouds 16 1014 48 10000 4.6 0 23:50 12.11.2020
5525 Clouds 16 1014 48 10000 4.6 0 23:21 12.11.2020
5526 Clouds 17 1014 42 10000 4.1 270 22:55 12.11.2020
5527 Clouds 17 1014 42 10000 4.1 270 22:37 12.11.2020
5528 Clouds 17 1014 48 10000 8.7 280 21:59 12.11.2020
5529 Clouds 17 1014 48 10000 8.7 280 21:40 12.11.2020
5530 Clouds 17 1014 48 10000 8.7 280 21:22 12.11.2020
5531 Clouds 16 1014 51 10000 7.7 280 20:42 12.11.2020
5532 Clouds 16 1014 51 10000 7.7 280 20:23 12.11.2020
5533 Clouds 19 1014 42 10000 6.2 280 19:53 12.11.2020
5534 Clouds 19 1014 42 10000 6.2 280 19:34 12.11.2020
5535 Clear 18 1014 36 10000 6.7 280 18:59 12.11.2020
5536 Clear 18 1014 36 10000 6.7 280 18:41 12.11.2020
5537 Clear 18 1014 36 10000 6.7 280 18:20 12.11.2020
5538 Clouds 18 1013 34 10000 4.03 266 17:40 12.11.2020
5539 Clouds 16 1015 48 10000 4.6 280 17:22 12.11.2020
5540 Clouds 16 1015 48 10000 4.6 280 16:45 12.11.2020
5541 Clouds 15 1015 44 10000 2.84 276 16:23 12.11.2020
5542 Clouds 15 1015 44 10000 2.84 276 15:52 12.11.2020
5543 Clouds 15 1016 54 10000 2.1 0 15:28 12.11.2020
5544 Clouds 15 1016 54 10000 2.1 0 14:56 12.11.2020
5545 Clouds 15 1016 54 10000 2.1 0 14:37 12.11.2020
5546 Clouds 15 1016 54 10000 2.1 0 14:18 12.11.2020
5547 Clouds 13 1017 71 10000 3.1 290 13:43 12.11.2020
5548 Clouds 13 1017 71 10000 3.1 290 13:19 12.11.2020
5549 Clouds 12 1017 71 10000 2.1 270 12:47 12.11.2020
5550 Clouds 12 1017 71 10000 2.1 270 12:25 12.11.2020
5551 Clouds 12 1017 71 10000 1.5 290 11:53 12.11.2020
5552 Clouds 12 1017 71 10000 1.5 290 11:34 12.11.2020
5553 Clouds 11 1017 76 10000 1.5 310 10:49 12.11.2020
5554 Clouds 11 1017 76 10000 1.5 310 10:29 12.11.2020
5555 Clouds 11 1017 71 10000 1 0 09:50 12.11.2020
5556 Clouds 11 1017 71 10000 1 0 09:25 12.11.2020
5557 Clouds 11 1017 76 10000 2.02 297 08:58 12.11.2020
5558 Clouds 11 1017 76 10000 2.02 297 08:40 12.11.2020
5559 Clouds 11 1017 76 10000 1.92 288 08:20 12.11.2020
5560 Clouds 11 1017 71 10000 1 0 07:54 12.11.2020
5561 Clouds 11 1017 71 10000 1 0 07:30 12.11.2020
5562 Clouds 10 1018 76 10000 2.1 300 06:51 12.11.2020
5563 Clear 10 1018 76 10000 2.1 300 06:21 12.11.2020
5564 Clear 14 1017 54 10000 3.6 260 03:43 12.11.2020
5565 Clear 14 1017 54 10000 3.6 260 03:18 12.11.2020
5566 Clear 17 1015 48 10000 4.6 270 00:25 12.11.2020
5567 Clear 20 1014 34 10000 5.1 280 23:40 11.11.2020
5568 Clear 20 1014 34 10000 5.1 280 23:22 11.11.2020
5569 Clear 21 1013 35 10000 6.2 280 22:43 11.11.2020
5570 Clear 21 1013 35 10000 6.2 280 22:21 11.11.2020
5571 Clear 22 1013 33 10000 6.2 290 21:56 11.11.2020
5572 Clear 22 1013 33 10000 6.2 290 21:38 11.11.2020
5573 Clear 22 1013 33 10000 6.2 290 21:18 11.11.2020
5574 Clear 22 1013 33 10000 5.7 280 20:42 11.11.2020
5575 Clear 22 1013 33 10000 5.7 280 20:21 11.11.2020
5576 Clear 22 1013 33 10000 4.1 0 19:50 11.11.2020
5577 Clear 22 1013 33 10000 4.1 0 19:32 11.11.2020
5578 Clear 21 1014 35 10000 5.7 310 18:55 11.11.2020
5579 Clear 21 1014 35 10000 5.7 310 18:36 11.11.2020
5580 Clouds 24 1012 33 10000 4.18 269 17:45 11.11.2020
5581 Clear 17 1014 59 10000 2.6 300 17:24 11.11.2020
5582 Clear 17 1014 59 10000 2.6 300 16:57 11.11.2020
5583 Clear 17 1014 59 10000 2.6 300 16:37 11.11.2020
5584 Clear 16 1014 63 10000 3.1 260 15:56 11.11.2020
5585 Clear 16 1014 63 10000 3.1 260 15:37 11.11.2020
5586 Clear 16 1014 63 10000 3.1 260 15:18 11.11.2020
5587 Clear 13 1015 71 10000 2.6 280 14:43 11.11.2020
5588 Clear 13 1015 71 10000 2.6 280 14:23 11.11.2020
5589 Clear 11 1015 81 10000 2.6 300 13:44 11.11.2020
5590 Clear 9 1015 87 10000 2.6 300 12:55 11.11.2020
5591 Clear 9 1015 87 10000 2.6 300 12:21 11.11.2020
5592 Clear 7 1014 93 10000 0.5 0 11:51 11.11.2020
5593 Clear 7 1014 93 10000 0.5 0 11:33 11.11.2020
5594 Clear 8 1014 93 10000 0.87 293 10:43 11.11.2020
5595 Clear 8 1014 93 10000 0.76 310 10:25 11.11.2020
5596 Clear 9 1014 87 10000 2.6 300 09:52 11.11.2020
5597 Clear 9 1014 87 10000 2.6 300 09:29 11.11.2020
5598 Clear 9 1014 87 10000 0.68 296 08:57 11.11.2020
5599 Clear 9 1014 87 10000 0.68 296 08:36 11.11.2020
5600 Clear 9 1014 87 10000 0.56 295 08:18 11.11.2020
5601 Clear 9 1014 87 10000 1.5 300 07:41 11.11.2020
5602 Clear 12 1015 76 10000 1.5 0 06:30 11.11.2020
5603 Clear 14 1015 71 10000 2.6 310 04:48 11.11.2020
5604 Clear 18 1015 59 10000 2.6 300 01:36 11.11.2020
5605 Clear 25 1014 25 10000 2.6 320 00:55 11.11.2020
5606 Clear 25 1014 25 10000 2.6 320 00:22 11.11.2020
5607 Clear 27 1014 24 10000 2.6 330 23:25 10.11.2020
5608 Clear 27 1014 21 10000 4.1 300 22:59 10.11.2020
5609 Clear 27 1014 21 10000 4.1 300 22:37 10.11.2020
5610 Clear 27 1014 21 10000 4.1 300 22:19 10.11.2020
5611 Clear 27 1014 21 10000 4.1 300 22:19 10.11.2020
5612 Clear 27 1014 26 10000 1 0 21:40 10.11.2020
5613 Clear 27 1014 26 10000 1 0 21:22 10.11.2020
5614 Clear 26 1015 27 10000 1.5 10 20:43 10.11.2020
5615 Clear 26 1015 27 10000 1.5 10 20:23 10.11.2020
5616 Clear 25 1016 29 10000 2.1 0 19:57 10.11.2020
5617 Clear 25 1016 29 10000 2.1 0 19:39 10.11.2020
5618 Clear 25 1016 29 10000 2.1 0 19:20 10.11.2020
5619 Clear 23 1017 35 10000 2.1 0 18:41 10.11.2020
5620 Clear 23 1017 35 10000 2.1 0 18:21 10.11.2020
5621 Clear 21 1018 43 10000 1.5 0 17:45 10.11.2020
5622 Clear 21 1018 43 10000 1.5 0 17:45 10.11.2020
5623 Clear 21 1018 43 10000 1.5 0 17:27 10.11.2020
5624 Clear 19 1019 48 10000 1.5 0 16:58 10.11.2020
5625 Clear 19 1019 48 10000 1.5 0 16:39 10.11.2020
5626 Clear 19 1019 48 10000 1.5 0 16:20 10.11.2020
5627 Clear 16 1019 67 10000 2.1 290 15:47 10.11.2020
5628 Clear 13 1020 76 10000 1 0 15:27 10.11.2020
5629 Clear 13 1020 76 10000 1 0 14:42 10.11.2020
5630 Clear 13 1020 76 10000 1 0 14:23 10.11.2020
5631 Clouds 11 1021 81 10000 1 0 13:58 10.11.2020
5632 Clouds 11 1021 81 10000 1 0 13:36 10.11.2020
5633 Clouds 11 1021 81 10000 1 0 13:18 10.11.2020
5634 Clouds 10 1021 87 10000 2.6 300 12:44 10.11.2020
5635 Clouds 9 1021 93 10000 1 0 12:24 10.11.2020
5636 Clouds 9 1021 93 10000 1 0 11:40 10.11.2020
5637 Clouds 9 1021 93 10000 1 0 11:20 10.11.2020
5638 Clouds 8 1021 93 10000 1.19 260 10:46 10.11.2020
5639 Clouds 8 1021 93 10000 1.45 262 10:27 10.11.2020
5640 Clouds 8 1021 93 10000 1.45 262 10:27 10.11.2020
5641 Clear 9 1021 93 10000 1.5 0 09:51 10.11.2020
5642 Clear 9 1021 93 10000 1.5 0 09:29 10.11.2020
5643 Clouds 10 1020 87 10000 2.1 290 08:59 10.11.2020
5644 Clouds 10 1020 87 10000 2.1 290 08:40 10.11.2020
5645 Clouds 10 1020 87 10000 2.1 290 08:22 10.11.2020
5646 Clouds 11 1020 81 10000 2.1 300 07:39 10.11.2020
5647 Clouds 11 1020 81 10000 2.1 300 07:20 10.11.2020
5648 Clear 12 1020 76 10000 3.1 300 06:38 10.11.2020
5649 Clear 12 1020 76 10000 3.6 290 05:33 10.11.2020
5650 Clear 14 1020 67 10000 3.1 290 03:36 10.11.2020
5651 Clear 18 1019 52 10000 3.1 280 01:41 10.11.2020
5652 Clear 22 1018 30 10000 4.6 310 00:52 10.11.2020
5653 Clear 23 1017 28 10000 5.1 310 23:47 09.11.2020
5654 Clear 23 1017 28 10000 5.1 310 23:23 09.11.2020
5655 Clouds 24 1017 27 10000 4.6 310 22:42 09.11.2020
5656 Clouds 24 1017 27 10000 4.6 310 22:22 09.11.2020
5657 Clear 24 1017 29 10000 3.1 0 21:44 09.11.2020
5658 Clear 24 1017 29 10000 3.1 0 21:26 09.11.2020
5659 Clear 23 1017 31 10000 4.1 0 20:42 09.11.2020
5660 Clear 23 1017 31 10000 4.1 0 20:22 09.11.2020
5661 Clear 23 1018 33 10000 4.6 130 19:48 09.11.2020
5662 Clear 23 1018 35 10000 2.6 0 19:24 09.11.2020
5663 Clear 23 1018 35 10000 2.6 0 19:24 09.11.2020
5664 Clear 23 1018 35 10000 2.6 0 18:58 09.11.2020
5665 Clear 23 1018 35 10000 2.6 0 18:39 09.11.2020
5666 Clear 23 1018 35 10000 2.6 0 18:19 09.11.2020
5667 Clear 21 1019 37 10000 2.6 340 17:43 09.11.2020
5668 Clear 19 1019 52 10000 3.6 290 17:25 09.11.2020
5669 Clear 19 1019 52 10000 3.6 290 16:44 09.11.2020
5670 Clear 19 1019 52 10000 3.6 290 16:23 09.11.2020
5671 Clear 17 1020 59 10000 2.6 280 15:45 09.11.2020
5672 Clear 14 1021 76 10000 3.1 270 15:25 09.11.2020
5673 Clear 14 1021 76 10000 3.1 270 14:49 09.11.2020
5674 Clear 14 1021 76 10000 3.1 270 14:28 09.11.2020
5675 Clouds 11 1022 87 10000 2.6 250 13:52 09.11.2020
5676 Clouds 11 1022 87 10000 2.6 250 13:25 09.11.2020
5677 Clouds 9 1022 93 10000 2.6 290 12:57 09.11.2020
5678 Clouds 9 1022 93 10000 2.6 290 12:39 09.11.2020
5679 Clouds 9 1022 93 10000 2.6 290 12:20 09.11.2020
5680 Clouds 9 1021 93 10000 3.1 290 11:42 09.11.2020
5681 Clouds 9 1021 93 10000 3.1 290 11:24 09.11.2020
5682 Clouds 9 1021 93 10000 3.1 290 11:24 09.11.2020
5683 Clear 9 1021 93 10000 3.1 280 10:44 09.11.2020
5684 Clear 9 1021 93 10000 3.1 280 10:25 09.11.2020
5685 Clear 9 1020 93 10000 2.1 280 09:52 09.11.2020
5686 Clear 9 1020 93 10000 2.1 280 09:28 09.11.2020
5687 Clear 9 1020 93 10000 1.5 310 08:49 09.11.2020
5688 Clear 9 1020 93 10000 1.5 310 08:27 09.11.2020
5689 Clear 10 1020 81 10000 1.5 300 07:43 09.11.2020
5690 Clear 10 1020 81 10000 1.5 300 07:21 09.11.2020
5691 Clear 11 1020 76 10000 3.6 290 06:48 09.11.2020
5692 Clear 14 1020 62 10000 3.1 290 03:49 09.11.2020
5693 Clear 18 1018 45 10000 2.6 280 01:55 09.11.2020
5694 Clear 18 1018 45 10000 2.6 280 01:37 09.11.2020
5695 Clear 24 1017 22 10000 5.7 300 23:55 08.11.2020
5696 Clear 24 1017 22 10000 5.7 300 23:37 08.11.2020
5697 Clear 24 1017 22 10000 5.7 300 23:18 08.11.2020
5698 Clear 25 1016 22 10000 3.1 0 22:41 08.11.2020
5699 Clear 25 1016 22 10000 3.1 0 22:20 08.11.2020
5700 Clear 25 1016 22 10000 3.1 0 22:20 08.11.2020
5701 Clear 25 1016 23 10000 2.6 0 21:42 08.11.2020
5702 Clear 25 1016 23 10000 2.6 0 21:20 08.11.2020
5703 Clear 25 1017 25 10000 2.6 290 20:55 08.11.2020
5704 Clear 25 1017 25 10000 2.6 290 20:36 08.11.2020
5705 Clear 25 1017 25 10000 2.6 290 20:18 08.11.2020
5706 Clear 24 1017 31 10000 3.1 0 19:42 08.11.2020
5707 Clear 24 1017 31 10000 3.1 0 19:21 08.11.2020
5708 Clear 23 1018 31 10000 2.6 330 18:48 08.11.2020
5709 Clear 23 1018 31 10000 2.6 330 18:48 08.11.2020
5710 Clear 23 1018 31 10000 2.6 330 18:22 08.11.2020
5711 Clear 21 1018 40 10000 2.6 340 17:58 08.11.2020
5712 Clear 21 1018 40 10000 2.6 340 17:58 08.11.2020
5713 Clear 18 1020 45 10000 2.6 310 17:38 08.11.2020
5714 Clear 18 1020 45 10000 2.6 310 17:19 08.11.2020
5715 Clear 18 1020 45 10000 2.6 310 16:48 08.11.2020
5716 Clear 18 1020 45 10000 2.6 310 16:22 08.11.2020
5717 Clear 16 1020 51 10000 1.31 217 15:58 08.11.2020
5718 Clear 16 1020 51 10000 1.31 217 15:40 08.11.2020
5719 Clear 16 1020 51 10000 1.14 204 15:21 08.11.2020
5720 Clear 13 1021 62 10000 1.14 204 14:41 08.11.2020
5721 Clear 10 1022 81 10000 1.5 300 14:21 08.11.2020
5722 Clear 10 1022 81 10000 1.5 300 13:46 08.11.2020
5723 Clear 10 1022 81 10000 1.5 300 13:23 08.11.2020
5724 Clear 10 1022 81 10000 1.5 300 13:23 08.11.2020
5725 Clear 8 1022 93 10000 0.5 0 12:44 08.11.2020
5726 Clear 8 1022 93 10000 0.5 0 12:25 08.11.2020
5727 Clear 6 1022 93 10000 1.5 280 11:58 08.11.2020
5728 Clear 6 1022 93 10000 1.5 280 11:39 08.11.2020
5729 Clear 6 1022 93 10000 1.5 280 11:20 08.11.2020
5730 Clear 6 1022 93 10000 1.5 280 11:20 08.11.2020
5731 Clear 6 1021 93 10000 1.28 240 10:49 08.11.2020
5732 Clear 6 1021 93 10000 1.11 238 10:18 08.11.2020
5733 Clear 7 1021 93 10000 1.5 290 09:44 08.11.2020
5734 Clear 7 1021 93 10000 1.5 290 09:24 08.11.2020
5735 Clear 7 1020 93 10000 2.1 300 08:55 08.11.2020
5736 Clear 7 1020 93 10000 2.1 300 08:36 08.11.2020
5737 Clear 9 1021 81 10000 3.6 290 07:58 08.11.2020
5738 Clear 9 1021 81 10000 3.6 290 07:39 08.11.2020
5739 Clear 9 1021 81 10000 3.6 290 07:18 08.11.2020
5740 Clear 10 1021 81 10000 3.6 290 05:55 08.11.2020
5741 Clear 10 1021 81 10000 3.6 290 05:26 08.11.2020
5742 Clear 12 1021 71 10000 3.1 280 03:46 08.11.2020
5743 Clear 16 1019 48 10000 2.1 300 01:49 08.11.2020
5744 Clear 16 1019 48 10000 2.1 300 01:49 08.11.2020
5745 Clear 16 1019 48 10000 2.1 300 01:18 08.11.2020
5746 Clear 21 1018 28 10000 4.1 310 00:23 08.11.2020
5747 Clear 22 1018 26 10000 3.1 320 23:43 07.11.2020
5748 Clear 22 1018 26 10000 3.1 320 23:24 07.11.2020
5749 Clear 23 1017 25 10000 4.1 310 22:41 07.11.2020
5750 Clear 23 1017 25 10000 4.1 310 22:21 07.11.2020
5751 Clear 23 1017 27 10000 3.1 0 21:45 07.11.2020
5752 Clear 23 1017 27 10000 3.1 0 21:21 07.11.2020
5753 Clear 23 1017 28 10000 4.1 310 20:50 07.11.2020
5754 Clear 23 1017 28 10000 4.1 310 20:31 07.11.2020
5755 Clear 22 1018 25 10000 3.1 320 19:51 07.11.2020
5756 Clear 22 1018 26 10000 3.1 320 19:29 07.11.2020
5757 Clear 20 1018 34 10000 3.1 0 18:58 07.11.2020
5758 Clear 20 1018 34 10000 3.1 0 18:37 07.11.2020
5759 Clear 20 1018 34 10000 3.1 0 18:18 07.11.2020
5760 Clear 19 1019 45 10000 2.6 0 17:38 07.11.2020
5761 Clear 16 1020 55 10000 2.1 0 16:58 07.11.2020
5762 Clear 16 1020 55 10000 2.1 0 16:40 07.11.2020
5763 Clear 16 1020 55 10000 2.1 0 16:21 07.11.2020
5764 Clear 13 1021 66 10000 2.6 310 15:43 07.11.2020
5765 Clear 13 1021 66 10000 2.6 310 15:23 07.11.2020
5766 Clear 11 1022 81 10000 1 0 14:48 07.11.2020
5767 Clear 11 1022 81 10000 1 0 14:29 07.11.2020
5768 Clouds 8 1022 93 10000 1 0 13:56 07.11.2020
5769 Clouds 8 1022 93 10000 1 0 13:31 07.11.2020
5770 Clouds 7 1022 93 10000 3.1 290 12:55 07.11.2020
5771 Clouds 7 1022 93 10000 3.1 290 12:26 07.11.2020
5772 Clouds 5 1022 100 10000 1.61 229 11:45 07.11.2020
5773 Clouds 5 1022 100 10000 1.46 239 11:23 07.11.2020
5774 Clouds 6 1021 100 10000 1.46 239 10:46 07.11.2020
5775 Clouds 6 1021 100 10000 1.5 243 10:27 07.11.2020
5776 Clouds 7 1021 93 10000 2.6 300 09:54 07.11.2020
5777 Clouds 7 1021 93 10000 2.6 300 09:36 07.11.2020
5778 Clouds 8 1021 87 10000 2.6 290 08:53 07.11.2020
5779 Clouds 8 1021 87 10000 2.6 290 08:35 07.11.2020
5780 Clouds 8 1021 87 10000 2.6 290 07:51 07.11.2020
5781 Clouds 8 1021 87 10000 2.6 290 07:29 07.11.2020
5782 Clouds 9 1021 87 10000 2.6 290 06:47 07.11.2020
5783 Clouds 9 1021 81 10000 3.1 290 05:24 07.11.2020
5784 Clear 11 1021 71 10000 3.1 280 03:24 07.11.2020
5785 Clear 14 1020 62 10000 3.1 290 01:29 07.11.2020
5786 Clear 17 1019 48 10000 3.6 280 00:59 07.11.2020
5787 Clear 19 1019 37 10000 5.1 310 23:53 06.11.2020
5788 Clear 19 1019 37 10000 5.1 310 23:21 06.11.2020
5789 Clear 20 1018 32 10000 3.6 300 22:41 06.11.2020
5790 Clear 20 1018 32 10000 3.6 300 22:19 06.11.2020
5791 Clear 20 1018 34 10000 3.1 290 21:46 06.11.2020
5792 Clear 20 1018 34 10000 3.1 290 21:21 06.11.2020
5793 Clear 19 1019 34 10000 2.1 0 20:56 06.11.2020
5794 Clear 19 1019 34 10000 2.1 0 20:38 06.11.2020
5795 Clear 19 1019 34 10000 2.1 0 20:18 06.11.2020
5796 Clear 18 1017 32 10000 1.81 240 19:44 06.11.2020
5797 Clear 17 1020 39 10000 2.1 0 19:26 06.11.2020
5798 Clear 17 1020 39 10000 2.1 0 18:45 06.11.2020
5799 Clear 17 1020 39 10000 2.1 0 18:23 06.11.2020
5800 Clear 16 1021 44 10000 1 0 17:51 06.11.2020
5801 Clear 16 1021 44 10000 1 0 17:26 06.11.2020
5802 Clear 14 1022 54 10000 1 0 16:50 06.11.2020
5803 Clear 14 1022 54 10000 1 0 16:27 06.11.2020
5804 Clouds 12 1023 58 10000 1.5 0 15:49 06.11.2020
5805 Clouds 12 1023 58 10000 1.5 0 15:29 06.11.2020
5806 Clouds 10 1024 76 10000 0.5 0 14:53 06.11.2020
5807 Clouds 10 1024 76 10000 0.5 0 14:27 06.11.2020
5808 Clouds 8 1024 87 10000 1.5 270 13:47 06.11.2020
5809 Clouds 8 1024 87 10000 1.5 270 13:24 06.11.2020
5810 Clouds 7 1024 87 10000 0.76 189 12:46 06.11.2020
5811 Clouds 7 1024 87 10000 1.01 235 12:25 06.11.2020
5812 Clouds 5 1024 93 10000 1.01 235 11:55 06.11.2020
5813 Clouds 5 1024 93 10000 1.01 235 11:35 06.11.2020
5814 Clouds 5 1023 93 10000 3.1 300 10:46 06.11.2020
5815 Clouds 5 1023 93 10000 3.1 300 10:25 06.11.2020
5816 Clouds 6 1023 93 10000 2.1 280 09:49 06.11.2020
5817 Clouds 6 1023 93 10000 2.1 280 09:22 06.11.2020
5818 Clouds 5 1023 93 10000 0.7 302 08:51 06.11.2020
5819 Clouds 5 1023 93 10000 1.33 281 08:29 06.11.2020
5820 Clouds 6 1023 93 10000 3.1 280 07:53 06.11.2020
5821 Clouds 6 1023 93 10000 3.1 280 07:34 06.11.2020
5822 Clear 6 1023 93 10000 1.5 310 06:58 06.11.2020
5823 Clear 6 1023 93 10000 1.5 310 06:24 06.11.2020
5824 Clouds 8 1023 81 10000 1.5 310 04:42 06.11.2020
5825 Clouds 11 1022 62 10000 5.7 270 01:22 06.11.2020
5826 Clouds 11 1022 62 10000 6.2 280 00:22 06.11.2020
5827 Clouds 13 1021 54 10000 7.7 280 23:32 05.11.2020
5828 Clouds 13 1021 54 10000 8.7 280 22:58 05.11.2020
5829 Clouds 13 1021 54 10000 8.7 280 22:39 05.11.2020
5830 Clouds 13 1021 54 10000 8.7 280 22:20 05.11.2020
5831 Rain 14 1020 50 10000 10.3 290 21:43 05.11.2020
5832 Rain 14 1020 50 10000 10.3 290 21:22 05.11.2020
5833 Rain 13 1020 54 10000 10.3 290 20:55 05.11.2020
5834 Rain 13 1020 54 10000 10.3 290 20:37 05.11.2020
5835 Rain 13 1020 54 10000 10.3 290 20:18 05.11.2020
5836 Clouds 13 1020 58 10000 8.7 280 19:41 05.11.2020
5837 Clouds 13 1020 58 10000 8.7 280 19:22 05.11.2020
5838 Clouds 14 1019 50 10000 11.3 300 18:45 05.11.2020
5839 Clouds 14 1019 50 10000 11.3 300 18:26 05.11.2020
5840 Clouds 13 1020 54 10000 8.7 290 17:52 05.11.2020
5841 Clouds 13 1020 54 10000 8.7 290 17:29 05.11.2020
5842 Clouds 13 1020 58 10000 7.2 280 16:58 05.11.2020
5843 Clouds 13 1020 58 10000 7.2 280 16:40 05.11.2020
5844 Clouds 13 1020 58 10000 7.2 280 16:19 05.11.2020
5845 Clouds 13 1019 54 10000 9.8 280 15:43 05.11.2020
5846 Clouds 13 1019 54 10000 9.8 280 15:21 05.11.2020
5847 Clouds 12 1019 58 10000 7.7 270 14:45 05.11.2020
5848 Clouds 12 1019 58 10000 7.7 270 14:25 05.11.2020
5849 Clouds 11 1019 62 10000 5.1 250 13:42 05.11.2020
5850 Clouds 11 1019 62 10000 5.1 250 13:23 05.11.2020
5851 Clouds 7 1019 87 10000 3.6 290 12:48 05.11.2020
5852 Clouds 7 1019 87 10000 3.6 290 12:24 05.11.2020
5853 Rain 6 1018 93 10000 3.6 290 11:49 05.11.2020
5854 Rain 6 1018 93 10000 3.6 290 11:26 05.11.2020
5855 Rain 5 1017 93 10000 3.6 280 10:53 05.11.2020
5856 Rain 5 1017 93 10000 3.6 280 10:30 05.11.2020
5857 Rain 5 1017 93 10000 4.1 270 09:55 05.11.2020
5858 Rain 5 1017 93 10000 4.1 270 09:37 05.11.2020
5859 Rain 5 1017 93 10000 4.1 270 09:18 05.11.2020
5860 Rain 5 1016 93 10000 3.1 280 08:43 05.11.2020
5861 Rain 5 1016 93 10000 3.1 280 08:23 05.11.2020
5862 Rain 5 1015 93 10000 2.6 280 07:29 05.11.2020
5863 Rain 5 1016 93 10000 2.1 290 06:51 05.11.2020
5864 Rain 5 1016 93 10000 2.1 290 06:33 05.11.2020
5865 Rain 7 1014 75 10000 3.6 0 03:46 05.11.2020
5866 Rain 7 1013 87 10000 1.5 0 00:45 05.11.2020
5867 Rain 7 1013 87 10000 1.5 0 00:25 05.11.2020
5868 Rain 7 1013 87 10000 3.1 190 23:43 04.11.2020
5869 Rain 7 1013 87 10000 3.1 190 23:24 04.11.2020
5870 Rain 8 1013 87 10000 2.1 30 22:44 04.11.2020
5871 Rain 8 1013 87 10000 2.1 30 22:22 04.11.2020
5872 Rain 8 1012 75 10000 2.6 0 21:47 04.11.2020
5873 Rain 8 1012 75 10000 2.6 0 21:27 04.11.2020
5874 Rain 9 1013 81 9000 3.1 280 20:56 04.11.2020
5875 Rain 9 1013 81 9000 3.1 280 20:36 04.11.2020
5876 Rain 9 1013 76 10000 3.6 0 19:59 04.11.2020
5877 Rain 9 1013 76 10000 3.6 0 19:40 04.11.2020
5878 Rain 9 1013 76 10000 3.6 0 19:40 04.11.2020
5879 Rain 9 1013 76 10000 3.6 0 19:40 04.11.2020
5880 Rain 9 1013 76 10000 3.6 0 19:40 04.11.2020
5881 Rain 9 1013 76 10000 3.6 0 19:22 04.11.2020
5882 Rain 7 1013 81 4000 4.1 260 18:41 04.11.2020
5883 Rain 7 1013 81 4000 4.1 260 18:23 04.11.2020
5884 Rain 7 1013 87 4000 3.1 250 17:48 04.11.2020
5885 Rain 7 1013 87 4000 3.1 250 17:27 04.11.2020
5886 Rain 7 1013 87 4000 3.1 250 17:27 04.11.2020
5887 Rain 11 1011 62 9000 4.1 280 16:56 04.11.2020
5888 Rain 11 1011 62 9000 4.1 280 16:36 04.11.2020
5889 Rain 11 1011 62 9000 4.1 280 16:18 04.11.2020
5890 Rain 11 1012 57 7000 6.2 280 15:41 04.11.2020
5891 Rain 11 1012 57 7000 6.2 280 15:23 04.11.2020
5892 Clouds 11 1012 57 10000 5.7 280 14:45 04.11.2020
5893 Clouds 11 1012 57 10000 5.7 280 14:24 04.11.2020
5894 Clouds 11 1012 62 10000 4.1 280 13:51 04.11.2020
5895 Clouds 11 1012 62 10000 4.1 280 13:21 04.11.2020
5896 Clouds 8 1012 87 10000 1 0 12:58 04.11.2020
5897 Clouds 8 1012 87 10000 1 0 12:58 04.11.2020
5898 Clouds 8 1012 87 10000 1 0 12:40 04.11.2020
5899 Clouds 8 1012 87 10000 1 0 12:40 04.11.2020
5900 Clouds 8 1012 87 10000 1 0 12:21 04.11.2020
5901 Rain 9 1011 81 10000 3.1 0 11:44 04.11.2020
5902 Rain 9 1011 81 10000 3.1 0 11:21 04.11.2020
5903 Rain 10 1009 87 10000 2.1 0 10:48 04.11.2020
5904 Rain 10 1009 87 10000 2.1 0 10:23 04.11.2020
5905 Rain 9 1009 100 10000 3.38 317 09:55 04.11.2020
5906 Rain 9 1009 100 10000 2.72 291 09:28 04.11.2020
5907 Rain 10 1009 93 10000 2.1 290 08:48 04.11.2020
5908 Rain 10 1009 93 10000 2.1 290 08:23 04.11.2020
5909 Rain 11 1009 87 10000 2.1 310 07:57 04.11.2020
5910 Rain 11 1009 87 10000 2.1 310 07:31 04.11.2020
5911 Clouds 11 1010 87 10000 2.1 0 06:58 04.11.2020
5912 Clouds 11 1010 87 10000 2.1 0 06:38 04.11.2020
5913 Clouds 14 1010 58 10000 2.35 307 04:18 04.11.2020
5914 Clouds 16 1011 44 10000 2.6 0 02:31 04.11.2020
5915 Clear 17 1011 42 10000 3.6 0 01:22 04.11.2020
5916 Clouds 20 1011 32 10000 3.6 260 23:50 03.11.2020
5917 Clouds 20 1011 32 10000 3.6 260 23:24 03.11.2020
5918 Clouds 20 1011 34 10000 4.6 270 22:42 03.11.2020
5919 Clouds 20 1011 34 10000 4.6 270 22:22 03.11.2020
5920 Clear 22 1010 28 10000 7.7 270 21:59 03.11.2020
5921 Clear 22 1010 28 10000 7.7 270 21:41 03.11.2020
5922 Clear 22 1010 28 10000 7.7 270 21:21 03.11.2020
5923 Clear 23 1010 25 10000 5.1 290 20:45 03.11.2020
5924 Clear 23 1010 25 10000 5.1 290 20:26 03.11.2020
5925 Clear 23 1010 23 10000 8.2 290 19:45 03.11.2020
5926 Clear 22 1012 30 10000 2.1 70 19:25 03.11.2020
5927 Clear 22 1012 30 10000 2.1 70 19:25 03.11.2020
5928 Clear 22 1012 30 10000 2.1 70 18:56 03.11.2020
5929 Clear 22 1012 30 10000 2.1 70 18:38 03.11.2020
5930 Clear 22 1012 30 10000 2.1 70 18:18 03.11.2020
5931 Clouds 19 1012 28 10000 1.99 252 17:42 03.11.2020
5932 Clear 16 1014 51 10000 2.1 320 17:23 03.11.2020
5933 Clouds 18 1012 29 10000 1.97 251 16:45 03.11.2020
5934 Clear 13 1015 71 10000 1.5 0 16:24 03.11.2020
5935 Clear 13 1015 71 10000 1.5 0 15:48 03.11.2020
5936 Clear 13 1015 71 10000 1.5 0 15:29 03.11.2020
5937 Clouds 10 1017 81 10000 2.1 300 14:53 03.11.2020
5938 Clouds 10 1017 81 10000 2.1 300 14:33 03.11.2020
5939 Clouds 8 1017 93 10000 1.5 300 13:47 03.11.2020
5940 Clouds 8 1017 93 10000 1.5 300 13:23 03.11.2020
5941 Clear 11 1016 49 10000 1.25 270 12:59 03.11.2020
5942 Clear 11 1016 49 10000 1.25 270 12:38 03.11.2020
5943 Clear 9 1016 58 10000 1.19 271 12:19 03.11.2020
5944 Clear 9 1016 58 10000 1.19 271 11:42 03.11.2020
5945 Clear 7 1016 70 10000 1.18 268 11:20 03.11.2020
5946 Clear 7 1016 70 10000 1.18 268 10:40 03.11.2020
5947 Clear 6 1016 72 10000 1.54 272 10:21 03.11.2020
5948 Clear 6 1016 72 10000 1.54 272 09:52 03.11.2020
5949 Clear 6 1016 72 10000 1.54 272 09:33 03.11.2020
5950 Clear 7 1016 73 10000 1.61 277 08:56 03.11.2020
5951 Clear 7 1016 73 10000 1.61 277 08:35 03.11.2020
5952 Clear 7 1016 73 10000 1.75 270 07:57 03.11.2020
5953 Clear 7 1016 73 10000 1.75 270 07:35 03.11.2020
5954 Clouds 9 1016 68 10000 1.74 271 06:51 03.11.2020
5955 Clouds 9 1016 66 10000 1.69 267 05:49 03.11.2020
5956 Clouds 11 1016 56 10000 2.01 268 03:20 03.11.2020
5957 Clouds 15 1014 50 10000 2.14 255 00:42 03.11.2020
5958 Clouds 17 1013 46 10000 2.3 238 23:54 02.11.2020
5959 Clouds 17 1013 46 10000 2.3 238 23:36 02.11.2020
5960 Clouds 19 1012 38 10000 3.08 244 22:55 02.11.2020
5961 Clear 20 1013 37 10000 3.1 0 22:36 02.11.2020
5962 Clear 20 1013 37 10000 3.1 0 21:59 02.11.2020
5963 Clear 20 1013 37 10000 3.1 0 21:38 02.11.2020
5964 Clear 20 1013 37 10000 3.1 0 21:19 02.11.2020
5965 Clear 20 1013 37 10000 3.1 0 21:19 02.11.2020
5966 Clear 21 1013 35 10000 3.1 0 20:39 02.11.2020
5967 Clear 21 1013 35 10000 3.1 0 20:20 02.11.2020
5968 Clear 21 1014 32 10000 2.6 320 19:46 02.11.2020
5969 Clear 21 1014 32 10000 2.6 320 19:27 02.11.2020
5970 Clear 19 1014 52 10000 2.6 310 18:56 02.11.2020
5971 Clear 18 1014 55 10000 2.6 270 18:38 02.11.2020
5972 Clear 18 1014 55 10000 2.6 270 18:19 02.11.2020
5973 Clear 18 1014 55 10000 2.6 270 17:41 02.11.2020
5974 Clear 18 1014 55 10000 2.6 270 17:23 02.11.2020
5975 Clouds 21 1012 29 10000 1.51 244 16:49 02.11.2020
5976 Clouds 13 1016 71 10000 2.6 270 16:28 02.11.2020
5977 Clouds 13 1016 71 10000 2.6 270 15:55 02.11.2020
5978 Clouds 13 1016 71 10000 2.6 270 15:37 02.11.2020
5979 Clouds 13 1016 71 10000 2.6 270 15:19 02.11.2020
5980 Clouds 18 1014 34 10000 1.9 240 14:42 02.11.2020
5981 Clouds 16 1014 38 10000 1.68 244 14:19 02.11.2020
5982 Clouds 16 1014 38 10000 1.68 244 13:47 02.11.2020
5983 Clouds 15 1015 43 10000 1.64 253 13:22 02.11.2020
5984 Clouds 15 1015 43 10000 1.46 250 12:50 02.11.2020
5985 Clouds 13 1015 49 10000 1.57 263 12:26 02.11.2020
5986 Clouds 13 1015 49 10000 1.57 263 11:46 02.11.2020
5987 Clouds 11 1015 59 10000 1.5 261 11:20 02.11.2020
5988 Clouds 11 1015 59 10000 1.5 261 10:46 02.11.2020
5989 Clouds 10 1015 60 10000 1.25 268 10:24 02.11.2020
5990 Clouds 10 1015 60 10000 1.25 268 09:55 02.11.2020
5991 Clouds 11 1015 61 10000 1.33 272 09:27 02.11.2020
5992 Clouds 11 1015 61 10000 1.33 272 08:48 02.11.2020
5993 Clear 11 1015 63 10000 1.55 269 08:29 02.11.2020
5994 Clear 11 1015 63 10000 1.55 269 07:55 02.11.2020
5995 Clear 11 1015 63 10000 1.55 269 07:32 02.11.2020
5996 Clouds 12 1015 63 10000 1.65 264 06:44 02.11.2020
5997 Clouds 13 1015 59 10000 1.77 268 04:56 02.11.2020
5998 Clouds 17 1015 42 10000 2.14 261 01:26 02.11.2020
5999 Clouds 17 1015 42 10000 2 265 00:36 02.11.2020
6000 Clouds 21 1014 37 10000 2.2 268 23:55 01.11.2020
6001 Clouds 21 1014 37 10000 2.2 268 23:36 01.11.2020
6002 Clouds 24 1013 26 10000 3.5 274 23:18 01.11.2020
6003 Clouds 24 1013 26 10000 3.5 274 22:38 01.11.2020
6004 Clouds 25 1013 21 10000 3.34 275 22:18 01.11.2020
6005 Clouds 25 1013 21 10000 3.34 275 21:41 01.11.2020
6006 Clouds 26 1013 21 10000 3.29 260 21:23 01.11.2020
6007 Clouds 26 1013 21 10000 3.29 260 20:45 01.11.2020
6008 Clouds 26 1013 22 10000 3.26 253 20:25 01.11.2020
6009 Clouds 26 1013 22 10000 3.26 253 19:46 01.11.2020
6010 Clouds 26 1014 23 10000 2.3 252 19:28 01.11.2020
6011 Clouds 26 1013 23 10000 2.06 249 18:57 01.11.2020
6012 Clouds 26 1014 23 10000 2.3 252 18:38 01.11.2020
6013 Clouds 25 1014 24 10000 1.68 246 18:19 01.11.2020
6014 Clouds 25 1014 24 10000 1.68 246 17:43 01.11.2020
6015 Clouds 24 1015 29 10000 1.68 241 17:25 01.11.2020
6016 Clouds 24 1015 29 10000 1.68 241 16:44 01.11.2020
6017 Clouds 23 1015 33 10000 1.77 242 16:25 01.11.2020
6018 Clouds 23 1015 33 10000 1.77 242 15:55 01.11.2020
6019 Clouds 23 1015 33 10000 1.77 242 15:37 01.11.2020
6020 Clouds 21 1016 36 10000 1.31 246 15:18 01.11.2020
6021 Clouds 21 1016 36 10000 1.31 246 14:45 01.11.2020
6022 Clear 20 1016 40 10000 1.01 250 14:22 01.11.2020
6023 Clear 20 1016 40 10000 1.01 250 13:49 01.11.2020
6024 Clear 20 1016 40 10000 1.01 250 13:31 01.11.2020
6025 Clouds 18 1016 45 10000 0.63 280 12:56 01.11.2020
6026 Clouds 18 1016 45 10000 0.63 280 12:37 01.11.2020
6027 Clear 16 1016 52 10000 0.45 297 12:18 01.11.2020
6028 Clear 16 1016 52 10000 0.45 297 11:44 01.11.2020
6029 Clear 12 1017 65 10000 0.53 298 11:18 01.11.2020
6030 Clear 12 1017 65 10000 0.53 298 10:41 01.11.2020
6031 Clear 7 1018 93 10000 0.61 286 10:22 01.11.2020
6032 Clear 7 1018 93 10000 0.61 286 09:47 01.11.2020
6033 Clear 8 1018 87 10000 0.63 263 08:52 01.11.2020
6034 Clear 8 1018 87 10000 0.63 263 08:33 01.11.2020
6035 Clear 9 1018 87 10000 2.1 300 07:45 01.11.2020
6036 Clear 10 1018 81 10000 3.1 300 06:22 01.11.2020
6037 Clear 19 1017 48 10000 2.1 300 01:53 01.11.2020
6038 Clear 22 1016 33 10000 2.1 270 00:53 01.11.2020
6039 Clear 26 1015 22 10000 3.1 320 23:39 31.10.2020
6040 Clear 26 1015 22 10000 3.1 320 23:18 31.10.2020
6041 Clouds 28 1015 23 10000 3.1 300 22:43 31.10.2020
6042 Clouds 28 1015 23 10000 3.1 300 22:23 31.10.2020
6043 Clear 28 1015 21 10000 1.5 0 21:46 31.10.2020
6044 Clear 28 1015 21 10000 1.5 0 21:20 31.10.2020
6045 Clear 27 1015 24 10000 2.6 340 20:39 31.10.2020
6046 Clear 27 1015 24 10000 2.6 340 20:19 31.10.2020
6047 Clear 26 1016 26 10000 2.1 320 19:41 31.10.2020
6048 Clear 26 1016 26 10000 2.1 320 19:41 31.10.2020
6049 Clear 26 1016 26 10000 2.1 320 19:23 31.10.2020
6050 Clear 24 1017 31 10000 2.1 0 18:48 31.10.2020
6051 Clear 24 1017 31 10000 2.1 0 18:30 31.10.2020
6052 Clear 21 1018 37 10000 1 0 17:41 31.10.2020
6053 Clear 21 1018 37 10000 1 0 17:23 31.10.2020
6054 Clear 18 1019 48 10000 1 0 16:48 31.10.2020
6055 Clear 18 1019 48 10000 1 0 16:29 31.10.2020
6056 Clear 16 1020 51 10000 0.56 142 15:54 31.10.2020
6057 Clear 16 1020 51 10000 0.54 120 15:25 31.10.2020
6058 Clear 12 1021 66 10000 1.5 0 14:53 31.10.2020
6059 Clear 12 1021 66 10000 1.5 0 14:31 31.10.2020
6060 Clear 10 1021 71 10000 1 0 13:52 31.10.2020
6061 Clear 10 1021 71 10000 1 0 13:28 31.10.2020
6062 Clear 6 1021 93 10000 0.11 31 12:48 31.10.2020
6063 Clear 6 1021 93 10000 0.25 284 12:21 31.10.2020
6064 Clear 4 1021 100 10000 0.25 284 11:40 31.10.2020
6065 Clear 4 1021 100 10000 0.17 290 11:21 31.10.2020
6066 Clear 5 1021 93 10000 0.17 290 10:40 31.10.2020
6067 Clear 5 1020 100 10000 0.43 293 09:56 31.10.2020
6068 Clear 5 1020 100 10000 0.43 293 09:37 31.10.2020
6069 Clear 5 1020 100 10000 0.72 269 09:18 31.10.2020
6070 Clear 6 1020 93 10000 2.1 300 08:22 31.10.2020
6071 Clear 7 1021 87 10000 1.5 290 07:29 31.10.2020
6072 Clear 8 1021 81 10000 0.96 264 06:56 31.10.2020
6073 Clear 8 1021 81 10000 0.92 270 06:36 31.10.2020
6074 Clear 12 1020 62 10000 2.6 310 03:47 31.10.2020
6075 Clear 14 1020 58 10000 3.6 280 02:27 31.10.2020
6076 Clear 21 1019 30 10000 3.1 290 00:51 31.10.2020
6077 Clear 24 1018 44 10000 4.1 310 23:54 30.10.2020
6078 Clear 24 1018 32 10000 4.1 310 23:29 30.10.2020
6079 Clear 25 1018 17 10000 4.1 300 22:59 30.10.2020
6080 Clear 25 1018 17 10000 4.1 300 22:37 30.10.2020
6081 Clear 25 1018 17 10000 4.1 300 22:18 30.10.2020
6082 Clear 25 1018 17 10000 4.1 300 22:18 30.10.2020
6083 Clear 25 1018 28 10000 1.5 300 21:42 30.10.2020
6084 Clear 25 1018 27 10000 1.5 300 21:22 30.10.2020
6085 Clear 24 1019 27 10000 3.1 310 20:45 30.10.2020
6086 Clear 24 1019 28 10000 3.1 310 20:26 30.10.2020
6087 Clear 23 1020 28 10000 3.1 320 19:54 30.10.2020
6088 Clear 23 1020 28 10000 3.1 320 19:22 30.10.2020
6089 Clear 21 1020 28 10000 2.6 310 18:53 30.10.2020
6090 Clear 21 1020 28 10000 2.6 310 18:34 30.10.2020
6091 Clear 18 1022 42 10000 0.5 0 17:59 30.10.2020
6092 Clear 18 1022 42 10000 0.5 0 17:40 30.10.2020
6093 Clear 18 1022 42 10000 0.5 0 17:20 30.10.2020
6094 Clear 15 1023 51 10000 1 0 16:49 30.10.2020
6095 Clear 15 1023 51 10000 1 0 16:24 30.10.2020
6096 Clear 12 1023 54 10000 1 0 15:41 30.10.2020
6097 Clear 12 1023 54 10000 1 0 15:20 30.10.2020
6098 Clear 10 1024 66 10000 1 0 14:46 30.10.2020
6099 Clear 6 1025 81 10000 0.5 0 14:28 30.10.2020
6100 Clear 6 1025 81 10000 0.5 0 13:55 30.10.2020
6101 Clear 6 1025 81 10000 0.5 0 13:37 30.10.2020
6102 Clear 6 1025 81 10000 0.5 0 13:18 30.10.2020
6103 Fog 2 1025 100 700 0.54 273 12:24 30.10.2020
6104 Clear 1 1024 100 10000 0.54 273 11:59 30.10.2020
6105 Clear 1 1024 100 10000 0.54 273 11:40 30.10.2020
6106 Clear 1 1024 100 10000 0.62 312 11:18 30.10.2020
6107 Clear 2 1024 93 10000 0.5 290 10:40 30.10.2020
6108 Clear 2 1024 93 10000 0.5 290 10:21 30.10.2020
6109 Clear 3 1024 93 10000 0.65 310 09:44 30.10.2020
6110 Clear 3 1024 93 10000 0.62 254 09:22 30.10.2020
6111 Clear 4 1024 93 10000 1 300 08:41 30.10.2020
6112 Clear 4 1024 93 10000 1 300 08:23 30.10.2020
6113 Clear 4 1024 93 10000 1.5 280 07:48 30.10.2020
6114 Clear 4 1024 93 10000 1.5 280 07:30 30.10.2020
6115 Clear 6 1024 87 10000 2.6 310 06:35 30.10.2020
6116 Clear 8 1024 75 10000 3.1 290 04:37 30.10.2020
6117 Clear 10 1023 61 10000 2.6 290 02:24 30.10.2020
6118 Clear 15 1022 41 10000 2.1 280 00:39 30.10.2020
6119 Clear 18 1022 23 10000 4.6 310 23:48 29.10.2020
6120 Clear 18 1022 23 10000 4.6 310 23:30 29.10.2020
6121 Clear 19 1022 24 10000 5.1 300 22:50 29.10.2020
6122 Clear 19 1022 24 10000 5.1 300 22:27 29.10.2020
6123 Clear 19 1022 24 10000 3.6 300 21:51 29.10.2020
6124 Clear 19 1022 24 10000 3.6 300 21:28 29.10.2020
6125 Clear 18 1022 25 10000 2.1 290 20:59 29.10.2020
6126 Clear 18 1022 25 10000 2.1 290 20:40 29.10.2020
6127 Clear 18 1022 25 10000 2.1 290 20:40 29.10.2020
6128 Clear 18 1022 25 10000 2.1 290 20:18 29.10.2020
6129 Clear 18 1023 27 10000 3.1 320 19:40 29.10.2020
6130 Clear 18 1023 27 10000 3.1 320 19:21 29.10.2020
6131 Clear 16 1022 32 10000 1.92 224 18:47 29.10.2020
6132 Clear 14 1024 44 10000 2.1 320 18:27 29.10.2020
6133 Clear 14 1024 44 10000 2.1 320 17:43 29.10.2020
6134 Clear 14 1024 44 10000 2.1 320 17:25 29.10.2020
6135 Clear 13 1025 50 10000 2.6 320 16:58 29.10.2020
6136 Clear 13 1025 50 10000 2.6 320 16:37 29.10.2020
6137 Clear 13 1025 50 10000 2.6 320 16:18 29.10.2020
6138 Clear 10 1026 57 10000 2.1 260 15:41 29.10.2020
6139 Clear 10 1026 57 10000 2.1 260 15:22 29.10.2020
6140 Clear 7 1027 70 10000 2.6 270 14:59 29.10.2020
6141 Clear 7 1027 70 10000 2.6 270 14:40 29.10.2020
6142 Clear 7 1027 70 10000 2.6 270 14:18 29.10.2020
6143 Clear 5 1027 75 10000 2.1 280 13:41 29.10.2020
6144 Clear 5 1027 75 10000 2.1 280 13:22 29.10.2020
6145 Clear 3 1028 86 10000 2.1 280 12:42 29.10.2020
6146 Clear 3 1028 86 10000 2.1 280 12:19 29.10.2020
6147 Clear 2 1028 93 10000 3.6 280 11:48 29.10.2020
6148 Clear 2 1028 93 10000 3.6 280 11:26 29.10.2020
6149 Clear 2 1027 84 10000 2.6 300 10:38 29.10.2020
6150 Clear 2 1027 89 10000 2.6 300 10:20 29.10.2020
6151 Clear 2 1027 93 10000 2.6 280 09:53 29.10.2020
6152 Clear 2 1027 93 10000 2.6 280 09:28 29.10.2020
6153 Clear 3 1027 86 10000 3.6 270 08:58 29.10.2020
6154 Clear 3 1027 86 10000 3.6 270 08:38 29.10.2020
6155 Clear 3 1028 86 10000 3.1 290 07:58 29.10.2020
6156 Clear 3 1028 86 10000 3.1 290 07:39 29.10.2020
6157 Clear 3 1028 86 10000 2.1 290 06:57 29.10.2020
6158 Clear 4 1028 80 10000 2.6 280 05:35 29.10.2020
6159 Clear 5 1028 75 10000 2.1 290 04:45 29.10.2020
6160 Clouds 10 1026 70 10000 5.7 290 01:25 29.10.2020
6161 Clouds 5 1026 70 10000 3.47 266 00:31 29.10.2020
6162 Clouds 6 1025 62 10000 3.98 262 23:49 28.10.2020
6163 Clouds 12 1024 55 10000 9.3 290 23:22 28.10.2020
6164 Clouds 12 1024 55 10000 9.3 290 22:45 28.10.2020
6165 Clouds 12 1024 51 10000 9.3 290 22:26 28.10.2020
6166 Clouds 11 1023 50 10000 9.3 300 21:58 28.10.2020
6167 Clouds 11 1023 50 10000 9.3 300 21:40 28.10.2020
6168 Clouds 11 1023 50 10000 9.3 300 21:20 28.10.2020
6169 Clouds 12 1023 46 10000 9.3 290 20:42 28.10.2020
6170 Clouds 12 1023 46 10000 9.3 290 20:22 28.10.2020
6171 Clouds 11 1022 50 10000 9.3 300 19:50 28.10.2020
6172 Clouds 11 1022 50 10000 9.3 300 19:28 28.10.2020
6173 Clouds 11 1022 50 10000 7.7 280 18:48 28.10.2020
6174 Clouds 11 1022 50 10000 7.7 280 18:21 28.10.2020
6175 Clouds 11 1022 50 10000 7.7 280 18:21 28.10.2020
6176 Clouds 10 1022 47 10000 4.1 270 17:45 28.10.2020
6177 Clouds 10 1022 49 10000 4.1 270 17:25 28.10.2020
6178 Clouds 10 1021 46 10000 6.2 270 16:57 28.10.2020
6179 Clouds 10 1021 46 10000 6.2 270 16:38 28.10.2020
6180 Clouds 10 1021 46 10000 6.2 270 16:20 28.10.2020
6181 Clear 9 1019 49 10000 7.2 270 15:37 28.10.2020
6182 Clear 9 1019 49 10000 7.2 270 15:18 28.10.2020
6183 Clouds 8 1019 54 10000 5.41 265 14:42 28.10.2020
6184 Clear 7 1019 57 10000 5.43 266 14:22 28.10.2020
6185 Clouds 6 1017 65 10000 4.5 265 12:42 28.10.2020
6186 Clouds 4 1016 74 10000 3.66 273 12:22 28.10.2020
6187 Clouds 4 1016 74 10000 3.66 273 11:56 28.10.2020
6188 Clouds 4 1016 74 10000 3.66 273 11:36 28.10.2020
6189 Clouds 3 1014 82 10000 3.13 281 11:18 28.10.2020
6190 Clouds 3 1014 82 10000 3.13 281 10:44 28.10.2020
6191 Rain 6 1011 87 10000 5.7 310 10:26 28.10.2020
6192 Rain 6 1011 87 10000 5.7 310 09:43 28.10.2020
6193 Rain 6 1011 87 10000 5.7 310 09:23 28.10.2020
6194 Rain 5 1010 93 10000 3.6 320 08:50 28.10.2020
6195 Rain 5 1010 93 10000 3.6 320 08:29 28.10.2020
6196 Rain 5 1009 93 10000 3.1 290 07:52 28.10.2020
6197 Rain 5 1009 93 10000 3.1 290 07:31 28.10.2020
6198 Rain 5 1009 93 10000 3.6 290 06:42 28.10.2020
6199 Rain 5 1009 93 10000 3.6 290 06:23 28.10.2020
6200 Rain 5 1008 93 10000 2.1 280 05:22 28.10.2020
6201 Rain 6 1008 87 10000 1.5 0 04:28 28.10.2020
6202 Rain 6 1007 81 10000 2.1 300 02:26 28.10.2020
6203 Rain 7 1007 75 10000 2.1 0 01:52 28.10.2020
6204 Rain 7 1006 70 10000 2.6 0 00:29 28.10.2020
6205 Rain 8 1006 61 10000 6.7 270 23:45 27.10.2020
6206 Rain 8 1006 61 10000 6.7 270 23:21 27.10.2020
6207 Clear 9 1005 57 10000 5.1 250 22:44 27.10.2020
6208 Clear 9 1005 57 10000 5.1 250 22:19 27.10.2020
6209 Clouds 9 1006 52 10000 7.45 285 21:56 27.10.2020
6210 Rain 10 1005 57 10000 8.2 280 21:37 27.10.2020
6211 Rain 10 1005 57 10000 8.2 280 21:37 27.10.2020
6212 Rain 10 1005 57 10000 8.2 280 21:19 27.10.2020
6213 Rain 10 1005 57 10000 8.2 280 20:45 27.10.2020
6214 Rain 10 1005 57 10000 8.2 280 20:23 27.10.2020
6215 Rain 9 1005 66 10000 6.2 260 19:40 27.10.2020
6216 Rain 9 1005 66 10000 6.2 260 19:21 27.10.2020
6217 Clouds 11 1005 50 10000 9.3 270 18:59 27.10.2020
6218 Clouds 11 1005 50 10000 9.3 270 18:40 27.10.2020
6219 Clouds 11 1005 50 10000 9.3 270 18:21 27.10.2020
6220 Clouds 9 1006 50 10000 8.7 285 17:44 27.10.2020
6221 Rain 8 1006 53 10000 7.95 284 17:22 27.10.2020
6222 Rain 8 1006 53 10000 7.95 284 16:57 27.10.2020
6223 Rain 8 1006 53 10000 7.95 284 16:39 27.10.2020
6224 Rain 7 1006 58 2568 6.1 283 16:20 27.10.2020
6225 Rain 7 1006 58 2568 6.1 283 15:40 27.10.2020
6226 Rain 5 1006 86 10000 2.6 0 15:21 27.10.2020
6227 Rain 5 1006 86 10000 2.6 0 14:48 27.10.2020
6228 Rain 5 1006 86 10000 2.6 0 14:29 27.10.2020
6229 Rain 5 1006 80 10000 3.6 210 13:54 27.10.2020
6230 Rain 5 1006 80 10000 3.6 210 13:24 27.10.2020
6231 Rain 3 1006 93 10000 2.1 310 12:42 27.10.2020
6232 Rain 3 1006 93 10000 2.1 310 12:24 27.10.2020
6233 Rain 3 1006 93 10000 1.5 0 11:44 27.10.2020
6234 Rain 3 1006 93 10000 1.5 0 11:26 27.10.2020
6235 Rain 4 1006 86 8000 2.6 300 10:51 27.10.2020
6236 Rain 4 1006 86 8000 2.6 300 10:33 27.10.2020
6237 Clouds 3 1005 93 10000 1 0 09:47 27.10.2020
6238 Clouds 3 1005 93 10000 1 0 09:27 27.10.2020
6239 Clouds 4 1006 86 10000 1 0 08:49 27.10.2020
6240 Clouds 4 1006 86 10000 1 0 08:26 27.10.2020
6241 Rain 5 1006 75 10000 2.6 0 07:47 27.10.2020
6242 Rain 5 1006 75 10000 2.6 0 07:29 27.10.2020
6243 Clouds 5 1006 75 10000 1 0 06:39 27.10.2020
6244 Clouds 5 1006 75 10000 1 0 06:19 27.10.2020
6245 Clear 4 1007 86 10000 2.1 0 05:44 27.10.2020
6246 Clouds 4 1008 86 10000 0.5 0 04:57 27.10.2020
6247 Rain 6 1008 93 10000 1 0 02:35 27.10.2020
6248 Rain 7 1007 93 10000 1.5 290 00:59 27.10.2020
6249 Rain 7 1007 93 10000 2.6 330 23:53 26.10.2020
6250 Rain 7 1007 93 10000 2.6 330 23:32 26.10.2020
6251 Rain 8 1007 87 10000 2.1 320 22:52 26.10.2020
6252 Rain 8 1007 87 10000 2.1 320 22:28 26.10.2020
6253 Rain 8 1007 87 7000 2.6 320 21:51 26.10.2020
6254 Rain 8 1007 87 7000 2.6 320 21:21 26.10.2020
6255 Rain 9 1008 76 7000 3.6 0 20:58 26.10.2020
6256 Rain 9 1008 76 7000 3.6 0 20:40 26.10.2020
6257 Rain 9 1008 76 7000 3.6 0 20:22 26.10.2020
6258 Rain 10 1008 66 8000 4.6 280 19:48 26.10.2020
6259 Rain 10 1008 66 8000 4.6 280 19:26 26.10.2020
6260 Rain 11 1008 57 9000 4.6 280 18:46 26.10.2020
6261 Rain 11 1008 57 9000 4.6 280 18:25 26.10.2020
6262 Rain 11 1009 57 10000 5.1 290 17:59 26.10.2020
6263 Rain 11 1009 57 10000 5.1 290 17:39 26.10.2020
6264 Rain 11 1009 57 10000 5.1 290 17:21 26.10.2020
6265 Rain 11 1010 57 10000 5.1 270 16:43 26.10.2020
6266 Rain 11 1010 57 10000 5.1 270 16:21 26.10.2020
6267 Rain 10 1011 61 10000 5.7 0 15:43 26.10.2020
6268 Rain 10 1011 61 10000 5.7 0 15:25 26.10.2020
6269 Rain 10 1011 61 10000 5.1 0 14:53 26.10.2020
6270 Rain 10 1011 61 10000 5.1 0 14:34 26.10.2020
6271 Rain 10 1012 57 10000 3.1 0 13:46 26.10.2020
6272 Rain 10 1012 57 10000 3.1 0 13:25 26.10.2020
6273 Clouds 9 1012 61 10000 2.6 0 12:55 26.10.2020
6274 Clouds 9 1012 61 10000 2.6 0 12:32 26.10.2020
6275 Clouds 8 1012 65 10000 4.1 0 11:57 26.10.2020
6276 Clouds 8 1012 65 10000 4.1 0 11:39 26.10.2020
6277 Clouds 8 1012 65 10000 4.1 0 11:21 26.10.2020
6278 Clouds 9 1013 57 10000 3.6 0 10:48 26.10.2020
6279 Clouds 9 1013 57 10000 3.6 0 10:26 26.10.2020
6280 Clouds 9 1014 57 10000 4.1 0 09:55 26.10.2020
6281 Clouds 9 1014 57 10000 4.1 0 09:29 26.10.2020
6282 Clouds 9 1014 57 10000 2.6 0 08:54 26.10.2020
6283 Clouds 9 1014 57 10000 2.6 0 08:24 26.10.2020
6284 Clouds 9 1015 57 10000 4.1 0 07:38 26.10.2020
6285 Clouds 9 1015 57 10000 4.1 0 07:38 26.10.2020
6286 Clouds 9 1015 57 10000 4.1 0 07:38 26.10.2020
6287 Clouds 9 1015 57 10000 4.1 0 07:20 26.10.2020
6288 Clouds 9 1017 79 10000 5.1 250 05:31 26.10.2020
6289 Clouds 9 1018 76 10000 4.1 0 04:19 26.10.2020
6290 Clouds 9 1018 75 10000 6.2 260 03:21 26.10.2020
6291 Clouds 9 1018 75 10000 6.2 260 03:21 26.10.2020
6292 Clouds 9 1018 57 10000 4.6 250 01:34 26.10.2020
6293 Clouds 10 1018 53 10000 4.6 0 00:35 26.10.2020
6294 Clouds 10 1018 53 10000 4.6 0 00:35 26.10.2020
6295 Clouds 10 1018 57 10000 3.1 0 23:46 25.10.2020
6296 Clouds 10 1018 57 10000 3.1 0 23:25 25.10.2020
6297 Rain 10 1018 57 10000 5.1 0 22:45 25.10.2020
6298 Rain 10 1018 57 10000 5.1 0 22:27 25.10.2020
6299 Clouds 11 1017 53 10000 5.1 0 21:51 25.10.2020
6300 Clouds 11 1017 53 10000 5.1 0 21:31 25.10.2020
6301 Clouds 10 1018 57 10000 4.6 0 20:59 25.10.2020
6302 Clouds 10 1018 57 10000 4.6 0 20:40 25.10.2020
6303 Clouds 10 1018 57 10000 4.6 0 20:22 25.10.2020
6304 Clouds 10 1018 57 10000 5.1 270 19:50 25.10.2020
6305 Clouds 10 1018 57 10000 5.1 270 19:27 25.10.2020
6306 Clouds 10 1018 57 10000 5.1 270 18:59 25.10.2020
6307 Clouds 10 1018 57 10000 5.1 270 18:40 25.10.2020
6308 Clouds 10 1018 57 10000 5.1 270 18:21 25.10.2020
6309 Clouds 10 1018 57 10000 6.2 260 17:54 25.10.2020
6310 Clouds 9 1018 61 10000 5.7 280 17:36 25.10.2020
6311 Clouds 9 1018 61 10000 5.7 280 17:18 25.10.2020
6312 Clouds 9 1018 61 10000 5.7 280 16:39 25.10.2020
6313 Clouds 9 1018 61 10000 5.7 280 16:21 25.10.2020
6314 Clouds 8 1018 75 10000 2.6 0 15:47 25.10.2020
6315 Clouds 8 1018 75 10000 2.6 0 15:26 25.10.2020
6316 Clouds 6 1018 87 10000 1.5 330 14:52 25.10.2020
6317 Clouds 6 1018 87 10000 1.5 330 14:29 25.10.2020
6318 Rain 5 1017 86 10000 1 0 13:44 25.10.2020
6319 Rain 5 1017 86 10000 1 0 13:23 25.10.2020
6320 Rain 5 1017 86 10000 1.5 290 12:49 25.10.2020
6321 Rain 5 1017 86 10000 1.5 290 12:27 25.10.2020
6322 Rain 5 1016 86 10000 1 280 11:58 25.10.2020
6323 Rain 5 1016 86 10000 1 280 11:39 25.10.2020
6324 Rain 5 1016 86 10000 1 280 11:19 25.10.2020
6325 Rain 5 1015 86 10000 1 0 10:44 25.10.2020
6326 Rain 5 1015 86 10000 1 0 10:25 25.10.2020
6327 Clouds 5 1015 86 10000 2.1 310 09:48 25.10.2020
6328 Clouds 5 1015 86 10000 2.1 310 09:20 25.10.2020
6329 Clouds 5 1016 86 10000 2.6 350 08:55 25.10.2020
6330 Clouds 5 1016 86 10000 2.6 350 08:36 25.10.2020
6331 Clouds 5 1016 86 10000 2.6 350 08:18 25.10.2020
6332 Clouds 5 1015 86 10000 1.5 0 07:41 25.10.2020
6333 Rain 6 1016 81 10000 2.1 240 06:52 25.10.2020
6334 Rain 6 1016 81 10000 2.1 240 06:19 25.10.2020
6335 Clouds 5 1015 93 10000 1.5 320 04:53 25.10.2020
6336 Rain 6 1015 87 10000 1 0 03:53 25.10.2020
6337 Rain 8 1014 75 10000 5.1 270 02:18 25.10.2020
6338 Rain 12 1011 59 10000 3.6 270 00:49 25.10.2020
6339 Rain 12 1011 49 10000 3.6 270 00:20 25.10.2020
6340 Rain 12 1010 49 10000 3.52 273 23:54 24.10.2020
6341 Rain 11 1012 71 10000 1.5 330 23:26 24.10.2020
6342 Rain 11 1012 71 10000 1.5 330 22:57 24.10.2020
6343 Rain 11 1012 71 10000 1.5 330 22:38 24.10.2020
6344 Rain 11 1012 71 10000 1.5 330 22:20 24.10.2020
6345 Rain 14 1009 46 4416 3.39 292 21:42 24.10.2020
6346 Clouds 13 1012 62 10000 2.1 0 21:21 24.10.2020
6347 Clouds 13 1012 62 10000 2.1 0 20:48 24.10.2020
6348 Rain 13 1012 62 10000 2.1 0 20:23 24.10.2020
6349 Rain 12 1011 66 10000 1.5 0 19:55 24.10.2020
6350 Rain 12 1011 66 10000 1.5 0 19:37 24.10.2020
6351 Rain 12 1011 66 10000 1.5 0 19:19 24.10.2020
6352 Clouds 12 1011 66 10000 4.1 270 18:43 24.10.2020
6353 Clouds 12 1011 66 10000 4.1 270 18:24 24.10.2020
6354 Clouds 12 1011 66 10000 4.1 270 18:24 24.10.2020
6355 Clouds 12 1011 66 10000 4.1 270 17:39 24.10.2020
6356 Rain 12 1012 71 10000 2.6 320 17:21 24.10.2020
6357 Rain 11 1013 81 10000 2.6 330 16:45 24.10.2020
6358 Rain 11 1013 81 10000 2.6 330 16:23 24.10.2020
6359 Rain 10 1013 87 10000 2.1 320 15:41 24.10.2020
6360 Rain 10 1013 87 10000 2.1 320 15:20 24.10.2020
6361 Rain 9 1013 93 10000 2.6 290 14:54 24.10.2020
6362 Rain 9 1013 93 10000 2.6 290 14:29 24.10.2020
6363 Rain 9 1013 93 10000 2.6 280 13:46 24.10.2020
6364 Rain 9 1013 93 10000 2.6 280 13:24 24.10.2020
6365 Rain 8 1012 100 10000 1.5 290 12:48 24.10.2020
6366 Rain 8 1012 100 10000 1.5 290 12:22 24.10.2020
6367 Rain 8 1012 100 10000 1.5 290 11:53 24.10.2020
6368 Rain 8 1012 100 10000 1.5 290 11:35 24.10.2020
6369 Rain 8 1012 100 10000 0.5 0 10:54 24.10.2020
6370 Rain 8 1012 100 10000 0.5 0 10:34 24.10.2020
6371 Rain 8 1012 100 10000 1.5 280 09:55 24.10.2020
6372 Rain 8 1012 100 10000 1.5 280 09:37 24.10.2020
6373 Rain 8 1012 100 10000 1.5 280 09:19 24.10.2020
6374 Rain 8 1013 93 10000 1.92 276 08:20 24.10.2020
6375 Rain 9 1014 93 10000 1.5 290 07:54 24.10.2020
6376 Rain 9 1014 93 10000 1.5 290 07:25 24.10.2020
6377 Rain 9 1013 87 10000 2.6 270 06:53 24.10.2020
6378 Rain 9 1013 87 10000 2.6 270 06:53 24.10.2020
6379 Rain 9 1013 87 10000 2.6 270 06:23 24.10.2020
6380 Rain 11 1014 66 10000 2.1 0 03:35 24.10.2020
6381 Clouds 14 1013 47 10000 4.6 0 01:40 24.10.2020
6382 Clouds 15 1012 44 10000 6.7 270 00:41 24.10.2020
6383 Clouds 15 1012 44 10000 6.7 270 00:21 24.10.2020
6384 Clouds 17 1011 33 10000 3.6 290 23:49 23.10.2020
6385 Clouds 17 1011 33 10000 3.6 290 23:26 23.10.2020
6386 Clouds 18 1011 27 10000 5.1 270 22:57 23.10.2020
6387 Clouds 18 1011 27 10000 5.1 270 22:39 23.10.2020
6388 Clouds 18 1011 27 10000 5.1 270 22:18 23.10.2020
6389 Clouds 18 1011 34 10000 6.2 280 21:45 23.10.2020
6390 Clouds 18 1011 32 10000 6.2 280 21:24 23.10.2020
6391 Clouds 19 1011 32 10000 6.7 280 20:41 23.10.2020
6392 Clouds 19 1011 30 10000 6.7 280 20:23 23.10.2020
6393 Clouds 20 1011 30 10000 6.2 280 19:52 23.10.2020
6394 Clouds 20 1011 29 10000 6.2 280 19:32 23.10.2020
6395 Clouds 18 1012 34 10000 2.6 320 18:55 23.10.2020
6396 Clouds 18 1012 34 10000 2.6 320 18:34 23.10.2020
6397 Clear 16 1012 48 10000 1 0 17:51 23.10.2020
6398 Clear 16 1012 48 10000 1 0 17:26 23.10.2020
6399 Clear 12 1013 62 10000 1.5 0 16:56 23.10.2020
6400 Clear 12 1013 62 10000 1.5 0 16:56 23.10.2020
6401 Clear 12 1013 62 10000 1.5 0 16:37 23.10.2020
6402 Clear 12 1013 62 10000 1.5 0 16:19 23.10.2020
6403 Clouds 10 1014 71 10000 1 0 15:42 23.10.2020
6404 Clouds 10 1014 71 10000 1 0 15:23 23.10.2020
6405 Clouds 8 1015 75 10000 1.56 273 14:51 23.10.2020
6406 Clouds 8 1015 75 10000 1.56 273 14:33 23.10.2020
6407 Clouds 6 1015 87 10000 2.6 310 13:56 23.10.2020
6408 Clouds 6 1015 87 10000 2.6 310 13:37 23.10.2020
6409 Clouds 6 1015 87 10000 2.6 310 13:18 23.10.2020
6410 Clouds 6 1015 87 10000 2.6 310 13:18 23.10.2020
6411 Clouds 5 1015 86 10000 2.6 310 12:42 23.10.2020
6412 Clouds 5 1015 86 10000 2.6 310 12:23 23.10.2020
6413 Clouds 5 1015 86 10000 3.6 300 11:42 23.10.2020
6414 Clouds 5 1015 86 10000 3.6 300 11:20 23.10.2020
6415 Clouds 5 1014 86 10000 3.6 300 10:43 23.10.2020
6416 Clouds 5 1014 86 10000 3.6 300 10:23 23.10.2020
6417 Clouds 5 1014 86 10000 2.6 290 09:43 23.10.2020
6418 Clouds 5 1014 86 10000 2.6 290 09:23 23.10.2020
6419 Clear 5 1014 86 10000 1 0 08:52 23.10.2020
6420 Clear 5 1014 86 10000 1 0 08:28 23.10.2020
6421 Clear 6 1015 75 10000 2.6 300 07:28 23.10.2020
6422 Clear 7 1015 75 10000 1.5 280 06:54 23.10.2020
6423 Clear 7 1015 75 10000 1.5 280 06:20 23.10.2020
6424 Clear 9 1015 66 10000 2.1 290 04:42 23.10.2020
6425 Clear 12 1014 54 10000 1.5 310 02:32 23.10.2020
6426 Clear 20 1013 22 10000 3.1 310 00:56 23.10.2020
6427 Clear 20 1013 22 10000 3.1 310 00:33 23.10.2020
6428 Clear 21 1013 21 10000 4.1 280 23:39 22.10.2020
6429 Clear 21 1013 21 10000 4.1 280 23:19 22.10.2020
6430 Clear 21 1014 19 10000 2.1 0 22:46 22.10.2020
6431 Clear 21 1014 19 10000 2.1 0 22:26 22.10.2020
6432 Clear 21 1014 19 10000 1.5 0 21:58 22.10.2020
6433 Clear 21 1014 19 10000 1.5 0 21:38 22.10.2020
6434 Clear 21 1014 19 10000 1.5 0 21:18 22.10.2020
6435 Clear 20 1015 22 10000 2.1 360 20:43 22.10.2020
6436 Clear 18 1016 27 10000 2.6 350 20:24 22.10.2020
6437 Clear 18 1016 27 10000 2.6 350 19:44 22.10.2020
6438 Clear 18 1016 29 10000 2.6 350 19:21 22.10.2020
6439 Clear 16 1017 31 10000 2.6 320 18:57 22.10.2020
6440 Clear 14 1019 41 10000 1 0 18:36 22.10.2020
6441 Clear 14 1019 41 10000 1 0 18:18 22.10.2020
6442 Clear 14 1019 41 10000 1 0 17:42 22.10.2020
6443 Clear 14 1019 41 10000 1 0 17:20 22.10.2020
6444 Clear 11 1020 57 10000 1.12 240 16:44 22.10.2020
6445 Clear 11 1020 57 10000 1.1 253 16:24 22.10.2020
6446 Clear 8 1020 70 10000 1 0 15:49 22.10.2020
6447 Clear 8 1020 70 10000 1 0 15:27 22.10.2020
6448 Clear 6 1021 75 10000 2.1 300 14:50 22.10.2020
6449 Clear 6 1021 75 10000 2.1 300 14:27 22.10.2020
6450 Clear 3 1021 93 10000 2.1 300 13:57 22.10.2020
6451 Clear 3 1021 93 10000 2.1 300 13:38 22.10.2020
6452 Clear 3 1021 93 10000 2.1 300 13:20 22.10.2020
6453 Clear 2 1021 93 10000 3.1 290 12:28 22.10.2020
6454 Clear 3 1021 86 10000 4.1 300 11:51 22.10.2020
6455 Clear 3 1021 86 10000 4.1 300 11:21 22.10.2020
6456 Clear 4 1021 86 10000 2.6 300 10:56 22.10.2020
6457 Clear 4 1021 86 10000 2.6 300 10:38 22.10.2020
6458 Clear 4 1021 86 10000 2.6 300 10:18 22.10.2020
6459 Clear 4 1021 86 10000 3.1 300 09:42 22.10.2020
6460 Clear 5 1021 80 10000 3.6 300 08:58 22.10.2020
6461 Clear 5 1021 80 10000 3.6 300 08:39 22.10.2020
6462 Clear 5 1021 80 10000 3.6 300 08:39 22.10.2020
6463 Clear 5 1021 80 10000 3.6 300 08:19 22.10.2020
6464 Clear 5 1021 80 10000 3.1 290 07:43 22.10.2020
6465 Clear 7 1021 70 10000 3.1 280 06:59 22.10.2020
6466 Clear 7 1021 70 10000 3.1 280 06:37 22.10.2020
6467 Clear 7 1021 75 10000 3.6 290 05:42 22.10.2020
6468 Clear 7 1021 75 10000 3.6 290 05:22 22.10.2020
6469 Clear 12 1019 50 10000 2.6 320 02:25 22.10.2020
6470 Clear 17 1018 29 10000 2.6 0 00:27 22.10.2020
6471 Clear 19 1017 45 10000 3.6 0 23:58 21.10.2020
6472 Clear 19 1017 45 10000 3.6 0 23:37 21.10.2020
6473 Clear 19 1016 39 10000 5.7 280 22:58 21.10.2020
6474 Clear 19 1016 39 10000 5.7 280 22:36 21.10.2020
6475 Clear 19 1016 36 10000 5.7 280 22:18 21.10.2020
6476 Clear 19 1016 29 10000 4.6 320 21:42 21.10.2020
6477 Clear 19 1016 29 10000 4.6 320 21:19 21.10.2020
6478 Clear 20 1016 32 10000 4.6 300 20:48 21.10.2020
6479 Clear 20 1016 32 10000 4.6 300 20:19 21.10.2020
6480 Clear 18 1017 39 10000 3.6 310 19:57 21.10.2020
6481 Clear 18 1017 39 10000 3.6 310 19:37 21.10.2020
6482 Clear 18 1017 39 10000 3.6 310 19:18 21.10.2020
6483 Clear 18 1017 39 10000 3.6 310 19:18 21.10.2020
6484 Clear 16 1017 44 10000 3.6 320 18:46 21.10.2020
6485 Clear 16 1017 44 10000 3.6 320 18:21 21.10.2020
6486 Clear 13 1018 58 10000 2.1 320 17:43 21.10.2020
6487 Clear 13 1018 58 10000 2.1 320 17:20 21.10.2020
6488 Clear 11 1018 62 10000 1.5 290 16:41 21.10.2020
6489 Clear 11 1018 62 10000 1.5 290 16:22 21.10.2020
6490 Clear 9 1019 70 10000 2.1 300 15:57 21.10.2020
6491 Clear 9 1019 70 10000 2.1 300 15:38 21.10.2020
6492 Clear 9 1019 70 10000 2.1 300 15:19 21.10.2020
6493 Clear 7 1020 75 10000 2.1 270 14:43 21.10.2020
6494 Clouds 7 1020 75 10000 2.1 270 14:25 21.10.2020
6495 Clouds 4 1019 93 10000 2.6 290 13:42 21.10.2020
6496 Clouds 4 1019 93 10000 2.6 290 13:24 21.10.2020
6497 Clouds 4 1019 93 10000 1.5 280 12:47 21.10.2020
6498 Clouds 4 1019 93 10000 1.5 280 12:24 21.10.2020
6499 Clouds 5 1019 86 10000 2.1 290 11:59 21.10.2020
6500 Clouds 5 1019 86 10000 2.1 290 11:40 21.10.2020
6501 Clouds 5 1019 86 10000 2.1 290 11:19 21.10.2020
6502 Clouds 4 1019 93 10000 0.26 5 10:41 21.10.2020
6503 Clouds 4 1019 93 10000 0.32 200 10:21 21.10.2020
6504 Clouds 5 1019 86 10000 0.32 200 09:51 21.10.2020
6505 Clouds 5 1019 86 10000 0.6 183 09:28 21.10.2020
6506 Clouds 5 1019 86 10000 1.5 310 08:42 21.10.2020
6507 Clouds 5 1019 86 10000 1.5 310 08:24 21.10.2020
6508 Clouds 6 1019 81 10000 2.6 300 07:56 21.10.2020
6509 Clouds 6 1019 81 10000 2.6 300 07:56 21.10.2020
6510 Clouds 6 1019 81 10000 2.6 300 07:24 21.10.2020
6511 Clouds 6 1020 81 10000 3.6 290 06:46 21.10.2020
6512 Clouds 6 1020 81 10000 3.6 290 06:24 21.10.2020
6513 Clouds 7 1020 70 10000 2.1 300 03:38 21.10.2020
6514 Clear 16 1019 50 10000 3.1 290 00:31 21.10.2020
6515 Clear 16 1019 31 10000 3.6 310 23:35 20.10.2020
6516 Clear 16 1020 36 10000 2.6 310 22:47 20.10.2020
6517 Clear 16 1020 35 10000 2.6 310 22:25 20.10.2020
6518 Clear 14 1018 35 10000 1.98 217 21:47 20.10.2020
6519 Clear 14 1022 41 10000 2.6 320 21:19 20.10.2020
6520 Clear 14 1022 41 10000 2.6 320 20:43 20.10.2020
6521 Clouds 14 1022 41 10000 2.6 320 20:24 20.10.2020
6522 Clouds 12 1023 40 10000 2.6 0 19:55 20.10.2020
6523 Clouds 12 1023 40 10000 2.6 0 19:37 20.10.2020
6524 Clouds 12 1023 40 10000 2.6 0 19:19 20.10.2020
6525 Clouds 11 1023 43 10000 2.1 290 18:38 20.10.2020
6526 Clouds 9 1024 49 10000 1.03 81 17:57 20.10.2020
6527 Clouds 9 1024 49 10000 1.03 81 17:37 20.10.2020
6528 Clouds 9 1024 49 10000 1.01 80 17:18 20.10.2020
6529 Clouds 7 1025 48 10000 1.5 0 16:41 20.10.2020
6530 Clouds 7 1025 54 10000 1.5 0 16:23 20.10.2020
6531 Clouds 4 1026 54 10000 1.04 87 15:47 20.10.2020
6532 Clouds 4 1026 61 10000 0.74 111 15:28 20.10.2020
6533 Clouds 2 1026 61 10000 1.5 100 14:46 20.10.2020
6534 Clouds 2 1026 70 10000 1.5 100 14:25 20.10.2020
6535 Clouds 0 1026 70 10000 0.52 115 13:59 20.10.2020
6536 Clouds 0 1026 70 10000 0.52 115 13:40 20.10.2020
6537 Clouds 0 1026 79 10000 0.15 226 13:20 20.10.2020
6538 Clouds -1 1026 100 10000 0.15 226 12:50 20.10.2020
6539 Clouds -1 1026 100 10000 0.75 248 12:30 20.10.2020
6540 Clouds -1 1026 100 10000 0.15 226 12:30 20.10.2020
6541 Clouds -1 1026 100 6000 1.5 290 11:47 20.10.2020
6542 Clouds -1 1026 100 6000 1.5 290 11:28 20.10.2020
6543 Clouds -1 1026 100 10000 1 0 10:43 20.10.2020
6544 Clouds -1 1026 100 10000 1 0 10:25 20.10.2020
6545 Clouds -1 1025 100 10000 1 0 09:44 20.10.2020
6546 Clouds -1 1025 100 10000 1 0 09:19 20.10.2020
6547 Clouds 0 1025 87 10000 1.12 273 08:39 20.10.2020
6548 Clouds 0 1025 86 10000 1.3 267 08:19 20.10.2020
6549 Clouds 0 1026 87 10000 1.23 269 07:42 20.10.2020
6550 Clouds 0 1026 84 10000 1.56 266 07:21 20.10.2020
6551 Clouds 1 1025 84 10000 1.5 300 06:19 20.10.2020
6552 Clear 3 1025 82 10000 3.1 300 04:27 20.10.2020
6553 Clear 5 1024 78 10000 0.5 0 02:30 20.10.2020
6554 Clouds 8 1023 63 10000 2.1 0 01:22 20.10.2020
6555 Clouds 9 1022 63 10000 7.2 290 00:51 20.10.2020
6556 Clouds 9 1022 54 10000 7.2 290 00:26 20.10.2020
6557 Clouds 10 1021 46 10000 6.2 280 23:51 19.10.2020
6558 Clouds 10 1021 46 10000 6.2 280 23:25 19.10.2020
6559 Clouds 10 1021 43 10000 5.1 290 22:54 19.10.2020
6560 Clouds 10 1021 43 10000 5.1 290 22:26 19.10.2020
6561 Clouds 10 1021 39 10000 5.1 280 21:50 19.10.2020
6562 Clouds 10 1021 39 10000 5.1 280 21:23 19.10.2020
6563 Clouds 11 1020 37 10000 10.3 290 20:54 19.10.2020
6564 Clouds 11 1020 37 10000 10.3 290 20:36 19.10.2020
6565 Clouds 11 1019 40 10000 9.3 290 19:59 19.10.2020
6566 Clouds 11 1019 40 10000 9.3 290 19:41 19.10.2020
6567 Clouds 11 1019 40 10000 9.3 290 19:19 19.10.2020
6568 Clouds 10 1018 39 10000 10.8 290 18:43 19.10.2020
6569 Clouds 10 1018 39 10000 10.8 290 18:19 19.10.2020
6570 Clouds 9 1018 45 10000 9.3 290 17:46 19.10.2020
6571 Clouds 9 1018 45 10000 9.3 290 17:26 19.10.2020
6572 Clouds 8 1018 49 10000 9.3 290 16:52 19.10.2020
6573 Clouds 8 1018 49 10000 9.3 290 16:29 19.10.2020
6574 Clouds 6 1018 62 10000 3.91 263 15:46 19.10.2020
6575 Clouds 5 1018 68 10000 3.98 254 15:25 19.10.2020
6576 Clouds 5 1018 68 10000 3.98 254 14:53 19.10.2020
6577 Clouds 4 1017 73 10000 3.59 256 14:28 19.10.2020
6578 Clouds 4 1017 73 10000 3.59 256 13:55 19.10.2020
6579 Clouds 4 1017 72 8026 3.3 257 13:37 19.10.2020
6580 Clouds 4 1016 77 7458 2.84 258 13:18 19.10.2020
6581 Clouds 4 1016 77 7458 2.84 258 12:43 19.10.2020
6582 Clouds 3 1015 82 7103 2.02 274 12:25 19.10.2020
6583 Clouds 3 1015 82 7103 2.02 274 11:42 19.10.2020
6584 Rain 4 1014 80 10000 3.1 240 11:21 19.10.2020
6585 Rain 4 1014 80 10000 3.1 240 10:44 19.10.2020
6586 Rain 4 1014 80 10000 3.1 240 10:44 19.10.2020
6587 Rain 4 1014 80 10000 3.1 240 10:21 19.10.2020
6588 Rain 4 1013 86 10000 7.2 290 09:52 19.10.2020
6589 Rain 4 1013 86 10000 7.2 290 09:23 19.10.2020
6590 Rain 5 1012 80 10000 5.7 300 08:49 19.10.2020
6591 Rain 5 1012 80 10000 5.7 300 08:23 19.10.2020
6592 Rain 4 1013 86 10000 4.6 270 07:55 19.10.2020
6593 Rain 4 1013 86 10000 4.6 270 07:20 19.10.2020
6594 Rain 5 1012 80 10000 5.7 270 06:19 19.10.2020
6595 Rain 7 1010 65 10000 7.7 270 04:29 19.10.2020
6596 Rain 6 1010 75 10000 5.1 260 03:42 19.10.2020
6597 Rain 7 1007 81 10000 8.2 290 00:59 19.10.2020
6598 Rain 7 1007 81 10000 8.2 290 00:25 19.10.2020
6599 Rain 7 1006 81 9000 5.7 270 23:48 18.10.2020
6600 Rain 7 1006 81 9000 5.7 270 23:25 18.10.2020
6601 Rain 6 1006 87 8000 4.1 220 22:52 18.10.2020
6602 Rain 6 1006 87 8000 4.1 220 22:22 18.10.2020
6603 Rain 6 1006 87 8000 5.1 250 21:56 18.10.2020
6604 Rain 6 1006 87 8000 5.1 250 21:37 18.10.2020
6605 Rain 6 1006 87 8000 5.1 250 21:18 18.10.2020
6606 Rain 8 1005 75 10000 4.6 250 20:40 18.10.2020
6607 Rain 8 1005 75 10000 4.6 250 20:19 18.10.2020
6608 Rain 11 1004 51 10000 7.7 280 19:43 18.10.2020
6609 Rain 11 1004 52 10000 7.7 280 19:25 18.10.2020
6610 Rain 9 1006 70 10000 5.7 270 18:49 18.10.2020
6611 Rain 9 1006 70 10000 5.7 270 18:28 18.10.2020
6612 Rain 9 1006 66 10000 5.1 260 17:44 18.10.2020
6613 Rain 9 1006 66 10000 5.1 260 17:25 18.10.2020
6614 Rain 8 1006 75 10000 3.1 0 16:46 18.10.2020
6615 Rain 8 1006 75 10000 3.1 0 16:27 18.10.2020
6616 Rain 7 1006 81 10000 4.1 210 15:59 18.10.2020
6617 Rain 7 1006 81 10000 4.1 210 15:41 18.10.2020
6618 Rain 7 1006 81 10000 4.1 210 15:19 18.10.2020
6619 Clouds 7 1006 81 10000 3.6 350 14:53 18.10.2020
6620 Rain 7 1006 81 10000 3.6 350 14:28 18.10.2020
6621 Rain 6 1006 93 10000 2.1 340 13:56 18.10.2020
6622 Rain 6 1006 93 10000 2.1 340 13:37 18.10.2020
6623 Rain 6 1006 93 10000 2.1 340 13:18 18.10.2020
6624 Rain 6 1006 87 9000 2.6 0 12:41 18.10.2020
6625 Rain 6 1006 87 9000 2.6 0 12:21 18.10.2020
6626 Rain 6 1005 93 10000 3.1 300 11:41 18.10.2020
6627 Rain 6 1005 93 10000 3.1 300 11:22 18.10.2020
6628 Rain 6 1005 93 10000 1.5 0 10:41 18.10.2020
6629 Rain 6 1005 93 10000 1.5 0 10:21 18.10.2020
6630 Rain 6 1006 87 10000 2.1 320 09:51 18.10.2020
6631 Rain 6 1006 87 10000 2.1 320 09:23 18.10.2020
6632 Rain 6 1006 87 10000 2.1 320 09:23 18.10.2020
6633 Rain 6 1007 87 10000 5.1 270 08:58 18.10.2020
6634 Rain 6 1007 87 10000 5.1 270 08:37 18.10.2020
6635 Rain 6 1007 87 10000 5.1 270 08:19 18.10.2020
6636 Rain 7 1008 81 10000 4.6 240 07:29 18.10.2020
6637 Rain 8 1008 70 10000 4.6 0 04:50 18.10.2020
6638 Rain 9 1008 76 10000 4.6 270 02:56 18.10.2020
6639 Rain 8 1007 81 10000 3.1 0 01:39 18.10.2020
6640 Rain 9 1007 81 8000 4.6 240 00:50 18.10.2020
6641 Rain 9 1007 81 8000 4.6 240 00:32 18.10.2020
6642 Rain 11 1006 76 10000 4.6 240 23:45 17.10.2020
6643 Rain 11 1006 76 10000 4.6 240 23:23 17.10.2020
6644 Rain 12 1005 71 10000 6.7 270 22:59 17.10.2020
6645 Rain 12 1005 71 10000 6.7 270 22:40 17.10.2020
6646 Rain 12 1005 71 10000 6.7 270 22:19 17.10.2020
6647 Clouds 17 1004 36 10000 6.2 270 21:44 17.10.2020
6648 Clouds 17 1004 36 10000 6.2 270 21:22 17.10.2020
6649 Clouds 18 1004 31 10000 8.2 270 20:48 17.10.2020
6650 Clouds 18 1004 31 10000 8.2 270 20:21 17.10.2020
6651 Clouds 18 1004 31 10000 8.2 270 20:21 17.10.2020
6652 Clouds 19 1004 29 10000 8.2 270 19:46 17.10.2020
6653 Clouds 19 1004 29 10000 8.2 270 19:24 17.10.2020
6654 Clouds 20 1005 28 10000 6.7 270 18:47 17.10.2020
6655 Clouds 20 1005 33 10000 6.7 270 18:29 17.10.2020
6656 Clouds 19 1006 25 10000 6.2 280 17:59 17.10.2020
6657 Clouds 19 1006 25 10000 6.2 280 17:40 17.10.2020
6658 Clouds 19 1006 25 10000 6.2 280 17:20 17.10.2020
6659 Clouds 14 1007 58 10000 1 0 16:48 17.10.2020
6660 Clouds 14 1007 58 10000 1 0 16:22 17.10.2020
6661 Clouds 12 1008 66 10000 3.6 290 15:43 17.10.2020
6662 Clouds 12 1008 66 10000 3.6 290 15:23 17.10.2020
6663 Clouds 9 1009 76 10000 3.1 290 14:59 17.10.2020
6664 Clouds 9 1009 76 10000 3.1 290 14:38 17.10.2020
6665 Clouds 9 1009 76 10000 3.1 290 14:19 17.10.2020
6666 Clouds 6 1009 87 10000 2.1 270 13:45 17.10.2020
6667 Clouds 6 1009 87 10000 2.1 270 13:26 17.10.2020
6668 Clouds 5 1010 86 10000 2.1 280 12:59 17.10.2020
6669 Clouds 5 1010 86 10000 2.1 280 12:38 17.10.2020
6670 Clouds 5 1010 86 10000 2.1 280 12:18 17.10.2020
6671 Clouds 5 1010 86 10000 2.1 290